<?xml version='1.0' encoding='UTF-8'?><gpx version="1.1" creator="JPX - https://github.com/jenetics/jpx" xmlns="http://www.topografix.com/GPX/1/1"><trk><trkseg><trkpt lat="44.32487079456841" lon="11.78666110790494"><ele>44.0</ele><time>2026-03-29T12:41:46.999Z</time></trkpt><trkpt lat="44.32491739814247" lon="11.786559356708475"><ele>44.0</ele><time>2026-03-29T12:41:48.999Z</time></trkpt><trkpt lat="44.324938983614544" lon="11.786459546165922"><ele>44.0</ele><time>2026-03-29T12:41:50.999Z</time></trkpt><trkpt lat="44.32489818917979" lon="11.786379184472564"><ele>44.0</ele><time>2026-03-29T12:41:59.999Z</time></trkpt><trkpt lat="44.32483087898507" lon="11.786463759959313"><ele>44.0</ele><time>2026-03-29T12:42:01.999Z</time></trkpt><trkpt lat="44.324789805929605" lon="11.786563435675195"><ele>44.0</ele><time>2026-03-29T12:42:02.999Z</time></trkpt><trkpt lat="44.32475276453011" lon="11.786655555922959"><ele>44.0</ele><time>2026-03-29T12:42:03.999Z</time></trkpt><trkpt lat="44.32470853052194" lon="11.786754901878403"><ele>44.0</ele><time>2026-03-29T12:42:04.999Z</time></trkpt><trkpt lat="44.3246611209287" lon="11.78687063319659"><ele>44.0</ele><time>2026-03-29T12:42:05.999Z</time></trkpt><trkpt lat="44.324624348244285" lon="11.786984764164389"><ele>44.0</ele><time>2026-03-29T12:42:06.999Z</time></trkpt><trkpt lat="44.324582395158096" lon="11.787110409889822"><ele>44.0</ele><time>2026-03-29T12:42:07.998Z</time></trkpt><trkpt lat="44.324525165444435" lon="11.787263553873192"><ele>44.0</ele><time>2026-03-29T12:42:08.998Z</time></trkpt><trkpt lat="44.32446819577458" lon="11.787401747721482"><ele>44.0</ele><time>2026-03-29T12:42:09.998Z</time></trkpt><trkpt lat="44.324416246138206" lon="11.787518721357124"><ele>44.0</ele><time>2026-03-29T12:42:10.998Z</time></trkpt><trkpt lat="44.32436053434447" lon="11.787669976576204"><ele>44.0</ele><time>2026-03-29T12:42:11.998Z</time></trkpt><trkpt lat="44.32429586883037" lon="11.78782886350133"><ele>44.25</ele><time>2026-03-29T12:42:12.998Z</time></trkpt><trkpt lat="44.32422252231067" lon="11.787997408094968"><ele>44.5</ele><time>2026-03-29T12:42:13.998Z</time></trkpt><trkpt lat="44.32415242361346" lon="11.788167907419696"><ele>44.75</ele><time>2026-03-29T12:42:14.998Z</time></trkpt><trkpt lat="44.32409193962374" lon="11.788314759451376"><ele>45.0</ele><time>2026-03-29T12:42:15.998Z</time></trkpt><trkpt lat="44.324033412661734" lon="11.788443183162446"><ele>45.2</ele><time>2026-03-29T12:42:16.998Z</time></trkpt><trkpt lat="44.3239866921318" lon="11.788553187829736"><ele>45.4</ele><time>2026-03-29T12:42:17.998Z</time></trkpt><trkpt lat="44.32394562111982" lon="11.788653329998676"><ele>45.599999999999994</ele><time>2026-03-29T12:42:19Z</time></trkpt><trkpt lat="44.323894392730004" lon="11.788716971132814"><ele>45.8</ele><time>2026-03-29T12:42:20Z</time></trkpt><trkpt lat="44.32377010072915" lon="11.78860258023707"><ele>46.0</ele><time>2026-03-29T12:42:22Z</time></trkpt><trkpt lat="44.32366236165139" lon="11.788517500885241"><ele>45.5</ele><time>2026-03-29T12:42:23Z</time></trkpt><trkpt lat="44.323538961754565" lon="11.788440996138657"><ele>45.0</ele><time>2026-03-29T12:42:24Z</time></trkpt><trkpt lat="44.32341512462732" lon="11.788333105021044"><ele>44.5</ele><time>2026-03-29T12:42:25Z</time></trkpt><trkpt lat="44.323279339435736" lon="11.7882255555911"><ele>44.0</ele><time>2026-03-29T12:42:26Z</time></trkpt><trkpt lat="44.32316695302779" lon="11.788130827657877"><ele>44.5</ele><time>2026-03-29T12:42:27Z</time></trkpt><trkpt lat="44.323062637318664" lon="11.788050522992108"><ele>45.0</ele><time>2026-03-29T12:42:28Z</time></trkpt><trkpt lat="44.32295976196593" lon="11.787972337734262"><ele>45.5</ele><time>2026-03-29T12:42:29Z</time></trkpt><trkpt lat="44.322871038078254" lon="11.787904743121146"><ele>46.0</ele><time>2026-03-29T12:42:30Z</time></trkpt><trkpt lat="44.32277156253429" lon="11.78782941486545"><ele>46.0</ele><time>2026-03-29T12:42:31Z</time></trkpt><trkpt lat="44.322689896669395" lon="11.787750796895965"><ele>46.0</ele><time>2026-03-29T12:42:32Z</time></trkpt><trkpt lat="44.32261403312622" lon="11.787718377633395"><ele>46.0</ele><time>2026-03-29T12:42:33Z</time></trkpt><trkpt lat="44.32258078073475" lon="11.787630759940997"><ele>46.0</ele><time>2026-03-29T12:42:34Z</time></trkpt><trkpt lat="44.322697082846176" lon="11.787455260813068"><ele>46.0</ele><time>2026-03-29T12:42:36Z</time></trkpt><trkpt lat="44.32275693001527" lon="11.78731370507515"><ele>45.75</ele><time>2026-03-29T12:42:37Z</time></trkpt><trkpt lat="44.322822721161515" lon="11.787157259332702"><ele>45.5</ele><time>2026-03-29T12:42:38Z</time></trkpt><trkpt lat="44.322895401" lon="11.786981741153474"><ele>45.25</ele><time>2026-03-29T12:42:39Z</time></trkpt><trkpt lat="44.32296002620809" lon="11.786825674385655"><ele>45.0</ele><time>2026-03-29T12:42:40Z</time></trkpt><trkpt lat="44.32300219785109" lon="11.786683793316566"><ele>45.0</ele><time>2026-03-29T12:42:41Z</time></trkpt><trkpt lat="44.32305418356336" lon="11.786568553840922"><ele>45.0</ele><time>2026-03-29T12:42:42Z</time></trkpt><trkpt lat="44.323102603691495" lon="11.786477788429119"><ele>45.0</ele><time>2026-03-29T12:42:43Z</time></trkpt><trkpt lat="44.32312659449827" lon="11.786395800237836"><ele>45.0</ele><time>2026-03-29T12:42:44Z</time></trkpt><trkpt lat="44.323027748511386" lon="11.786259552585417"><ele>45.0</ele><time>2026-03-29T12:42:47Z</time></trkpt><trkpt lat="44.32318463854813" lon="11.786278421002853"><ele>45.0</ele><time>2026-03-29T12:42:48Z</time></trkpt><trkpt lat="44.323230665056215" lon="11.786165192775314"><ele>45.0</ele><time>2026-03-29T12:42:49Z</time></trkpt><trkpt lat="44.32328936837281" lon="11.786020778979411"><ele>45.0</ele><time>2026-03-29T12:42:50Z</time></trkpt><trkpt lat="44.32334825794922" lon="11.785875907094562"><ele>45.0</ele><time>2026-03-29T12:42:51Z</time></trkpt><trkpt lat="44.32341505776537" lon="11.785711107690785"><ele>45.0</ele><time>2026-03-29T12:42:52Z</time></trkpt><trkpt lat="44.323499293681635" lon="11.785503020044686"><ele>45.0</ele><time>2026-03-29T12:42:53Z</time></trkpt><trkpt lat="44.323592734340124" lon="11.785272193777539"><ele>45.0</ele><time>2026-03-29T12:42:54Z</time></trkpt><trkpt lat="44.32369599336221" lon="11.785017113665802"><ele>45.0</ele><time>2026-03-29T12:42:55Z</time></trkpt><trkpt lat="44.32380777072708" lon="11.784740989820364"><ele>45.0</ele><time>2026-03-29T12:42:56Z</time></trkpt><trkpt lat="44.323906382857196" lon="11.784497229050036"><ele>45.0</ele><time>2026-03-29T12:42:57Z</time></trkpt><trkpt lat="44.32399043616802" lon="11.784285729687467"><ele>45.2</ele><time>2026-03-29T12:42:58Z</time></trkpt><trkpt lat="44.32405410142657" lon="11.784127003824905"><ele>45.4</ele><time>2026-03-29T12:42:59Z</time></trkpt><trkpt lat="44.324115028211956" lon="11.783976856296116"><ele>45.599999999999994</ele><time>2026-03-29T12:43:00Z</time></trkpt><trkpt lat="44.32416636485569" lon="11.78385524758646"><ele>45.8</ele><time>2026-03-29T12:43:01Z</time></trkpt><trkpt lat="44.32420408475422" lon="11.783766509727226"><ele>46.0</ele><time>2026-03-29T12:43:02Z</time></trkpt><trkpt lat="44.32424714214444" lon="11.783665216405653"><ele>45.66666666666667</ele><time>2026-03-29T12:43:03.999Z</time></trkpt><trkpt lat="44.3240167939105" lon="11.783464446903576"><ele>45.333333333333336</ele><time>2026-03-29T12:43:04.999Z</time></trkpt><trkpt lat="44.323902225220074" lon="11.783387857235152"><ele>45.0</ele><time>2026-03-29T12:43:05.999Z</time></trkpt><trkpt lat="44.32374704213288" lon="11.78325929006674"><ele>44.5</ele><time>2026-03-29T12:43:06.999Z</time></trkpt><trkpt lat="44.32361073452563" lon="11.783131853011175"><ele>44.0</ele><time>2026-03-29T12:43:07.999Z</time></trkpt><trkpt lat="44.32349512850266" lon="11.783024676195305"><ele>43.5</ele><time>2026-03-29T12:43:08.999Z</time></trkpt><trkpt lat="44.32341895610118" lon="11.782949937781904"><ele>43.0</ele><time>2026-03-29T12:43:09.999Z</time></trkpt><trkpt lat="44.323366638066624" lon="11.7828938071333"><ele>43.0</ele><time>2026-03-29T12:43:10.999Z</time></trkpt><trkpt lat="44.32334357960924" lon="11.782771461901058"><ele>43.0</ele><time>2026-03-29T12:43:12.999Z</time></trkpt><trkpt lat="44.32329575937649" lon="11.782606610259956"><ele>43.0</ele><time>2026-03-29T12:43:14.999Z</time></trkpt><trkpt lat="44.32322919922591" lon="11.782457592903734"><ele>43.0</ele><time>2026-03-29T12:43:15.999Z</time></trkpt><trkpt lat="44.32314583262589" lon="11.782270173689708"><ele>43.333333333333336</ele><time>2026-03-29T12:43:16.999Z</time></trkpt><trkpt lat="44.32304178297273" lon="11.78206488832661"><ele>43.666666666666664</ele><time>2026-03-29T12:43:17.999Z</time></trkpt><trkpt lat="44.32291385948102" lon="11.781850084267841"><ele>44.0</ele><time>2026-03-29T12:43:18.999Z</time></trkpt><trkpt lat="44.322826267181846" lon="11.781657790633659"><ele>44.25</ele><time>2026-03-29T12:43:19.999Z</time></trkpt><trkpt lat="44.32276724717061" lon="11.78147620405202"><ele>44.5</ele><time>2026-03-29T12:43:20.999Z</time></trkpt><trkpt lat="44.32271515501169" lon="11.781311020155275"><ele>44.75</ele><time>2026-03-29T12:43:21.999Z</time></trkpt><trkpt lat="44.32266489849449" lon="11.781192768698299"><ele>45.0</ele><time>2026-03-29T12:43:22.999Z</time></trkpt><trkpt lat="44.32261183655576" lon="11.781088305244776"><ele>45.25</ele><time>2026-03-29T12:43:23.999Z</time></trkpt><trkpt lat="44.32255045197806" lon="11.780945885329242"><ele>45.5</ele><time>2026-03-29T12:43:24.999Z</time></trkpt><trkpt lat="44.322502833117426" lon="11.780767298929867"><ele>45.75</ele><time>2026-03-29T12:43:25.999Z</time></trkpt><trkpt lat="44.32245153146198" lon="11.780584871144873"><ele>46.0</ele><time>2026-03-29T12:43:26.999Z</time></trkpt><trkpt lat="44.32241095048916" lon="11.780399212066321"><ele>46.0</ele><time>2026-03-29T12:43:27.999Z</time></trkpt><trkpt lat="44.32243576247627" lon="11.780258774182913"><ele>46.0</ele><time>2026-03-29T12:43:28.999Z</time></trkpt><trkpt lat="44.32250852806444" lon="11.780170255784128"><ele>46.0</ele><time>2026-03-29T12:43:29.999Z</time></trkpt><trkpt lat="44.322586593427005" lon="11.780152497595294"><ele>46.0</ele><time>2026-03-29T12:43:30.999Z</time></trkpt><trkpt lat="44.32264743760603" lon="11.780187760913106"><ele>46.0</ele><time>2026-03-29T12:43:31.999Z</time></trkpt><trkpt lat="44.32271307022671" lon="11.7802931297682"><ele>46.0</ele><time>2026-03-29T12:43:33.999Z</time></trkpt><trkpt lat="44.32271606147268" lon="11.780383079373118"><ele>46.0</ele><time>2026-03-29T12:43:35.999Z</time></trkpt><trkpt lat="44.32270031574258" lon="11.780473830075216"><ele>46.0</ele><time>2026-03-29T12:43:37.999Z</time></trkpt><trkpt lat="44.32265358459753" lon="11.780608940300949"><ele>46.0</ele><time>2026-03-29T12:43:39.999Z</time></trkpt><trkpt lat="44.32254993747528" lon="11.780595337962223"><ele>46.0</ele><time>2026-03-29T12:43:41.999Z</time></trkpt><trkpt lat="44.32250872017509" lon="11.780508439084443"><ele>46.0</ele><time>2026-03-29T12:43:42.999Z</time></trkpt><trkpt lat="44.32248219196491" lon="11.780391823439368"><ele>46.0</ele><time>2026-03-29T12:43:43.999Z</time></trkpt><trkpt lat="44.322470244085345" lon="11.780265494609285"><ele>46.0</ele><time>2026-03-29T12:43:44.999Z</time></trkpt><trkpt lat="44.3225016954006" lon="11.780176910021869"><ele>46.0</ele><time>2026-03-29T12:43:46.999Z</time></trkpt><trkpt lat="44.322577285698856" lon="11.780140832333194"><ele>46.0</ele><time>2026-03-29T12:43:50.999Z</time></trkpt><trkpt lat="44.32266895070195" lon="11.780217400857966"><ele>46.0</ele><time>2026-03-29T12:43:52.999Z</time></trkpt><trkpt lat="44.32271521596778" lon="11.780328950223256"><ele>46.0</ele><time>2026-03-29T12:43:53.999Z</time></trkpt><trkpt lat="44.322741164733515" lon="11.780464938246368"><ele>46.0</ele><time>2026-03-29T12:43:54.999Z</time></trkpt><trkpt lat="44.32274467888581" lon="11.780636681307389"><ele>46.0</ele><time>2026-03-29T12:43:55.999Z</time></trkpt><trkpt lat="44.322702805563715" lon="11.780841376427931"><ele>46.0</ele><time>2026-03-29T12:43:56.999Z</time></trkpt><trkpt lat="44.322690072358675" lon="11.781025893796716"><ele>46.0</ele><time>2026-03-29T12:43:57.999Z</time></trkpt><trkpt lat="44.322701552023624" lon="11.781198719399919"><ele>45.8</ele><time>2026-03-29T12:43:58.999Z</time></trkpt><trkpt lat="44.322710382644175" lon="11.781350194242115"><ele>45.599999999999994</ele><time>2026-03-29T12:43:59.999Z</time></trkpt><trkpt lat="44.322716007034664" lon="11.78147321882066"><ele>45.4</ele><time>2026-03-29T12:44:00.999Z</time></trkpt><trkpt lat="44.322716317232235" lon="11.781591036339657"><ele>45.2</ele><time>2026-03-29T12:44:01.999Z</time></trkpt><trkpt lat="44.32275002915665" lon="11.781734439613135"><ele>45.0</ele><time>2026-03-29T12:44:02.999Z</time></trkpt><trkpt lat="44.3227769720306" lon="11.781874556767272"><ele>44.8</ele><time>2026-03-29T12:44:03.999Z</time></trkpt><trkpt lat="44.32281247255138" lon="11.782026216783526"><ele>44.6</ele><time>2026-03-29T12:44:04.999Z</time></trkpt><trkpt lat="44.322845412900904" lon="11.78219284909185"><ele>44.400000000000006</ele><time>2026-03-29T12:44:05.999Z</time></trkpt><trkpt lat="44.32289716144376" lon="11.78233159678524"><ele>44.2</ele><time>2026-03-29T12:44:06.999Z</time></trkpt><trkpt lat="44.322972952449994" lon="11.782415095959587"><ele>44.0</ele><time>2026-03-29T12:44:07.999Z</time></trkpt><trkpt lat="44.32304559343886" lon="11.78246975133381"><ele>44.166666666666664</ele><time>2026-03-29T12:44:08.999Z</time></trkpt><trkpt lat="44.323108039431865" lon="11.78252463953969"><ele>44.33333333333333</ele><time>2026-03-29T12:44:09.999Z</time></trkpt><trkpt lat="44.32317020942486" lon="11.782601190196894"><ele>44.5</ele><time>2026-03-29T12:44:10.999Z</time></trkpt><trkpt lat="44.32323663227271" lon="11.78267305740921"><ele>44.666666666666664</ele><time>2026-03-29T12:44:11.998Z</time></trkpt><trkpt lat="44.3232960184791" lon="11.782726283437228"><ele>44.833333333333336</ele><time>2026-03-29T12:44:12.998Z</time></trkpt><trkpt lat="44.32334875413289" lon="11.782819288344264"><ele>45.0</ele><time>2026-03-29T12:44:14.998Z</time></trkpt><trkpt lat="44.32338422309194" lon="11.78294391897767"><ele>44.6</ele><time>2026-03-29T12:44:16.998Z</time></trkpt><trkpt lat="44.32343219028117" lon="11.783019266533213"><ele>44.2</ele><time>2026-03-29T12:44:17.998Z</time></trkpt><trkpt lat="44.32351775486258" lon="11.783089949355256"><ele>43.8</ele><time>2026-03-29T12:44:18.998Z</time></trkpt><trkpt lat="44.323608197603996" lon="11.783171221436348"><ele>43.4</ele><time>2026-03-29T12:44:19.998Z</time></trkpt><trkpt lat="44.3237299143377" lon="11.783267461128494"><ele>43.0</ele><time>2026-03-29T12:44:20.998Z</time></trkpt><trkpt lat="44.32384910569667" lon="11.78337312648323"><ele>43.4</ele><time>2026-03-29T12:44:21.998Z</time></trkpt><trkpt lat="44.323944610830175" lon="11.783455783136693"><ele>43.8</ele><time>2026-03-29T12:44:22.998Z</time></trkpt><trkpt lat="44.32401291909166" lon="11.783525879700465"><ele>44.2</ele><time>2026-03-29T12:44:23.998Z</time></trkpt><trkpt lat="44.32407343000867" lon="11.783593021119064"><ele>44.6</ele><time>2026-03-29T12:44:25Z</time></trkpt><trkpt lat="44.32412331213929" lon="11.783751284916674"><ele>45.0</ele><time>2026-03-29T12:44:27Z</time></trkpt><trkpt lat="44.324094257258544" lon="11.783854539257241"><ele>45.333333333333336</ele><time>2026-03-29T12:44:28Z</time></trkpt><trkpt lat="44.3240297795139" lon="11.783993183603505"><ele>45.66666666666667</ele><time>2026-03-29T12:44:29Z</time></trkpt><trkpt lat="44.32393611608084" lon="11.78415652491474"><ele>46.0</ele><time>2026-03-29T12:44:30Z</time></trkpt><trkpt lat="44.323882725643884" lon="11.784413106688422"><ele>45.0</ele><time>2026-03-29T12:44:31Z</time></trkpt><trkpt lat="44.32376778892137" lon="11.784698110286369"><ele>44.0</ele><time>2026-03-29T12:44:32Z</time></trkpt><trkpt lat="44.32364935395866" lon="11.784990680115007"><ele>44.33333333333333</ele><time>2026-03-29T12:44:33Z</time></trkpt><trkpt lat="44.32354668138959" lon="11.785244311984764"><ele>44.666666666666664</ele><time>2026-03-29T12:44:34Z</time></trkpt><trkpt lat="44.32346895214743" lon="11.785436326188597"><ele>45.0</ele><time>2026-03-29T12:44:35Z</time></trkpt><trkpt lat="44.32340129880141" lon="11.785603450282041"><ele>45.0</ele><time>2026-03-29T12:44:36Z</time></trkpt><trkpt lat="44.32334590985537" lon="11.785740277350733"><ele>45.0</ele><time>2026-03-29T12:44:37Z</time></trkpt><trkpt lat="44.32329492137931" lon="11.785865916911533"><ele>45.0</ele><time>2026-03-29T12:44:38Z</time></trkpt><trkpt lat="44.323252500409495" lon="11.785970275144964"><ele>45.0</ele><time>2026-03-29T12:44:39Z</time></trkpt><trkpt lat="44.323212781115245" lon="11.786067987168591"><ele>45.0</ele><time>2026-03-29T12:44:40Z</time></trkpt><trkpt lat="44.32315489798859" lon="11.786210382989271"><ele>45.0</ele><time>2026-03-29T12:44:42Z</time></trkpt><trkpt lat="44.32311620181029" lon="11.786305578043825"><ele>45.0</ele><time>2026-03-29T12:44:44Z</time></trkpt><trkpt lat="44.32291695735814" lon="11.786105413261387"><ele>45.0</ele><time>2026-03-29T12:44:45Z</time></trkpt><trkpt lat="44.32287256662273" lon="11.786021897713004"><ele>45.0</ele><time>2026-03-29T12:44:46Z</time></trkpt><trkpt lat="44.322849105790326" lon="11.7859338510925"><ele>44.666666666666664</ele><time>2026-03-29T12:44:47Z</time></trkpt><trkpt lat="44.322830026476424" lon="11.785849844511963"><ele>44.333333333333336</ele><time>2026-03-29T12:44:48Z</time></trkpt><trkpt lat="44.32278434042359" lon="11.785720025140892"><ele>44.0</ele><time>2026-03-29T12:44:50Z</time></trkpt><trkpt lat="44.3227617339384" lon="11.785603040328239"><ele>43.66666666666667</ele><time>2026-03-29T12:44:53Z</time></trkpt><trkpt lat="44.32272064304998" lon="11.785487819161029"><ele>43.333333333333336</ele><time>2026-03-29T12:44:55Z</time></trkpt><trkpt lat="44.32263037994718" lon="11.785446358070605"><ele>43.0</ele><time>2026-03-29T12:44:56Z</time></trkpt><trkpt lat="44.32252219487006" lon="11.785361845421683"><ele>43.0</ele><time>2026-03-29T12:44:57Z</time></trkpt><trkpt lat="44.3223818486176" lon="11.785241969115123"><ele>43.0</ele><time>2026-03-29T12:44:58Z</time></trkpt><trkpt lat="44.32221859923836" lon="11.785098160129657"><ele>43.0</ele><time>2026-03-29T12:44:59Z</time></trkpt><trkpt lat="44.32206374189074" lon="11.784954189060223"><ele>43.25</ele><time>2026-03-29T12:45:00Z</time></trkpt><trkpt lat="44.32193837852941" lon="11.784850571766786"><ele>43.5</ele><time>2026-03-29T12:45:01Z</time></trkpt><trkpt lat="44.321832573869585" lon="11.784761187686557"><ele>43.75</ele><time>2026-03-29T12:45:02Z</time></trkpt><trkpt lat="44.3217476858259" lon="11.784683263917367"><ele>44.0</ele><time>2026-03-29T12:45:03Z</time></trkpt><trkpt lat="44.321665687839705" lon="11.78461228693513"><ele>44.0</ele><time>2026-03-29T12:45:04Z</time></trkpt><trkpt lat="44.321591213195475" lon="11.784546845572423"><ele>44.0</ele><time>2026-03-29T12:45:05Z</time></trkpt><trkpt lat="44.321531166622584" lon="11.784494503954342"><ele>44.0</ele><time>2026-03-29T12:45:06Z</time></trkpt><trkpt lat="44.32156983987828" lon="11.78432123049926"><ele>44.0</ele><time>2026-03-29T12:45:07Z</time></trkpt><trkpt lat="44.32141499528033" lon="11.784654708722048"><ele>44.0</ele><time>2026-03-29T12:45:09Z</time></trkpt><trkpt lat="44.32137000128291" lon="11.784836445801947"><ele>44.0</ele><time>2026-03-29T12:45:10Z</time></trkpt><trkpt lat="44.32129455049402" lon="11.785059056638646"><ele>44.0</ele><time>2026-03-29T12:45:11Z</time></trkpt><trkpt lat="44.32118853023574" lon="11.785290886985958"><ele>44.0</ele><time>2026-03-29T12:45:12Z</time></trkpt><trkpt lat="44.32108487524736" lon="11.785513868965186"><ele>44.0</ele><time>2026-03-29T12:45:13Z</time></trkpt><trkpt lat="44.32100322878461" lon="11.785691000931298"><ele>44.0</ele><time>2026-03-29T12:45:13.999Z</time></trkpt><trkpt lat="44.32093740630971" lon="11.78584613250891"><ele>44.0</ele><time>2026-03-29T12:45:14.999Z</time></trkpt><trkpt lat="44.320887001080905" lon="11.785977210229678"><ele>44.0</ele><time>2026-03-29T12:45:15.999Z</time></trkpt><trkpt lat="44.32080235854715" lon="11.786050458157957"><ele>44.0</ele><time>2026-03-29T12:45:16.999Z</time></trkpt><trkpt lat="44.32076846189389" lon="11.786131453974022"><ele>44.0</ele><time>2026-03-29T12:45:17.999Z</time></trkpt><trkpt lat="44.32072397249399" lon="11.786237761270222"><ele>44.0</ele><time>2026-03-29T12:45:19.999Z</time></trkpt><trkpt lat="44.320598456583795" lon="11.786208993966675"><ele>43.83333333333333</ele><time>2026-03-29T12:45:23.999Z</time></trkpt><trkpt lat="44.32053290579788" lon="11.786152038851112"><ele>43.666666666666664</ele><time>2026-03-29T12:45:24.999Z</time></trkpt><trkpt lat="44.32046646079656" lon="11.786087825362896"><ele>43.5</ele><time>2026-03-29T12:45:25.999Z</time></trkpt><trkpt lat="44.32039694809408" lon="11.786019919277603"><ele>43.333333333333336</ele><time>2026-03-29T12:45:26.999Z</time></trkpt><trkpt lat="44.32031370279979" lon="11.78595807433375"><ele>43.16666666666667</ele><time>2026-03-29T12:45:27.999Z</time></trkpt><trkpt lat="44.32022778421261" lon="11.785891856703559"><ele>43.0</ele><time>2026-03-29T12:45:28.999Z</time></trkpt><trkpt lat="44.32014281492185" lon="11.785821437401067"><ele>43.0</ele><time>2026-03-29T12:45:29.999Z</time></trkpt><trkpt lat="44.32004882447055" lon="11.78575292725159"><ele>43.0</ele><time>2026-03-29T12:45:30.999Z</time></trkpt><trkpt lat="44.31994829033008" lon="11.785674655880854"><ele>43.0</ele><time>2026-03-29T12:45:31.999Z</time></trkpt><trkpt lat="44.31985250702947" lon="11.785597536640106"><ele>43.0</ele><time>2026-03-29T12:45:32.999Z</time></trkpt><trkpt lat="44.31975102766439" lon="11.785506032055991"><ele>43.25</ele><time>2026-03-29T12:45:33.999Z</time></trkpt><trkpt lat="44.31964704962858" lon="11.785419659180615"><ele>43.5</ele><time>2026-03-29T12:45:34.999Z</time></trkpt><trkpt lat="44.31955006774674" lon="11.785340610851241"><ele>43.75</ele><time>2026-03-29T12:45:35.999Z</time></trkpt><trkpt lat="44.319449963233005" lon="11.785259361105142"><ele>44.0</ele><time>2026-03-29T12:45:36.999Z</time></trkpt><trkpt lat="44.31934674771338" lon="11.785175494517212"><ele>44.25</ele><time>2026-03-29T12:45:37.999Z</time></trkpt><trkpt lat="44.31923456733026" lon="11.78509254328424"><ele>44.5</ele><time>2026-03-29T12:45:38.999Z</time></trkpt><trkpt lat="44.319120658745305" lon="11.784998385169397"><ele>44.75</ele><time>2026-03-29T12:45:39.999Z</time></trkpt><trkpt lat="44.319005120422844" lon="11.784903206860426"><ele>45.0</ele><time>2026-03-29T12:45:40.999Z</time></trkpt><trkpt lat="44.31889137221041" lon="11.784818380329662"><ele>45.25</ele><time>2026-03-29T12:45:41.999Z</time></trkpt><trkpt lat="44.31877152374796" lon="11.784726991461973"><ele>45.5</ele><time>2026-03-29T12:45:42.999Z</time></trkpt><trkpt lat="44.31865082968935" lon="11.784633376878674"><ele>45.75</ele><time>2026-03-29T12:45:43.999Z</time></trkpt><trkpt lat="44.31852772427035" lon="11.78454205160944"><ele>46.0</ele><time>2026-03-29T12:45:44.999Z</time></trkpt><trkpt lat="44.31840557987867" lon="11.784445735474716"><ele>46.0</ele><time>2026-03-29T12:45:45.999Z</time></trkpt><trkpt lat="44.31827556216189" lon="11.784367251515866"><ele>46.0</ele><time>2026-03-29T12:45:46.999Z</time></trkpt><trkpt lat="44.3181563925276" lon="11.78427561882604"><ele>46.0</ele><time>2026-03-29T12:45:47.999Z</time></trkpt><trkpt lat="44.31803320300079" lon="11.784195187806864"><ele>46.0</ele><time>2026-03-29T12:45:48.999Z</time></trkpt><trkpt lat="44.31791213362279" lon="11.784102080731667"><ele>46.0</ele><time>2026-03-29T12:45:49.999Z</time></trkpt><trkpt lat="44.317788604491874" lon="11.784006558399053"><ele>46.0</ele><time>2026-03-29T12:45:50.999Z</time></trkpt><trkpt lat="44.317667351455185" lon="11.783906865856254"><ele>46.0</ele><time>2026-03-29T12:45:51.999Z</time></trkpt><trkpt lat="44.31754617758362" lon="11.783801084985571"><ele>46.0</ele><time>2026-03-29T12:45:52.999Z</time></trkpt><trkpt lat="44.31742380572038" lon="11.783695837682396"><ele>46.0</ele><time>2026-03-29T12:45:53.999Z</time></trkpt><trkpt lat="44.3173048706268" lon="11.783591217611626"><ele>46.0</ele><time>2026-03-29T12:45:54.999Z</time></trkpt><trkpt lat="44.31718351029701" lon="11.783488622670424"><ele>46.0</ele><time>2026-03-29T12:45:55.999Z</time></trkpt><trkpt lat="44.31706356488759" lon="11.783383439090699"><ele>46.0</ele><time>2026-03-29T12:45:56.999Z</time></trkpt><trkpt lat="44.31694398401906" lon="11.783279766203188"><ele>46.25</ele><time>2026-03-29T12:45:57.999Z</time></trkpt><trkpt lat="44.31682747165598" lon="11.783170263871524"><ele>46.5</ele><time>2026-03-29T12:45:58.999Z</time></trkpt><trkpt lat="44.31670992741875" lon="11.783057825454481"><ele>46.75</ele><time>2026-03-29T12:45:59.999Z</time></trkpt><trkpt lat="44.316592865594956" lon="11.782947295391313"><ele>47.0</ele><time>2026-03-29T12:46:00.999Z</time></trkpt><trkpt lat="44.31647395091944" lon="11.782851944697743"><ele>47.0</ele><time>2026-03-29T12:46:01.999Z</time></trkpt><trkpt lat="44.31635439136993" lon="11.78273753832113"><ele>47.0</ele><time>2026-03-29T12:46:02.999Z</time></trkpt><trkpt lat="44.31623605087411" lon="11.782630592712218"><ele>47.0</ele><time>2026-03-29T12:46:03.999Z</time></trkpt><trkpt lat="44.3161199421542" lon="11.782519613768619"><ele>47.0</ele><time>2026-03-29T12:46:04.999Z</time></trkpt><trkpt lat="44.31600624124733" lon="11.782408201038026"><ele>47.25</ele><time>2026-03-29T12:46:05.999Z</time></trkpt><trkpt lat="44.315889460566474" lon="11.782303511169516"><ele>47.5</ele><time>2026-03-29T12:46:06.999Z</time></trkpt><trkpt lat="44.31577330205268" lon="11.782202121510652"><ele>47.75</ele><time>2026-03-29T12:46:07.999Z</time></trkpt><trkpt lat="44.315655263753065" lon="11.782097835310836"><ele>48.0</ele><time>2026-03-29T12:46:08.999Z</time></trkpt><trkpt lat="44.31554340934964" lon="11.78200559807435"><ele>48.0</ele><time>2026-03-29T12:46:09.999Z</time></trkpt><trkpt lat="44.31542067440704" lon="11.781906478014468"><ele>48.0</ele><time>2026-03-29T12:46:10.999Z</time></trkpt><trkpt lat="44.315298852030175" lon="11.781815876603861"><ele>48.0</ele><time>2026-03-29T12:46:11.999Z</time></trkpt><trkpt lat="44.31517797613556" lon="11.781719288666661"><ele>48.0</ele><time>2026-03-29T12:46:12.999Z</time></trkpt><trkpt lat="44.31505527771834" lon="11.781624278745905"><ele>48.25</ele><time>2026-03-29T12:46:13.999Z</time></trkpt><trkpt lat="44.31493129486608" lon="11.781526750031956"><ele>48.5</ele><time>2026-03-29T12:46:14.999Z</time></trkpt><trkpt lat="44.31480635848875" lon="11.781432467491712"><ele>48.75</ele><time>2026-03-29T12:46:15.999Z</time></trkpt><trkpt lat="44.314679279020666" lon="11.781336057550014"><ele>49.0</ele><time>2026-03-29T12:46:16.999Z</time></trkpt><trkpt lat="44.31455350511664" lon="11.781241510987536"><ele>48.75</ele><time>2026-03-29T12:46:17.999Z</time></trkpt><trkpt lat="44.31442994134202" lon="11.781144270035997"><ele>48.5</ele><time>2026-03-29T12:46:18.999Z</time></trkpt><trkpt lat="44.3142995808455" lon="11.781046084242405"><ele>48.25</ele><time>2026-03-29T12:46:19.999Z</time></trkpt><trkpt lat="44.31416665936027" lon="11.780943792598265"><ele>48.0</ele><time>2026-03-29T12:46:20.999Z</time></trkpt><trkpt lat="44.314034954830646" lon="11.780836418777072"><ele>48.0</ele><time>2026-03-29T12:46:21.999Z</time></trkpt><trkpt lat="44.31390163012293" lon="11.780732613139497"><ele>48.0</ele><time>2026-03-29T12:46:22.998Z</time></trkpt><trkpt lat="44.313771272772904" lon="11.780634256161079"><ele>48.0</ele><time>2026-03-29T12:46:23.998Z</time></trkpt><trkpt lat="44.31364019348074" lon="11.780538053209048"><ele>48.0</ele><time>2026-03-29T12:46:24.998Z</time></trkpt><trkpt lat="44.31351227379996" lon="11.780449061578985"><ele>48.0</ele><time>2026-03-29T12:46:25.998Z</time></trkpt><trkpt lat="44.313376520205075" lon="11.780344399453906"><ele>48.0</ele><time>2026-03-29T12:46:26.998Z</time></trkpt><trkpt lat="44.313236584733026" lon="11.780245101605107"><ele>48.0</ele><time>2026-03-29T12:46:27.998Z</time></trkpt><trkpt lat="44.313090198929636" lon="11.780164216700758"><ele>49.0</ele><time>2026-03-29T12:46:28.998Z</time></trkpt><trkpt lat="44.31293903009498" lon="11.780102493134823"><ele>50.0</ele><time>2026-03-29T12:46:29.998Z</time></trkpt><trkpt lat="44.31277540094808" lon="11.780072084336025"><ele>51.0</ele><time>2026-03-29T12:46:31Z</time></trkpt><trkpt lat="44.31261248841478" lon="11.780054377002317"><ele>51.0</ele><time>2026-03-29T12:46:32Z</time></trkpt><trkpt lat="44.31245005779896" lon="11.780042725812397"><ele>51.0</ele><time>2026-03-29T12:46:33Z</time></trkpt><trkpt lat="44.31229325851339" lon="11.780013949552169"><ele>51.0</ele><time>2026-03-29T12:46:34Z</time></trkpt><trkpt lat="44.312138195459035" lon="11.77994203148398"><ele>51.33333333333333</ele><time>2026-03-29T12:46:35Z</time></trkpt><trkpt lat="44.3119899222389" lon="11.779836950965484"><ele>51.666666666666664</ele><time>2026-03-29T12:46:36Z</time></trkpt><trkpt lat="44.31184926181971" lon="11.779733238361155"><ele>52.0</ele><time>2026-03-29T12:46:37Z</time></trkpt><trkpt lat="44.31172483137991" lon="11.779613972306809"><ele>52.0</ele><time>2026-03-29T12:46:38Z</time></trkpt><trkpt lat="44.31161816226597" lon="11.779499898136542"><ele>52.0</ele><time>2026-03-29T12:46:39Z</time></trkpt><trkpt lat="44.3115253866481" lon="11.779397144257558"><ele>52.0</ele><time>2026-03-29T12:46:40Z</time></trkpt><trkpt lat="44.311431690252384" lon="11.779305774774405"><ele>52.0</ele><time>2026-03-29T12:46:41Z</time></trkpt><trkpt lat="44.31134267014105" lon="11.779226977017256"><ele>52.0</ele><time>2026-03-29T12:46:42Z</time></trkpt><trkpt lat="44.31127123775492" lon="11.779174586109011"><ele>52.0</ele><time>2026-03-29T12:46:43Z</time></trkpt><trkpt lat="44.31117075859599" lon="11.77913873697782"><ele>52.0</ele><time>2026-03-29T12:46:44Z</time></trkpt><trkpt lat="44.31105981905223" lon="11.779145093725784"><ele>52.0</ele><time>2026-03-29T12:46:45Z</time></trkpt><trkpt lat="44.3109628504225" lon="11.779210328133075"><ele>52.0</ele><time>2026-03-29T12:46:46Z</time></trkpt><trkpt lat="44.310874222702274" lon="11.779318232810198"><ele>51.75</ele><time>2026-03-29T12:46:47Z</time></trkpt><trkpt lat="44.3107934884952" lon="11.77945952690859"><ele>51.5</ele><time>2026-03-29T12:46:48Z</time></trkpt><trkpt lat="44.31071251467417" lon="11.779615376030385"><ele>51.25</ele><time>2026-03-29T12:46:49Z</time></trkpt><trkpt lat="44.31062470189148" lon="11.779770989186094"><ele>51.0</ele><time>2026-03-29T12:46:50Z</time></trkpt><trkpt lat="44.31053276363066" lon="11.779940410386537"><ele>51.0</ele><time>2026-03-29T12:46:51Z</time></trkpt><trkpt lat="44.31042843666445" lon="11.780112207781182"><ele>51.0</ele><time>2026-03-29T12:46:52Z</time></trkpt><trkpt lat="44.310329908441496" lon="11.78027994175249"><ele>51.0</ele><time>2026-03-29T12:46:53Z</time></trkpt><trkpt lat="44.310234577567435" lon="11.780437870877186"><ele>51.25</ele><time>2026-03-29T12:46:54Z</time></trkpt><trkpt lat="44.31015250251341" lon="11.780577659179588"><ele>51.5</ele><time>2026-03-29T12:46:55Z</time></trkpt><trkpt lat="44.310067329112506" lon="11.780723465000564"><ele>51.75</ele><time>2026-03-29T12:46:56Z</time></trkpt><trkpt lat="44.30997722653303" lon="11.780879451968005"><ele>52.0</ele><time>2026-03-29T12:46:57Z</time></trkpt><trkpt lat="44.30990074289683" lon="11.781030604731889"><ele>51.6</ele><time>2026-03-29T12:46:58Z</time></trkpt><trkpt lat="44.309835425685804" lon="11.781175266823263"><ele>51.2</ele><time>2026-03-29T12:46:59Z</time></trkpt><trkpt lat="44.30977673880255" lon="11.781307929256315"><ele>50.8</ele><time>2026-03-29T12:47:00Z</time></trkpt><trkpt lat="44.30972224495565" lon="11.781435070213483"><ele>50.4</ele><time>2026-03-29T12:47:01Z</time></trkpt><trkpt lat="44.30967309538775" lon="11.781534953178195"><ele>50.0</ele><time>2026-03-29T12:47:02Z</time></trkpt><trkpt lat="44.309631021896735" lon="11.781615221426888"><ele>49.8</ele><time>2026-03-29T12:47:03Z</time></trkpt><trkpt lat="44.30959132196275" lon="11.781698162785231"><ele>49.6</ele><time>2026-03-29T12:47:05Z</time></trkpt><trkpt lat="44.30954655643096" lon="11.781822314207751"><ele>49.400000000000006</ele><time>2026-03-29T12:47:26.999Z</time></trkpt><trkpt lat="44.309503481606804" lon="11.78193873738075"><ele>49.2</ele><time>2026-03-29T12:47:27.999Z</time></trkpt><trkpt lat="44.30945375640984" lon="11.782068378020776"><ele>49.0</ele><time>2026-03-29T12:47:28.999Z</time></trkpt><trkpt lat="44.309396188361674" lon="11.782218783760403"><ele>49.0</ele><time>2026-03-29T12:47:29.999Z</time></trkpt><trkpt lat="44.30931576309123" lon="11.782378934199695"><ele>49.0</ele><time>2026-03-29T12:47:30.999Z</time></trkpt><trkpt lat="44.309253601390154" lon="11.782531333925556"><ele>49.0</ele><time>2026-03-29T12:47:31.999Z</time></trkpt><trkpt lat="44.30917820310108" lon="11.782703644798989"><ele>49.0</ele><time>2026-03-29T12:47:32.999Z</time></trkpt><trkpt lat="44.30911248761229" lon="11.782875773450739"><ele>49.0</ele><time>2026-03-29T12:47:33.999Z</time></trkpt><trkpt lat="44.30904200099479" lon="11.783040231254121"><ele>49.0</ele><time>2026-03-29T12:47:34.999Z</time></trkpt><trkpt lat="44.3089763975589" lon="11.783207978535179"><ele>49.0</ele><time>2026-03-29T12:47:35.999Z</time></trkpt><trkpt lat="44.308907591655434" lon="11.783386817183818"><ele>49.0</ele><time>2026-03-29T12:47:36.999Z</time></trkpt><trkpt lat="44.30883527586736" lon="11.783560205455592"><ele>48.666666666666664</ele><time>2026-03-29T12:47:37.999Z</time></trkpt><trkpt lat="44.30876450371743" lon="11.783740669049456"><ele>48.33333333333333</ele><time>2026-03-29T12:47:38.999Z</time></trkpt><trkpt lat="44.308685402443416" lon="11.783920433960711"><ele>48.0</ele><time>2026-03-29T12:47:39.999Z</time></trkpt><trkpt lat="44.30860864740757" lon="11.78410725975511"><ele>48.0</ele><time>2026-03-29T12:47:40.999Z</time></trkpt><trkpt lat="44.308531273321" lon="11.7842951050521"><ele>48.0</ele><time>2026-03-29T12:47:41.999Z</time></trkpt><trkpt lat="44.308453214103196" lon="11.78448064216945"><ele>48.0</ele><time>2026-03-29T12:47:42.999Z</time></trkpt><trkpt lat="44.30838798934934" lon="11.784648628141351"><ele>48.0</ele><time>2026-03-29T12:47:43.999Z</time></trkpt><trkpt lat="44.30832498265439" lon="11.784808548044708"><ele>48.0</ele><time>2026-03-29T12:47:44.999Z</time></trkpt><trkpt lat="44.30825595336615" lon="11.78497642984606"><ele>48.0</ele><time>2026-03-29T12:47:45.999Z</time></trkpt><trkpt lat="44.30818146999867" lon="11.785142855238425"><ele>48.0</ele><time>2026-03-29T12:47:46.999Z</time></trkpt><trkpt lat="44.30811314159987" lon="11.785303844939717"><ele>48.0</ele><time>2026-03-29T12:47:47.999Z</time></trkpt><trkpt lat="44.30804108462817" lon="11.785471657973746"><ele>48.0</ele><time>2026-03-29T12:47:48.999Z</time></trkpt><trkpt lat="44.307981992008834" lon="11.785645600900837"><ele>48.0</ele><time>2026-03-29T12:47:49.999Z</time></trkpt><trkpt lat="44.307939192075835" lon="11.785831832465679"><ele>48.0</ele><time>2026-03-29T12:47:50.999Z</time></trkpt><trkpt lat="44.307909370848364" lon="11.786023640303753"><ele>48.0</ele><time>2026-03-29T12:47:51.999Z</time></trkpt><trkpt lat="44.30787460389501" lon="11.7862181307722"><ele>47.75</ele><time>2026-03-29T12:47:52.999Z</time></trkpt><trkpt lat="44.30783519303863" lon="11.786414629885385"><ele>47.5</ele><time>2026-03-29T12:47:53.999Z</time></trkpt><trkpt lat="44.30779779543356" lon="11.786613445638723"><ele>47.25</ele><time>2026-03-29T12:47:54.999Z</time></trkpt><trkpt lat="44.30775974190458" lon="11.786822967209169"><ele>47.0</ele><time>2026-03-29T12:47:55.999Z</time></trkpt><trkpt lat="44.307738888221714" lon="11.787038455876079"><ele>46.666666666666664</ele><time>2026-03-29T12:47:56.999Z</time></trkpt><trkpt lat="44.307745707657695" lon="11.787260786570727"><ele>46.333333333333336</ele><time>2026-03-29T12:47:57.999Z</time></trkpt><trkpt lat="44.307747649004156" lon="11.787478816442231"><ele>46.0</ele><time>2026-03-29T12:47:58.999Z</time></trkpt><trkpt lat="44.30773728482566" lon="11.787685408389674"><ele>45.66666666666667</ele><time>2026-03-29T12:47:59.999Z</time></trkpt><trkpt lat="44.307695909393026" lon="11.78789278071088"><ele>45.333333333333336</ele><time>2026-03-29T12:48:00.999Z</time></trkpt><trkpt lat="44.30762207959713" lon="11.788081270170975"><ele>45.0</ele><time>2026-03-29T12:48:01.999Z</time></trkpt><trkpt lat="44.307543395238625" lon="11.788261528361225"><ele>45.0</ele><time>2026-03-29T12:48:02.999Z</time></trkpt><trkpt lat="44.30746427411946" lon="11.7884450273156"><ele>45.0</ele><time>2026-03-29T12:48:03.999Z</time></trkpt><trkpt lat="44.30738123354561" lon="11.788628664653094"><ele>45.0</ele><time>2026-03-29T12:48:04.999Z</time></trkpt><trkpt lat="44.30730089258087" lon="11.788814624033046"><ele>44.666666666666664</ele><time>2026-03-29T12:48:05.999Z</time></trkpt><trkpt lat="44.30722447301894" lon="11.78900823662356"><ele>44.33333333333333</ele><time>2026-03-29T12:48:06.999Z</time></trkpt><trkpt lat="44.30714156295161" lon="11.789197629624294"><ele>44.0</ele><time>2026-03-29T12:48:07.999Z</time></trkpt><trkpt lat="44.3070594675002" lon="11.789390791803957"><ele>44.0</ele><time>2026-03-29T12:48:08.999Z</time></trkpt><trkpt lat="44.306974977256644" lon="11.789589798105695"><ele>44.0</ele><time>2026-03-29T12:48:09.999Z</time></trkpt><trkpt lat="44.30689128875012" lon="11.789781944924774"><ele>44.0</ele><time>2026-03-29T12:48:10.999Z</time></trkpt><trkpt lat="44.306806699130114" lon="11.789978854735429"><ele>44.0</ele><time>2026-03-29T12:48:11.999Z</time></trkpt><trkpt lat="44.30673305197618" lon="11.790148716038352"><ele>44.0</ele><time>2026-03-29T12:48:12.999Z</time></trkpt><trkpt lat="44.30666431215085" lon="11.790310990793474"><ele>44.0</ele><time>2026-03-29T12:48:13.999Z</time></trkpt><trkpt lat="44.30658857729886" lon="11.790493066127578"><ele>44.0</ele><time>2026-03-29T12:48:14.999Z</time></trkpt><trkpt lat="44.30652430487108" lon="11.790675820979887"><ele>44.25</ele><time>2026-03-29T12:48:15.999Z</time></trkpt><trkpt lat="44.306471409626475" lon="11.79087052133979"><ele>44.5</ele><time>2026-03-29T12:48:16.999Z</time></trkpt><trkpt lat="44.3064397063072" lon="11.791067248116104"><ele>44.75</ele><time>2026-03-29T12:48:17.999Z</time></trkpt><trkpt lat="44.30642721102353" lon="11.791251174180552"><ele>45.0</ele><time>2026-03-29T12:48:18.999Z</time></trkpt><trkpt lat="44.30642545343717" lon="11.791414239820524"><ele>45.0</ele><time>2026-03-29T12:48:19.999Z</time></trkpt><trkpt lat="44.30642505379472" lon="11.791564070429903"><ele>45.0</ele><time>2026-03-29T12:48:20.999Z</time></trkpt><trkpt lat="44.306429308710165" lon="11.791695056825343"><ele>45.0</ele><time>2026-03-29T12:48:21.999Z</time></trkpt><trkpt lat="44.306418877051826" lon="11.79181276807539"><ele>45.0</ele><time>2026-03-29T12:48:22.999Z</time></trkpt><trkpt lat="44.30638807969168" lon="11.791922705723112"><ele>45.0</ele><time>2026-03-29T12:48:23.999Z</time></trkpt><trkpt lat="44.306347674350356" lon="11.79200854229261"><ele>45.0</ele><time>2026-03-29T12:48:24.999Z</time></trkpt><trkpt lat="44.306317693226184" lon="11.792136209604422"><ele>45.0</ele><time>2026-03-29T12:48:26.999Z</time></trkpt><trkpt lat="44.30613673451316" lon="11.79205190885922"><ele>45.0</ele><time>2026-03-29T12:48:27.999Z</time></trkpt><trkpt lat="44.3060356259831" lon="11.791990257583189"><ele>45.0</ele><time>2026-03-29T12:48:28.998Z</time></trkpt><trkpt lat="44.30590356978334" lon="11.79190815677068"><ele>45.0</ele><time>2026-03-29T12:48:29.998Z</time></trkpt><trkpt lat="44.30575790963203" lon="11.791840708207236"><ele>45.25</ele><time>2026-03-29T12:48:30.998Z</time></trkpt><trkpt lat="44.305615797488784" lon="11.791777711509464"><ele>45.5</ele><time>2026-03-29T12:48:31.998Z</time></trkpt><trkpt lat="44.30549210253505" lon="11.791725809016922"><ele>45.75</ele><time>2026-03-29T12:48:32.998Z</time></trkpt><trkpt lat="44.30538164415432" lon="11.791678058624418"><ele>46.0</ele><time>2026-03-29T12:48:33.998Z</time></trkpt><trkpt lat="44.30529042653669" lon="11.791630775518996"><ele>46.0</ele><time>2026-03-29T12:48:34.998Z</time></trkpt><trkpt lat="44.30521253286371" lon="11.791570138675274"><ele>46.0</ele><time>2026-03-29T12:48:35.998Z</time></trkpt><trkpt lat="44.305131400361084" lon="11.791496781549833"><ele>46.0</ele><time>2026-03-29T12:48:37Z</time></trkpt><trkpt lat="44.30506216925746" lon="11.791396765277652"><ele>46.0</ele><time>2026-03-29T12:48:38Z</time></trkpt><trkpt lat="44.30504644698627" lon="11.791243120921015"><ele>46.0</ele><time>2026-03-29T12:48:39Z</time></trkpt><trkpt lat="44.305031638903266" lon="11.791092039792975"><ele>45.5</ele><time>2026-03-29T12:48:40Z</time></trkpt><trkpt lat="44.30502901094348" lon="11.790925168476598"><ele>45.0</ele><time>2026-03-29T12:48:41Z</time></trkpt><trkpt lat="44.30502048619884" lon="11.790752759264297"><ele>44.5</ele><time>2026-03-29T12:48:42Z</time></trkpt><trkpt lat="44.30502501748717" lon="11.790573421717822"><ele>44.0</ele><time>2026-03-29T12:48:43Z</time></trkpt><trkpt lat="44.305029273395945" lon="11.790378577072222"><ele>44.0</ele><time>2026-03-29T12:48:44Z</time></trkpt><trkpt lat="44.3050343583098" lon="11.790187107599298"><ele>44.0</ele><time>2026-03-29T12:48:45Z</time></trkpt><trkpt lat="44.305030914934854" lon="11.789985318228162"><ele>44.0</ele><time>2026-03-29T12:48:46Z</time></trkpt><trkpt lat="44.30501509033822" lon="11.78977919860894"><ele>44.0</ele><time>2026-03-29T12:48:47Z</time></trkpt><trkpt lat="44.304972928034125" lon="11.789583583000395"><ele>44.0</ele><time>2026-03-29T12:48:48Z</time></trkpt><trkpt lat="44.30489466088224" lon="11.789411812493045"><ele>44.0</ele><time>2026-03-29T12:48:49Z</time></trkpt><trkpt lat="44.30479966792052" lon="11.789258335707983"><ele>44.0</ele><time>2026-03-29T12:48:50Z</time></trkpt><trkpt lat="44.30471053292365" lon="11.789137491090692"><ele>44.0</ele><time>2026-03-29T12:48:51Z</time></trkpt><trkpt lat="44.30461227281316" lon="11.789031866490635"><ele>43.75</ele><time>2026-03-29T12:48:52Z</time></trkpt><trkpt lat="44.30450380313144" lon="11.78894876749954"><ele>43.5</ele><time>2026-03-29T12:48:53Z</time></trkpt><trkpt lat="44.304383169192434" lon="11.788884820489228"><ele>43.25</ele><time>2026-03-29T12:48:54Z</time></trkpt><trkpt lat="44.3042523841724" lon="11.788853503229701"><ele>43.0</ele><time>2026-03-29T12:48:55Z</time></trkpt><trkpt lat="44.30411076036147" lon="11.788859011847903"><ele>43.0</ele><time>2026-03-29T12:48:56Z</time></trkpt><trkpt lat="44.303969028786426" lon="11.788885240715313"><ele>43.0</ele><time>2026-03-29T12:48:57Z</time></trkpt><trkpt lat="44.303829652841586" lon="11.788940287558871"><ele>43.0</ele><time>2026-03-29T12:48:58Z</time></trkpt><trkpt lat="44.30369307669065" lon="11.789010216870695"><ele>43.0</ele><time>2026-03-29T12:48:59Z</time></trkpt><trkpt lat="44.30357686000809" lon="11.789071797895593"><ele>43.25</ele><time>2026-03-29T12:49:00Z</time></trkpt><trkpt lat="44.30345510548982" lon="11.789081503508546"><ele>43.5</ele><time>2026-03-29T12:49:01Z</time></trkpt><trkpt lat="44.30334004013695" lon="11.7890029596455"><ele>43.75</ele><time>2026-03-29T12:49:02Z</time></trkpt><trkpt lat="44.303232501453415" lon="11.78889246682716"><ele>44.0</ele><time>2026-03-29T12:49:03Z</time></trkpt><trkpt lat="44.30312106404239" lon="11.788772233976287"><ele>43.75</ele><time>2026-03-29T12:49:04Z</time></trkpt><trkpt lat="44.303023739212925" lon="11.788622166737882"><ele>43.5</ele><time>2026-03-29T12:49:05Z</time></trkpt><trkpt lat="44.302923950139416" lon="11.788479015242693"><ele>43.25</ele><time>2026-03-29T12:49:06Z</time></trkpt><trkpt lat="44.30281804463516" lon="11.788328399154024"><ele>43.0</ele><time>2026-03-29T12:49:07Z</time></trkpt><trkpt lat="44.3027104344757" lon="11.788171440218903"><ele>43.66666666666667</ele><time>2026-03-29T12:49:08Z</time></trkpt><trkpt lat="44.302599748227266" lon="11.78801403392405"><ele>44.333333333333336</ele><time>2026-03-29T12:49:09Z</time></trkpt><trkpt lat="44.302486626426486" lon="11.787859560158752"><ele>45.0</ele><time>2026-03-29T12:49:10Z</time></trkpt><trkpt lat="44.30238920973753" lon="11.787698975057346"><ele>45.0</ele><time>2026-03-29T12:49:11Z</time></trkpt><trkpt lat="44.30229067412042" lon="11.787525303404768"><ele>45.0</ele><time>2026-03-29T12:49:12Z</time></trkpt><trkpt lat="44.30219960627529" lon="11.787335843736745"><ele>45.0</ele><time>2026-03-29T12:49:13Z</time></trkpt><trkpt lat="44.302110952511846" lon="11.787141213604365"><ele>45.0</ele><time>2026-03-29T12:49:14Z</time></trkpt><trkpt lat="44.302017125669686" lon="11.786950832278498"><ele>45.0</ele><time>2026-03-29T12:49:15Z</time></trkpt><trkpt lat="44.30192406544414" lon="11.786763714868899"><ele>45.0</ele><time>2026-03-29T12:49:16Z</time></trkpt><trkpt lat="44.30183949146591" lon="11.786600310480381"><ele>45.0</ele><time>2026-03-29T12:49:17Z</time></trkpt><trkpt lat="44.301757967597716" lon="11.786450323065072"><ele>45.0</ele><time>2026-03-29T12:49:18Z</time></trkpt><trkpt lat="44.30168273841122" lon="11.786311769994178"><ele>45.0</ele><time>2026-03-29T12:49:19Z</time></trkpt><trkpt lat="44.301603815151054" lon="11.786170101396515"><ele>45.0</ele><time>2026-03-29T12:49:20Z</time></trkpt><trkpt lat="44.30152457318697" lon="11.786031521971537"><ele>45.0</ele><time>2026-03-29T12:49:21Z</time></trkpt><trkpt lat="44.30145172536438" lon="11.785911953779722"><ele>45.0</ele><time>2026-03-29T12:49:22Z</time></trkpt><trkpt lat="44.301376739288756" lon="11.785788791737458"><ele>45.0</ele><time>2026-03-29T12:49:23Z</time></trkpt><trkpt lat="44.30130414821345" lon="11.785662750401908"><ele>45.0</ele><time>2026-03-29T12:49:24Z</time></trkpt><trkpt lat="44.30123836928569" lon="11.785547196008578"><ele>45.0</ele><time>2026-03-29T12:49:25Z</time></trkpt><trkpt lat="44.30116505096418" lon="11.785424145916611"><ele>45.0</ele><time>2026-03-29T12:49:26Z</time></trkpt><trkpt lat="44.30108400991298" lon="11.78530198172143"><ele>45.0</ele><time>2026-03-29T12:49:26.999Z</time></trkpt><trkpt lat="44.30101498941069" lon="11.785170650584122"><ele>45.0</ele><time>2026-03-29T12:49:27.999Z</time></trkpt><trkpt lat="44.30095005107774" lon="11.785049614746509"><ele>45.25</ele><time>2026-03-29T12:49:28.999Z</time></trkpt><trkpt lat="44.30088776913055" lon="11.784928528602483"><ele>45.5</ele><time>2026-03-29T12:49:29.999Z</time></trkpt><trkpt lat="44.30082544547578" lon="11.784805421492079"><ele>45.75</ele><time>2026-03-29T12:49:30.999Z</time></trkpt><trkpt lat="44.30075840550476" lon="11.784674015036364"><ele>46.0</ele><time>2026-03-29T12:49:31.999Z</time></trkpt><trkpt lat="44.300687627156684" lon="11.78453896915993"><ele>46.0</ele><time>2026-03-29T12:49:32.999Z</time></trkpt><trkpt lat="44.300619108851514" lon="11.784412416099492"><ele>46.0</ele><time>2026-03-29T12:49:33.999Z</time></trkpt><trkpt lat="44.300556640231214" lon="11.78429838684604"><ele>46.0</ele><time>2026-03-29T12:49:34.999Z</time></trkpt><trkpt lat="44.300492098055976" lon="11.78419409708182"><ele>46.0</ele><time>2026-03-29T12:49:35.999Z</time></trkpt><trkpt lat="44.30040840398782" lon="11.784086452424837"><ele>46.0</ele><time>2026-03-29T12:49:36.999Z</time></trkpt><trkpt lat="44.30032555957165" lon="11.783985004219272"><ele>46.199999999999996</ele><time>2026-03-29T12:49:37.999Z</time></trkpt><trkpt lat="44.30025146715129" lon="11.7838916918109"><ele>46.4</ele><time>2026-03-29T12:49:38.999Z</time></trkpt><trkpt lat="44.300174198060375" lon="11.783799049020818"><ele>46.6</ele><time>2026-03-29T12:49:39.999Z</time></trkpt><trkpt lat="44.300092508627756" lon="11.783698005170766"><ele>46.8</ele><time>2026-03-29T12:49:40.999Z</time></trkpt><trkpt lat="44.30001808817469" lon="11.783592920779029"><ele>47.0</ele><time>2026-03-29T12:49:41.999Z</time></trkpt><trkpt lat="44.29995678528201" lon="11.783470704697777"><ele>47.2</ele><time>2026-03-29T12:49:42.999Z</time></trkpt><trkpt lat="44.29989720347901" lon="11.783351622346713"><ele>47.400000000000006</ele><time>2026-03-29T12:49:43.999Z</time></trkpt><trkpt lat="44.299825063503164" lon="11.783249063949512"><ele>47.599999999999994</ele><time>2026-03-29T12:49:44.999Z</time></trkpt><trkpt lat="44.29973538399963" lon="11.783157282851159"><ele>47.8</ele><time>2026-03-29T12:49:45.999Z</time></trkpt><trkpt lat="44.29964455831406" lon="11.783064959318457"><ele>48.0</ele><time>2026-03-29T12:49:46.999Z</time></trkpt><trkpt lat="44.2995614968549" lon="11.782987663516279"><ele>47.75</ele><time>2026-03-29T12:49:47.999Z</time></trkpt><trkpt lat="44.299466449965074" lon="11.782909500179676"><ele>47.5</ele><time>2026-03-29T12:49:48.999Z</time></trkpt><trkpt lat="44.29936743862215" lon="11.782823987472721"><ele>47.25</ele><time>2026-03-29T12:49:49.999Z</time></trkpt><trkpt lat="44.29926693924259" lon="11.782737266916792"><ele>47.0</ele><time>2026-03-29T12:49:50.999Z</time></trkpt><trkpt lat="44.29916914646969" lon="11.782661146026904"><ele>47.0</ele><time>2026-03-29T12:49:51.999Z</time></trkpt><trkpt lat="44.299065713760854" lon="11.782578046593727"><ele>47.0</ele><time>2026-03-29T12:49:52.999Z</time></trkpt><trkpt lat="44.29895975957001" lon="11.782472159554327"><ele>47.0</ele><time>2026-03-29T12:49:53.999Z</time></trkpt><trkpt lat="44.29885442526009" lon="11.782366248147364"><ele>47.0</ele><time>2026-03-29T12:49:54.999Z</time></trkpt><trkpt lat="44.29875031581506" lon="11.782244730151039"><ele>47.25</ele><time>2026-03-29T12:49:55.999Z</time></trkpt><trkpt lat="44.29863478181932" lon="11.782129312467832"><ele>47.5</ele><time>2026-03-29T12:49:56.999Z</time></trkpt><trkpt lat="44.29850626748521" lon="11.782022955079505"><ele>47.75</ele><time>2026-03-29T12:49:57.999Z</time></trkpt><trkpt lat="44.298382031481836" lon="11.781891305044365"><ele>48.0</ele><time>2026-03-29T12:49:58.999Z</time></trkpt><trkpt lat="44.298254363047576" lon="11.781763674643065"><ele>48.0</ele><time>2026-03-29T12:49:59.999Z</time></trkpt><trkpt lat="44.29812045461917" lon="11.781653922757782"><ele>48.0</ele><time>2026-03-29T12:50:00.999Z</time></trkpt><trkpt lat="44.29799881372842" lon="11.781557734155605"><ele>48.0</ele><time>2026-03-29T12:50:01.999Z</time></trkpt><trkpt lat="44.29787848378181" lon="11.781464487969595"><ele>48.0</ele><time>2026-03-29T12:50:02.999Z</time></trkpt><trkpt lat="44.29775568694692" lon="11.781386983809755"><ele>47.0</ele><time>2026-03-29T12:50:03.999Z</time></trkpt><trkpt lat="44.297617175531315" lon="11.781305314579768"><ele>46.0</ele><time>2026-03-29T12:50:04.999Z</time></trkpt><trkpt lat="44.29747187221597" lon="11.78123492448849"><ele>45.0</ele><time>2026-03-29T12:50:05.999Z</time></trkpt><trkpt lat="44.29732676268452" lon="11.78117251704371"><ele>45.666666666666664</ele><time>2026-03-29T12:50:06.999Z</time></trkpt><trkpt lat="44.29718029236643" lon="11.781107388786275"><ele>46.33333333333333</ele><time>2026-03-29T12:50:07.999Z</time></trkpt><trkpt lat="44.297035927538786" lon="11.781036252723666"><ele>47.0</ele><time>2026-03-29T12:50:08.999Z</time></trkpt><trkpt lat="44.296891704325354" lon="11.780976830033406"><ele>47.0</ele><time>2026-03-29T12:50:09.999Z</time></trkpt><trkpt lat="44.296748928035534" lon="11.78092088438431"><ele>47.0</ele><time>2026-03-29T12:50:10.999Z</time></trkpt><trkpt lat="44.29660711152855" lon="11.78086234485078"><ele>47.0</ele><time>2026-03-29T12:50:11.999Z</time></trkpt><trkpt lat="44.296469226590204" lon="11.780800576267694"><ele>47.0</ele><time>2026-03-29T12:50:12.999Z</time></trkpt><trkpt lat="44.29633195076376" lon="11.780740927926074"><ele>47.0</ele><time>2026-03-29T12:50:13.999Z</time></trkpt><trkpt lat="44.29621848936582" lon="11.780690901332527"><ele>47.0</ele><time>2026-03-29T12:50:14.999Z</time></trkpt><trkpt lat="44.29612598599493" lon="11.780632248675351"><ele>47.0</ele><time>2026-03-29T12:50:15.999Z</time></trkpt><trkpt lat="44.29604017876363" lon="11.780584930413736"><ele>47.0</ele><time>2026-03-29T12:50:16.999Z</time></trkpt><trkpt lat="44.29596161170367" lon="11.780551284980435"><ele>47.0</ele><time>2026-03-29T12:50:17.999Z</time></trkpt><trkpt lat="44.295886101173934" lon="11.780556789786639"><ele>47.0</ele><time>2026-03-29T12:50:18.999Z</time></trkpt><trkpt lat="44.295818688418855" lon="11.780607039887983"><ele>47.0</ele><time>2026-03-29T12:50:19.999Z</time></trkpt><trkpt lat="44.29574774559439" lon="11.780692598671667"><ele>47.0</ele><time>2026-03-29T12:50:20.999Z</time></trkpt><trkpt lat="44.295672335196414" lon="11.780801497061738"><ele>47.0</ele><time>2026-03-29T12:50:21.999Z</time></trkpt><trkpt lat="44.29559073553994" lon="11.780919365463067"><ele>47.0</ele><time>2026-03-29T12:50:22.999Z</time></trkpt><trkpt lat="44.29550158253334" lon="11.781040018030863"><ele>46.25</ele><time>2026-03-29T12:50:23.999Z</time></trkpt><trkpt lat="44.29541155570863" lon="11.781159025749895"><ele>45.5</ele><time>2026-03-29T12:50:24.999Z</time></trkpt><trkpt lat="44.29533036925762" lon="11.781266898050218"><ele>44.75</ele><time>2026-03-29T12:50:25.999Z</time></trkpt><trkpt lat="44.295241565138355" lon="11.781372893663658"><ele>44.0</ele><time>2026-03-29T12:50:26.999Z</time></trkpt><trkpt lat="44.29515943500782" lon="11.781478222369433"><ele>44.0</ele><time>2026-03-29T12:50:27.999Z</time></trkpt><trkpt lat="44.29508047901015" lon="11.78157904601389"><ele>44.0</ele><time>2026-03-29T12:50:28.999Z</time></trkpt><trkpt lat="44.29500737045622" lon="11.781666249512371"><ele>44.0</ele><time>2026-03-29T12:50:29.999Z</time></trkpt><trkpt lat="44.29494030086226" lon="11.781749962399438"><ele>44.0</ele><time>2026-03-29T12:50:30.999Z</time></trkpt><trkpt lat="44.29488305998319" lon="11.78182503749825"><ele>44.0</ele><time>2026-03-29T12:50:31.999Z</time></trkpt><trkpt lat="44.29483096323963" lon="11.781899409379319"><ele>44.0</ele><time>2026-03-29T12:50:32.999Z</time></trkpt><trkpt lat="44.294782752323734" lon="11.78197199447018"><ele>44.400000000000006</ele><time>2026-03-29T12:50:33.998Z</time></trkpt><trkpt lat="44.29473222661555" lon="11.782046574078985"><ele>44.8</ele><time>2026-03-29T12:50:34.998Z</time></trkpt><trkpt lat="44.29468016806877" lon="11.782148638832345"><ele>45.2</ele><time>2026-03-29T12:50:35.998Z</time></trkpt><trkpt lat="44.29460565261513" lon="11.78229940360215"><ele>45.599999999999994</ele><time>2026-03-29T12:50:36.998Z</time></trkpt><trkpt lat="44.29452659693922" lon="11.782483889471765"><ele>46.0</ele><time>2026-03-29T12:50:37.998Z</time></trkpt><trkpt lat="44.29446363622832" lon="11.782665313802267"><ele>46.0</ele><time>2026-03-29T12:50:38.998Z</time></trkpt><trkpt lat="44.294413121337314" lon="11.782811645105813"><ele>46.0</ele><time>2026-03-29T12:50:39.998Z</time></trkpt><trkpt lat="44.29434410788835" lon="11.78292513918421"><ele>46.0</ele><time>2026-03-29T12:50:40.998Z</time></trkpt><trkpt lat="44.29423494424336" lon="11.78296873476733"><ele>46.0</ele><time>2026-03-29T12:50:41.998Z</time></trkpt><trkpt lat="44.294113150465684" lon="11.783034039513279"><ele>46.0</ele><time>2026-03-29T12:50:43Z</time></trkpt><trkpt lat="44.29398581460083" lon="11.78311027407763"><ele>46.0</ele><time>2026-03-29T12:50:44Z</time></trkpt><trkpt lat="44.29384915105718" lon="11.78319500255297"><ele>46.0</ele><time>2026-03-29T12:50:45Z</time></trkpt><trkpt lat="44.29371040614995" lon="11.783258228137111"><ele>46.0</ele><time>2026-03-29T12:50:46Z</time></trkpt><trkpt lat="44.293559989268395" lon="11.783311219232234"><ele>47.0</ele><time>2026-03-29T12:50:47Z</time></trkpt><trkpt lat="44.293408138841976" lon="11.783306254085089"><ele>48.0</ele><time>2026-03-29T12:50:48Z</time></trkpt><trkpt lat="44.29326580860021" lon="11.783291947555329"><ele>49.0</ele><time>2026-03-29T12:50:49Z</time></trkpt><trkpt lat="44.293130870911455" lon="11.783256066875053"><ele>50.0</ele><time>2026-03-29T12:50:50Z</time></trkpt><trkpt lat="44.29299927633761" lon="11.783200897094115"><ele>51.5</ele><time>2026-03-29T12:50:51Z</time></trkpt><trkpt lat="44.29287898784294" lon="11.783127264117057"><ele>53.0</ele><time>2026-03-29T12:50:52Z</time></trkpt><trkpt lat="44.292773778338706" lon="11.78304340999263"><ele>54.5</ele><time>2026-03-29T12:50:53Z</time></trkpt><trkpt lat="44.29267351487518" lon="11.782981544668393"><ele>56.0</ele><time>2026-03-29T12:50:54Z</time></trkpt><trkpt lat="44.29260097322777" lon="11.78290498370828"><ele>56.0</ele><time>2026-03-29T12:50:55Z</time></trkpt><trkpt lat="44.29254506643352" lon="11.782841868129958"><ele>55.99999999999999</ele><time>2026-03-29T12:50:56Z</time></trkpt><trkpt lat="44.292465717596485" lon="11.782761015947997"><ele>55.99999999999999</ele><time>2026-03-29T12:50:58Z</time></trkpt><trkpt lat="44.292366240902936" lon="11.782891016155814"><ele>56.0</ele><time>2026-03-29T12:50:59Z</time></trkpt><trkpt lat="44.292292945068354" lon="11.78298641534535"><ele>56.0</ele><time>2026-03-29T12:51:00Z</time></trkpt><trkpt lat="44.292202639049336" lon="11.783112137779021"><ele>56.66666666666667</ele><time>2026-03-29T12:51:01Z</time></trkpt><trkpt lat="44.29208437319846" lon="11.783262086621084"><ele>57.33333333333333</ele><time>2026-03-29T12:51:02Z</time></trkpt><trkpt lat="44.291939574864195" lon="11.783425657874309"><ele>58.0</ele><time>2026-03-29T12:51:03Z</time></trkpt><trkpt lat="44.29178104638942" lon="11.783604857563343"><ele>58.75</ele><time>2026-03-29T12:51:04Z</time></trkpt><trkpt lat="44.29164310989404" lon="11.783764922211615"><ele>59.5</ele><time>2026-03-29T12:51:05Z</time></trkpt><trkpt lat="44.29152949839687" lon="11.78388888440168"><ele>60.25</ele><time>2026-03-29T12:51:06Z</time></trkpt><trkpt lat="44.2914332329495" lon="11.783993247473422"><ele>61.0</ele><time>2026-03-29T12:51:07Z</time></trkpt><trkpt lat="44.29135542693024" lon="11.784097431281014"><ele>61.8</ele><time>2026-03-29T12:51:08Z</time></trkpt><trkpt lat="44.29130407690868" lon="11.784222461706095"><ele>62.599999999999994</ele><time>2026-03-29T12:51:09Z</time></trkpt><trkpt lat="44.291294299158864" lon="11.784362968344086"><ele>63.4</ele><time>2026-03-29T12:51:10Z</time></trkpt><trkpt lat="44.29132150110376" lon="11.784502198451266"><ele>64.2</ele><time>2026-03-29T12:51:11Z</time></trkpt><trkpt lat="44.29138374187191" lon="11.784628139531897"><ele>65.0</ele><time>2026-03-29T12:51:12Z</time></trkpt><trkpt lat="44.2914467375118" lon="11.78475810841436"><ele>66.0</ele><time>2026-03-29T12:51:13Z</time></trkpt><trkpt lat="44.29150050317554" lon="11.784884729458751"><ele>67.0</ele><time>2026-03-29T12:51:14Z</time></trkpt><trkpt lat="44.29153653746442" lon="11.784989089499069"><ele>68.0</ele><time>2026-03-29T12:51:15Z</time></trkpt><trkpt lat="44.29154703446439" lon="11.785076481299805"><ele>69.0</ele><time>2026-03-29T12:51:16Z</time></trkpt><trkpt lat="44.29144285577146" lon="11.785112924986308"><ele>70.0</ele><time>2026-03-29T12:51:18Z</time></trkpt><trkpt lat="44.29135158110727" lon="11.785116376222314"><ele>71.75</ele><time>2026-03-29T12:51:19Z</time></trkpt><trkpt lat="44.29123661851446" lon="11.785081165426108"><ele>73.5</ele><time>2026-03-29T12:51:20Z</time></trkpt><trkpt lat="44.29112305348483" lon="11.785071638215245"><ele>75.25</ele><time>2026-03-29T12:51:21Z</time></trkpt><trkpt lat="44.29097816350683" lon="11.78508489200828"><ele>77.0</ele><time>2026-03-29T12:51:22Z</time></trkpt><trkpt lat="44.29076899750128" lon="11.785114846674993"><ele>77.0</ele><time>2026-03-29T12:51:23Z</time></trkpt><trkpt lat="44.29062227897142" lon="11.78511946563154"><ele>77.0</ele><time>2026-03-29T12:51:24Z</time></trkpt><trkpt lat="44.29051448122119" lon="11.785137842023632"><ele>77.0</ele><time>2026-03-29T12:51:25Z</time></trkpt><trkpt lat="44.29041727045651" lon="11.785191024469132"><ele>77.0</ele><time>2026-03-29T12:51:26Z</time></trkpt><trkpt lat="44.29030773567474" lon="11.785296983878894"><ele>84.33333333333334</ele><time>2026-03-29T12:51:27Z</time></trkpt><trkpt lat="44.29018669479711" lon="11.785449158300883"><ele>91.66666666666667</ele><time>2026-03-29T12:51:28Z</time></trkpt><trkpt lat="44.29005385136282" lon="11.785567798699295"><ele>99.0</ele><time>2026-03-29T12:51:29Z</time></trkpt><trkpt lat="44.2899106715935" lon="11.785651943628533"><ele>100.0</ele><time>2026-03-29T12:51:30Z</time></trkpt><trkpt lat="44.289736135709624" lon="11.785745103329878"><ele>101.0</ele><time>2026-03-29T12:51:31Z</time></trkpt><trkpt lat="44.28955780736773" lon="11.785835878984049"><ele>102.0</ele><time>2026-03-29T12:51:31.999Z</time></trkpt><trkpt lat="44.28937061380404" lon="11.78590500350282"><ele>102.0</ele><time>2026-03-29T12:51:32.999Z</time></trkpt><trkpt lat="44.28921308002582" lon="11.785961663251319"><ele>102.0</ele><time>2026-03-29T12:51:33.999Z</time></trkpt><trkpt lat="44.28908594630339" lon="11.786008403951158"><ele>102.0</ele><time>2026-03-29T12:51:34.999Z</time></trkpt><trkpt lat="44.28896616232816" lon="11.786058118760826"><ele>102.0</ele><time>2026-03-29T12:51:35.999Z</time></trkpt><trkpt lat="44.28884712999682" lon="11.78610800655896"><ele>105.19999999999999</ele><time>2026-03-29T12:51:36.999Z</time></trkpt><trkpt lat="44.28872528851935" lon="11.786148551473978"><ele>108.4</ele><time>2026-03-29T12:51:37.999Z</time></trkpt><trkpt lat="44.28863063057619" lon="11.786218816363462"><ele>111.60000000000001</ele><time>2026-03-29T12:51:38.999Z</time></trkpt><trkpt lat="44.288545183221686" lon="11.786275314685538"><ele>114.80000000000001</ele><time>2026-03-29T12:51:39.999Z</time></trkpt><trkpt lat="44.28846890163825" lon="11.78634342402051"><ele>118.0</ele><time>2026-03-29T12:51:40.999Z</time></trkpt><trkpt lat="44.288398653862835" lon="11.786413681642633"><ele>118.0</ele><time>2026-03-29T12:51:41.999Z</time></trkpt><trkpt lat="44.28833070481285" lon="11.786489084928492"><ele>118.00000000000001</ele><time>2026-03-29T12:51:42.999Z</time></trkpt><trkpt lat="44.2882543466205" lon="11.786567368080325"><ele>118.00000000000001</ele><time>2026-03-29T12:51:43.999Z</time></trkpt><trkpt lat="44.28818681563821" lon="11.786692740790679"><ele>118.0</ele><time>2026-03-29T12:51:44.999Z</time></trkpt><trkpt lat="44.28810893136163" lon="11.786821678951789"><ele>118.0</ele><time>2026-03-29T12:51:45.999Z</time></trkpt><trkpt lat="44.28803344167359" lon="11.786955803468619"><ele>118.80000000000001</ele><time>2026-03-29T12:51:46.999Z</time></trkpt><trkpt lat="44.28795988682421" lon="11.787067086918315"><ele>119.60000000000001</ele><time>2026-03-29T12:51:47.999Z</time></trkpt><trkpt lat="44.287891573004664" lon="11.787157120946656"><ele>120.39999999999999</ele><time>2026-03-29T12:51:48.999Z</time></trkpt><trkpt lat="44.287807251724196" lon="11.787191467616488"><ele>121.19999999999999</ele><time>2026-03-29T12:51:49.999Z</time></trkpt><trkpt lat="44.287725802483585" lon="11.787212723742938"><ele>122.0</ele><time>2026-03-29T12:51:50.999Z</time></trkpt><trkpt lat="44.28764177777842" lon="11.787104212348337"><ele>122.0</ele><time>2026-03-29T12:51:51.999Z</time></trkpt><trkpt lat="44.28760012349052" lon="11.787000875646298"><ele>121.99999999999999</ele><time>2026-03-29T12:51:52.999Z</time></trkpt><trkpt lat="44.28753060661746" lon="11.786870349502957"><ele>121.99999999999999</ele><time>2026-03-29T12:51:53.999Z</time></trkpt><trkpt lat="44.28745917563241" lon="11.786739311345906"><ele>122.0</ele><time>2026-03-29T12:51:54.999Z</time></trkpt><trkpt lat="44.28738487533858" lon="11.786599703725825"><ele>122.0</ele><time>2026-03-29T12:51:55.999Z</time></trkpt><trkpt lat="44.2873097288519" lon="11.7864585062012"><ele>122.6</ele><time>2026-03-29T12:51:56.999Z</time></trkpt><trkpt lat="44.287234282938066" lon="11.786324232454945"><ele>123.19999999999999</ele><time>2026-03-29T12:51:57.999Z</time></trkpt><trkpt lat="44.28714757338127" lon="11.786210356200593"><ele>123.8</ele><time>2026-03-29T12:51:58.999Z</time></trkpt><trkpt lat="44.28708375074155" lon="11.786098583412521"><ele>124.4</ele><time>2026-03-29T12:51:59.999Z</time></trkpt><trkpt lat="44.287019386800154" lon="11.78599615963564"><ele>125.0</ele><time>2026-03-29T12:52:00.999Z</time></trkpt><trkpt lat="44.2869403960248" lon="11.785896650255369"><ele>125.0</ele><time>2026-03-29T12:52:01.999Z</time></trkpt><trkpt lat="44.28684707913316" lon="11.785828464521725"><ele>125.0</ele><time>2026-03-29T12:52:02.999Z</time></trkpt><trkpt lat="44.28674754857247" lon="11.785785810022546"><ele>125.0</ele><time>2026-03-29T12:52:03.999Z</time></trkpt><trkpt lat="44.28664962347912" lon="11.785753796461105"><ele>125.0</ele><time>2026-03-29T12:52:04.999Z</time></trkpt><trkpt lat="44.28656182545513" lon="11.785757936631846"><ele>125.0</ele><time>2026-03-29T12:52:05.999Z</time></trkpt><trkpt lat="44.28648896878438" lon="11.785826461978138"><ele>125.0</ele><time>2026-03-29T12:52:06.999Z</time></trkpt><trkpt lat="44.286433210730436" lon="11.785917890474096"><ele>125.0</ele><time>2026-03-29T12:52:07.999Z</time></trkpt><trkpt lat="44.28637480627381" lon="11.78603501387351"><ele>125.0</ele><time>2026-03-29T12:52:08.999Z</time></trkpt><trkpt lat="44.2863228268996" lon="11.786176820082137"><ele>125.0</ele><time>2026-03-29T12:52:09.999Z</time></trkpt><trkpt lat="44.286272275335506" lon="11.786315807707998"><ele>125.0</ele><time>2026-03-29T12:52:10.999Z</time></trkpt><trkpt lat="44.2862135532597" lon="11.786441333252588"><ele>129.6</ele><time>2026-03-29T12:52:11.999Z</time></trkpt><trkpt lat="44.28616279274025" lon="11.786553119231984"><ele>134.2</ele><time>2026-03-29T12:52:12.999Z</time></trkpt><trkpt lat="44.286081023031215" lon="11.786644283897571"><ele>138.8</ele><time>2026-03-29T12:52:13.999Z</time></trkpt><trkpt lat="44.286012490754" lon="11.786725317142757"><ele>143.4</ele><time>2026-03-29T12:52:14.999Z</time></trkpt><trkpt lat="44.285931605966766" lon="11.78680881233318"><ele>148.0</ele><time>2026-03-29T12:52:15.999Z</time></trkpt><trkpt lat="44.2858373741511" lon="11.786868811995625"><ele>148.0</ele><time>2026-03-29T12:52:16.999Z</time></trkpt><trkpt lat="44.285738030264284" lon="11.786933215067952"><ele>148.0</ele><time>2026-03-29T12:52:17.999Z</time></trkpt><trkpt lat="44.285639386856495" lon="11.787003694346044"><ele>148.0</ele><time>2026-03-29T12:52:18.999Z</time></trkpt><trkpt lat="44.28553217286543" lon="11.787073850921555"><ele>148.0</ele><time>2026-03-29T12:52:19.999Z</time></trkpt><trkpt lat="44.28543766733975" lon="11.78713087446324"><ele>148.0</ele><time>2026-03-29T12:52:20.999Z</time></trkpt><trkpt lat="44.28536879043385" lon="11.787173301718695"><ele>150.5</ele><time>2026-03-29T12:52:21.999Z</time></trkpt><trkpt lat="44.28526190151629" lon="11.787212266954313"><ele>153.0</ele><time>2026-03-29T12:52:23.999Z</time></trkpt><trkpt lat="44.28523238861131" lon="11.786990057435798"><ele>155.5</ele><time>2026-03-29T12:52:26.999Z</time></trkpt><trkpt lat="44.285219510426444" lon="11.786863471201618"><ele>158.0</ele><time>2026-03-29T12:52:27.999Z</time></trkpt><trkpt lat="44.28520338273753" lon="11.786706144574694"><ele>158.60000000000002</ele><time>2026-03-29T12:52:28.999Z</time></trkpt><trkpt lat="44.285187442726155" lon="11.78656015849028"><ele>159.20000000000002</ele><time>2026-03-29T12:52:29.999Z</time></trkpt><trkpt lat="44.285166813128725" lon="11.786403814394706"><ele>159.8</ele><time>2026-03-29T12:52:30.999Z</time></trkpt><trkpt lat="44.28514308345823" lon="11.786251320234916"><ele>160.4</ele><time>2026-03-29T12:52:31.999Z</time></trkpt><trkpt lat="44.28511113116802" lon="11.786128934263228"><ele>161.0</ele><time>2026-03-29T12:52:32.999Z</time></trkpt><trkpt lat="44.28507989306791" lon="11.7860031671822"><ele>161.0</ele><time>2026-03-29T12:52:33.999Z</time></trkpt><trkpt lat="44.285027740553836" lon="11.785892363708783"><ele>161.0</ele><time>2026-03-29T12:52:34.999Z</time></trkpt><trkpt lat="44.28495782034343" lon="11.78579454493983"><ele>161.0</ele><time>2026-03-29T12:52:35.999Z</time></trkpt><trkpt lat="44.28486606822545" lon="11.785680977664006"><ele>161.0</ele><time>2026-03-29T12:52:36.999Z</time></trkpt><trkpt lat="44.28475276318312" lon="11.785577903433097"><ele>161.5</ele><time>2026-03-29T12:52:37.999Z</time></trkpt><trkpt lat="44.28463343234113" lon="11.785498567375578"><ele>162.0</ele><time>2026-03-29T12:52:38.998Z</time></trkpt><trkpt lat="44.284544885545316" lon="11.785398008125124"><ele>162.5</ele><time>2026-03-29T12:52:39.998Z</time></trkpt><trkpt lat="44.28444166392596" lon="11.785332007545623"><ele>163.0</ele><time>2026-03-29T12:52:40.998Z</time></trkpt><trkpt lat="44.28434227946305" lon="11.785271957822944"><ele>163.0</ele><time>2026-03-29T12:52:41.998Z</time></trkpt><trkpt lat="44.28424010610728" lon="11.785223262924436"><ele>163.0</ele><time>2026-03-29T12:52:42.998Z</time></trkpt><trkpt lat="44.284115238494174" lon="11.785167430067517"><ele>163.0</ele><time>2026-03-29T12:52:43.998Z</time></trkpt><trkpt lat="44.283972613488096" lon="11.785128352180665"><ele>163.0</ele><time>2026-03-29T12:52:44.998Z</time></trkpt><trkpt lat="44.28383736305492" lon="11.78509007724068"><ele>162.25</ele><time>2026-03-29T12:52:45.998Z</time></trkpt><trkpt lat="44.28368986261319" lon="11.785024093933169"><ele>161.5</ele><time>2026-03-29T12:52:46.998Z</time></trkpt><trkpt lat="44.28355668812414" lon="11.784958447973313"><ele>160.75</ele><time>2026-03-29T12:52:47.998Z</time></trkpt><trkpt lat="44.28341910721364" lon="11.784879852799932"><ele>160.0</ele><time>2026-03-29T12:52:49Z</time></trkpt><trkpt lat="44.283278141886285" lon="11.78480539469574"><ele>160.0</ele><time>2026-03-29T12:52:50Z</time></trkpt><trkpt lat="44.2831406712281" lon="11.784718584942455"><ele>160.0</ele><time>2026-03-29T12:52:51Z</time></trkpt><trkpt lat="44.28300020793117" lon="11.784621566123548"><ele>160.0</ele><time>2026-03-29T12:52:52Z</time></trkpt><trkpt lat="44.28286809634968" lon="11.784535652947454"><ele>159.5</ele><time>2026-03-29T12:52:53Z</time></trkpt><trkpt lat="44.282733982553395" lon="11.784446348361021"><ele>159.0</ele><time>2026-03-29T12:52:54Z</time></trkpt><trkpt lat="44.28259851273602" lon="11.784362588241825"><ele>158.5</ele><time>2026-03-29T12:52:55Z</time></trkpt><trkpt lat="44.28246524242244" lon="11.784275679277407"><ele>158.0</ele><time>2026-03-29T12:52:56Z</time></trkpt><trkpt lat="44.28234203933733" lon="11.784194679179505"><ele>158.75</ele><time>2026-03-29T12:52:57Z</time></trkpt><trkpt lat="44.28223000580834" lon="11.784121116681213"><ele>159.5</ele><time>2026-03-29T12:52:58Z</time></trkpt><trkpt lat="44.28211869443461" lon="11.7840511073843"><ele>160.25</ele><time>2026-03-29T12:52:59Z</time></trkpt><trkpt lat="44.28200828629865" lon="11.783970573084046"><ele>161.0</ele><time>2026-03-29T12:53:00Z</time></trkpt><trkpt lat="44.2818861905022" lon="11.783888574201368"><ele>161.0</ele><time>2026-03-29T12:53:01Z</time></trkpt><trkpt lat="44.28176608919321" lon="11.783803021022157"><ele>161.0</ele><time>2026-03-29T12:53:02Z</time></trkpt><trkpt lat="44.28164089937053" lon="11.783719760134233"><ele>161.0</ele><time>2026-03-29T12:53:03Z</time></trkpt><trkpt lat="44.28151125983654" lon="11.783635236784802"><ele>161.0</ele><time>2026-03-29T12:53:04Z</time></trkpt><trkpt lat="44.28138143863926" lon="11.783547274935183"><ele>161.0</ele><time>2026-03-29T12:53:05Z</time></trkpt><trkpt lat="44.281257786247174" lon="11.78346674266242"><ele>161.0</ele><time>2026-03-29T12:53:06Z</time></trkpt><trkpt lat="44.281137926745814" lon="11.783395608526385"><ele>161.0</ele><time>2026-03-29T12:53:07Z</time></trkpt><trkpt lat="44.281015410393756" lon="11.783318768727982"><ele>161.0</ele><time>2026-03-29T12:53:08Z</time></trkpt><trkpt lat="44.28088991251276" lon="11.783257670602918"><ele>161.0</ele><time>2026-03-29T12:53:09Z</time></trkpt><trkpt lat="44.28075796704408" lon="11.783220911039265"><ele>161.0</ele><time>2026-03-29T12:53:10Z</time></trkpt><trkpt lat="44.28062256683484" lon="11.7831949121573"><ele>161.0</ele><time>2026-03-29T12:53:11Z</time></trkpt><trkpt lat="44.28049073920002" lon="11.783169738431083"><ele>161.0</ele><time>2026-03-29T12:53:12Z</time></trkpt><trkpt lat="44.28035882614127" lon="11.783152788778803"><ele>162.0</ele><time>2026-03-29T12:53:13Z</time></trkpt><trkpt lat="44.28022650883646" lon="11.783135069885649"><ele>163.0</ele><time>2026-03-29T12:53:14Z</time></trkpt><trkpt lat="44.280102025995284" lon="11.783134126585221"><ele>164.0</ele><time>2026-03-29T12:53:15Z</time></trkpt><trkpt lat="44.27996425419232" lon="11.783107155840936"><ele>165.0</ele><time>2026-03-29T12:53:16Z</time></trkpt><trkpt lat="44.27982590641523" lon="11.78306837308252"><ele>166.0</ele><time>2026-03-29T12:53:17Z</time></trkpt><trkpt lat="44.27969636572865" lon="11.783008144793989"><ele>167.0</ele><time>2026-03-29T12:53:18Z</time></trkpt><trkpt lat="44.27957026490845" lon="11.782953048949725"><ele>168.0</ele><time>2026-03-29T12:53:19Z</time></trkpt><trkpt lat="44.2794391737618" lon="11.782896063945563"><ele>169.0</ele><time>2026-03-29T12:53:20Z</time></trkpt><trkpt lat="44.27931322174438" lon="11.782840490765345"><ele>169.0</ele><time>2026-03-29T12:53:21Z</time></trkpt><trkpt lat="44.279196411917965" lon="11.78278220236907"><ele>169.0</ele><time>2026-03-29T12:53:22Z</time></trkpt><trkpt lat="44.27907624863602" lon="11.782731992949115"><ele>169.0</ele><time>2026-03-29T12:53:23Z</time></trkpt><trkpt lat="44.27895067456926" lon="11.782691573072906"><ele>169.0</ele><time>2026-03-29T12:53:24Z</time></trkpt><trkpt lat="44.27885284511719" lon="11.782643328886257"><ele>169.5</ele><time>2026-03-29T12:53:25Z</time></trkpt><trkpt lat="44.27872628140918" lon="11.782597747707559"><ele>170.0</ele><time>2026-03-29T12:53:26Z</time></trkpt><trkpt lat="44.27858785126843" lon="11.782551012428627"><ele>170.5</ele><time>2026-03-29T12:53:27Z</time></trkpt><trkpt lat="44.27845613380577" lon="11.782507287841094"><ele>171.0</ele><time>2026-03-29T12:53:28Z</time></trkpt><trkpt lat="44.27832139341155" lon="11.782484149475023"><ele>171.0</ele><time>2026-03-29T12:53:29Z</time></trkpt><trkpt lat="44.278194213207904" lon="11.782421590636988"><ele>171.0</ele><time>2026-03-29T12:53:30Z</time></trkpt><trkpt lat="44.27806332399534" lon="11.782379493396867"><ele>171.0</ele><time>2026-03-29T12:53:31Z</time></trkpt><trkpt lat="44.27792793752774" lon="11.782336443825223"><ele>171.0</ele><time>2026-03-29T12:53:32Z</time></trkpt><trkpt lat="44.277781271624825" lon="11.782300225033506"><ele>170.25</ele><time>2026-03-29T12:53:33Z</time></trkpt><trkpt lat="44.27765035582887" lon="11.782265548090303"><ele>169.5</ele><time>2026-03-29T12:53:34Z</time></trkpt><trkpt lat="44.27752177886658" lon="11.782222531481752"><ele>168.75</ele><time>2026-03-29T12:53:35Z</time></trkpt><trkpt lat="44.27740080874387" lon="11.78217774660694"><ele>168.0</ele><time>2026-03-29T12:53:35.999Z</time></trkpt><trkpt lat="44.277284404475516" lon="11.782138385577063"><ele>166.25</ele><time>2026-03-29T12:53:36.999Z</time></trkpt><trkpt lat="44.27717856075128" lon="11.78209795676753"><ele>164.5</ele><time>2026-03-29T12:53:37.999Z</time></trkpt><trkpt lat="44.277057116793046" lon="11.782046121885157"><ele>162.75</ele><time>2026-03-29T12:53:38.999Z</time></trkpt><trkpt lat="44.27695818520028" lon="11.781970765052257"><ele>161.0</ele><time>2026-03-29T12:53:39.999Z</time></trkpt><trkpt lat="44.27685626700326" lon="11.781897359471657"><ele>161.25</ele><time>2026-03-29T12:53:40.999Z</time></trkpt><trkpt lat="44.2767565737512" lon="11.781808854518953"><ele>161.5</ele><time>2026-03-29T12:53:41.999Z</time></trkpt><trkpt lat="44.27664405707506" lon="11.781737184471734"><ele>161.75</ele><time>2026-03-29T12:53:42.999Z</time></trkpt><trkpt lat="44.27653726754672" lon="11.781638864297049"><ele>162.0</ele><time>2026-03-29T12:53:43.999Z</time></trkpt><trkpt lat="44.276427173529456" lon="11.78153868220578"><ele>162.0</ele><time>2026-03-29T12:53:44.999Z</time></trkpt><trkpt lat="44.27633829032746" lon="11.781424996254986"><ele>162.0</ele><time>2026-03-29T12:53:45.999Z</time></trkpt><trkpt lat="44.27624810567764" lon="11.781316667190449"><ele>162.0</ele><time>2026-03-29T12:53:46.999Z</time></trkpt><trkpt lat="44.27615397053304" lon="11.781207929576224"><ele>162.0</ele><time>2026-03-29T12:53:47.999Z</time></trkpt><trkpt lat="44.276077863558264" lon="11.781080861266865"><ele>164.5</ele><time>2026-03-29T12:53:48.999Z</time></trkpt><trkpt lat="44.276013972068746" lon="11.78094704310263"><ele>167.0</ele><time>2026-03-29T12:53:49.999Z</time></trkpt><trkpt lat="44.27593016162366" lon="11.780848716786867"><ele>169.5</ele><time>2026-03-29T12:53:50.999Z</time></trkpt><trkpt lat="44.27584763584922" lon="11.780730288430231"><ele>172.0</ele><time>2026-03-29T12:53:51.999Z</time></trkpt><trkpt lat="44.27576136235722" lon="11.780626242169134"><ele>172.0</ele><time>2026-03-29T12:53:52.999Z</time></trkpt><trkpt lat="44.275676003889295" lon="11.780508668241733"><ele>172.0</ele><time>2026-03-29T12:53:53.999Z</time></trkpt><trkpt lat="44.275594360723716" lon="11.780392663559937"><ele>172.0</ele><time>2026-03-29T12:53:54.999Z</time></trkpt><trkpt lat="44.2755097295722" lon="11.780274818171389"><ele>172.0</ele><time>2026-03-29T12:53:55.999Z</time></trkpt><trkpt lat="44.27542269313931" lon="11.780188363673366"><ele>173.6</ele><time>2026-03-29T12:53:56.999Z</time></trkpt><trkpt lat="44.275352125197" lon="11.7801157598186"><ele>175.2</ele><time>2026-03-29T12:53:57.999Z</time></trkpt><trkpt lat="44.27528254813855" lon="11.780028786501125"><ele>176.8</ele><time>2026-03-29T12:53:58.999Z</time></trkpt><trkpt lat="44.2752614431061" lon="11.779888634983251"><ele>178.4</ele><time>2026-03-29T12:53:59.999Z</time></trkpt><trkpt lat="44.275207673572496" lon="11.779761622293215"><ele>180.0</ele><time>2026-03-29T12:54:00.999Z</time></trkpt><trkpt lat="44.275138894728585" lon="11.779613377759945"><ele>180.0</ele><time>2026-03-29T12:54:01.999Z</time></trkpt><trkpt lat="44.27505276049704" lon="11.779495422031568"><ele>180.0</ele><time>2026-03-29T12:54:02.999Z</time></trkpt><trkpt lat="44.274982781319515" lon="11.779363170658183"><ele>180.0</ele><time>2026-03-29T12:54:03.999Z</time></trkpt><trkpt lat="44.27489602456529" lon="11.779258996924634"><ele>180.0</ele><time>2026-03-29T12:54:04.999Z</time></trkpt><trkpt lat="44.27480251076427" lon="11.779164643424304"><ele>182.5</ele><time>2026-03-29T12:54:05.999Z</time></trkpt><trkpt lat="44.27469079222712" lon="11.779058226987356"><ele>185.0</ele><time>2026-03-29T12:54:06.999Z</time></trkpt><trkpt lat="44.27457344276753" lon="11.778949904256903"><ele>187.5</ele><time>2026-03-29T12:54:07.999Z</time></trkpt><trkpt lat="44.274459254153335" lon="11.778846548244886"><ele>190.0</ele><time>2026-03-29T12:54:08.999Z</time></trkpt><trkpt lat="44.27434368251893" lon="11.778766435157035"><ele>190.0</ele><time>2026-03-29T12:54:09.999Z</time></trkpt><trkpt lat="44.27425118826048" lon="11.778675412312955"><ele>190.0</ele><time>2026-03-29T12:54:10.999Z</time></trkpt><trkpt lat="44.27416292075615" lon="11.778604863526894"><ele>190.0</ele><time>2026-03-29T12:54:11.999Z</time></trkpt><trkpt lat="44.27406819882677" lon="11.778533629347718"><ele>190.0</ele><time>2026-03-29T12:54:12.999Z</time></trkpt><trkpt lat="44.27397962634824" lon="11.778488420621363"><ele>190.0</ele><time>2026-03-29T12:54:13.999Z</time></trkpt><trkpt lat="44.273872474984074" lon="11.7784263674766"><ele>190.8</ele><time>2026-03-29T12:54:14.999Z</time></trkpt><trkpt lat="44.273766076632214" lon="11.778417691657125"><ele>191.6</ele><time>2026-03-29T12:54:15.999Z</time></trkpt><trkpt lat="44.27366056688869" lon="11.778388944950464"><ele>192.39999999999998</ele><time>2026-03-29T12:54:16.999Z</time></trkpt><trkpt lat="44.27356010760653" lon="11.778371912816525"><ele>193.2</ele><time>2026-03-29T12:54:17.999Z</time></trkpt><trkpt lat="44.27345240381722" lon="11.77837165675716"><ele>194.0</ele><time>2026-03-29T12:54:18.999Z</time></trkpt><trkpt lat="44.273340650341545" lon="11.778373166373141"><ele>194.0</ele><time>2026-03-29T12:54:19.999Z</time></trkpt><trkpt lat="44.27321291596469" lon="11.778371056597827"><ele>194.0</ele><time>2026-03-29T12:54:20.999Z</time></trkpt><trkpt lat="44.27307653977495" lon="11.778375119883723"><ele>194.0</ele><time>2026-03-29T12:54:21.999Z</time></trkpt><trkpt lat="44.272933577855106" lon="11.778388847254474"><ele>194.0</ele><time>2026-03-29T12:54:22.999Z</time></trkpt><trkpt lat="44.272802089655336" lon="11.778406072968547"><ele>195.75</ele><time>2026-03-29T12:54:23.999Z</time></trkpt><trkpt lat="44.272669905146806" lon="11.778407381411768"><ele>197.5</ele><time>2026-03-29T12:54:24.999Z</time></trkpt><trkpt lat="44.27253036239159" lon="11.778370264633887"><ele>199.25</ele><time>2026-03-29T12:54:25.999Z</time></trkpt><trkpt lat="44.272393853977725" lon="11.778343490657795"><ele>201.0</ele><time>2026-03-29T12:54:26.999Z</time></trkpt><trkpt lat="44.27226917976273" lon="11.778319215640023"><ele>201.75</ele><time>2026-03-29T12:54:27.999Z</time></trkpt><trkpt lat="44.27214351991038" lon="11.778294748713359"><ele>202.5</ele><time>2026-03-29T12:54:28.999Z</time></trkpt><trkpt lat="44.272016067173766" lon="11.778269932688444"><ele>203.25</ele><time>2026-03-29T12:54:29.999Z</time></trkpt><trkpt lat="44.27188207137718" lon="11.778344628872595"><ele>204.0</ele><time>2026-03-29T12:54:30.999Z</time></trkpt><trkpt lat="44.271794023737534" lon="11.778350333958576"><ele>204.0</ele><time>2026-03-29T12:54:31.999Z</time></trkpt><trkpt lat="44.27171546415823" lon="11.778372892347475"><ele>204.0</ele><time>2026-03-29T12:54:32.999Z</time></trkpt><trkpt lat="44.271652937374824" lon="11.778403762618652"><ele>204.0</ele><time>2026-03-29T12:54:33.999Z</time></trkpt><trkpt lat="44.27153849825943" lon="11.7784368533975"><ele>204.0</ele><time>2026-03-29T12:54:35.999Z</time></trkpt><trkpt lat="44.27141086715633" lon="11.778424127776663"><ele>204.0</ele><time>2026-03-29T12:54:37.999Z</time></trkpt><trkpt lat="44.27133649838107" lon="11.77840790051245"><ele>204.79999999999998</ele><time>2026-03-29T12:54:38.999Z</time></trkpt><trkpt lat="44.27125391604115" lon="11.778403618812764"><ele>205.6</ele><time>2026-03-29T12:54:39.999Z</time></trkpt><trkpt lat="44.27116669841996" lon="11.778405508401471"><ele>206.4</ele><time>2026-03-29T12:54:40.999Z</time></trkpt><trkpt lat="44.271073420670945" lon="11.778397425135843"><ele>207.2</ele><time>2026-03-29T12:54:41.999Z</time></trkpt><trkpt lat="44.270973509992494" lon="11.778384144898673"><ele>208.0</ele><time>2026-03-29T12:54:42.998Z</time></trkpt><trkpt lat="44.27087655814477" lon="11.77837471463717"><ele>207.99999999999997</ele><time>2026-03-29T12:54:43.998Z</time></trkpt><trkpt lat="44.27079760749963" lon="11.77836960563735"><ele>208.0</ele><time>2026-03-29T12:54:44.998Z</time></trkpt><trkpt lat="44.27071372291824" lon="11.778364953403948"><ele>208.0</ele><time>2026-03-29T12:54:45.998Z</time></trkpt><trkpt lat="44.27062563295879" lon="11.778354001468594"><ele>208.0</ele><time>2026-03-29T12:54:46.998Z</time></trkpt><trkpt lat="44.27055411198922" lon="11.778354030339566"><ele>207.99999999999997</ele><time>2026-03-29T12:54:47.998Z</time></trkpt><trkpt lat="44.27048802885518" lon="11.778373917137323"><ele>208.0</ele><time>2026-03-29T12:54:48.998Z</time></trkpt><trkpt lat="44.270416649946476" lon="11.77842353604098"><ele>209.8</ele><time>2026-03-29T12:54:49.998Z</time></trkpt><trkpt lat="44.27034334986273" lon="11.778485854623979"><ele>211.60000000000002</ele><time>2026-03-29T12:54:50.998Z</time></trkpt><trkpt lat="44.270263167583515" lon="11.778574199480074"><ele>213.39999999999998</ele><time>2026-03-29T12:54:51.998Z</time></trkpt><trkpt lat="44.27019084872493" lon="11.77869058668238"><ele>215.2</ele><time>2026-03-29T12:54:52.998Z</time></trkpt><trkpt lat="44.27014370118974" lon="11.778820917699218"><ele>217.0</ele><time>2026-03-29T12:54:53.998Z</time></trkpt><trkpt lat="44.27013894572079" lon="11.77897241739976"><ele>218.6</ele><time>2026-03-29T12:54:55Z</time></trkpt><trkpt lat="44.2701368465018" lon="11.779138299861378"><ele>220.2</ele><time>2026-03-29T12:54:56Z</time></trkpt><trkpt lat="44.27014183425342" lon="11.779264400198322"><ele>221.8</ele><time>2026-03-29T12:54:57Z</time></trkpt><trkpt lat="44.27013539969814" lon="11.779386059342995"><ele>223.4</ele><time>2026-03-29T12:54:59Z</time></trkpt><trkpt lat="44.270082465686954" lon="11.779320253519959"><ele>225.0</ele><time>2026-03-29T12:55:46.999Z</time></trkpt><trkpt lat="44.269957232318106" lon="11.779232748899085"><ele>225.25</ele><time>2026-03-29T12:58:57.998Z</time></trkpt><trkpt lat="44.26985024302517" lon="11.779183414140148"><ele>225.5</ele><time>2026-03-29T12:58:58.998Z</time></trkpt><trkpt lat="44.26971660130848" lon="11.77913783451066"><ele>225.75</ele><time>2026-03-29T12:58:59.998Z</time></trkpt><trkpt lat="44.269577641218" lon="11.779067504897112"><ele>226.0</ele><time>2026-03-29T12:59:00.998Z</time></trkpt><trkpt lat="44.26941952052422" lon="11.778993512631814"><ele>226.0</ele><time>2026-03-29T12:59:01.998Z</time></trkpt><trkpt lat="44.2692678953178" lon="11.778937529305976"><ele>226.0</ele><time>2026-03-29T12:59:02.998Z</time></trkpt><trkpt lat="44.26912045635536" lon="11.778846741294759"><ele>226.0</ele><time>2026-03-29T12:59:03.998Z</time></trkpt><trkpt lat="44.26895615557425" lon="11.778745477548307"><ele>224.66666666666666</ele><time>2026-03-29T12:59:04.998Z</time></trkpt><trkpt lat="44.26879143750396" lon="11.77863653112903"><ele>223.33333333333331</ele><time>2026-03-29T12:59:05.998Z</time></trkpt><trkpt lat="44.26864512444953" lon="11.77853549820099"><ele>222.0</ele><time>2026-03-29T12:59:07Z</time></trkpt><trkpt lat="44.26850968794674" lon="11.778443455961936"><ele>223.75</ele><time>2026-03-29T12:59:08Z</time></trkpt><trkpt lat="44.26837739048946" lon="11.77836702882813"><ele>225.5</ele><time>2026-03-29T12:59:09Z</time></trkpt><trkpt lat="44.268250038820796" lon="11.778300018173082"><ele>227.25</ele><time>2026-03-29T12:59:10Z</time></trkpt><trkpt lat="44.2681447328216" lon="11.778245306137997"><ele>229.0</ele><time>2026-03-29T12:59:11Z</time></trkpt><trkpt lat="44.268043317395886" lon="11.778207063793108"><ele>229.0</ele><time>2026-03-29T12:59:12Z</time></trkpt><trkpt lat="44.26795631283418" lon="11.778170970454422"><ele>228.99999999999997</ele><time>2026-03-29T12:59:13Z</time></trkpt><trkpt lat="44.26788567272251" lon="11.778109384762482"><ele>228.99999999999997</ele><time>2026-03-29T12:59:14Z</time></trkpt><trkpt lat="44.26781269201134" lon="11.778032530827538"><ele>229.0</ele><time>2026-03-29T12:59:15Z</time></trkpt><trkpt lat="44.26772580237603" lon="11.777954515752299"><ele>229.0</ele><time>2026-03-29T12:59:16Z</time></trkpt><trkpt lat="44.26763541679173" lon="11.777882540485033"><ele>229.0</ele><time>2026-03-29T12:59:17Z</time></trkpt><trkpt lat="44.26754750606883" lon="11.77780988367291"><ele>228.99999999999997</ele><time>2026-03-29T12:59:18Z</time></trkpt><trkpt lat="44.26746015453012" lon="11.777734056581222"><ele>228.99999999999997</ele><time>2026-03-29T12:59:19Z</time></trkpt><trkpt lat="44.2673699123985" lon="11.777659001008477"><ele>229.0</ele><time>2026-03-29T12:59:20Z</time></trkpt><trkpt lat="44.26727986390964" lon="11.777581280383401"><ele>229.0</ele><time>2026-03-29T12:59:21Z</time></trkpt><trkpt lat="44.26718356067789" lon="11.777501868545082"><ele>229.16666666666666</ele><time>2026-03-29T12:59:22Z</time></trkpt><trkpt lat="44.26710269658637" lon="11.777428280843282"><ele>229.33333333333331</ele><time>2026-03-29T12:59:23Z</time></trkpt><trkpt lat="44.26701872975053" lon="11.77735646222843"><ele>229.5</ele><time>2026-03-29T12:59:24Z</time></trkpt><trkpt lat="44.266953063753704" lon="11.777296378415901"><ele>229.66666666666669</ele><time>2026-03-29T12:59:25Z</time></trkpt><trkpt lat="44.26689455750433" lon="11.777241112605788"><ele>229.83333333333334</ele><time>2026-03-29T12:59:26Z</time></trkpt><trkpt lat="44.26683883475907" lon="11.777194544076059"><ele>230.0</ele><time>2026-03-29T12:59:27Z</time></trkpt><trkpt lat="44.266773365070506" lon="11.777160499267325"><ele>230.00000000000003</ele><time>2026-03-29T12:59:28Z</time></trkpt><trkpt lat="44.266668007533646" lon="11.777109491616834"><ele>230.0</ele><time>2026-03-29T12:59:30Z</time></trkpt><trkpt lat="44.26658286324211" lon="11.777088713854155"><ele>230.0</ele><time>2026-03-29T12:59:32Z</time></trkpt><trkpt lat="44.266493116307686" lon="11.777108328987262"><ele>230.0</ele><time>2026-03-29T12:59:34Z</time></trkpt><trkpt lat="44.26642036144934" lon="11.777153503951457"><ele>230.00000000000003</ele><time>2026-03-29T12:59:36Z</time></trkpt><trkpt lat="44.266364771328746" lon="11.777223496698916"><ele>230.0</ele><time>2026-03-29T12:59:38Z</time></trkpt><trkpt lat="44.26630332474904" lon="11.777286474213204"><ele>226.8</ele><time>2026-03-29T12:59:40Z</time></trkpt><trkpt lat="44.266222843514775" lon="11.777362678415157"><ele>223.6</ele><time>2026-03-29T12:59:42Z</time></trkpt><trkpt lat="44.266123254527635" lon="11.77743859267154"><ele>220.39999999999998</ele><time>2026-03-29T12:59:44Z</time></trkpt><trkpt lat="44.26603049324538" lon="11.777497838774986"><ele>217.2</ele><time>2026-03-29T12:59:46Z</time></trkpt><trkpt lat="44.265977791678424" lon="11.777551433840323"><ele>214.0</ele><time>2026-03-29T12:59:48Z</time></trkpt><trkpt lat="44.26589575697189" lon="11.77750998564531"><ele>214.0</ele><time>2026-03-29T12:59:51Z</time></trkpt><trkpt lat="44.2658114232814" lon="11.777490451048601"><ele>213.99999999999997</ele><time>2026-03-29T12:59:53.999Z</time></trkpt><trkpt lat="44.26575061519746" lon="11.77755989256048"><ele>213.99999999999997</ele><time>2026-03-29T13:00:19.999Z</time></trkpt><trkpt lat="44.265633685640466" lon="11.777535202854917"><ele>214.0</ele><time>2026-03-29T13:00:21.999Z</time></trkpt><trkpt lat="44.26556240482759" lon="11.77755534904102"><ele>214.0</ele><time>2026-03-29T13:00:22.999Z</time></trkpt><trkpt lat="44.26542745686613" lon="11.777614543092797"><ele>212.99999999999997</ele><time>2026-03-29T13:00:24.999Z</time></trkpt><trkpt lat="44.265352850758724" lon="11.777669606935731"><ele>212.0</ele><time>2026-03-29T13:00:25.999Z</time></trkpt><trkpt lat="44.26529286463182" lon="11.777720318034081"><ele>211.0</ele><time>2026-03-29T13:00:26.999Z</time></trkpt><trkpt lat="44.26523458309474" lon="11.77777307242756"><ele>210.0</ele><time>2026-03-29T13:00:27.999Z</time></trkpt><trkpt lat="44.26512804324531" lon="11.777871387473352"><ele>208.99999999999997</ele><time>2026-03-29T13:00:29.999Z</time></trkpt><trkpt lat="44.26505789622065" lon="11.777930446688625"><ele>208.0</ele><time>2026-03-29T13:00:30.999Z</time></trkpt><trkpt lat="44.26498417087476" lon="11.777970623828415"><ele>207.99999999999997</ele><time>2026-03-29T13:00:31.999Z</time></trkpt><trkpt lat="44.264900343087646" lon="11.777966097439714"><ele>208.0</ele><time>2026-03-29T13:00:32.999Z</time></trkpt><trkpt lat="44.26481117543773" lon="11.777994246107816"><ele>208.0</ele><time>2026-03-29T13:00:33.999Z</time></trkpt><trkpt lat="44.26474269839868" lon="11.778029147754125"><ele>208.0</ele><time>2026-03-29T13:00:34.999Z</time></trkpt><trkpt lat="44.26467840284726" lon="11.778087365608712"><ele>207.99999999999997</ele><time>2026-03-29T13:00:35.999Z</time></trkpt><trkpt lat="44.26462194259952" lon="11.778141713220409"><ele>208.0</ele><time>2026-03-29T13:00:36.999Z</time></trkpt><trkpt lat="44.264564801790414" lon="11.778194367366412"><ele>207.99999999999997</ele><time>2026-03-29T13:00:37.999Z</time></trkpt><trkpt lat="44.264497145828834" lon="11.778253624741788"><ele>208.0</ele><time>2026-03-29T13:00:38.999Z</time></trkpt><trkpt lat="44.26443036029783" lon="11.778303312958586"><ele>208.0</ele><time>2026-03-29T13:00:39.999Z</time></trkpt><trkpt lat="44.26436632379487" lon="11.778343849247397"><ele>208.0</ele><time>2026-03-29T13:00:40.999Z</time></trkpt><trkpt lat="44.264258653390655" lon="11.778398332143997"><ele>207.99999999999997</ele><time>2026-03-29T13:00:42.999Z</time></trkpt><trkpt lat="44.2641753079785" lon="11.77844934702032"><ele>208.0</ele><time>2026-03-29T13:00:44.999Z</time></trkpt><trkpt lat="44.26410699756089" lon="11.778500276972046"><ele>206.8</ele><time>2026-03-29T13:00:47.999Z</time></trkpt><trkpt lat="44.263995823317266" lon="11.778557126935368"><ele>205.60000000000002</ele><time>2026-03-29T13:00:50.999Z</time></trkpt><trkpt lat="44.26392479262102" lon="11.778639460591325"><ele>204.39999999999998</ele><time>2026-03-29T13:00:52.999Z</time></trkpt><trkpt lat="44.2638294773461" lon="11.778700472164617"><ele>203.2</ele><time>2026-03-29T13:00:54.999Z</time></trkpt><trkpt lat="44.26372505593554" lon="11.778705234294575"><ele>202.0</ele><time>2026-03-29T13:00:56.999Z</time></trkpt><trkpt lat="44.26364104363037" lon="11.77875068030871"><ele>201.99999999999997</ele><time>2026-03-29T13:00:58.999Z</time></trkpt><trkpt lat="44.263543049600194" lon="11.778828492489087"><ele>202.0</ele><time>2026-03-29T13:01:00.998Z</time></trkpt><trkpt lat="44.26346006328392" lon="11.778848580874708"><ele>202.0</ele><time>2026-03-29T13:01:02.998Z</time></trkpt><trkpt lat="44.26338565679468" lon="11.778888830758952"><ele>202.0</ele><time>2026-03-29T13:01:04.998Z</time></trkpt><trkpt lat="44.26332332763456" lon="11.778922547455135"><ele>201.99999999999997</ele><time>2026-03-29T13:01:06.998Z</time></trkpt><trkpt lat="44.26325996054554" lon="11.778956825601096"><ele>202.0</ele><time>2026-03-29T13:01:08.998Z</time></trkpt><trkpt lat="44.26318839742787" lon="11.77899553735403"><ele>198.33333333333331</ele><time>2026-03-29T13:01:10.998Z</time></trkpt><trkpt lat="44.26311203369272" lon="11.779037947135123"><ele>194.66666666666666</ele><time>2026-03-29T13:01:13Z</time></trkpt><trkpt lat="44.263032665282005" lon="11.779082376856069"><ele>191.0</ele><time>2026-03-29T13:01:15Z</time></trkpt><trkpt lat="44.2629729275225" lon="11.779120278765621"><ele>187.33333333333331</ele><time>2026-03-29T13:01:17Z</time></trkpt><trkpt lat="44.26290623000246" lon="11.779169964237305"><ele>183.66666666666666</ele><time>2026-03-29T13:01:20Z</time></trkpt><trkpt lat="44.2628345333873" lon="11.779254701547652"><ele>180.0</ele><time>2026-03-29T13:01:25Z</time></trkpt><trkpt lat="44.26282044868734" lon="11.779359849707843"><ele>180.0</ele><time>2026-03-29T13:01:28Z</time></trkpt><trkpt lat="44.262856786515044" lon="11.779216559817698"><ele>180.0</ele><time>2026-03-29T13:02:27.999Z</time></trkpt><trkpt lat="44.26292561204594" lon="11.779165035650102"><ele>180.0</ele><time>2026-03-29T13:02:29.999Z</time></trkpt><trkpt lat="44.26298475762062" lon="11.779123369757315"><ele>180.0</ele><time>2026-03-29T13:02:30.999Z</time></trkpt><trkpt lat="44.263066328603955" lon="11.779099306024372"><ele>180.0</ele><time>2026-03-29T13:02:32.999Z</time></trkpt><trkpt lat="44.26314185021899" lon="11.779060291513428"><ele>180.0</ele><time>2026-03-29T13:02:34.999Z</time></trkpt><trkpt lat="44.26321399109445" lon="11.779012818167766"><ele>183.66666666666666</ele><time>2026-03-29T13:02:36.999Z</time></trkpt><trkpt lat="44.26327883832382" lon="11.778978782719363"><ele>187.33333333333331</ele><time>2026-03-29T13:02:38.999Z</time></trkpt><trkpt lat="44.26334815199593" lon="11.778934820703409"><ele>191.0</ele><time>2026-03-29T13:02:40.999Z</time></trkpt><trkpt lat="44.263423313637546" lon="11.778875655355572"><ele>194.66666666666666</ele><time>2026-03-29T13:02:42.999Z</time></trkpt><trkpt lat="44.26351931146973" lon="11.778824722571118"><ele>198.33333333333331</ele><time>2026-03-29T13:02:44.999Z</time></trkpt><trkpt lat="44.26362458725993" lon="11.778775526147653"><ele>202.0</ele><time>2026-03-29T13:02:46.999Z</time></trkpt><trkpt lat="44.26372619080482" lon="11.778754333964361"><ele>202.0</ele><time>2026-03-29T13:02:48.999Z</time></trkpt><trkpt lat="44.26380535113847" lon="11.778711512464374"><ele>202.0</ele><time>2026-03-29T13:02:50.999Z</time></trkpt><trkpt lat="44.26390360376627" lon="11.778658366386006"><ele>202.0</ele><time>2026-03-29T13:02:52.999Z</time></trkpt><trkpt lat="44.26401114521586" lon="11.77859850338784"><ele>202.0</ele><time>2026-03-29T13:02:54.999Z</time></trkpt><trkpt lat="44.26409566407197" lon="11.778548716152093"><ele>202.0</ele><time>2026-03-29T13:02:56.999Z</time></trkpt><trkpt lat="44.26400323538155" lon="11.778242975742067"><ele>202.6</ele><time>2026-03-29T13:03:12.998Z</time></trkpt><trkpt lat="44.26389601747234" lon="11.778161353112768"><ele>203.2</ele><time>2026-03-29T13:03:14.998Z</time></trkpt><trkpt lat="44.26379706516862" lon="11.778053196703818"><ele>203.8</ele><time>2026-03-29T13:03:16.998Z</time></trkpt><trkpt lat="44.263704185278385" lon="11.77798378745029"><ele>204.4</ele><time>2026-03-29T13:03:19Z</time></trkpt><trkpt lat="44.26362735360774" lon="11.777940689185675"><ele>205.0</ele><time>2026-03-29T13:03:20Z</time></trkpt><trkpt lat="44.2635597640744" lon="11.777917044137977"><ele>204.99999999999997</ele><time>2026-03-29T13:03:21Z</time></trkpt><trkpt lat="44.26349285054155" lon="11.777881206786898"><ele>205.0</ele><time>2026-03-29T13:03:22Z</time></trkpt><trkpt lat="44.263443073209785" lon="11.777822274155719"><ele>205.0</ele><time>2026-03-29T13:03:23Z</time></trkpt><trkpt lat="44.2633628563496" lon="11.777665815984912"><ele>205.0</ele><time>2026-03-29T13:03:25Z</time></trkpt><trkpt lat="44.263336983666775" lon="11.777567713477284"><ele>204.99999999999997</ele><time>2026-03-29T13:03:26Z</time></trkpt><trkpt lat="44.263313373538224" lon="11.77746629355268"><ele>205.0</ele><time>2026-03-29T13:03:27Z</time></trkpt><trkpt lat="44.26329379980774" lon="11.777381937384693"><ele>202.8</ele><time>2026-03-29T13:03:28Z</time></trkpt><trkpt lat="44.26328136482212" lon="11.777278164325786"><ele>200.6</ele><time>2026-03-29T13:03:29Z</time></trkpt><trkpt lat="44.2632589569822" lon="11.777189025302652"><ele>198.39999999999998</ele><time>2026-03-29T13:03:30Z</time></trkpt><trkpt lat="44.26322195760517" lon="11.777108042602027"><ele>196.2</ele><time>2026-03-29T13:03:31Z</time></trkpt><trkpt lat="44.26314616063075" lon="11.7769648957309"><ele>194.0</ele><time>2026-03-29T13:03:33Z</time></trkpt><trkpt lat="44.26304283897433" lon="11.77682247326134"><ele>191.83333333333334</ele><time>2026-03-29T13:03:35Z</time></trkpt><trkpt lat="44.26296919057547" lon="11.776766782232441"><ele>189.66666666666669</ele><time>2026-03-29T13:03:36Z</time></trkpt><trkpt lat="44.26290314808033" lon="11.776705790868535"><ele>187.5</ele><time>2026-03-29T13:03:37Z</time></trkpt><trkpt lat="44.262838618590585" lon="11.77666012735798"><ele>185.33333333333334</ele><time>2026-03-29T13:03:38Z</time></trkpt><trkpt lat="44.26277494045674" lon="11.77658467249741"><ele>183.16666666666669</ele><time>2026-03-29T13:03:39Z</time></trkpt><trkpt lat="44.26270706219507" lon="11.776521312677005"><ele>181.0</ele><time>2026-03-29T13:03:40Z</time></trkpt><trkpt lat="44.26264418387878" lon="11.776457779564964"><ele>181.0</ele><time>2026-03-29T13:03:41Z</time></trkpt><trkpt lat="44.262585647244066" lon="11.776374606724298"><ele>181.0</ele><time>2026-03-29T13:03:42Z</time></trkpt><trkpt lat="44.262520059258094" lon="11.776303758289677"><ele>181.0</ele><time>2026-03-29T13:03:43Z</time></trkpt><trkpt lat="44.262455654460496" lon="11.776231585122808"><ele>181.0</ele><time>2026-03-29T13:03:44Z</time></trkpt><trkpt lat="44.262397301362164" lon="11.776168570982357"><ele>181.0</ele><time>2026-03-29T13:03:45Z</time></trkpt><trkpt lat="44.26234254615909" lon="11.776112870814849"><ele>181.0</ele><time>2026-03-29T13:03:46Z</time></trkpt><trkpt lat="44.26228215884588" lon="11.776055359396809"><ele>177.66666666666669</ele><time>2026-03-29T13:03:47Z</time></trkpt><trkpt lat="44.26221981645422" lon="11.776002121578932"><ele>174.33333333333334</ele><time>2026-03-29T13:03:48Z</time></trkpt><trkpt lat="44.26216093365523" lon="11.775918746882546"><ele>171.0</ele><time>2026-03-29T13:03:49Z</time></trkpt><trkpt lat="44.26210546502685" lon="11.775842548041652"><ele>167.66666666666666</ele><time>2026-03-29T13:03:50Z</time></trkpt><trkpt lat="44.26204711902094" lon="11.7757677061735"><ele>164.33333333333331</ele><time>2026-03-29T13:03:51Z</time></trkpt><trkpt lat="44.26198529988723" lon="11.775699210752883"><ele>161.0</ele><time>2026-03-29T13:03:52Z</time></trkpt><trkpt lat="44.261929807886546" lon="11.775639379979626"><ele>161.0</ele><time>2026-03-29T13:03:53Z</time></trkpt><trkpt lat="44.26187158503477" lon="11.775578904105362"><ele>161.0</ele><time>2026-03-29T13:03:54Z</time></trkpt><trkpt lat="44.26180891853766" lon="11.775515122160726"><ele>161.0</ele><time>2026-03-29T13:03:55Z</time></trkpt><trkpt lat="44.2617505529876" lon="11.775444848689684"><ele>161.0</ele><time>2026-03-29T13:03:56Z</time></trkpt><trkpt lat="44.26169528389331" lon="11.775375744962142"><ele>161.0</ele><time>2026-03-29T13:03:57Z</time></trkpt><trkpt lat="44.26164344106355" lon="11.775295436049348"><ele>161.0</ele><time>2026-03-29T13:03:58Z</time></trkpt><trkpt lat="44.261596443581794" lon="11.77520991144444"><ele>161.42857142857142</ele><time>2026-03-29T13:03:59Z</time></trkpt><trkpt lat="44.26155778490303" lon="11.775129904117602"><ele>161.85714285714286</ele><time>2026-03-29T13:04:00Z</time></trkpt><trkpt lat="44.26151599422042" lon="11.775040914415873"><ele>162.28571428571428</ele><time>2026-03-29T13:04:01Z</time></trkpt><trkpt lat="44.26147167122136" lon="11.774943496536512"><ele>162.71428571428572</ele><time>2026-03-29T13:04:02Z</time></trkpt><trkpt lat="44.261434573135325" lon="11.774867333578285"><ele>163.14285714285714</ele><time>2026-03-29T13:04:03Z</time></trkpt><trkpt lat="44.26139547780623" lon="11.774788648844252"><ele>163.57142857142856</ele><time>2026-03-29T13:04:04Z</time></trkpt><trkpt lat="44.26135781433114" lon="11.774705628215509"><ele>164.0</ele><time>2026-03-29T13:04:05Z</time></trkpt><trkpt lat="44.2612665095501" lon="11.774578540989928"><ele>162.28571428571428</ele><time>2026-03-29T13:04:06.999Z</time></trkpt><trkpt lat="44.26121354633863" lon="11.774501931739279"><ele>160.57142857142856</ele><time>2026-03-29T13:04:07.999Z</time></trkpt><trkpt lat="44.261164147935894" lon="11.774423633911036"><ele>158.85714285714283</ele><time>2026-03-29T13:04:08.999Z</time></trkpt><trkpt lat="44.261117196960626" lon="11.774354434823575"><ele>157.14285714285714</ele><time>2026-03-29T13:04:09.999Z</time></trkpt><trkpt lat="44.26106584339259" lon="11.774273831814057"><ele>155.42857142857144</ele><time>2026-03-29T13:04:10.999Z</time></trkpt><trkpt lat="44.26101985546938" lon="11.774209978554167"><ele>153.7142857142857</ele><time>2026-03-29T13:04:11.999Z</time></trkpt><trkpt lat="44.26096420212489" lon="11.774117661890442"><ele>152.0</ele><time>2026-03-29T13:04:12.999Z</time></trkpt><trkpt lat="44.26091114799303" lon="11.774023761409401"><ele>152.0</ele><time>2026-03-29T13:04:13.999Z</time></trkpt><trkpt lat="44.26087866032464" lon="11.773945350131772"><ele>152.0</ele><time>2026-03-29T13:04:14.999Z</time></trkpt><trkpt lat="44.260849524548895" lon="11.773852715628161"><ele>152.0</ele><time>2026-03-29T13:04:15.999Z</time></trkpt><trkpt lat="44.26081756237952" lon="11.773738748965359"><ele>152.0</ele><time>2026-03-29T13:04:16.999Z</time></trkpt><trkpt lat="44.260778963895255" lon="11.773630019279366"><ele>152.0</ele><time>2026-03-29T13:04:17.999Z</time></trkpt><trkpt lat="44.26073289826603" lon="11.773514486862334"><ele>152.0</ele><time>2026-03-29T13:04:18.999Z</time></trkpt><trkpt lat="44.26069420071885" lon="11.773402722724525"><ele>150.66666666666666</ele><time>2026-03-29T13:04:19.999Z</time></trkpt><trkpt lat="44.26064916044266" lon="11.773304953870896"><ele>149.33333333333331</ele><time>2026-03-29T13:04:20.999Z</time></trkpt><trkpt lat="44.260622029428646" lon="11.773202664468219"><ele>148.0</ele><time>2026-03-29T13:04:21.999Z</time></trkpt><trkpt lat="44.260604631533546" lon="11.773102275240811"><ele>146.66666666666666</ele><time>2026-03-29T13:04:22.999Z</time></trkpt><trkpt lat="44.26060896175545" lon="11.7730104946435"><ele>145.33333333333334</ele><time>2026-03-29T13:04:23.999Z</time></trkpt><trkpt lat="44.26059952554044" lon="11.772849388778866"><ele>144.0</ele><time>2026-03-29T13:04:25.999Z</time></trkpt><trkpt lat="44.26057900014547" lon="11.772729420224945"><ele>142.33333333333334</ele><time>2026-03-29T13:04:27.999Z</time></trkpt><trkpt lat="44.26051637254277" lon="11.772622572904703"><ele>140.66666666666666</ele><time>2026-03-29T13:05:31Z</time></trkpt><trkpt lat="44.26047731131126" lon="11.77254983295573"><ele>139.0</ele><time>2026-03-29T13:05:32Z</time></trkpt><trkpt lat="44.26043341672378" lon="11.77248594891186"><ele>137.33333333333331</ele><time>2026-03-29T13:05:33Z</time></trkpt><trkpt lat="44.26038683314389" lon="11.772426568712348"><ele>135.66666666666666</ele><time>2026-03-29T13:05:34Z</time></trkpt><trkpt lat="44.260302224480164" lon="11.77228829015855"><ele>134.0</ele><time>2026-03-29T13:05:36Z</time></trkpt><trkpt lat="44.26022343695271" lon="11.772178208781508"><ele>134.0</ele><time>2026-03-29T13:05:38Z</time></trkpt><trkpt lat="44.2601130267915" lon="11.772081276927572"><ele>134.0</ele><time>2026-03-29T13:05:40Z</time></trkpt><trkpt lat="44.26002555096287" lon="11.77199236584387"><ele>134.0</ele><time>2026-03-29T13:05:42Z</time></trkpt><trkpt lat="44.25996365661947" lon="11.771934691983551"><ele>134.0</ele><time>2026-03-29T13:05:44Z</time></trkpt><trkpt lat="44.259882483977584" lon="11.771940989151709"><ele>134.0</ele><time>2026-03-29T13:05:47Z</time></trkpt><trkpt lat="44.25978684610319" lon="11.77189672832787"><ele>133.0</ele><time>2026-03-29T13:05:50Z</time></trkpt><trkpt lat="44.25971499169508" lon="11.77183895541999"><ele>132.0</ele><time>2026-03-29T13:05:52Z</time></trkpt><trkpt lat="44.25960553183861" lon="11.77177085534744"><ele>131.0</ele><time>2026-03-29T13:05:54Z</time></trkpt><trkpt lat="44.25951591908719" lon="11.771723797627653"><ele>130.0</ele><time>2026-03-29T13:05:56Z</time></trkpt><trkpt lat="44.259436028215255" lon="11.77162331445531"><ele>129.0</ele><time>2026-03-29T13:05:58Z</time></trkpt><trkpt lat="44.25940938604463" lon="11.77152487310336"><ele>128.99999999999997</ele><time>2026-03-29T13:05:59Z</time></trkpt><trkpt lat="44.25937983345661" lon="11.771433369392152"><ele>129.0</ele><time>2026-03-29T13:06:00Z</time></trkpt><trkpt lat="44.25934413405245" lon="11.771342974403586"><ele>129.0</ele><time>2026-03-29T13:06:01Z</time></trkpt><trkpt lat="44.259307621933615" lon="11.771252441960408"><ele>129.0</ele><time>2026-03-29T13:06:02Z</time></trkpt><trkpt lat="44.25927233878955" lon="11.771166597646973"><ele>129.0</ele><time>2026-03-29T13:06:03Z</time></trkpt><trkpt lat="44.259238898760174" lon="11.771067432166513"><ele>128.99999999999997</ele><time>2026-03-29T13:06:04Z</time></trkpt><trkpt lat="44.25920718334289" lon="11.77097543062509"><ele>129.0</ele><time>2026-03-29T13:06:05Z</time></trkpt><trkpt lat="44.259157143246405" lon="11.770877191398819"><ele>130.0</ele><time>2026-03-29T13:06:06Z</time></trkpt><trkpt lat="44.25912056486806" lon="11.770784034135854"><ele>131.0</ele><time>2026-03-29T13:06:07Z</time></trkpt><trkpt lat="44.25909026863432" lon="11.770696411719793"><ele>132.0</ele><time>2026-03-29T13:06:08Z</time></trkpt><trkpt lat="44.25905368709395" lon="11.770617033989394"><ele>133.0</ele><time>2026-03-29T13:06:09Z</time></trkpt><trkpt lat="44.25899363386813" lon="11.770485573754524"><ele>134.0</ele><time>2026-03-29T13:06:11Z</time></trkpt><trkpt lat="44.25896961353155" lon="11.77032587302093"><ele>135.0</ele><time>2026-03-29T13:06:12.999Z</time></trkpt><trkpt lat="44.25897043194282" lon="11.770209596014036"><ele>133.2</ele><time>2026-03-29T13:06:13.999Z</time></trkpt><trkpt lat="44.258968191170794" lon="11.770054080352258"><ele>131.4</ele><time>2026-03-29T13:06:15.999Z</time></trkpt><trkpt lat="44.25894446162124" lon="11.769901271574321"><ele>129.6</ele><time>2026-03-29T13:06:17.999Z</time></trkpt><trkpt lat="44.258973220994875" lon="11.769783647079592"><ele>127.8</ele><time>2026-03-29T13:06:19.999Z</time></trkpt><trkpt lat="44.25904279042973" lon="11.769640628593402"><ele>126.0</ele><time>2026-03-29T13:06:21.999Z</time></trkpt><trkpt lat="44.25906901455354" lon="11.769497660828693"><ele>124.19999999999999</ele><time>2026-03-29T13:06:23.999Z</time></trkpt><trkpt lat="44.25911505194702" lon="11.769349093338208"><ele>122.39999999999999</ele><time>2026-03-29T13:06:25.999Z</time></trkpt><trkpt lat="44.259146187688195" lon="11.769271783676164"><ele>120.6</ele><time>2026-03-29T13:06:26.999Z</time></trkpt><trkpt lat="44.25923437720901" lon="11.769145367916066"><ele>118.8</ele><time>2026-03-29T13:06:28.999Z</time></trkpt><trkpt lat="44.2593255744061" lon="11.76902835015904"><ele>117.0</ele><time>2026-03-29T13:06:30.999Z</time></trkpt><trkpt lat="44.25937082472643" lon="11.768923724578531"><ele>117.0</ele><time>2026-03-29T13:06:32.999Z</time></trkpt><trkpt lat="44.259432129712955" lon="11.768805699524524"><ele>116.99999999999999</ele><time>2026-03-29T13:06:34.999Z</time></trkpt><trkpt lat="44.25952585061719" lon="11.768727048684951"><ele>116.99999999999999</ele><time>2026-03-29T13:06:36.999Z</time></trkpt><trkpt lat="44.25959350752749" lon="11.76861494945409"><ele>117.0</ele><time>2026-03-29T13:06:38.999Z</time></trkpt><trkpt lat="44.259665280096144" lon="11.768525794010051"><ele>117.0</ele><time>2026-03-29T13:06:40.999Z</time></trkpt><trkpt lat="44.25972838217108" lon="11.768518377767819"><ele>114.39999999999999</ele><time>2026-03-29T13:06:41.999Z</time></trkpt><trkpt lat="44.259813844259725" lon="11.768569987031812"><ele>111.79999999999998</ele><time>2026-03-29T13:06:43.999Z</time></trkpt><trkpt lat="44.25989185993992" lon="11.768704723412982"><ele>109.2</ele><time>2026-03-29T13:06:45.999Z</time></trkpt><trkpt lat="44.259924791877424" lon="11.768793714362216"><ele>106.6</ele><time>2026-03-29T13:06:46.999Z</time></trkpt><trkpt lat="44.25995360391543" lon="11.768882627958838"><ele>104.0</ele><time>2026-03-29T13:06:47.999Z</time></trkpt><trkpt lat="44.25999651328366" lon="11.769038574671471"><ele>103.99999999999999</ele><time>2026-03-29T13:06:49.999Z</time></trkpt><trkpt lat="44.26005605891349" lon="11.769178439078054"><ele>104.0</ele><time>2026-03-29T13:06:51.999Z</time></trkpt><trkpt lat="44.26009111426981" lon="11.769257832124605"><ele>104.0</ele><time>2026-03-29T13:06:52.999Z</time></trkpt><trkpt lat="44.26013071310603" lon="11.769330238018734"><ele>104.0</ele><time>2026-03-29T13:06:53.999Z</time></trkpt><trkpt lat="44.260189981825434" lon="11.769461436351845"><ele>103.99999999999999</ele><time>2026-03-29T13:06:55.999Z</time></trkpt><trkpt lat="44.26022782205858" lon="11.769541101568546"><ele>104.0</ele><time>2026-03-29T13:06:56.999Z</time></trkpt><trkpt lat="44.260273336953084" lon="11.769618797796086"><ele>105.49999999999999</ele><time>2026-03-29T13:06:57.999Z</time></trkpt><trkpt lat="44.260317465923656" lon="11.769693954445543"><ele>107.0</ele><time>2026-03-29T13:06:58.999Z</time></trkpt><trkpt lat="44.260364701670284" lon="11.769759127528365"><ele>108.5</ele><time>2026-03-29T13:06:59.999Z</time></trkpt><trkpt lat="44.260414155056964" lon="11.7698197858335"><ele>110.0</ele><time>2026-03-29T13:07:00.999Z</time></trkpt><trkpt lat="44.2604650477461" lon="11.769880330286906"><ele>111.49999999999999</ele><time>2026-03-29T13:07:01.999Z</time></trkpt><trkpt lat="44.260562285803694" lon="11.76994677234897"><ele>113.0</ele><time>2026-03-29T13:07:03.999Z</time></trkpt><trkpt lat="44.26067654449412" lon="11.769939647608533"><ele>109.83333333333333</ele><time>2026-03-29T13:07:05.999Z</time></trkpt><trkpt lat="44.26079163937067" lon="11.76994871658756"><ele>106.66666666666666</ele><time>2026-03-29T13:07:07.999Z</time></trkpt><trkpt lat="44.26085656661696" lon="11.769947029721727"><ele>103.5</ele><time>2026-03-29T13:07:08.999Z</time></trkpt><trkpt lat="44.26098053211171" lon="11.769947355357242"><ele>100.33333333333333</ele><time>2026-03-29T13:07:10.999Z</time></trkpt><trkpt lat="44.261048513178366" lon="11.769947438558933"><ele>97.16666666666666</ele><time>2026-03-29T13:07:11.999Z</time></trkpt><trkpt lat="44.26111542711822" lon="11.769945088286422"><ele>94.0</ele><time>2026-03-29T13:07:12.999Z</time></trkpt><trkpt lat="44.26123108419039" lon="11.769941186711561"><ele>94.0</ele><time>2026-03-29T13:07:14.999Z</time></trkpt><trkpt lat="44.26132682719901" lon="11.769945559634477"><ele>94.0</ele><time>2026-03-29T13:07:16.999Z</time></trkpt><trkpt lat="44.26141372315445" lon="11.769919037024279"><ele>94.0</ele><time>2026-03-29T13:07:19.998Z</time></trkpt><trkpt lat="44.2614008400461" lon="11.769808297693155"><ele>94.0</ele><time>2026-03-29T13:07:33Z</time></trkpt><trkpt lat="44.26134292372629" lon="11.7696907935178"><ele>94.0</ele><time>2026-03-29T13:07:35Z</time></trkpt><trkpt lat="44.261302769021555" lon="11.769555761310734"><ele>94.0</ele><time>2026-03-29T13:07:37Z</time></trkpt><trkpt lat="44.26126436468175" lon="11.76942991907166"><ele>94.0</ele><time>2026-03-29T13:07:39Z</time></trkpt><trkpt lat="44.26123507002604" lon="11.76934570691135"><ele>94.0</ele><time>2026-03-29T13:07:41Z</time></trkpt><trkpt lat="44.261249696152184" lon="11.769254465254702"><ele>94.0</ele><time>2026-03-29T13:07:44Z</time></trkpt><trkpt lat="44.261305588281" lon="11.769147412201852"><ele>94.0</ele><time>2026-03-29T13:07:46Z</time></trkpt><trkpt lat="44.26135787238486" lon="11.769068020218985"><ele>94.0</ele><time>2026-03-29T13:07:48Z</time></trkpt><trkpt lat="44.26139879138879" lon="11.768986811456013"><ele>92.33333333333333</ele><time>2026-03-29T13:07:51Z</time></trkpt><trkpt lat="44.261429865900936" lon="11.768896079870851"><ele>90.66666666666666</ele><time>2026-03-29T13:07:53Z</time></trkpt><trkpt lat="44.26141989075539" lon="11.768808315916397"><ele>89.0</ele><time>2026-03-29T13:07:54Z</time></trkpt><trkpt lat="44.26136213491721" lon="11.768737331566497"><ele>87.33333333333333</ele><time>2026-03-29T13:07:55Z</time></trkpt><trkpt lat="44.261302075577724" lon="11.768629214670964"><ele>85.66666666666667</ele><time>2026-03-29T13:07:56Z</time></trkpt><trkpt lat="44.261241981889825" lon="11.76852562145392"><ele>84.0</ele><time>2026-03-29T13:07:57Z</time></trkpt><trkpt lat="44.26117706780357" lon="11.768406345807355"><ele>83.33333333333333</ele><time>2026-03-29T13:07:58Z</time></trkpt><trkpt lat="44.26111318608364" lon="11.768309541832306"><ele>82.66666666666667</ele><time>2026-03-29T13:07:59Z</time></trkpt><trkpt lat="44.2610524851553" lon="11.768200496166637"><ele>82.0</ele><time>2026-03-29T13:08:00Z</time></trkpt><trkpt lat="44.2609937328994" lon="11.768086622201075"><ele>81.33333333333334</ele><time>2026-03-29T13:08:01Z</time></trkpt><trkpt lat="44.26094948515613" lon="11.767991318094232"><ele>80.66666666666667</ele><time>2026-03-29T13:08:02Z</time></trkpt><trkpt lat="44.26092217867581" lon="11.767898424208399"><ele>80.0</ele><time>2026-03-29T13:08:03Z</time></trkpt><trkpt lat="44.26092173223272" lon="11.76780261081321"><ele>80.0</ele><time>2026-03-29T13:08:04Z</time></trkpt><trkpt lat="44.26089712178152" lon="11.76769685196178"><ele>80.0</ele><time>2026-03-29T13:08:05Z</time></trkpt><trkpt lat="44.26087022334919" lon="11.767592651264382"><ele>80.0</ele><time>2026-03-29T13:08:06Z</time></trkpt><trkpt lat="44.260842664694515" lon="11.767486737359327"><ele>80.0</ele><time>2026-03-29T13:08:07Z</time></trkpt><trkpt lat="44.260804936732235" lon="11.767382486445545"><ele>80.0</ele><time>2026-03-29T13:08:08Z</time></trkpt><trkpt lat="44.26078060529477" lon="11.76728592821129"><ele>80.0</ele><time>2026-03-29T13:08:09Z</time></trkpt><trkpt lat="44.26073898540881" lon="11.76715953943121"><ele>79.16666666666667</ele><time>2026-03-29T13:08:11Z</time></trkpt><trkpt lat="44.26070610850382" lon="11.767069304848695"><ele>78.33333333333334</ele><time>2026-03-29T13:08:21.999Z</time></trkpt><trkpt lat="44.26068018892419" lon="11.766987370378258"><ele>77.5</ele><time>2026-03-29T13:09:25.999Z</time></trkpt><trkpt lat="44.26062045947753" lon="11.766930293142208"><ele>76.66666666666667</ele><time>2026-03-29T13:10:04Z</time></trkpt><trkpt lat="44.2605003135369" lon="11.766963878059187"><ele>75.83333333333333</ele><time>2026-03-29T13:10:06Z</time></trkpt><trkpt lat="44.260417778776535" lon="11.766984904115825"><ele>75.0</ele><time>2026-03-29T13:10:07Z</time></trkpt><trkpt lat="44.26035298451484" lon="11.767000790192588"><ele>75.0</ele><time>2026-03-29T13:10:08Z</time></trkpt><trkpt lat="44.26028074788337" lon="11.767018656259104"><ele>75.0</ele><time>2026-03-29T13:10:09Z</time></trkpt><trkpt lat="44.260182639474785" lon="11.767022126879946"><ele>75.0</ele><time>2026-03-29T13:10:10Z</time></trkpt><trkpt lat="44.260082260695505" lon="11.767029131230425"><ele>75.0</ele><time>2026-03-29T13:10:11Z</time></trkpt><trkpt lat="44.25998856141903" lon="11.767030083048615"><ele>75.0</ele><time>2026-03-29T13:10:12Z</time></trkpt><trkpt lat="44.25990349644976" lon="11.767038587620974"><ele>75.0</ele><time>2026-03-29T13:10:13Z</time></trkpt><trkpt lat="44.259799937161986" lon="11.767051320266132"><ele>75.0</ele><time>2026-03-29T13:10:14Z</time></trkpt><trkpt lat="44.259691605653614" lon="11.767049468802954"><ele>75.0</ele><time>2026-03-29T13:10:15Z</time></trkpt><trkpt lat="44.25957389211621" lon="11.767062204489"><ele>75.0</ele><time>2026-03-29T13:10:16Z</time></trkpt><trkpt lat="44.25947034859809" lon="11.767066866699672"><ele>75.0</ele><time>2026-03-29T13:10:17Z</time></trkpt><trkpt lat="44.259358390024275" lon="11.767082415388654"><ele>75.2</ele><time>2026-03-29T13:10:18Z</time></trkpt><trkpt lat="44.25925744660658" lon="11.767096183625233"><ele>75.4</ele><time>2026-03-29T13:10:19Z</time></trkpt><trkpt lat="44.25914486274715" lon="11.76710835757254"><ele>75.6</ele><time>2026-03-29T13:10:20Z</time></trkpt><trkpt lat="44.25902965783482" lon="11.767117575475188"><ele>75.8</ele><time>2026-03-29T13:10:21Z</time></trkpt><trkpt lat="44.258920114156" lon="11.76714230998969"><ele>76.0</ele><time>2026-03-29T13:10:22Z</time></trkpt><trkpt lat="44.25880855780186" lon="11.767186716689187"><ele>75.25</ele><time>2026-03-29T13:10:23Z</time></trkpt><trkpt lat="44.25870095004903" lon="11.767220418754734"><ele>74.5</ele><time>2026-03-29T13:10:24Z</time></trkpt><trkpt lat="44.25859653054956" lon="11.767253572366146"><ele>73.75</ele><time>2026-03-29T13:10:24.999Z</time></trkpt><trkpt lat="44.25848965627935" lon="11.767297570689063"><ele>73.0</ele><time>2026-03-29T13:10:25.999Z</time></trkpt><trkpt lat="44.25837765085507" lon="11.767363672445297"><ele>73.0</ele><time>2026-03-29T13:10:26.999Z</time></trkpt><trkpt lat="44.25828365385487" lon="11.767419601231957"><ele>73.0</ele><time>2026-03-29T13:10:27.999Z</time></trkpt><trkpt lat="44.25819153333236" lon="11.767473732047955"><ele>73.0</ele><time>2026-03-29T13:10:28.999Z</time></trkpt><trkpt lat="44.25810454835567" lon="11.767527055485475"><ele>73.0</ele><time>2026-03-29T13:10:29.999Z</time></trkpt><trkpt lat="44.2580186491967" lon="11.767545211478259"><ele>73.0</ele><time>2026-03-29T13:10:30.999Z</time></trkpt><trkpt lat="44.25796005392003" lon="11.767586113979485"><ele>73.0</ele><time>2026-03-29T13:10:31.999Z</time></trkpt><trkpt lat="44.25789433627891" lon="11.767582305478381"><ele>74.0</ele><time>2026-03-29T13:10:33.999Z</time></trkpt><trkpt lat="44.25786955409447" lon="11.767470352851896"><ele>75.0</ele><time>2026-03-29T13:11:43Z</time></trkpt><trkpt lat="44.25783196416092" lon="11.767312410790401"><ele>76.0</ele><time>2026-03-29T13:11:45Z</time></trkpt><trkpt lat="44.25785557664772" lon="11.767219706355295"><ele>77.0</ele><time>2026-03-29T13:11:47Z</time></trkpt><trkpt lat="44.25783957584945" lon="11.767128488076553"><ele>78.0</ele><time>2026-03-29T13:11:50Z</time></trkpt><trkpt lat="44.25783911389906" lon="11.76727077576075"><ele>79.0</ele><time>2026-03-29T13:12:06Z</time></trkpt><trkpt lat="44.25784099773065" lon="11.767380920940315"><ele>79.0</ele><time>2026-03-29T13:12:08Z</time></trkpt><trkpt lat="44.257863190034534" lon="11.767477623624595"><ele>79.0</ele><time>2026-03-29T13:12:10Z</time></trkpt><trkpt lat="44.257876404305726" lon="11.767611749696336"><ele>79.0</ele><time>2026-03-29T13:12:14Z</time></trkpt><trkpt lat="44.257780805437406" lon="11.767577704220724"><ele>79.0</ele><time>2026-03-29T13:12:16Z</time></trkpt><trkpt lat="44.25767362675514" lon="11.767519146925414"><ele>79.0</ele><time>2026-03-29T13:12:18Z</time></trkpt><trkpt lat="44.257605466302046" lon="11.767482757296566"><ele>79.00000000000001</ele><time>2026-03-29T13:12:19Z</time></trkpt><trkpt lat="44.257548665394346" lon="11.767430958099236"><ele>79.0</ele><time>2026-03-29T13:12:20Z</time></trkpt><trkpt lat="44.25748783553158" lon="11.767380312284335"><ele>79.0</ele><time>2026-03-29T13:12:21Z</time></trkpt><trkpt lat="44.2574264994267" lon="11.767334469499792"><ele>79.0</ele><time>2026-03-29T13:12:22Z</time></trkpt><trkpt lat="44.25736439598396" lon="11.76728196973824"><ele>79.0</ele><time>2026-03-29T13:12:23Z</time></trkpt><trkpt lat="44.25729827503133" lon="11.76723725774982"><ele>79.00000000000001</ele><time>2026-03-29T13:12:24Z</time></trkpt><trkpt lat="44.257231001039656" lon="11.767196661577518"><ele>79.0</ele><time>2026-03-29T13:12:25Z</time></trkpt><trkpt lat="44.2571049526201" lon="11.767118729181783"><ele>79.66666666666666</ele><time>2026-03-29T13:12:26.999Z</time></trkpt><trkpt lat="44.257031048184295" lon="11.767060086666428"><ele>80.33333333333333</ele><time>2026-03-29T13:12:27.999Z</time></trkpt><trkpt lat="44.25695225574869" lon="11.76701332213025"><ele>81.0</ele><time>2026-03-29T13:12:28.999Z</time></trkpt><trkpt lat="44.25688454144957" lon="11.766964656498695"><ele>81.66666666666667</ele><time>2026-03-29T13:12:29.999Z</time></trkpt><trkpt lat="44.25680995538775" lon="11.766910653655136"><ele>82.33333333333334</ele><time>2026-03-29T13:12:30.999Z</time></trkpt><trkpt lat="44.25672909088659" lon="11.766846293601592"><ele>83.0</ele><time>2026-03-29T13:12:31.999Z</time></trkpt><trkpt lat="44.256648940143435" lon="11.766785359831463"><ele>83.0</ele><time>2026-03-29T13:12:32.999Z</time></trkpt><trkpt lat="44.25656814777381" lon="11.766722102415189"><ele>83.0</ele><time>2026-03-29T13:12:33.999Z</time></trkpt><trkpt lat="44.2564928275765" lon="11.766644937910833"><ele>83.0</ele><time>2026-03-29T13:12:34.999Z</time></trkpt><trkpt lat="44.256440789377834" lon="11.766528348431226"><ele>83.0</ele><time>2026-03-29T13:12:35.999Z</time></trkpt><trkpt lat="44.25639335519357" lon="11.766417383173245"><ele>83.0</ele><time>2026-03-29T13:12:36.999Z</time></trkpt><trkpt lat="44.25633237641107" lon="11.76631152002786"><ele>82.80000000000001</ele><time>2026-03-29T13:12:37.999Z</time></trkpt><trkpt lat="44.2562923400651" lon="11.76618708518675"><ele>82.6</ele><time>2026-03-29T13:12:38.999Z</time></trkpt><trkpt lat="44.2562395353616" lon="11.766078602347847"><ele>82.4</ele><time>2026-03-29T13:12:39.999Z</time></trkpt><trkpt lat="44.25615750456034" lon="11.76601751922443"><ele>82.19999999999999</ele><time>2026-03-29T13:12:40.999Z</time></trkpt><trkpt lat="44.25608579313427" lon="11.76592788814753"><ele>82.0</ele><time>2026-03-29T13:12:41.999Z</time></trkpt><trkpt lat="44.25602297215569" lon="11.765858480593973"><ele>82.0</ele><time>2026-03-29T13:12:42.999Z</time></trkpt><trkpt lat="44.25595794646662" lon="11.765801296595185"><ele>82.0</ele><time>2026-03-29T13:12:43.999Z</time></trkpt><trkpt lat="44.25590365156271" lon="11.765732531669396"><ele>82.0</ele><time>2026-03-29T13:12:44.999Z</time></trkpt><trkpt lat="44.255848043585786" lon="11.765670541714744"><ele>82.0</ele><time>2026-03-29T13:12:45.999Z</time></trkpt><trkpt lat="44.255760491888545" lon="11.765560823737705"><ele>82.0</ele><time>2026-03-29T13:12:47.999Z</time></trkpt><trkpt lat="44.25569947107062" lon="11.765468599812598"><ele>82.0</ele><time>2026-03-29T13:12:49.999Z</time></trkpt><trkpt lat="44.25563775375376" lon="11.765420967920377"><ele>82.0</ele><time>2026-03-29T13:12:51.999Z</time></trkpt><trkpt lat="44.25568536266141" lon="11.765499749161043"><ele>82.0</ele><time>2026-03-29T13:13:20.999Z</time></trkpt><trkpt lat="44.255784198904756" lon="11.76559436158192"><ele>82.0</ele><time>2026-03-29T13:13:22.999Z</time></trkpt><trkpt lat="44.25583429866224" lon="11.765649853947112"><ele>82.0</ele><time>2026-03-29T13:13:24.999Z</time></trkpt><trkpt lat="44.25577164529681" lon="11.765690815147774"><ele>82.0</ele><time>2026-03-29T13:13:30.999Z</time></trkpt><trkpt lat="44.255690643421765" lon="11.765655270847848"><ele>82.0</ele><time>2026-03-29T13:13:33.999Z</time></trkpt><trkpt lat="44.25561780935973" lon="11.765618500271739"><ele>82.5</ele><time>2026-03-29T13:13:36.998Z</time></trkpt><trkpt lat="44.2555486464902" lon="11.765571544892028"><ele>83.0</ele><time>2026-03-29T13:13:39.998Z</time></trkpt><trkpt lat="44.25546881221297" lon="11.765544026152376"><ele>83.5</ele><time>2026-03-29T13:13:43.998Z</time></trkpt><trkpt lat="44.255427278115654" lon="11.76547029326673"><ele>84.0</ele><time>2026-03-29T13:13:51Z</time></trkpt><trkpt lat="44.255359389485" lon="11.765401388621273"><ele>84.5</ele><time>2026-03-29T13:13:56Z</time></trkpt><trkpt lat="44.255263184019576" lon="11.76531507521619"><ele>85.0</ele><time>2026-03-29T13:13:58Z</time></trkpt><trkpt lat="44.25519348401873" lon="11.765229836583067"><ele>85.4</ele><time>2026-03-29T13:14:00Z</time></trkpt><trkpt lat="44.25511663024846" lon="11.765190127125999"><ele>85.8</ele><time>2026-03-29T13:14:02Z</time></trkpt><trkpt lat="44.25503443877177" lon="11.765120147834214"><ele>86.19999999999999</ele><time>2026-03-29T13:14:05Z</time></trkpt><trkpt lat="44.25497389448795" lon="11.765031896983954"><ele>86.6</ele><time>2026-03-29T13:14:35Z</time></trkpt><trkpt lat="44.25490473130192" lon="11.764963115787646"><ele>87.0</ele><time>2026-03-29T13:14:36.999Z</time></trkpt><trkpt lat="44.25482835665305" lon="11.764865084756723"><ele>86.66666666666667</ele><time>2026-03-29T13:14:38.999Z</time></trkpt><trkpt lat="44.254732835259404" lon="11.7647740863076"><ele>86.33333333333333</ele><time>2026-03-29T13:14:40.999Z</time></trkpt><trkpt lat="44.25474561237574" lon="11.764637298093435"><ele>86.0</ele><time>2026-03-29T13:14:41.999Z</time></trkpt><trkpt lat="44.25468651182069" lon="11.764588964605707"><ele>85.66666666666666</ele><time>2026-03-29T13:14:43.999Z</time></trkpt><trkpt lat="44.25460988510592" lon="11.76453278278738"><ele>85.33333333333333</ele><time>2026-03-29T13:14:53.999Z</time></trkpt><trkpt lat="44.2545531554691" lon="11.76447263117844"><ele>85.0</ele><time>2026-03-29T13:14:57.999Z</time></trkpt><trkpt lat="44.25450240091712" lon="11.764398296647368"><ele>86.66666666666666</ele><time>2026-03-29T13:15:15.999Z</time></trkpt><trkpt lat="44.254438849138" lon="11.764363089175086"><ele>88.33333333333333</ele><time>2026-03-29T13:15:17.999Z</time></trkpt><trkpt lat="44.25436122244564" lon="11.764351243521793"><ele>90.0</ele><time>2026-03-29T13:15:19.999Z</time></trkpt><trkpt lat="44.254303096774024" lon="11.764289441488737"><ele>91.66666666666667</ele><time>2026-03-29T13:15:20.999Z</time></trkpt><trkpt lat="44.25423834654233" lon="11.764217555296069"><ele>93.33333333333334</ele><time>2026-03-29T13:15:21.999Z</time></trkpt><trkpt lat="44.2541639052992" lon="11.764155584350396"><ele>95.0</ele><time>2026-03-29T13:15:22.999Z</time></trkpt><trkpt lat="44.25408634212757" lon="11.764101737915372"><ele>95.0</ele><time>2026-03-29T13:15:23.999Z</time></trkpt><trkpt lat="44.25400731593047" lon="11.764059054493503"><ele>95.0</ele><time>2026-03-29T13:15:24.999Z</time></trkpt><trkpt lat="44.25392508881891" lon="11.764038071549598"><ele>95.0</ele><time>2026-03-29T13:15:25.999Z</time></trkpt><trkpt lat="44.25383160996011" lon="11.764012040706996"><ele>95.0</ele><time>2026-03-29T13:15:26.999Z</time></trkpt><trkpt lat="44.25374008131904" lon="11.763992790332924"><ele>95.0</ele><time>2026-03-29T13:15:27.999Z</time></trkpt><trkpt lat="44.25366088539941" lon="11.7640047286387"><ele>95.0</ele><time>2026-03-29T13:15:28.999Z</time></trkpt><trkpt lat="44.253582678335434" lon="11.763971457708559"><ele>95.33333333333334</ele><time>2026-03-29T13:15:29.999Z</time></trkpt><trkpt lat="44.25350316382539" lon="11.763951136683845"><ele>95.66666666666667</ele><time>2026-03-29T13:15:30.999Z</time></trkpt><trkpt lat="44.253419282136846" lon="11.763911209380682"><ele>96.0</ele><time>2026-03-29T13:15:31.999Z</time></trkpt><trkpt lat="44.2533377854625" lon="11.763864430447118"><ele>96.33333333333334</ele><time>2026-03-29T13:15:32.999Z</time></trkpt><trkpt lat="44.25325734624828" lon="11.763825286110515"><ele>96.66666666666667</ele><time>2026-03-29T13:15:33.999Z</time></trkpt><trkpt lat="44.25317939971706" lon="11.76380352370608"><ele>97.0</ele><time>2026-03-29T13:15:34.999Z</time></trkpt><trkpt lat="44.2531056988985" lon="11.763777717297314"><ele>97.0</ele><time>2026-03-29T13:15:35.999Z</time></trkpt><trkpt lat="44.25304282635383" lon="11.763745702328158"><ele>97.0</ele><time>2026-03-29T13:15:36.999Z</time></trkpt><trkpt lat="44.252977307018966" lon="11.763718732911926"><ele>97.0</ele><time>2026-03-29T13:15:37.999Z</time></trkpt><trkpt lat="44.252909462443846" lon="11.763697569179417"><ele>97.0</ele><time>2026-03-29T13:15:38.999Z</time></trkpt><trkpt lat="44.25284276396918" lon="11.763677565735367"><ele>97.0</ele><time>2026-03-29T13:15:39.999Z</time></trkpt><trkpt lat="44.25277456250018" lon="11.763669420238445"><ele>97.0</ele><time>2026-03-29T13:15:40.999Z</time></trkpt><trkpt lat="44.252702242359206" lon="11.763639921310366"><ele>97.0</ele><time>2026-03-29T13:15:41.999Z</time></trkpt><trkpt lat="44.25262661608096" lon="11.763605839420721"><ele>97.00000000000001</ele><time>2026-03-29T13:15:42.999Z</time></trkpt><trkpt lat="44.252550788822944" lon="11.76358359658162"><ele>97.0</ele><time>2026-03-29T13:15:43.999Z</time></trkpt><trkpt lat="44.2524670690148" lon="11.763547091920156"><ele>97.0</ele><time>2026-03-29T13:15:44.998Z</time></trkpt><trkpt lat="44.252390351276446" lon="11.76355080364275"><ele>97.0</ele><time>2026-03-29T13:15:45.998Z</time></trkpt><trkpt lat="44.25230573531604" lon="11.763509922378976"><ele>97.00000000000001</ele><time>2026-03-29T13:15:47.998Z</time></trkpt><trkpt lat="44.25224276966374" lon="11.763451863098267"><ele>97.0</ele><time>2026-03-29T13:15:50.998Z</time></trkpt><trkpt lat="44.252326649179274" lon="11.763512705604338"><ele>97.0</ele><time>2026-03-29T13:16:08Z</time></trkpt><trkpt lat="44.25248965858789" lon="11.763563876258443"><ele>97.0</ele><time>2026-03-29T13:16:10Z</time></trkpt><trkpt lat="44.25259040859569" lon="11.763594621031293"><ele>97.0</ele><time>2026-03-29T13:16:11Z</time></trkpt><trkpt lat="44.252662831988" lon="11.763604452829124"><ele>97.0</ele><time>2026-03-29T13:16:12Z</time></trkpt><trkpt lat="44.25272667011391" lon="11.76361583862176"><ele>97.0</ele><time>2026-03-29T13:16:13Z</time></trkpt><trkpt lat="44.252792497453164" lon="11.763631709331875"><ele>97.00000000000001</ele><time>2026-03-29T13:16:15Z</time></trkpt><trkpt lat="44.25276631609799" lon="11.763714180419697"><ele>97.0</ele><time>2026-03-29T13:16:19Z</time></trkpt><trkpt lat="44.25266427986092" lon="11.763749955997985"><ele>97.0</ele><time>2026-03-29T13:16:22Z</time></trkpt><trkpt lat="44.2526002744977" lon="11.76379644404541"><ele>97.0</ele><time>2026-03-29T13:16:24Z</time></trkpt><trkpt lat="44.25253851806412" lon="11.763838678109641"><ele>97.00000000000001</ele><time>2026-03-29T13:16:26Z</time></trkpt><trkpt lat="44.25247828869011" lon="11.763879055348495"><ele>97.0</ele><time>2026-03-29T13:16:30Z</time></trkpt><trkpt lat="44.25240847703506" lon="11.763947479602237"><ele>97.00000000000001</ele><time>2026-03-29T13:16:35Z</time></trkpt><trkpt lat="44.25234929093042" lon="11.764038858737536"><ele>97.0</ele><time>2026-03-29T13:16:40Z</time></trkpt><trkpt lat="44.25230357985901" lon="11.764119635523135"><ele>97.0</ele><time>2026-03-29T13:16:42Z</time></trkpt><trkpt lat="44.252238638804066" lon="11.764214686115102"><ele>97.0</ele><time>2026-03-29T13:16:43.999Z</time></trkpt><trkpt lat="44.252197785365276" lon="11.764282179691877"><ele>97.00000000000001</ele><time>2026-03-29T13:16:45.999Z</time></trkpt><trkpt lat="44.25220666829954" lon="11.764381205084213"><ele>97.0</ele><time>2026-03-29T13:16:51.999Z</time></trkpt><trkpt lat="44.252249328605146" lon="11.764453425434768"><ele>98.83333333333334</ele><time>2026-03-29T13:16:57.999Z</time></trkpt><trkpt lat="44.252246431292896" lon="11.76454407911922"><ele>100.66666666666667</ele><time>2026-03-29T13:17:12.999Z</time></trkpt><trkpt lat="44.2521998199839" lon="11.764619000359236"><ele>102.5</ele><time>2026-03-29T13:17:16.999Z</time></trkpt><trkpt lat="44.25224976184813" lon="11.764533982788452"><ele>104.33333333333334</ele><time>2026-03-29T13:19:29.999Z</time></trkpt><trkpt lat="44.25226041003681" lon="11.764433013339167"><ele>106.16666666666667</ele><time>2026-03-29T13:19:33.999Z</time></trkpt><trkpt lat="44.252201672656845" lon="11.764334162600086"><ele>108.0</ele><time>2026-03-29T13:19:43.999Z</time></trkpt><trkpt lat="44.252201706966765" lon="11.764227899713216"><ele>106.16666666666667</ele><time>2026-03-29T13:19:46.999Z</time></trkpt><trkpt lat="44.252291198296504" lon="11.764124868938872"><ele>104.33333333333334</ele><time>2026-03-29T13:19:49.999Z</time></trkpt><trkpt lat="44.252343170581156" lon="11.7640078022721"><ele>102.5</ele><time>2026-03-29T13:19:52.999Z</time></trkpt><trkpt lat="44.25240791154912" lon="11.763963307855828"><ele>100.66666666666667</ele><time>2026-03-29T13:19:55.999Z</time></trkpt><trkpt lat="44.252459178170966" lon="11.763898259464431"><ele>98.83333333333334</ele><time>2026-03-29T13:19:57.998Z</time></trkpt><trkpt lat="44.25253281010648" lon="11.763848027449185"><ele>97.0</ele><time>2026-03-29T13:19:59.998Z</time></trkpt><trkpt lat="44.252614036085106" lon="11.763800145286346"><ele>97.0</ele><time>2026-03-29T13:20:01.998Z</time></trkpt><trkpt lat="44.2527012967462" lon="11.763754684441006"><ele>97.0</ele><time>2026-03-29T13:20:03.998Z</time></trkpt><trkpt lat="44.252761606858684" lon="11.76370463298791"><ele>97.0</ele><time>2026-03-29T13:20:05.998Z</time></trkpt><trkpt lat="44.252661831593976" lon="11.763610035346463"><ele>97.0</ele><time>2026-03-29T13:20:11Z</time></trkpt><trkpt lat="44.25258571581399" lon="11.763605502623175"><ele>97.0</ele><time>2026-03-29T13:20:12Z</time></trkpt><trkpt lat="44.25249358968889" lon="11.763581318151434"><ele>97.0</ele><time>2026-03-29T13:20:13Z</time></trkpt><trkpt lat="44.252393936993776" lon="11.763550510469411"><ele>97.0</ele><time>2026-03-29T13:20:14Z</time></trkpt><trkpt lat="44.252268659052966" lon="11.76348954396178"><ele>97.0</ele><time>2026-03-29T13:20:15Z</time></trkpt><trkpt lat="44.25220148315154" lon="11.763419592159602"><ele>97.0</ele><time>2026-03-29T13:20:16Z</time></trkpt><trkpt lat="44.252141614349476" lon="11.763347674018819"><ele>97.0</ele><time>2026-03-29T13:20:17Z</time></trkpt><trkpt lat="44.252091138403806" lon="11.7632792082452"><ele>98.8</ele><time>2026-03-29T13:20:18Z</time></trkpt><trkpt lat="44.252035788540695" lon="11.763199050297812"><ele>100.6</ele><time>2026-03-29T13:20:19Z</time></trkpt><trkpt lat="44.251972621437424" lon="11.763099402087454"><ele>102.39999999999999</ele><time>2026-03-29T13:20:20Z</time></trkpt><trkpt lat="44.251910225272844" lon="11.76299442481433"><ele>104.19999999999999</ele><time>2026-03-29T13:20:21Z</time></trkpt><trkpt lat="44.25185404615459" lon="11.76289387389329"><ele>106.0</ele><time>2026-03-29T13:20:22Z</time></trkpt><trkpt lat="44.25181432457831" lon="11.762749496066268"><ele>106.0</ele><time>2026-03-29T13:20:23Z</time></trkpt><trkpt lat="44.251774642645806" lon="11.762610683273307"><ele>106.0</ele><time>2026-03-29T13:20:24Z</time></trkpt><trkpt lat="44.25174430009822" lon="11.762475575617913"><ele>106.0</ele><time>2026-03-29T13:20:25Z</time></trkpt><trkpt lat="44.251716496446114" lon="11.762343561506045"><ele>106.0</ele><time>2026-03-29T13:20:26Z</time></trkpt><trkpt lat="44.25167182630891" lon="11.762218257239748"><ele>106.0</ele><time>2026-03-29T13:20:27Z</time></trkpt><trkpt lat="44.2516313278403" lon="11.762087485363724"><ele>106.0</ele><time>2026-03-29T13:20:28Z</time></trkpt><trkpt lat="44.25157822534541" lon="11.761965870708652"><ele>106.0</ele><time>2026-03-29T13:20:29Z</time></trkpt><trkpt lat="44.25152655815388" lon="11.761850323352876"><ele>106.0</ele><time>2026-03-29T13:20:30Z</time></trkpt><trkpt lat="44.251463436171925" lon="11.761737005330515"><ele>106.0</ele><time>2026-03-29T13:20:31Z</time></trkpt><trkpt lat="44.25139566657193" lon="11.761600524345756"><ele>106.0</ele><time>2026-03-29T13:20:32Z</time></trkpt><trkpt lat="44.251318001917205" lon="11.761444674064489"><ele>108.0</ele><time>2026-03-29T13:20:33Z</time></trkpt><trkpt lat="44.25124308712899" lon="11.761286130298561"><ele>110.0</ele><time>2026-03-29T13:20:34Z</time></trkpt><trkpt lat="44.251172761645485" lon="11.761140883470254"><ele>112.0</ele><time>2026-03-29T13:20:35Z</time></trkpt><trkpt lat="44.25110462300159" lon="11.761010963956153"><ele>114.0</ele><time>2026-03-29T13:20:36Z</time></trkpt><trkpt lat="44.25101190821694" lon="11.760888445399496"><ele>114.0</ele><time>2026-03-29T13:20:37Z</time></trkpt><trkpt lat="44.25091494498917" lon="11.76079364416336"><ele>114.0</ele><time>2026-03-29T13:20:38Z</time></trkpt><trkpt lat="44.250797678750814" lon="11.760687028398573"><ele>114.0</ele><time>2026-03-29T13:20:39Z</time></trkpt><trkpt lat="44.25068654173339" lon="11.760585326122518"><ele>114.0</ele><time>2026-03-29T13:20:40Z</time></trkpt><trkpt lat="44.25058767348368" lon="11.76049532636389"><ele>115.5</ele><time>2026-03-29T13:20:41Z</time></trkpt><trkpt lat="44.25046606411553" lon="11.760391549458186"><ele>117.0</ele><time>2026-03-29T13:20:42Z</time></trkpt><trkpt lat="44.250366306417014" lon="11.760286030639051"><ele>118.5</ele><time>2026-03-29T13:20:43Z</time></trkpt><trkpt lat="44.25026843349021" lon="11.760179321979654"><ele>120.0</ele><time>2026-03-29T13:20:44Z</time></trkpt><trkpt lat="44.25017106786176" lon="11.760045559534221"><ele>120.0</ele><time>2026-03-29T13:20:45Z</time></trkpt><trkpt lat="44.250069804461184" lon="11.759918738084227"><ele>120.0</ele><time>2026-03-29T13:20:46Z</time></trkpt><trkpt lat="44.2499547629403" lon="11.759814164267551"><ele>120.0</ele><time>2026-03-29T13:20:47Z</time></trkpt><trkpt lat="44.24983364405083" lon="11.759728955347867"><ele>120.0</ele><time>2026-03-29T13:20:48Z</time></trkpt><trkpt lat="44.249711140209754" lon="11.759664398060538"><ele>122.0</ele><time>2026-03-29T13:20:49Z</time></trkpt><trkpt lat="44.24961469278381" lon="11.759575457174664"><ele>124.0</ele><time>2026-03-29T13:20:50Z</time></trkpt><trkpt lat="44.24952306218699" lon="11.759454556220087"><ele>126.0</ele><time>2026-03-29T13:20:51Z</time></trkpt><trkpt lat="44.249446164915646" lon="11.759314854580508"><ele>128.0</ele><time>2026-03-29T13:20:52Z</time></trkpt><trkpt lat="44.24936929156693" lon="11.759184428116432"><ele>128.6</ele><time>2026-03-29T13:20:53Z</time></trkpt><trkpt lat="44.24927874361339" lon="11.759083671886648"><ele>129.20000000000002</ele><time>2026-03-29T13:20:54Z</time></trkpt><trkpt lat="44.249178251618375" lon="11.75900304882771"><ele>129.8</ele><time>2026-03-29T13:20:54.999Z</time></trkpt><trkpt lat="44.24908850757623" lon="11.75894075605578"><ele>130.4</ele><time>2026-03-29T13:20:55.999Z</time></trkpt><trkpt lat="44.24899818499296" lon="11.75886460871298"><ele>131.0</ele><time>2026-03-29T13:20:56.999Z</time></trkpt><trkpt lat="44.24891941454711" lon="11.758787973454073"><ele>133.8</ele><time>2026-03-29T13:20:57.999Z</time></trkpt><trkpt lat="44.24884889049915" lon="11.758694698815484"><ele>136.6</ele><time>2026-03-29T13:20:58.999Z</time></trkpt><trkpt lat="44.24876607785673" lon="11.758611227096868"><ele>139.4</ele><time>2026-03-29T13:20:59.999Z</time></trkpt><trkpt lat="44.24869413229228" lon="11.758518708820493"><ele>142.2</ele><time>2026-03-29T13:21:00.999Z</time></trkpt><trkpt lat="44.248628678396294" lon="11.758415732839948"><ele>145.0</ele><time>2026-03-29T13:21:01.999Z</time></trkpt><trkpt lat="44.24855747202541" lon="11.758323178098776"><ele>145.0</ele><time>2026-03-29T13:21:02.999Z</time></trkpt><trkpt lat="44.24847049803178" lon="11.75825902459874"><ele>145.0</ele><time>2026-03-29T13:21:03.999Z</time></trkpt><trkpt lat="44.24836106887284" lon="11.758223677067999"><ele>145.0</ele><time>2026-03-29T13:21:04.999Z</time></trkpt><trkpt lat="44.24822122685127" lon="11.758185087130014"><ele>145.0</ele><time>2026-03-29T13:21:05.999Z</time></trkpt><trkpt lat="44.248065179492805" lon="11.758121959642313"><ele>148.5</ele><time>2026-03-29T13:21:06.999Z</time></trkpt><trkpt lat="44.24791739356372" lon="11.758032662888134"><ele>152.0</ele><time>2026-03-29T13:21:07.999Z</time></trkpt><trkpt lat="44.2477867661182" lon="11.75794988193999"><ele>155.5</ele><time>2026-03-29T13:21:08.999Z</time></trkpt><trkpt lat="44.24768050213435" lon="11.757868623302466"><ele>159.0</ele><time>2026-03-29T13:21:09.999Z</time></trkpt><trkpt lat="44.24758210054025" lon="11.757781553678019"><ele>160.2</ele><time>2026-03-29T13:21:10.999Z</time></trkpt><trkpt lat="44.247484164060026" lon="11.75769765641817"><ele>161.4</ele><time>2026-03-29T13:21:11.999Z</time></trkpt><trkpt lat="44.247380026811136" lon="11.757645968887296"><ele>162.6</ele><time>2026-03-29T13:21:12.999Z</time></trkpt><trkpt lat="44.247271648992154" lon="11.757620623791752"><ele>163.8</ele><time>2026-03-29T13:21:13.999Z</time></trkpt><trkpt lat="44.247173299725" lon="11.757619870813329"><ele>165.0</ele><time>2026-03-29T13:21:14.999Z</time></trkpt><trkpt lat="44.247093957378645" lon="11.757647045776771"><ele>167.5</ele><time>2026-03-29T13:21:15.999Z</time></trkpt><trkpt lat="44.24702882473667" lon="11.757725807903368"><ele>170.0</ele><time>2026-03-29T13:21:16.999Z</time></trkpt><trkpt lat="44.24699365730913" lon="11.757847672321585"><ele>172.5</ele><time>2026-03-29T13:21:17.999Z</time></trkpt><trkpt lat="44.24698561994601" lon="11.757987318067547"><ele>175.0</ele><time>2026-03-29T13:21:18.999Z</time></trkpt><trkpt lat="44.2469681987348" lon="11.758113502284013"><ele>177.5</ele><time>2026-03-29T13:21:19.999Z</time></trkpt><trkpt lat="44.24699099527224" lon="11.758203360846618"><ele>180.0</ele><time>2026-03-29T13:21:20.999Z</time></trkpt><trkpt lat="44.246918526260025" lon="11.758205173764"><ele>180.0</ele><time>2026-03-29T13:21:22.999Z</time></trkpt><trkpt lat="44.246889817560294" lon="11.758028080460196"><ele>180.0</ele><time>2026-03-29T13:21:24.999Z</time></trkpt><trkpt lat="44.246857070001205" lon="11.757889335649523"><ele>180.0</ele><time>2026-03-29T13:21:25.999Z</time></trkpt><trkpt lat="44.2468421038355" lon="11.757735993204964"><ele>180.0</ele><time>2026-03-29T13:21:26.999Z</time></trkpt><trkpt lat="44.24682824212015" lon="11.757577912160444"><ele>179.8</ele><time>2026-03-29T13:21:27.999Z</time></trkpt><trkpt lat="44.246823043488575" lon="11.757421367647126"><ele>179.6</ele><time>2026-03-29T13:21:28.999Z</time></trkpt><trkpt lat="44.24682967766343" lon="11.757264681980791"><ele>179.39999999999998</ele><time>2026-03-29T13:21:29.999Z</time></trkpt><trkpt lat="44.24687280045826" lon="11.757143885254546"><ele>179.2</ele><time>2026-03-29T13:21:30.999Z</time></trkpt><trkpt lat="44.24697184343791" lon="11.757106340851273"><ele>179.0</ele><time>2026-03-29T13:21:31.999Z</time></trkpt><trkpt lat="44.24709172687283" lon="11.757182255311003"><ele>179.0</ele><time>2026-03-29T13:21:32.999Z</time></trkpt><trkpt lat="44.24718472728821" lon="11.75715936121004"><ele>179.0</ele><time>2026-03-29T13:21:33.999Z</time></trkpt><trkpt lat="44.24726361662197" lon="11.757159361214176"><ele>179.0</ele><time>2026-03-29T13:21:34.999Z</time></trkpt><trkpt lat="44.247326071402384" lon="11.757042071260761"><ele>179.0</ele><time>2026-03-29T13:21:35.999Z</time></trkpt><trkpt lat="44.247392307296565" lon="11.756945960920403"><ele>179.0</ele><time>2026-03-29T13:21:36.999Z</time></trkpt><trkpt lat="44.24746295757053" lon="11.75682278803363"><ele>181.75</ele><time>2026-03-29T13:21:37.999Z</time></trkpt><trkpt lat="44.24756517810224" lon="11.75675802783162"><ele>184.5</ele><time>2026-03-29T13:21:38.999Z</time></trkpt><trkpt lat="44.24768312876756" lon="11.756748453538162"><ele>187.25</ele><time>2026-03-29T13:21:39.999Z</time></trkpt><trkpt lat="44.24781338705033" lon="11.756812624707218"><ele>190.0</ele><time>2026-03-29T13:21:40.999Z</time></trkpt><trkpt lat="44.24791374752583" lon="11.756842776654768"><ele>190.0</ele><time>2026-03-29T13:21:41.999Z</time></trkpt><trkpt lat="44.24798468998295" lon="11.756852799611215"><ele>190.0</ele><time>2026-03-29T13:21:42.999Z</time></trkpt><trkpt lat="44.248070076986984" lon="11.75678762329385"><ele>190.0</ele><time>2026-03-29T13:21:43.999Z</time></trkpt><trkpt lat="44.24817123131806" lon="11.756693419675438"><ele>190.0</ele><time>2026-03-29T13:21:44.999Z</time></trkpt><trkpt lat="44.248282841833735" lon="11.756628719622867"><ele>190.0</ele><time>2026-03-29T13:21:45.999Z</time></trkpt><trkpt lat="44.248405262786584" lon="11.756623299994116"><ele>189.25</ele><time>2026-03-29T13:21:46.999Z</time></trkpt><trkpt lat="44.24853343643349" lon="11.756634112831021"><ele>188.5</ele><time>2026-03-29T13:21:47.999Z</time></trkpt><trkpt lat="44.24866066940539" lon="11.75662979383197"><ele>187.75</ele><time>2026-03-29T13:21:48.999Z</time></trkpt><trkpt lat="44.248784491381656" lon="11.756580638786465"><ele>187.0</ele><time>2026-03-29T13:21:49.999Z</time></trkpt><trkpt lat="44.24889611781173" lon="11.756552867207372"><ele>187.0</ele><time>2026-03-29T13:21:50.999Z</time></trkpt><trkpt lat="44.24899322102256" lon="11.756593361148393"><ele>187.0</ele><time>2026-03-29T13:21:51.999Z</time></trkpt><trkpt lat="44.249067121956806" lon="11.756588193165666"><ele>187.0</ele><time>2026-03-29T13:21:52.999Z</time></trkpt><trkpt lat="44.249163020947584" lon="11.75652117562287"><ele>187.0</ele><time>2026-03-29T13:21:54.999Z</time></trkpt><trkpt lat="44.24919926548722" lon="11.75644644620453"><ele>187.0</ele><time>2026-03-29T13:22:04.998Z</time></trkpt><trkpt lat="44.24912902813468" lon="11.756424001907828"><ele>187.0</ele><time>2026-03-29T13:22:33Z</time></trkpt><trkpt lat="44.249064116918646" lon="11.756410901724262"><ele>187.0</ele><time>2026-03-29T13:22:36Z</time></trkpt><trkpt lat="44.248995429037656" lon="11.756403381413342"><ele>187.0</ele><time>2026-03-29T13:22:39Z</time></trkpt><trkpt lat="44.24891660616511" lon="11.756373391076327"><ele>187.0</ele><time>2026-03-29T13:22:42Z</time></trkpt><trkpt lat="44.24879479730227" lon="11.756327828535179"><ele>187.0</ele><time>2026-03-29T13:22:44Z</time></trkpt><trkpt lat="44.24872860062206" lon="11.756293942464909"><ele>187.0</ele><time>2026-03-29T13:22:45Z</time></trkpt><trkpt lat="44.24865493726025" lon="11.756266789184002"><ele>187.0</ele><time>2026-03-29T13:22:46Z</time></trkpt><trkpt lat="44.24859239503482" lon="11.756249481909986"><ele>187.0</ele><time>2026-03-29T13:22:47Z</time></trkpt><trkpt lat="44.2485284624166" lon="11.756230513315383"><ele>187.0</ele><time>2026-03-29T13:22:48Z</time></trkpt><trkpt lat="44.24841366930299" lon="11.756161292709805"><ele>187.0</ele><time>2026-03-29T13:22:50Z</time></trkpt><trkpt lat="44.24835247435721" lon="11.756113561463208"><ele>187.0</ele><time>2026-03-29T13:22:51Z</time></trkpt><trkpt lat="44.24823869965465" lon="11.756057415602266"><ele>187.0</ele><time>2026-03-29T13:22:53Z</time></trkpt><trkpt lat="44.248175068974724" lon="11.756054837271824"><ele>187.0</ele><time>2026-03-29T13:22:54Z</time></trkpt><trkpt lat="44.24806748451155" lon="11.756038035272136"><ele>190.83333333333334</ele><time>2026-03-29T13:22:56Z</time></trkpt><trkpt lat="44.24797913209874" lon="11.756022617023412"><ele>194.66666666666669</ele><time>2026-03-29T13:22:58Z</time></trkpt><trkpt lat="44.24791429861144" lon="11.755989826382015"><ele>198.5</ele><time>2026-03-29T13:22:59Z</time></trkpt><trkpt lat="44.247844820143236" lon="11.755933941429053"><ele>202.33333333333334</ele><time>2026-03-29T13:22:59.999Z</time></trkpt><trkpt lat="44.247780558965026" lon="11.755878015184834"><ele>206.16666666666666</ele><time>2026-03-29T13:23:00.999Z</time></trkpt><trkpt lat="44.24771910906478" lon="11.755840186092625"><ele>210.0</ele><time>2026-03-29T13:23:01.999Z</time></trkpt><trkpt lat="44.247654345529064" lon="11.755788787763281"><ele>210.0</ele><time>2026-03-29T13:23:02.999Z</time></trkpt><trkpt lat="44.247594559740165" lon="11.75574375285405"><ele>210.0</ele><time>2026-03-29T13:23:03.999Z</time></trkpt><trkpt lat="44.24753113137416" lon="11.755710308415658"><ele>210.0</ele><time>2026-03-29T13:23:04.999Z</time></trkpt><trkpt lat="44.247468803617735" lon="11.75564198990045"><ele>210.0</ele><time>2026-03-29T13:23:05.999Z</time></trkpt><trkpt lat="44.247404071418956" lon="11.755579048483522"><ele>210.0</ele><time>2026-03-29T13:23:06.999Z</time></trkpt><trkpt lat="44.247332348377675" lon="11.755523015922309"><ele>210.0</ele><time>2026-03-29T13:23:07.999Z</time></trkpt><trkpt lat="44.247263344069" lon="11.755470873069548"><ele>211.16666666666666</ele><time>2026-03-29T13:23:08.999Z</time></trkpt><trkpt lat="44.24719444535849" lon="11.755413526707374"><ele>212.33333333333331</ele><time>2026-03-29T13:23:09.999Z</time></trkpt><trkpt lat="44.2471346665529" lon="11.755373331152892"><ele>213.5</ele><time>2026-03-29T13:23:10.999Z</time></trkpt><trkpt lat="44.247020938945624" lon="11.755319866773831"><ele>214.66666666666666</ele><time>2026-03-29T13:23:12.999Z</time></trkpt><trkpt lat="44.24695624987296" lon="11.755305145150281"><ele>215.83333333333331</ele><time>2026-03-29T13:23:13.999Z</time></trkpt><trkpt lat="44.246888216076044" lon="11.755305067308598"><ele>217.0</ele><time>2026-03-29T13:23:14.999Z</time></trkpt><trkpt lat="44.24681981431183" lon="11.755297693473782"><ele>216.99999999999997</ele><time>2026-03-29T13:23:15.999Z</time></trkpt><trkpt lat="44.24670251517524" lon="11.755271442155813"><ele>217.0</ele><time>2026-03-29T13:23:17.999Z</time></trkpt><trkpt lat="44.24659243023954" lon="11.75527481612425"><ele>217.0</ele><time>2026-03-29T13:23:19.999Z</time></trkpt><trkpt lat="44.246528423108195" lon="11.755306401653867"><ele>217.0</ele><time>2026-03-29T13:25:13.999Z</time></trkpt><trkpt lat="44.24650536648896" lon="11.755408195384044"><ele>216.99999999999997</ele><time>2026-03-29T13:25:19.999Z</time></trkpt><trkpt lat="44.24648209540676" lon="11.755490558911728"><ele>217.0</ele><time>2026-03-29T13:25:25.999Z</time></trkpt><trkpt lat="44.24650035807021" lon="11.755395397807591"><ele>216.99999999999997</ele><time>2026-03-29T13:26:25Z</time></trkpt><trkpt lat="44.24652392373953" lon="11.755309355832837"><ele>217.0</ele><time>2026-03-29T13:26:36Z</time></trkpt><trkpt lat="44.24657365985794" lon="11.755240847983842"><ele>217.0</ele><time>2026-03-29T13:26:46Z</time></trkpt><trkpt lat="44.24649549836853" lon="11.7552194699768"><ele>217.0</ele><time>2026-03-29T13:27:28.999Z</time></trkpt><trkpt lat="44.24643254715119" lon="11.755143819477269"><ele>216.99999999999997</ele><time>2026-03-29T13:27:31.999Z</time></trkpt><trkpt lat="44.24636755902763" lon="11.755066552695968"><ele>217.0</ele><time>2026-03-29T13:27:33.999Z</time></trkpt><trkpt lat="44.2463200502972" lon="11.754985083577608"><ele>216.49999999999997</ele><time>2026-03-29T13:27:35.999Z</time></trkpt><trkpt lat="44.24628522474956" lon="11.754871819023016"><ele>216.0</ele><time>2026-03-29T13:27:37.999Z</time></trkpt><trkpt lat="44.24625765997283" lon="11.75476564677289"><ele>215.5</ele><time>2026-03-29T13:27:39.999Z</time></trkpt><trkpt lat="44.246224795544656" lon="11.754677570175799"><ele>215.0</ele><time>2026-03-29T13:27:41.999Z</time></trkpt><trkpt lat="44.246184558503714" lon="11.754606630322685"><ele>214.49999999999997</ele><time>2026-03-29T13:27:43.999Z</time></trkpt><trkpt lat="44.24612375254556" lon="11.754520625964915"><ele>214.0</ele><time>2026-03-29T13:27:46.999Z</time></trkpt><trkpt lat="44.2460742212556" lon="11.75445702074568"><ele>214.0</ele><time>2026-03-29T13:27:48.999Z</time></trkpt><trkpt lat="44.24599950507449" lon="11.754374185407137"><ele>213.99999999999997</ele><time>2026-03-29T13:27:51.999Z</time></trkpt><trkpt lat="44.24591882000142" lon="11.754273376550493"><ele>213.99999999999997</ele><time>2026-03-29T13:27:53.999Z</time></trkpt><trkpt lat="44.24587765391002" lon="11.754202218249997"><ele>214.0</ele><time>2026-03-29T13:27:54.999Z</time></trkpt><trkpt lat="44.245780676258065" lon="11.754125368936476"><ele>214.0</ele><time>2026-03-29T13:27:56.999Z</time></trkpt><trkpt lat="44.2456881084171" lon="11.754041818634356"><ele>214.49999999999997</ele><time>2026-03-29T13:27:58.999Z</time></trkpt><trkpt lat="44.24563595336847" lon="11.753982904440482"><ele>215.0</ele><time>2026-03-29T13:28:00.999Z</time></trkpt><trkpt lat="44.245589634619456" lon="11.75390731044517"><ele>215.5</ele><time>2026-03-29T13:28:03.999Z</time></trkpt><trkpt lat="44.24552472394254" lon="11.753832528163022"><ele>216.0</ele><time>2026-03-29T13:28:05.999Z</time></trkpt><trkpt lat="44.24543424436646" lon="11.753740272729718"><ele>216.49999999999997</ele><time>2026-03-29T13:28:07.999Z</time></trkpt><trkpt lat="44.24537165972704" lon="11.753659133544943"><ele>217.0</ele><time>2026-03-29T13:28:09.999Z</time></trkpt><trkpt lat="44.24531077307639" lon="11.753544005924445"><ele>219.6</ele><time>2026-03-29T13:28:11.999Z</time></trkpt><trkpt lat="44.24524668614117" lon="11.753394869669993"><ele>222.2</ele><time>2026-03-29T13:28:13.999Z</time></trkpt><trkpt lat="44.24521074178052" lon="11.753320907223772"><ele>224.8</ele><time>2026-03-29T13:28:14.999Z</time></trkpt><trkpt lat="44.245172288469405" lon="11.753249665927749"><ele>227.4</ele><time>2026-03-29T13:28:15.999Z</time></trkpt><trkpt lat="44.24509927295506" lon="11.753120572806438"><ele>230.0</ele><time>2026-03-29T13:28:17.999Z</time></trkpt><trkpt lat="44.24502993846148" lon="11.752998547334865"><ele>230.00000000000003</ele><time>2026-03-29T13:28:19.998Z</time></trkpt><trkpt lat="44.24494345263971" lon="11.752873326240115"><ele>230.0</ele><time>2026-03-29T13:28:21.998Z</time></trkpt><trkpt lat="44.244899186994814" lon="11.752807766521782"><ele>230.0</ele><time>2026-03-29T13:28:22.998Z</time></trkpt><trkpt lat="44.244853190023505" lon="11.752745548684231"><ele>230.0</ele><time>2026-03-29T13:28:23.998Z</time></trkpt><trkpt lat="44.24478038564697" lon="11.752627209326407"><ele>230.00000000000003</ele><time>2026-03-29T13:28:25.998Z</time></trkpt><trkpt lat="44.244728365060915" lon="11.75253705439042"><ele>230.0</ele><time>2026-03-29T13:28:27.998Z</time></trkpt><trkpt lat="44.244716330601506" lon="11.752417911564416"><ele>230.00000000000003</ele><time>2026-03-29T13:28:31Z</time></trkpt><trkpt lat="44.24473225768355" lon="11.752518029326778"><ele>230.0</ele><time>2026-03-29T13:29:05Z</time></trkpt><trkpt lat="44.24476557370384" lon="11.752622121412882"><ele>230.0</ele><time>2026-03-29T13:29:09Z</time></trkpt><trkpt lat="44.2448270790611" lon="11.752678334290058"><ele>230.0</ele><time>2026-03-29T13:29:18.999Z</time></trkpt><trkpt lat="44.24488469119398" lon="11.752777890949252"><ele>230.00000000000003</ele><time>2026-03-29T13:29:20.999Z</time></trkpt><trkpt lat="44.244941967347096" lon="11.752865355193126"><ele>230.0</ele><time>2026-03-29T13:29:22.999Z</time></trkpt><trkpt lat="44.24500776807628" lon="11.75295306932158"><ele>230.00000000000003</ele><time>2026-03-29T13:29:24.999Z</time></trkpt><trkpt lat="44.24505676171796" lon="11.75303526148233"><ele>230.0</ele><time>2026-03-29T13:29:26.999Z</time></trkpt><trkpt lat="44.245112803657825" lon="11.753115009504343"><ele>230.0</ele><time>2026-03-29T13:29:28.999Z</time></trkpt><trkpt lat="44.245165443351105" lon="11.753205360425305"><ele>230.0</ele><time>2026-03-29T13:29:30.999Z</time></trkpt><trkpt lat="44.245219366947744" lon="11.75331194926807"><ele>230.00000000000003</ele><time>2026-03-29T13:29:32.999Z</time></trkpt><trkpt lat="44.24526263523546" lon="11.753409232178472"><ele>230.0</ele><time>2026-03-29T13:29:34.999Z</time></trkpt><trkpt lat="44.24530631628716" lon="11.753503803030023"><ele>229.00000000000003</ele><time>2026-03-29T13:29:36.999Z</time></trkpt><trkpt lat="44.24534914590715" lon="11.753591158721123"><ele>228.0</ele><time>2026-03-29T13:29:38.999Z</time></trkpt><trkpt lat="44.245397079767976" lon="11.753683919859517"><ele>227.0</ele><time>2026-03-29T13:29:40.999Z</time></trkpt><trkpt lat="44.24546250381873" lon="11.753772611409088"><ele>226.0</ele><time>2026-03-29T13:29:42.999Z</time></trkpt><trkpt lat="44.24552762405392" lon="11.753826896787162"><ele>225.00000000000003</ele><time>2026-03-29T13:29:44.999Z</time></trkpt><trkpt lat="44.24558516607441" lon="11.753892247824648"><ele>224.0</ele><time>2026-03-29T13:29:46.999Z</time></trkpt><trkpt lat="44.24563782500606" lon="11.753944536826994"><ele>224.0</ele><time>2026-03-29T13:29:48.999Z</time></trkpt><trkpt lat="44.24562389399497" lon="11.754036840925846"><ele>224.0</ele><time>2026-03-29T13:29:53.999Z</time></trkpt><trkpt lat="44.2455556479704" lon="11.754051044185513"><ele>224.0</ele><time>2026-03-29T13:29:56.999Z</time></trkpt><trkpt lat="44.245631620490435" lon="11.753998504379217"><ele>224.0</ele><time>2026-03-29T13:30:08.999Z</time></trkpt><trkpt lat="44.2457054181832" lon="11.754059291331865"><ele>224.0</ele><time>2026-03-29T13:30:11.999Z</time></trkpt><trkpt lat="44.24576504962935" lon="11.75409484403401"><ele>224.0</ele><time>2026-03-29T13:30:13.999Z</time></trkpt><trkpt lat="44.24582625768889" lon="11.75415411631629"><ele>224.0</ele><time>2026-03-29T13:30:15.999Z</time></trkpt><trkpt lat="44.24588256675667" lon="11.754232434387799"><ele>224.0</ele><time>2026-03-29T13:30:17.999Z</time></trkpt><trkpt lat="44.24594346290892" lon="11.754312772843274"><ele>223.99999999999997</ele><time>2026-03-29T13:30:19.999Z</time></trkpt><trkpt lat="44.246027149713456" lon="11.754413747253638"><ele>223.99999999999997</ele><time>2026-03-29T13:30:21.999Z</time></trkpt><trkpt lat="44.24610855555602" lon="11.754495207278111"><ele>224.0</ele><time>2026-03-29T13:30:23.999Z</time></trkpt><trkpt lat="44.24616085868688" lon="11.75455923178307"><ele>224.0</ele><time>2026-03-29T13:30:25.999Z</time></trkpt><trkpt lat="44.24623080416778" lon="11.754662508491844"><ele>222.79999999999998</ele><time>2026-03-29T13:30:27.999Z</time></trkpt><trkpt lat="44.246274764084255" lon="11.754770093986389"><ele>221.59999999999997</ele><time>2026-03-29T13:30:29.998Z</time></trkpt><trkpt lat="44.246304995122834" lon="11.754877327186536"><ele>220.4</ele><time>2026-03-29T13:30:31.998Z</time></trkpt><trkpt lat="44.24634581263558" lon="11.754994187591718"><ele>219.2</ele><time>2026-03-29T13:30:33.998Z</time></trkpt><trkpt lat="44.246411450897305" lon="11.755098889745101"><ele>218.0</ele><time>2026-03-29T13:30:35.998Z</time></trkpt><trkpt lat="44.24649612292104" lon="11.75519168571973"><ele>217.8</ele><time>2026-03-29T13:30:38Z</time></trkpt><trkpt lat="44.24655271596925" lon="11.755261222776763"><ele>217.60000000000002</ele><time>2026-03-29T13:30:40Z</time></trkpt><trkpt lat="44.24664642786434" lon="11.755305146400657"><ele>217.39999999999998</ele><time>2026-03-29T13:30:44Z</time></trkpt><trkpt lat="44.24675624998637" lon="11.75529927091688"><ele>217.2</ele><time>2026-03-29T13:30:46Z</time></trkpt><trkpt lat="44.24684460132062" lon="11.755303134410184"><ele>217.0</ele><time>2026-03-29T13:30:48Z</time></trkpt><trkpt lat="44.246938486040996" lon="11.755318659938332"><ele>217.0</ele><time>2026-03-29T13:30:50Z</time></trkpt><trkpt lat="44.247039805768715" lon="11.755332972394855"><ele>217.0</ele><time>2026-03-29T13:30:52Z</time></trkpt><trkpt lat="44.24714128786156" lon="11.755375038629273"><ele>217.0</ele><time>2026-03-29T13:30:54Z</time></trkpt><trkpt lat="44.24720079241264" lon="11.755411653307062"><ele>217.0</ele><time>2026-03-29T13:30:55Z</time></trkpt><trkpt lat="44.24731026609037" lon="11.755487005015476"><ele>217.0</ele><time>2026-03-29T13:30:57Z</time></trkpt><trkpt lat="44.24738623315144" lon="11.755549502104122"><ele>215.6</ele><time>2026-03-29T13:30:59Z</time></trkpt><trkpt lat="44.247465097499465" lon="11.75561851588066"><ele>214.2</ele><time>2026-03-29T13:31:01Z</time></trkpt><trkpt lat="44.24755270165591" lon="11.755695893306145"><ele>212.8</ele><time>2026-03-29T13:31:03Z</time></trkpt><trkpt lat="44.24762654600856" lon="11.755763190395077"><ele>211.4</ele><time>2026-03-29T13:31:05Z</time></trkpt><trkpt lat="44.247716605456176" lon="11.755820166723247"><ele>210.0</ele><time>2026-03-29T13:31:07Z</time></trkpt><trkpt lat="44.2477927883323" lon="11.755862030503765"><ele>210.0</ele><time>2026-03-29T13:31:09Z</time></trkpt><trkpt lat="44.247860038656455" lon="11.755900086368447"><ele>210.0</ele><time>2026-03-29T13:31:11Z</time></trkpt><trkpt lat="44.24792209308815" lon="11.755933200879975"><ele>210.0</ele><time>2026-03-29T13:31:13Z</time></trkpt><trkpt lat="44.24798924229857" lon="11.755997528256739"><ele>210.0</ele><time>2026-03-29T13:31:16Z</time></trkpt><trkpt lat="44.248093755790364" lon="11.756049712484737"><ele>210.0</ele><time>2026-03-29T13:31:19Z</time></trkpt><trkpt lat="44.248159185740015" lon="11.75606032296227"><ele>210.0</ele><time>2026-03-29T13:31:20Z</time></trkpt><trkpt lat="44.248242769522804" lon="11.756069446774916"><ele>206.16666666666666</ele><time>2026-03-29T13:31:21Z</time></trkpt><trkpt lat="44.248315266202965" lon="11.756082994642698"><ele>202.33333333333334</ele><time>2026-03-29T13:31:22Z</time></trkpt><trkpt lat="44.24837759573411" lon="11.756102263881283"><ele>198.5</ele><time>2026-03-29T13:31:23Z</time></trkpt><trkpt lat="44.24849257924759" lon="11.756165963632727"><ele>194.66666666666669</ele><time>2026-03-29T13:31:25Z</time></trkpt><trkpt lat="44.248560882726665" lon="11.75621170311509"><ele>190.83333333333334</ele><time>2026-03-29T13:31:26Z</time></trkpt><trkpt lat="44.24863650611256" lon="11.756255626507398"><ele>187.0</ele><time>2026-03-29T13:31:27Z</time></trkpt><trkpt lat="44.24871519493071" lon="11.75628860620924"><ele>187.0</ele><time>2026-03-29T13:31:28Z</time></trkpt><trkpt lat="44.24879370266078" lon="11.756315328995058"><ele>187.0</ele><time>2026-03-29T13:31:28.999Z</time></trkpt><trkpt lat="44.248862848117" lon="11.756348829817762"><ele>187.0</ele><time>2026-03-29T13:31:29.999Z</time></trkpt><trkpt lat="44.2489257223721" lon="11.756579646858816"><ele>187.0</ele><time>2026-03-29T13:31:30.999Z</time></trkpt><trkpt lat="44.24900522640021" lon="11.756593458754935"><ele>187.0</ele><time>2026-03-29T13:31:31.999Z</time></trkpt><trkpt lat="44.24908410205321" lon="11.756593361140927"><ele>187.0</ele><time>2026-03-29T13:31:32.999Z</time></trkpt><trkpt lat="44.24917170184022" lon="11.756593361140508"><ele>187.0</ele><time>2026-03-29T13:31:34.999Z</time></trkpt><trkpt lat="44.249105297911534" lon="11.756581349715084"><ele>187.0</ele><time>2026-03-29T13:31:38.999Z</time></trkpt><trkpt lat="44.249020811056866" lon="11.756586503054109"><ele>187.0</ele><time>2026-03-29T13:31:39.999Z</time></trkpt><trkpt lat="44.24892357340649" lon="11.756572993103966"><ele>187.0</ele><time>2026-03-29T13:31:40.999Z</time></trkpt><trkpt lat="44.24882156603529" lon="11.756557667050041"><ele>187.0</ele><time>2026-03-29T13:31:41.999Z</time></trkpt><trkpt lat="44.24870983224552" lon="11.756570549252375"><ele>187.0</ele><time>2026-03-29T13:31:42.999Z</time></trkpt><trkpt lat="44.24859531466138" lon="11.756583149083419"><ele>187.0</ele><time>2026-03-29T13:31:43.999Z</time></trkpt><trkpt lat="44.24848451028908" lon="11.756580068334179"><ele>187.0</ele><time>2026-03-29T13:31:44.999Z</time></trkpt><trkpt lat="44.248369615869265" lon="11.75658770579666"><ele>187.0</ele><time>2026-03-29T13:31:45.999Z</time></trkpt><trkpt lat="44.24825998485975" lon="11.756603119437168"><ele>187.0</ele><time>2026-03-29T13:31:46.999Z</time></trkpt><trkpt lat="44.248148957783194" lon="11.756629576003586"><ele>187.0</ele><time>2026-03-29T13:31:47.999Z</time></trkpt><trkpt lat="44.24804539217647" lon="11.756713599403586"><ele>187.0</ele><time>2026-03-29T13:31:48.999Z</time></trkpt><trkpt lat="44.24797497692597" lon="11.756812175311616"><ele>187.0</ele><time>2026-03-29T13:31:49.999Z</time></trkpt><trkpt lat="44.24789446767509" lon="11.756839629961688"><ele>187.0</ele><time>2026-03-29T13:31:50.999Z</time></trkpt><trkpt lat="44.247802496089925" lon="11.756828568401856"><ele>187.75</ele><time>2026-03-29T13:31:51.999Z</time></trkpt><trkpt lat="44.24770111203177" lon="11.756766334282199"><ele>188.5</ele><time>2026-03-29T13:31:52.999Z</time></trkpt><trkpt lat="44.247586158193286" lon="11.756768859327925"><ele>189.25</ele><time>2026-03-29T13:31:53.999Z</time></trkpt><trkpt lat="44.24748202727093" lon="11.756817067647155"><ele>190.0</ele><time>2026-03-29T13:31:54.999Z</time></trkpt><trkpt lat="44.24738151340469" lon="11.75690406350301"><ele>187.8</ele><time>2026-03-29T13:31:55.999Z</time></trkpt><trkpt lat="44.24729952585311" lon="11.75700685594964"><ele>185.6</ele><time>2026-03-29T13:31:56.999Z</time></trkpt><trkpt lat="44.247236406687385" lon="11.757121769341154"><ele>183.39999999999998</ele><time>2026-03-29T13:31:57.999Z</time></trkpt><trkpt lat="44.24715130370036" lon="11.757187502303935"><ele>181.2</ele><time>2026-03-29T13:31:58.999Z</time></trkpt><trkpt lat="44.24705058433757" lon="11.75717606368806"><ele>179.0</ele><time>2026-03-29T13:31:59.999Z</time></trkpt><trkpt lat="44.246967468326915" lon="11.757139582182132"><ele>179.0</ele><time>2026-03-29T13:32:00.999Z</time></trkpt><trkpt lat="44.24689912269038" lon="11.757169900981404"><ele>179.0</ele><time>2026-03-29T13:32:01.999Z</time></trkpt><trkpt lat="44.24684375781749" lon="11.757280457451117"><ele>179.0</ele><time>2026-03-29T13:32:02.999Z</time></trkpt><trkpt lat="44.24682142430551" lon="11.757418508516322"><ele>179.0</ele><time>2026-03-29T13:32:03.999Z</time></trkpt><trkpt lat="44.246816740273744" lon="11.757585367717287"><ele>179.0</ele><time>2026-03-29T13:32:04.999Z</time></trkpt><trkpt lat="44.24684383343475" lon="11.757752089896568"><ele>179.16666666666666</ele><time>2026-03-29T13:32:05.999Z</time></trkpt><trkpt lat="44.24685870675288" lon="11.757886457520483"><ele>179.33333333333331</ele><time>2026-03-29T13:32:06.999Z</time></trkpt><trkpt lat="44.24687671896293" lon="11.758019167342812"><ele>179.5</ele><time>2026-03-29T13:32:07.999Z</time></trkpt><trkpt lat="44.2468955214648" lon="11.758130913129277"><ele>179.66666666666666</ele><time>2026-03-29T13:32:08.999Z</time></trkpt><trkpt lat="44.246922172089455" lon="11.758223444531104"><ele>179.83333333333334</ele><time>2026-03-29T13:32:09.999Z</time></trkpt><trkpt lat="44.24697467668234" lon="11.758301689935484"><ele>180.0</ele><time>2026-03-29T13:32:10.999Z</time></trkpt><trkpt lat="44.24708186742482" lon="11.75833451979942"><ele>180.0</ele><time>2026-03-29T13:32:11.999Z</time></trkpt><trkpt lat="44.24720616635501" lon="11.758424034961564"><ele>180.0</ele><time>2026-03-29T13:32:12.999Z</time></trkpt><trkpt lat="44.247305707877054" lon="11.758519110087569"><ele>180.0</ele><time>2026-03-29T13:32:13.999Z</time></trkpt><trkpt lat="44.24738234901649" lon="11.758639919290783"><ele>180.0</ele><time>2026-03-29T13:32:14.999Z</time></trkpt><trkpt lat="44.24744916178843" lon="11.758764693021554"><ele>180.0</ele><time>2026-03-29T13:32:15.999Z</time></trkpt><trkpt lat="44.24751896523992" lon="11.758885158391823"><ele>180.0</ele><time>2026-03-29T13:32:16.999Z</time></trkpt><trkpt lat="44.24757960008962" lon="11.759012601260975"><ele>180.0</ele><time>2026-03-29T13:32:17.999Z</time></trkpt><trkpt lat="44.24763827890979" lon="11.75914453740499"><ele>180.0</ele><time>2026-03-29T13:32:18.999Z</time></trkpt><trkpt lat="44.24769697627211" lon="11.759249668183626"><ele>180.0</ele><time>2026-03-29T13:32:19.999Z</time></trkpt><trkpt lat="44.24772013515053" lon="11.759371075048755"><ele>180.0</ele><time>2026-03-29T13:32:20.999Z</time></trkpt><trkpt lat="44.24772560017671" lon="11.759505476038578"><ele>180.0</ele><time>2026-03-29T13:32:21.999Z</time></trkpt><trkpt lat="44.247708242905816" lon="11.759642262056598"><ele>180.0</ele><time>2026-03-29T13:32:22.999Z</time></trkpt><trkpt lat="44.24768783436898" lon="11.759779455041086"><ele>180.0</ele><time>2026-03-29T13:32:23.999Z</time></trkpt><trkpt lat="44.24765983053846" lon="11.759910617289615"><ele>180.0</ele><time>2026-03-29T13:32:24.999Z</time></trkpt><trkpt lat="44.247615815493" lon="11.760032075843274"><ele>180.0</ele><time>2026-03-29T13:32:25.999Z</time></trkpt><trkpt lat="44.24756221528377" lon="11.760163168395534"><ele>180.0</ele><time>2026-03-29T13:32:26.999Z</time></trkpt><trkpt lat="44.24748231102037" lon="11.760258469916899"><ele>180.0</ele><time>2026-03-29T13:32:27.999Z</time></trkpt><trkpt lat="44.24741777733709" lon="11.76038132173708"><ele>180.0</ele><time>2026-03-29T13:32:28.999Z</time></trkpt><trkpt lat="44.247379519917736" lon="11.760519063686404"><ele>180.0</ele><time>2026-03-29T13:32:29.999Z</time></trkpt><trkpt lat="44.24734473507751" lon="11.760645549257957"><ele>180.16666666666666</ele><time>2026-03-29T13:32:30.999Z</time></trkpt><trkpt lat="44.24731754667189" lon="11.760778393013716"><ele>180.33333333333334</ele><time>2026-03-29T13:32:31.999Z</time></trkpt><trkpt lat="44.24731027114094" lon="11.760916461000104"><ele>180.5</ele><time>2026-03-29T13:32:32.999Z</time></trkpt><trkpt lat="44.247303399687375" lon="11.76102419560267"><ele>180.66666666666669</ele><time>2026-03-29T13:32:33.999Z</time></trkpt><trkpt lat="44.24729607511172" lon="11.761139034503428"><ele>180.83333333333334</ele><time>2026-03-29T13:32:34.999Z</time></trkpt><trkpt lat="44.24728973461331" lon="11.761245125211797"><ele>181.0</ele><time>2026-03-29T13:32:35.999Z</time></trkpt><trkpt lat="44.24727040542776" lon="11.761384585195032"><ele>181.66666666666669</ele><time>2026-03-29T13:32:37.999Z</time></trkpt><trkpt lat="44.24721199888595" lon="11.761423996304188"><ele>182.33333333333334</ele><time>2026-03-29T13:32:41.998Z</time></trkpt><trkpt lat="44.24714152880993" lon="11.761460715732468"><ele>183.0</ele><time>2026-03-29T13:32:52Z</time></trkpt><trkpt lat="44.24703564572952" lon="11.761472614170946"><ele>183.66666666666666</ele><time>2026-03-29T13:32:54Z</time></trkpt><trkpt lat="44.24694454287699" lon="11.761499776838514"><ele>184.33333333333331</ele><time>2026-03-29T13:32:56Z</time></trkpt><trkpt lat="44.24687945422962" lon="11.761514504263458"><ele>185.0</ele><time>2026-03-29T13:32:58Z</time></trkpt><trkpt lat="44.246798409979306" lon="11.761497598406985"><ele>185.0</ele><time>2026-03-29T13:33:00Z</time></trkpt><trkpt lat="44.24671660068991" lon="11.761343900888985"><ele>185.0</ele><time>2026-03-29T13:33:02Z</time></trkpt><trkpt lat="44.24665993246661" lon="11.761240329586565"><ele>185.0</ele><time>2026-03-29T13:33:03Z</time></trkpt><trkpt lat="44.246583132710285" lon="11.761151612463609"><ele>185.0</ele><time>2026-03-29T13:33:04Z</time></trkpt><trkpt lat="44.24649762914999" lon="11.76109508529651"><ele>185.0</ele><time>2026-03-29T13:33:05Z</time></trkpt><trkpt lat="44.24641443569043" lon="11.76105168575727"><ele>181.0</ele><time>2026-03-29T13:33:06Z</time></trkpt><trkpt lat="44.24635317097365" lon="11.760976178265592"><ele>177.0</ele><time>2026-03-29T13:33:07Z</time></trkpt><trkpt lat="44.246320917759235" lon="11.760854518229733"><ele>173.0</ele><time>2026-03-29T13:33:08Z</time></trkpt><trkpt lat="44.246267712842396" lon="11.7607484172712"><ele>169.0</ele><time>2026-03-29T13:33:09Z</time></trkpt><trkpt lat="44.2461947980746" lon="11.760660290367083"><ele>165.0</ele><time>2026-03-29T13:33:10Z</time></trkpt><trkpt lat="44.24610483049062" lon="11.760629505839436"><ele>165.0</ele><time>2026-03-29T13:33:11Z</time></trkpt><trkpt lat="44.24603996638059" lon="11.760551370948342"><ele>165.0</ele><time>2026-03-29T13:33:12Z</time></trkpt><trkpt lat="44.24600753404419" lon="11.76043206717171"><ele>165.0</ele><time>2026-03-29T13:33:13Z</time></trkpt><trkpt lat="44.24600000777798" lon="11.7603230790965"><ele>165.0</ele><time>2026-03-29T13:33:14Z</time></trkpt><trkpt lat="44.24597675054677" lon="11.760228949454524"><ele>165.0</ele><time>2026-03-29T13:33:15Z</time></trkpt><trkpt lat="44.24593306830472" lon="11.760122764312973"><ele>165.0</ele><time>2026-03-29T13:33:16Z</time></trkpt><trkpt lat="44.2458699875675" lon="11.760060463583324"><ele>167.6</ele><time>2026-03-29T13:33:17Z</time></trkpt><trkpt lat="44.24575451060239" lon="11.760050304665532"><ele>170.2</ele><time>2026-03-29T13:33:18Z</time></trkpt><trkpt lat="44.245637395621614" lon="11.760136832369753"><ele>172.8</ele><time>2026-03-29T13:33:19Z</time></trkpt><trkpt lat="44.24554119541316" lon="11.76020110132601"><ele>175.4</ele><time>2026-03-29T13:33:20Z</time></trkpt><trkpt lat="44.24545030852311" lon="11.760237552801637"><ele>178.0</ele><time>2026-03-29T13:33:21Z</time></trkpt><trkpt lat="44.24536933633656" lon="11.760246885531345"><ele>176.5</ele><time>2026-03-29T13:33:22Z</time></trkpt><trkpt lat="44.24529233286137" lon="11.760208303092877"><ele>175.0</ele><time>2026-03-29T13:33:23Z</time></trkpt><trkpt lat="44.245215089661876" lon="11.76019814456305"><ele>173.5</ele><time>2026-03-29T13:33:24Z</time></trkpt><trkpt lat="44.24514437657554" lon="11.760255329052198"><ele>172.0</ele><time>2026-03-29T13:33:25Z</time></trkpt><trkpt lat="44.2450922128093" lon="11.760321111608617"><ele>170.5</ele><time>2026-03-29T13:33:26Z</time></trkpt><trkpt lat="44.24512141391933" lon="11.76046960797536"><ele>169.0</ele><time>2026-03-29T13:33:27Z</time></trkpt><trkpt lat="44.24517158904359" lon="11.760565485285953"><ele>165.39999999999998</ele><time>2026-03-29T13:33:28Z</time></trkpt><trkpt lat="44.24525169913676" lon="11.760610506458274"><ele>161.79999999999998</ele><time>2026-03-29T13:33:29Z</time></trkpt><trkpt lat="44.24535968067138" lon="11.760599376270358"><ele>158.2</ele><time>2026-03-29T13:33:30Z</time></trkpt><trkpt lat="44.24545101438491" lon="11.760538770673453"><ele>154.6</ele><time>2026-03-29T13:33:31Z</time></trkpt><trkpt lat="44.24553229373501" lon="11.760519575356517"><ele>151.0</ele><time>2026-03-29T13:33:32Z</time></trkpt><trkpt lat="44.24561881381996" lon="11.760520324490832"><ele>153.6</ele><time>2026-03-29T13:33:33Z</time></trkpt><trkpt lat="44.24570713043877" lon="11.760572240254653"><ele>156.2</ele><time>2026-03-29T13:33:33.999Z</time></trkpt><trkpt lat="44.24574985224584" lon="11.760695582288209"><ele>158.79999999999998</ele><time>2026-03-29T13:33:34.999Z</time></trkpt><trkpt lat="44.24577978134709" lon="11.76082605081658"><ele>161.39999999999998</ele><time>2026-03-29T13:33:35.999Z</time></trkpt><trkpt lat="44.245830822265" lon="11.760929544498556"><ele>164.0</ele><time>2026-03-29T13:33:36.999Z</time></trkpt><trkpt lat="44.24586845239694" lon="11.761035266248205"><ele>164.0</ele><time>2026-03-29T13:33:37.999Z</time></trkpt><trkpt lat="44.24588784927653" lon="11.761132094789138"><ele>164.0</ele><time>2026-03-29T13:33:38.999Z</time></trkpt><trkpt lat="44.245839729394895" lon="11.76127025654771"><ele>164.0</ele><time>2026-03-29T13:33:40.999Z</time></trkpt><trkpt lat="44.24572634574411" lon="11.761263586209024"><ele>164.0</ele><time>2026-03-29T13:33:42.999Z</time></trkpt><trkpt lat="44.24564437526049" lon="11.76125088343845"><ele>164.0</ele><time>2026-03-29T13:33:43.999Z</time></trkpt><trkpt lat="44.24556416766455" lon="11.76124543871023"><ele>160.6</ele><time>2026-03-29T13:33:44.999Z</time></trkpt><trkpt lat="44.2454813334504" lon="11.761284008372792"><ele>157.2</ele><time>2026-03-29T13:33:45.999Z</time></trkpt><trkpt lat="44.24540624264036" lon="11.761341590054238"><ele>153.79999999999998</ele><time>2026-03-29T13:33:46.999Z</time></trkpt><trkpt lat="44.245340298082155" lon="11.761435316097431"><ele>150.39999999999998</ele><time>2026-03-29T13:33:47.999Z</time></trkpt><trkpt lat="44.245287139185834" lon="11.76153946494097"><ele>147.0</ele><time>2026-03-29T13:33:48.999Z</time></trkpt><trkpt lat="44.24526327012225" lon="11.761671779814375"><ele>147.0</ele><time>2026-03-29T13:33:49.999Z</time></trkpt><trkpt lat="44.24526108430674" lon="11.76180050262441"><ele>147.0</ele><time>2026-03-29T13:33:50.999Z</time></trkpt><trkpt lat="44.245259469064905" lon="11.761917711010907"><ele>147.0</ele><time>2026-03-29T13:33:51.999Z</time></trkpt><trkpt lat="44.24525789982027" lon="11.76202029821265"><ele>147.0</ele><time>2026-03-29T13:33:52.999Z</time></trkpt><trkpt lat="44.245231635362885" lon="11.762179882435722"><ele>147.0</ele><time>2026-03-29T13:33:54.999Z</time></trkpt><trkpt lat="44.245140212970966" lon="11.762228381135001"><ele>147.0</ele><time>2026-03-29T13:33:56.999Z</time></trkpt><trkpt lat="44.24509625840031" lon="11.762143534037811"><ele>147.0</ele><time>2026-03-29T13:33:57.999Z</time></trkpt><trkpt lat="44.24507069750434" lon="11.762045927757583"><ele>147.0</ele><time>2026-03-29T13:33:58.999Z</time></trkpt><trkpt lat="44.24503325593631" lon="11.761955948576981"><ele>147.0</ele><time>2026-03-29T13:33:59.999Z</time></trkpt><trkpt lat="44.24500045707909" lon="11.761870970785314"><ele>147.0</ele><time>2026-03-29T13:34:00.999Z</time></trkpt><trkpt lat="44.24495603734664" lon="11.761787843464795"><ele>147.0</ele><time>2026-03-29T13:34:01.999Z</time></trkpt><trkpt lat="44.24489052308685" lon="11.761680984741588"><ele>147.0</ele><time>2026-03-29T13:34:03.999Z</time></trkpt><trkpt lat="44.24484756483183" lon="11.761592792227551"><ele>147.0</ele><time>2026-03-29T13:34:06.999Z</time></trkpt><trkpt lat="44.24496105585761" lon="11.761373569361483"><ele>147.0</ele><time>2026-03-29T13:34:09.999Z</time></trkpt><trkpt lat="44.24498521593574" lon="11.761273875792837"><ele>147.0</ele><time>2026-03-29T13:34:10.999Z</time></trkpt><trkpt lat="44.2449990512455" lon="11.761180798072612"><ele>147.0</ele><time>2026-03-29T13:34:11.999Z</time></trkpt><trkpt lat="44.24501738921085" lon="11.761075402041875"><ele>147.57142857142858</ele><time>2026-03-29T13:34:12.999Z</time></trkpt><trkpt lat="44.24503666615545" lon="11.760966143553658"><ele>148.14285714285714</ele><time>2026-03-29T13:34:13.999Z</time></trkpt><trkpt lat="44.245052649827926" lon="11.76086522478322"><ele>148.71428571428572</ele><time>2026-03-29T13:34:14.999Z</time></trkpt><trkpt lat="44.24506359031004" lon="11.760765991402016"><ele>149.28571428571428</ele><time>2026-03-29T13:34:15.999Z</time></trkpt><trkpt lat="44.245048955023904" lon="11.760677071297383"><ele>149.85714285714286</ele><time>2026-03-29T13:34:16.999Z</time></trkpt><trkpt lat="44.24502080711135" lon="11.760584677876738"><ele>150.42857142857144</ele><time>2026-03-29T13:34:17.999Z</time></trkpt><trkpt lat="44.244995923875074" lon="11.760488612065682"><ele>151.0</ele><time>2026-03-29T13:34:18.999Z</time></trkpt><trkpt lat="44.24492792488945" lon="11.760352984139447"><ele>151.0</ele><time>2026-03-29T13:34:20.999Z</time></trkpt><trkpt lat="44.24481195689355" lon="11.760284536474995"><ele>151.0</ele><time>2026-03-29T13:34:22.999Z</time></trkpt><trkpt lat="44.244716755863415" lon="11.760245099454128"><ele>151.0</ele><time>2026-03-29T13:34:24.999Z</time></trkpt><trkpt lat="44.24465059719431" lon="11.760209379402593"><ele>151.0</ele><time>2026-03-29T13:34:27.999Z</time></trkpt><trkpt lat="44.244611678510076" lon="11.760139867465549"><ele>151.0</ele><time>2026-03-29T13:34:33.999Z</time></trkpt><trkpt lat="44.24470803743907" lon="11.760113568937731"><ele>151.2</ele><time>2026-03-29T13:34:36.999Z</time></trkpt><trkpt lat="44.244795834325565" lon="11.760085154872481"><ele>151.39999999999998</ele><time>2026-03-29T13:34:38.999Z</time></trkpt><trkpt lat="44.244869071036696" lon="11.760078783570458"><ele>151.6</ele><time>2026-03-29T13:34:41.998Z</time></trkpt><trkpt lat="44.24489767667733" lon="11.759939920505671"><ele>151.79999999999998</ele><time>2026-03-29T13:34:44.998Z</time></trkpt><trkpt lat="44.244908107119706" lon="11.759815335462287"><ele>152.0</ele><time>2026-03-29T13:34:46.998Z</time></trkpt><trkpt lat="44.24491130152393" lon="11.759683514538029"><ele>155.39999999999998</ele><time>2026-03-29T13:34:49Z</time></trkpt><trkpt lat="44.24492571146019" lon="11.759563384335342"><ele>158.79999999999998</ele><time>2026-03-29T13:34:51Z</time></trkpt><trkpt lat="44.24494137867085" lon="11.759439450890294"><ele>162.2</ele><time>2026-03-29T13:34:52Z</time></trkpt><trkpt lat="44.244997057052686" lon="11.759309132386147"><ele>165.6</ele><time>2026-03-29T13:34:54Z</time></trkpt><trkpt lat="44.245035690487825" lon="11.759171467584713"><ele>169.0</ele><time>2026-03-29T13:34:56Z</time></trkpt><trkpt lat="44.24504954682872" lon="11.759063807292037"><ele>172.0</ele><time>2026-03-29T13:34:58Z</time></trkpt><trkpt lat="44.24504914924026" lon="11.758941697385051"><ele>175.0</ele><time>2026-03-29T13:35:00Z</time></trkpt><trkpt lat="44.24504834478441" lon="11.758807314490415"><ele>178.0</ele><time>2026-03-29T13:35:02Z</time></trkpt><trkpt lat="44.245048654568365" lon="11.75896734272123"><ele>181.0</ele><time>2026-03-29T13:35:24Z</time></trkpt><trkpt lat="44.24504388232523" lon="11.759075402210815"><ele>184.0</ele><time>2026-03-29T13:35:27Z</time></trkpt><trkpt lat="44.2450308886754" lon="11.75916304495113"><ele>187.0</ele><time>2026-03-29T13:35:29Z</time></trkpt><trkpt lat="44.245005479031846" lon="11.759247120670043"><ele>187.0</ele><time>2026-03-29T13:35:31Z</time></trkpt><trkpt lat="44.24496116371566" lon="11.759351355870812"><ele>187.0</ele><time>2026-03-29T13:35:34Z</time></trkpt><trkpt lat="44.24492566452811" lon="11.759450759269503"><ele>187.0</ele><time>2026-03-29T13:35:37Z</time></trkpt><trkpt lat="44.244907172992924" lon="11.759558212013923"><ele>187.0</ele><time>2026-03-29T13:35:39.999Z</time></trkpt><trkpt lat="44.244906163655784" lon="11.759678681901677"><ele>187.0</ele><time>2026-03-29T13:35:42.999Z</time></trkpt><trkpt lat="44.24490623331766" lon="11.759805775254991"><ele>187.0</ele><time>2026-03-29T13:35:45.999Z</time></trkpt><trkpt lat="44.24490374472958" lon="11.759926972021898"><ele>184.42857142857142</ele><time>2026-03-29T13:35:48.999Z</time></trkpt><trkpt lat="44.24490282741546" lon="11.76002628102297"><ele>181.85714285714286</ele><time>2026-03-29T13:35:51.999Z</time></trkpt><trkpt lat="44.24484462107752" lon="11.760068726677787"><ele>179.28571428571428</ele><time>2026-03-29T13:35:55.999Z</time></trkpt><trkpt lat="44.24477180410951" lon="11.760095398694622"><ele>176.71428571428572</ele><time>2026-03-29T13:36:00.999Z</time></trkpt><trkpt lat="44.244710646475504" lon="11.760118279924828"><ele>174.14285714285714</ele><time>2026-03-29T13:36:04.999Z</time></trkpt><trkpt lat="44.24463894753099" lon="11.760121201694345"><ele>171.57142857142858</ele><time>2026-03-29T13:36:19.999Z</time></trkpt><trkpt lat="44.244700133659116" lon="11.760202507668057"><ele>169.0</ele><time>2026-03-29T13:36:26.999Z</time></trkpt><trkpt lat="44.24476677737077" lon="11.760246711540129"><ele>165.39999999999998</ele><time>2026-03-29T13:36:28.999Z</time></trkpt><trkpt lat="44.24483636573396" lon="11.760294924961071"><ele>161.79999999999998</ele><time>2026-03-29T13:36:30.999Z</time></trkpt><trkpt lat="44.24493838777171" lon="11.760371005032308"><ele>158.2</ele><time>2026-03-29T13:36:32.999Z</time></trkpt><trkpt lat="44.24500988160509" lon="11.760460302899482"><ele>154.6</ele><time>2026-03-29T13:36:34.999Z</time></trkpt><trkpt lat="44.24510218128003" lon="11.760470453782297"><ele>151.0</ele><time>2026-03-29T13:36:35.999Z</time></trkpt><trkpt lat="44.24513810568319" lon="11.760570431900998"><ele>151.0</ele><time>2026-03-29T13:36:37.999Z</time></trkpt><trkpt lat="44.24517983271995" lon="11.76065357994602"><ele>151.0</ele><time>2026-03-29T13:36:39.999Z</time></trkpt><trkpt lat="44.24522365337206" lon="11.760754158636715"><ele>151.0</ele><time>2026-03-29T13:36:41.999Z</time></trkpt><trkpt lat="44.2450581449064" lon="11.760944291071802"><ele>151.0</ele><time>2026-03-29T13:36:42.999Z</time></trkpt><trkpt lat="44.24503197371636" lon="11.761068467153706"><ele>150.33333333333334</ele><time>2026-03-29T13:36:44.998Z</time></trkpt><trkpt lat="44.24501255035238" lon="11.761202832894362"><ele>149.66666666666669</ele><time>2026-03-29T13:36:46.998Z</time></trkpt><trkpt lat="44.2449843315793" lon="11.76134095336399"><ele>149.0</ele><time>2026-03-29T13:36:48.998Z</time></trkpt><trkpt lat="44.24495396479251" lon="11.761467954555213"><ele>148.33333333333334</ele><time>2026-03-29T13:36:50.998Z</time></trkpt><trkpt lat="44.24490511386521" lon="11.761535355369608"><ele>147.66666666666666</ele><time>2026-03-29T13:37:29Z</time></trkpt><trkpt lat="44.24487653437943" lon="11.761614272958967"><ele>147.0</ele><time>2026-03-29T13:37:34Z</time></trkpt><trkpt lat="44.24479701683182" lon="11.761673635761776"><ele>147.14285714285714</ele><time>2026-03-29T13:37:43Z</time></trkpt><trkpt lat="44.24473416239875" lon="11.76161599062213"><ele>147.28571428571428</ele><time>2026-03-29T13:37:44.999Z</time></trkpt><trkpt lat="44.24465710679419" lon="11.761540366289605"><ele>147.42857142857144</ele><time>2026-03-29T13:37:46.999Z</time></trkpt><trkpt lat="44.24459094202694" lon="11.7615033589991"><ele>147.57142857142856</ele><time>2026-03-29T13:37:47.999Z</time></trkpt><trkpt lat="44.24452504125957" lon="11.761470746537862"><ele>147.71428571428572</ele><time>2026-03-29T13:37:48.999Z</time></trkpt><trkpt lat="44.244457804300055" lon="11.761439593498274"><ele>147.85714285714286</ele><time>2026-03-29T13:37:49.999Z</time></trkpt><trkpt lat="44.24439599076447" lon="11.761407063292635"><ele>148.0</ele><time>2026-03-29T13:37:50.999Z</time></trkpt><trkpt lat="44.24427430907486" lon="11.761347145127573"><ele>148.0</ele><time>2026-03-29T13:37:52.999Z</time></trkpt><trkpt lat="44.24415927750862" lon="11.761265831382524"><ele>148.0</ele><time>2026-03-29T13:37:54.999Z</time></trkpt><trkpt lat="44.24404202550477" lon="11.761212521113153"><ele>148.0</ele><time>2026-03-29T13:37:56.999Z</time></trkpt><trkpt lat="44.243926035652784" lon="11.76114997500911"><ele>148.0</ele><time>2026-03-29T13:37:58.999Z</time></trkpt><trkpt lat="44.243879753085224" lon="11.761065648292035"><ele>146.14285714285714</ele><time>2026-03-29T13:37:59.999Z</time></trkpt><trkpt lat="44.243816008755644" lon="11.761031085913963"><ele>144.28571428571428</ele><time>2026-03-29T13:38:00.999Z</time></trkpt><trkpt lat="44.24373789254217" lon="11.760988731057378"><ele>142.42857142857142</ele><time>2026-03-29T13:38:02.999Z</time></trkpt><trkpt lat="44.243673417396685" lon="11.760953772430423"><ele>140.57142857142856</ele><time>2026-03-29T13:38:04.999Z</time></trkpt><trkpt lat="44.24360287406041" lon="11.760916445951462"><ele>138.7142857142857</ele><time>2026-03-29T13:38:06.999Z</time></trkpt><trkpt lat="44.24353840748182" lon="11.760882629182118"><ele>136.85714285714286</ele><time>2026-03-29T13:38:08.999Z</time></trkpt><trkpt lat="44.24346472161443" lon="11.760838855017367"><ele>135.0</ele><time>2026-03-29T13:38:11.999Z</time></trkpt><trkpt lat="44.24340874929077" lon="11.76079774177445"><ele>135.0</ele><time>2026-03-29T13:38:15.999Z</time></trkpt><trkpt lat="44.24335371592747" lon="11.760751421928427"><ele>135.0</ele><time>2026-03-29T13:39:48Z</time></trkpt><trkpt lat="44.243294132344914" lon="11.76069644369229"><ele>135.0</ele><time>2026-03-29T13:39:52.999Z</time></trkpt><trkpt lat="44.24323298404538" lon="11.76063990843876"><ele>135.0</ele><time>2026-03-29T13:39:55.999Z</time></trkpt><trkpt lat="44.243179103255784" lon="11.76058995994001"><ele>135.0</ele><time>2026-03-29T13:39:58.999Z</time></trkpt><trkpt lat="44.243119561122576" lon="11.760532951449552"><ele>135.0</ele><time>2026-03-29T13:40:01.999Z</time></trkpt><trkpt lat="44.24304818728147" lon="11.760463043520561"><ele>135.0</ele><time>2026-03-29T13:40:04.999Z</time></trkpt><trkpt lat="44.24298853483875" lon="11.76040461624779"><ele>134.0</ele><time>2026-03-29T13:40:06.999Z</time></trkpt><trkpt lat="44.242921396217355" lon="11.760354639463824"><ele>133.0</ele><time>2026-03-29T13:40:08.999Z</time></trkpt><trkpt lat="44.24285234710329" lon="11.760283746717436"><ele>132.0</ele><time>2026-03-29T13:40:10.999Z</time></trkpt><trkpt lat="44.24278884373276" lon="11.76022106429455"><ele>131.0</ele><time>2026-03-29T13:40:12.999Z</time></trkpt><trkpt lat="44.24273260488316" lon="11.760153024176834"><ele>130.0</ele><time>2026-03-29T13:40:14.999Z</time></trkpt><trkpt lat="44.24266617880006" lon="11.760093896816164"><ele>129.0</ele><time>2026-03-29T13:40:16.999Z</time></trkpt><trkpt lat="44.24260511555854" lon="11.760027283121827"><ele>129.0</ele><time>2026-03-29T13:40:18.999Z</time></trkpt><trkpt lat="44.242527866712976" lon="11.759987403788092"><ele>129.0</ele><time>2026-03-29T13:40:20.999Z</time></trkpt><trkpt lat="44.242466892358564" lon="11.759926651376592"><ele>129.0</ele><time>2026-03-29T13:40:22.999Z</time></trkpt><trkpt lat="44.24240347449604" lon="11.759893942414012"><ele>129.0</ele><time>2026-03-29T13:40:24.999Z</time></trkpt><trkpt lat="44.24234142994536" lon="11.759872365218937"><ele>129.0</ele><time>2026-03-29T13:40:26.999Z</time></trkpt><trkpt lat="44.242247583538486" lon="11.759862640459128"><ele>129.0</ele><time>2026-03-29T13:40:29.999Z</time></trkpt><trkpt lat="44.24213975709967" lon="11.759877313142102"><ele>128.16666666666666</ele><time>2026-03-29T13:42:30.999Z</time></trkpt><trkpt lat="44.242026779264684" lon="11.759927116615376"><ele>127.33333333333334</ele><time>2026-03-29T13:42:32.999Z</time></trkpt><trkpt lat="44.24190986412566" lon="11.759980900356046"><ele>126.5</ele><time>2026-03-29T13:42:34.999Z</time></trkpt><trkpt lat="44.24184859647771" lon="11.760010539878223"><ele>125.66666666666667</ele><time>2026-03-29T13:42:35.999Z</time></trkpt><trkpt lat="44.24178183655035" lon="11.760042836412222"><ele>124.83333333333334</ele><time>2026-03-29T13:42:36.999Z</time></trkpt><trkpt lat="44.24171520988002" lon="11.760075631063025"><ele>124.0</ele><time>2026-03-29T13:42:37.999Z</time></trkpt><trkpt lat="44.24165160083691" lon="11.760130401642993"><ele>124.00000000000001</ele><time>2026-03-29T13:42:38.999Z</time></trkpt><trkpt lat="44.241577801839114" lon="11.760144796467639"><ele>124.0</ele><time>2026-03-29T13:42:39.999Z</time></trkpt><trkpt lat="44.24150701733191" lon="11.760180426397307"><ele>124.0</ele><time>2026-03-29T13:42:40.999Z</time></trkpt><trkpt lat="44.24143619178164" lon="11.760216076985891"><ele>124.0</ele><time>2026-03-29T13:42:41.999Z</time></trkpt><trkpt lat="44.241370570607295" lon="11.760273662872414"><ele>124.00000000000001</ele><time>2026-03-29T13:42:42.999Z</time></trkpt><trkpt lat="44.24129682990167" lon="11.760300783711328"><ele>124.0</ele><time>2026-03-29T13:42:43.999Z</time></trkpt><trkpt lat="44.24122742296445" lon="11.7603405209345"><ele>123.71428571428572</ele><time>2026-03-29T13:42:44.999Z</time></trkpt><trkpt lat="44.241159095499235" lon="11.760387907567813"><ele>123.42857142857144</ele><time>2026-03-29T13:42:45.999Z</time></trkpt><trkpt lat="44.24109393845899" lon="11.76043619867474"><ele>123.14285714285714</ele><time>2026-03-29T13:42:46.999Z</time></trkpt><trkpt lat="44.241028447600236" lon="11.760487906134516"><ele>122.85714285714286</ele><time>2026-03-29T13:42:47.999Z</time></trkpt><trkpt lat="44.240967205768506" lon="11.760540447097492"><ele>122.57142857142857</ele><time>2026-03-29T13:42:48.999Z</time></trkpt><trkpt lat="44.24090704475619" lon="11.760595979916076"><ele>122.28571428571428</ele><time>2026-03-29T13:42:49.999Z</time></trkpt><trkpt lat="44.240841778828" lon="11.76063677171509"><ele>121.99999999999999</ele><time>2026-03-29T13:42:50.999Z</time></trkpt><trkpt lat="44.24078181299502" lon="11.76068878081562"><ele>121.99999999999999</ele><time>2026-03-29T13:42:51.999Z</time></trkpt><trkpt lat="44.24072095280794" lon="11.760741792049439"><ele>122.0</ele><time>2026-03-29T13:42:52.999Z</time></trkpt><trkpt lat="44.240656794086185" lon="11.760781493661915"><ele>121.99999999999999</ele><time>2026-03-29T13:42:53.999Z</time></trkpt><trkpt lat="44.24059867607338" lon="11.760834921699603"><ele>121.99999999999999</ele><time>2026-03-29T13:42:54.999Z</time></trkpt><trkpt lat="44.24053719723871" lon="11.760886761338053"><ele>122.0</ele><time>2026-03-29T13:42:55.999Z</time></trkpt><trkpt lat="44.24047737027655" lon="11.760936490637116"><ele>121.99999999999999</ele><time>2026-03-29T13:42:56.999Z</time></trkpt><trkpt lat="44.2404166237155" lon="11.760988855997205"><ele>121.99999999999999</ele><time>2026-03-29T13:42:57.999Z</time></trkpt><trkpt lat="44.24035612842228" lon="11.76104381797069"><ele>121.33333333333333</ele><time>2026-03-29T13:42:58.998Z</time></trkpt><trkpt lat="44.240289315783635" lon="11.761077724577975"><ele>120.66666666666666</ele><time>2026-03-29T13:42:59.998Z</time></trkpt><trkpt lat="44.24023267211693" lon="11.761128904767993"><ele>120.0</ele><time>2026-03-29T13:43:00.998Z</time></trkpt><trkpt lat="44.24018715252754" lon="11.761197711330254"><ele>119.33333333333334</ele><time>2026-03-29T13:43:01.998Z</time></trkpt><trkpt lat="44.24013598567612" lon="11.761251752693545"><ele>118.66666666666667</ele><time>2026-03-29T13:43:02.998Z</time></trkpt><trkpt lat="44.24005333799755" lon="11.761378221441442"><ele>118.0</ele><time>2026-03-29T13:43:04.998Z</time></trkpt><trkpt lat="44.2399865099894" lon="11.761522061969098"><ele>118.00000000000001</ele><time>2026-03-29T13:43:06.998Z</time></trkpt><trkpt lat="44.23990567542143" lon="11.761637269936351"><ele>118.0</ele><time>2026-03-29T13:43:08.998Z</time></trkpt><trkpt lat="44.239826132564005" lon="11.76167763770459"><ele>118.0</ele><time>2026-03-29T13:43:10.998Z</time></trkpt><trkpt lat="44.239739414796205" lon="11.76168002373886"><ele>118.0</ele><time>2026-03-29T13:43:14Z</time></trkpt><trkpt lat="44.239675203325426" lon="11.76168669093611"><ele>118.00000000000001</ele><time>2026-03-29T13:43:18Z</time></trkpt><trkpt lat="44.23958929753371" lon="11.761716197044805"><ele>118.0</ele><time>2026-03-29T13:43:28Z</time></trkpt><trkpt lat="44.23954152984717" lon="11.761643901089927"><ele>118.83333333333334</ele><time>2026-03-29T13:43:30Z</time></trkpt><trkpt lat="44.23949745549212" lon="11.761544364659187"><ele>119.66666666666667</ele><time>2026-03-29T13:43:32Z</time></trkpt><trkpt lat="44.23947473146927" lon="11.761448361632432"><ele>120.5</ele><time>2026-03-29T13:43:34Z</time></trkpt><trkpt lat="44.23948333029289" lon="11.761355808978516"><ele>121.33333333333334</ele><time>2026-03-29T13:43:36Z</time></trkpt><trkpt lat="44.23948402957048" lon="11.761211690098449"><ele>122.16666666666667</ele><time>2026-03-29T13:43:39Z</time></trkpt><trkpt lat="44.23951293633616" lon="11.761085376813037"><ele>123.0</ele><time>2026-03-29T13:43:41Z</time></trkpt><trkpt lat="44.2395255935406" lon="11.760939422916252"><ele>123.0</ele><time>2026-03-29T13:43:43Z</time></trkpt><trkpt lat="44.23953343728559" lon="11.760806167068631"><ele>123.00000000000001</ele><time>2026-03-29T13:43:45Z</time></trkpt><trkpt lat="44.23947796060796" lon="11.760697269441994"><ele>123.00000000000001</ele><time>2026-03-29T13:43:47Z</time></trkpt><trkpt lat="44.239409327407884" lon="11.76060751026109"><ele>123.0</ele><time>2026-03-29T13:43:49Z</time></trkpt><trkpt lat="44.23932459059403" lon="11.760552853104693"><ele>123.0</ele><time>2026-03-29T13:43:51Z</time></trkpt><trkpt lat="44.23927084499576" lon="11.760436058381673"><ele>123.0</ele><time>2026-03-29T13:43:53Z</time></trkpt><trkpt lat="44.23926923296858" lon="11.760340029508468"><ele>123.0</ele><time>2026-03-29T13:43:54Z</time></trkpt><trkpt lat="44.23925395968026" lon="11.76024937503247"><ele>123.0</ele><time>2026-03-29T13:43:55Z</time></trkpt><trkpt lat="44.23925521150726" lon="11.760151492973746"><ele>123.0</ele><time>2026-03-29T13:43:56Z</time></trkpt><trkpt lat="44.23922170611752" lon="11.760062916076741"><ele>123.0</ele><time>2026-03-29T13:43:57Z</time></trkpt><trkpt lat="44.23917496556465" lon="11.759900934912457"><ele>123.0</ele><time>2026-03-29T13:43:59Z</time></trkpt><trkpt lat="44.23913774682133" lon="11.759815033691448"><ele>123.33333333333333</ele><time>2026-03-29T13:44:00Z</time></trkpt><trkpt lat="44.23910991062105" lon="11.759735119868571"><ele>123.66666666666666</ele><time>2026-03-29T13:44:00.999Z</time></trkpt><trkpt lat="44.23908642792411" lon="11.759653282045386"><ele>124.0</ele><time>2026-03-29T13:44:01.999Z</time></trkpt><trkpt lat="44.239049076250474" lon="11.759487020369935"><ele>124.33333333333333</ele><time>2026-03-29T13:44:03.999Z</time></trkpt><trkpt lat="44.23903074500429" lon="11.759390736916078"><ele>124.66666666666666</ele><time>2026-03-29T13:44:04.999Z</time></trkpt><trkpt lat="44.2390153404043" lon="11.759299170920764"><ele>125.0</ele><time>2026-03-29T13:44:05.999Z</time></trkpt><trkpt lat="44.23899110252961" lon="11.759156505630006"><ele>125.28571428571428</ele><time>2026-03-29T13:44:07.999Z</time></trkpt><trkpt lat="44.23896707606845" lon="11.759065966032006"><ele>125.57142857142858</ele><time>2026-03-29T13:44:10.999Z</time></trkpt><trkpt lat="44.239001098318965" lon="11.758976254128402"><ele>125.85714285714286</ele><time>2026-03-29T13:45:17.998Z</time></trkpt><trkpt lat="44.23901386658243" lon="11.758889703666394"><ele>126.14285714285714</ele><time>2026-03-29T13:46:39.999Z</time></trkpt><trkpt lat="44.23903290148614" lon="11.75897766069686"><ele>126.42857142857142</ele><time>2026-03-29T13:46:44.999Z</time></trkpt><trkpt lat="44.23902654170359" lon="11.759109616673902"><ele>126.71428571428572</ele><time>2026-03-29T13:48:07Z</time></trkpt><trkpt lat="44.23896399158755" lon="11.759125370064515"><ele>127.0</ele><time>2026-03-29T13:48:29.999Z</time></trkpt><trkpt lat="44.23899964855524" lon="11.759232134802016"><ele>127.0</ele><time>2026-03-29T13:48:52.999Z</time></trkpt><trkpt lat="44.239030942797406" lon="11.75932414142392"><ele>126.99999999999999</ele><time>2026-03-29T13:48:54.999Z</time></trkpt><trkpt lat="44.239041624837284" lon="11.759477777839644"><ele>126.99999999999999</ele><time>2026-03-29T13:48:56.999Z</time></trkpt><trkpt lat="44.23905525084909" lon="11.759614247867038"><ele>127.0</ele><time>2026-03-29T13:48:58.999Z</time></trkpt><trkpt lat="44.23909552701703" lon="11.759751479924097"><ele>127.0</ele><time>2026-03-29T13:49:00.999Z</time></trkpt><trkpt lat="44.23915724069915" lon="11.759897448764145"><ele>126.6</ele><time>2026-03-29T13:49:02.999Z</time></trkpt><trkpt lat="44.23918998447047" lon="11.75997629503869"><ele>126.19999999999999</ele><time>2026-03-29T13:49:03.999Z</time></trkpt><trkpt lat="44.23922034395737" lon="11.760146897403851"><ele>125.8</ele><time>2026-03-29T13:49:05.999Z</time></trkpt><trkpt lat="44.23923659427862" lon="11.760292300955422"><ele>125.4</ele><time>2026-03-29T13:49:07.999Z</time></trkpt><trkpt lat="44.23926570741575" lon="11.760441470737371"><ele>125.0</ele><time>2026-03-29T13:49:09.999Z</time></trkpt><trkpt lat="44.23927708716372" lon="11.760571121277492"><ele>124.8</ele><time>2026-03-29T13:49:11.999Z</time></trkpt><trkpt lat="44.23936518735226" lon="11.76066876559318"><ele>124.6</ele><time>2026-03-29T13:49:13.999Z</time></trkpt><trkpt lat="44.239429949027446" lon="11.760676972395812"><ele>124.4</ele><time>2026-03-29T13:49:14.999Z</time></trkpt><trkpt lat="44.239506531349384" lon="11.760811271242998"><ele>124.2</ele><time>2026-03-29T13:49:16.999Z</time></trkpt><trkpt lat="44.239479802938476" lon="11.760977827824053"><ele>124.0</ele><time>2026-03-29T13:49:18.998Z</time></trkpt><trkpt lat="44.23945576515348" lon="11.761161702897132"><ele>124.00000000000001</ele><time>2026-03-29T13:49:20.998Z</time></trkpt><trkpt lat="44.23944532679338" lon="11.761272501853925"><ele>124.0</ele><time>2026-03-29T13:49:21.998Z</time></trkpt><trkpt lat="44.239439815296855" lon="11.761373108245206"><ele>124.0</ele><time>2026-03-29T13:49:22.998Z</time></trkpt><trkpt lat="44.23943915117303" lon="11.761479827493277"><ele>124.0</ele><time>2026-03-29T13:49:23.998Z</time></trkpt><trkpt lat="44.23950347170772" lon="11.761645894908428"><ele>124.00000000000001</ele><time>2026-03-29T13:49:25.998Z</time></trkpt><trkpt lat="44.23954196258869" lon="11.76171807372734"><ele>124.0</ele><time>2026-03-29T13:49:26.998Z</time></trkpt><trkpt lat="44.23961563408024" lon="11.761810500238605"><ele>123.2</ele><time>2026-03-29T13:49:28.998Z</time></trkpt><trkpt lat="44.23955819000237" lon="11.762022521069497"><ele>122.4</ele><time>2026-03-29T13:49:31Z</time></trkpt><trkpt lat="44.2395593319679" lon="11.762137234410433"><ele>121.6</ele><time>2026-03-29T13:49:32Z</time></trkpt><trkpt lat="44.239562446669744" lon="11.7622474304436"><ele>120.8</ele><time>2026-03-29T13:49:33Z</time></trkpt><trkpt lat="44.23956497454239" lon="11.762361095987286"><ele>120.0</ele><time>2026-03-29T13:49:34Z</time></trkpt><trkpt lat="44.23956219889324" lon="11.76247483226477"><ele>120.0</ele><time>2026-03-29T13:49:35Z</time></trkpt><trkpt lat="44.23955553359227" lon="11.762603268081774"><ele>120.0</ele><time>2026-03-29T13:49:36Z</time></trkpt><trkpt lat="44.23953953730336" lon="11.762731577865882"><ele>120.0</ele><time>2026-03-29T13:49:37Z</time></trkpt><trkpt lat="44.239515277294515" lon="11.762837976560853"><ele>120.0</ele><time>2026-03-29T13:49:38Z</time></trkpt><trkpt lat="44.239487590155655" lon="11.762947928970508"><ele>120.0</ele><time>2026-03-29T13:49:39Z</time></trkpt><trkpt lat="44.239449636294715" lon="11.763063466656211"><ele>120.0</ele><time>2026-03-29T13:49:40Z</time></trkpt><trkpt lat="44.23940467700186" lon="11.763184079727605"><ele>118.8</ele><time>2026-03-29T13:49:41Z</time></trkpt><trkpt lat="44.23935462306198" lon="11.763311572929384"><ele>117.6</ele><time>2026-03-29T13:49:42Z</time></trkpt><trkpt lat="44.23930710880061" lon="11.76343266851122"><ele>116.4</ele><time>2026-03-29T13:49:43Z</time></trkpt><trkpt lat="44.239257826992876" lon="11.763558776680457"><ele>115.2</ele><time>2026-03-29T13:49:44Z</time></trkpt><trkpt lat="44.23921472773982" lon="11.763671525563579"><ele>114.0</ele><time>2026-03-29T13:49:45Z</time></trkpt><trkpt lat="44.239166824733026" lon="11.763796531662493"><ele>113.6</ele><time>2026-03-29T13:49:46Z</time></trkpt><trkpt lat="44.239113623169956" lon="11.763936489988362"><ele>113.2</ele><time>2026-03-29T13:49:47Z</time></trkpt><trkpt lat="44.239060502305925" lon="11.764077260266971"><ele>112.79999999999998</ele><time>2026-03-29T13:49:48Z</time></trkpt><trkpt lat="44.23900915516789" lon="11.764210675671617"><ele>112.39999999999999</ele><time>2026-03-29T13:49:49Z</time></trkpt><trkpt lat="44.23896156641484" lon="11.764323729671878"><ele>112.0</ele><time>2026-03-29T13:49:50Z</time></trkpt><trkpt lat="44.23890988016778" lon="11.764457132863843"><ele>111.8</ele><time>2026-03-29T13:49:51Z</time></trkpt><trkpt lat="44.23883750832014" lon="11.764579424167437"><ele>111.6</ele><time>2026-03-29T13:49:52Z</time></trkpt><trkpt lat="44.23875773951613" lon="11.764708238818928"><ele>111.39999999999999</ele><time>2026-03-29T13:49:53Z</time></trkpt><trkpt lat="44.23867572119947" lon="11.764814770552634"><ele>111.19999999999999</ele><time>2026-03-29T13:49:54Z</time></trkpt><trkpt lat="44.23861954057538" lon="11.764927569937896"><ele>111.0</ele><time>2026-03-29T13:49:55Z</time></trkpt><trkpt lat="44.23855358185648" lon="11.765025346552184"><ele>111.0</ele><time>2026-03-29T13:49:56Z</time></trkpt><trkpt lat="44.23849517681845" lon="11.765114481388906"><ele>111.0</ele><time>2026-03-29T13:49:57Z</time></trkpt><trkpt lat="44.23844427223293" lon="11.765184091495644"><ele>111.0</ele><time>2026-03-29T13:49:58Z</time></trkpt><trkpt lat="44.23837413449591" lon="11.765271425786842"><ele>111.0</ele><time>2026-03-29T13:50:00Z</time></trkpt><trkpt lat="44.238325374780125" lon="11.765357895059182"><ele>111.0</ele><time>2026-03-29T13:50:04Z</time></trkpt><trkpt lat="44.238389318205286" lon="11.765242517434281"><ele>111.0</ele><time>2026-03-29T13:50:19.999Z</time></trkpt><trkpt lat="44.23844743143453" lon="11.76515331247327"><ele>110.66666666666667</ele><time>2026-03-29T13:50:21.999Z</time></trkpt><trkpt lat="44.23838825613942" lon="11.765209536695256"><ele>110.33333333333334</ele><time>2026-03-29T13:50:25.999Z</time></trkpt><trkpt lat="44.238328983585276" lon="11.765303840266407"><ele>110.0</ele><time>2026-03-29T13:50:27.999Z</time></trkpt><trkpt lat="44.23828486416425" lon="11.765378645402437"><ele>109.66666666666667</ele><time>2026-03-29T13:50:28.999Z</time></trkpt><trkpt lat="44.2382400715489" lon="11.765457187332515"><ele>109.33333333333334</ele><time>2026-03-29T13:50:29.999Z</time></trkpt><trkpt lat="44.23819893788334" lon="11.76553089249902"><ele>109.0</ele><time>2026-03-29T13:50:30.999Z</time></trkpt><trkpt lat="44.23812265206187" lon="11.76566758492028"><ele>111.66666666666667</ele><time>2026-03-29T13:50:32.999Z</time></trkpt><trkpt lat="44.2378100998694" lon="11.765391243697207"><ele>114.33333333333334</ele><time>2026-03-29T13:50:35.999Z</time></trkpt><trkpt lat="44.23775720365109" lon="11.765325996934012"><ele>117.0</ele><time>2026-03-29T13:50:36.999Z</time></trkpt><trkpt lat="44.23770557712769" lon="11.765273573784842"><ele>117.0</ele><time>2026-03-29T13:50:37.999Z</time></trkpt><trkpt lat="44.23760692106" lon="11.765311238293688"><ele>116.99999999999999</ele><time>2026-03-29T13:50:40.999Z</time></trkpt><trkpt lat="44.237503638541725" lon="11.765419032953224"><ele>116.99999999999999</ele><time>2026-03-29T13:50:42.999Z</time></trkpt><trkpt lat="44.23745100766712" lon="11.765473496073037"><ele>117.0</ele><time>2026-03-29T13:50:43.999Z</time></trkpt><trkpt lat="44.237387042386736" lon="11.765539779611363"><ele>117.0</ele><time>2026-03-29T13:50:44.999Z</time></trkpt><trkpt lat="44.237331938937864" lon="11.765608159035182"><ele>118.83333333333333</ele><time>2026-03-29T13:50:45.999Z</time></trkpt><trkpt lat="44.23727855834918" lon="11.765682762002289"><ele>120.66666666666666</ele><time>2026-03-29T13:50:46.999Z</time></trkpt><trkpt lat="44.237226233076164" lon="11.76577211006086"><ele>122.5</ele><time>2026-03-29T13:50:47.999Z</time></trkpt><trkpt lat="44.23716599500411" lon="11.765830057992789"><ele>124.33333333333333</ele><time>2026-03-29T13:50:48.999Z</time></trkpt><trkpt lat="44.23708031065057" lon="11.765932110483769"><ele>126.16666666666666</ele><time>2026-03-29T13:50:50.999Z</time></trkpt><trkpt lat="44.23703168774985" lon="11.76599523812184"><ele>128.0</ele><time>2026-03-29T13:50:51.999Z</time></trkpt><trkpt lat="44.23697908710205" lon="11.766051029421424"><ele>127.99999999999999</ele><time>2026-03-29T13:50:52.999Z</time></trkpt><trkpt lat="44.23691246908939" lon="11.766119937777143"><ele>128.0</ele><time>2026-03-29T13:50:53.999Z</time></trkpt><trkpt lat="44.23683759087311" lon="11.766168124897385"><ele>128.0</ele><time>2026-03-29T13:50:54.999Z</time></trkpt><trkpt lat="44.23676032379581" lon="11.766216831634328"><ele>128.0</ele><time>2026-03-29T13:50:55.999Z</time></trkpt><trkpt lat="44.23668983326519" lon="11.766271788447533"><ele>127.99999999999999</ele><time>2026-03-29T13:50:56.999Z</time></trkpt><trkpt lat="44.236620909852974" lon="11.766331789482898"><ele>128.0</ele><time>2026-03-29T13:50:57.999Z</time></trkpt><trkpt lat="44.23655475697091" lon="11.766374100811358"><ele>128.20000000000002</ele><time>2026-03-29T13:50:58.999Z</time></trkpt><trkpt lat="44.2364233682121" lon="11.766380241250902"><ele>128.4</ele><time>2026-03-29T13:51:00.999Z</time></trkpt><trkpt lat="44.23634265863428" lon="11.76636845993267"><ele>128.60000000000002</ele><time>2026-03-29T13:51:01.999Z</time></trkpt><trkpt lat="44.23626635616121" lon="11.766359601950848"><ele>128.8</ele><time>2026-03-29T13:51:02.999Z</time></trkpt><trkpt lat="44.236193301649365" lon="11.766342075153036"><ele>129.0</ele><time>2026-03-29T13:51:03.999Z</time></trkpt><trkpt lat="44.23610437383428" lon="11.766296063551325"><ele>129.0</ele><time>2026-03-29T13:51:05.999Z</time></trkpt><trkpt lat="44.23608112463762" lon="11.766145232479323"><ele>129.0</ele><time>2026-03-29T13:51:08.999Z</time></trkpt><trkpt lat="44.23605478304465" lon="11.766014836333934"><ele>129.0</ele><time>2026-03-29T13:51:10.999Z</time></trkpt><trkpt lat="44.23601472781396" lon="11.76590835424706"><ele>129.0</ele><time>2026-03-29T13:51:12.999Z</time></trkpt><trkpt lat="44.23598324664283" lon="11.76580905335864"><ele>129.0</ele><time>2026-03-29T13:51:13.999Z</time></trkpt><trkpt lat="44.235921454306144" lon="11.76564545070255"><ele>132.16666666666666</ele><time>2026-03-29T13:51:15.999Z</time></trkpt><trkpt lat="44.23588609004222" lon="11.76555317579953"><ele>135.33333333333334</ele><time>2026-03-29T13:51:16.999Z</time></trkpt><trkpt lat="44.23585214430834" lon="11.765464134267836"><ele>138.5</ele><time>2026-03-29T13:51:17.999Z</time></trkpt><trkpt lat="44.23586737634229" lon="11.765299256222878"><ele>141.66666666666669</ele><time>2026-03-29T13:51:19.999Z</time></trkpt><trkpt lat="44.23591707973173" lon="11.765210213983424"><ele>144.83333333333334</ele><time>2026-03-29T13:51:20.999Z</time></trkpt><trkpt lat="44.23595820469354" lon="11.765106687676496"><ele>148.0</ele><time>2026-03-29T13:51:21.999Z</time></trkpt><trkpt lat="44.23598007180405" lon="11.765005191416478"><ele>149.66666666666669</ele><time>2026-03-29T13:51:22.999Z</time></trkpt><trkpt lat="44.235986272892006" lon="11.764900760056701"><ele>151.33333333333334</ele><time>2026-03-29T13:51:23.999Z</time></trkpt><trkpt lat="44.2359843418624" lon="11.764788103754666"><ele>153.0</ele><time>2026-03-29T13:51:24.999Z</time></trkpt><trkpt lat="44.23598827206075" lon="11.764682062090499"><ele>154.66666666666666</ele><time>2026-03-29T13:51:25.999Z</time></trkpt><trkpt lat="44.235971648496324" lon="11.764559293723245"><ele>156.33333333333331</ele><time>2026-03-29T13:51:26.998Z</time></trkpt><trkpt lat="44.23595591742652" lon="11.764439568318506"><ele>158.0</ele><time>2026-03-29T13:51:27.998Z</time></trkpt><trkpt lat="44.23592992110017" lon="11.76432474221598"><ele>160.8</ele><time>2026-03-29T13:51:28.998Z</time></trkpt><trkpt lat="44.235893493810536" lon="11.764202599116405"><ele>163.60000000000002</ele><time>2026-03-29T13:51:29.998Z</time></trkpt><trkpt lat="44.23587569459062" lon="11.764081079378924"><ele>166.39999999999998</ele><time>2026-03-29T13:51:30.998Z</time></trkpt><trkpt lat="44.2358571540944" lon="11.763952348252051"><ele>169.2</ele><time>2026-03-29T13:51:31.998Z</time></trkpt><trkpt lat="44.235869975938826" lon="11.763830978300847"><ele>172.0</ele><time>2026-03-29T13:51:32.998Z</time></trkpt><trkpt lat="44.2358971198601" lon="11.763717852547723"><ele>172.0</ele><time>2026-03-29T13:51:33.998Z</time></trkpt><trkpt lat="44.23591123183345" lon="11.763608357184122"><ele>172.0</ele><time>2026-03-29T13:51:34.998Z</time></trkpt><trkpt lat="44.23592162024562" lon="11.763492527102478"><ele>172.0</ele><time>2026-03-29T13:51:35.998Z</time></trkpt><trkpt lat="44.2359334986183" lon="11.76335907769564"><ele>172.0</ele><time>2026-03-29T13:51:37Z</time></trkpt><trkpt lat="44.23595054099192" lon="11.763222848870903"><ele>172.0</ele><time>2026-03-29T13:51:38Z</time></trkpt><trkpt lat="44.235956344395056" lon="11.763083237341839"><ele>173.6</ele><time>2026-03-29T13:51:39Z</time></trkpt><trkpt lat="44.23597110668448" lon="11.762940216331968"><ele>175.2</ele><time>2026-03-29T13:51:40Z</time></trkpt><trkpt lat="44.235979135531345" lon="11.762806623810572"><ele>176.8</ele><time>2026-03-29T13:51:41Z</time></trkpt><trkpt lat="44.235990613546164" lon="11.762674464759028"><ele>178.4</ele><time>2026-03-29T13:51:42Z</time></trkpt><trkpt lat="44.235994732130145" lon="11.762559393733062"><ele>180.0</ele><time>2026-03-29T13:51:43Z</time></trkpt><trkpt lat="44.23599085039994" lon="11.762450138918469"><ele>182.16666666666666</ele><time>2026-03-29T13:51:44Z</time></trkpt><trkpt lat="44.2359721876682" lon="11.762334536891052"><ele>184.33333333333331</ele><time>2026-03-29T13:51:45Z</time></trkpt><trkpt lat="44.23594449283476" lon="11.762227275154203"><ele>186.5</ele><time>2026-03-29T13:51:46Z</time></trkpt><trkpt lat="44.23591936837271" lon="11.762134043771463"><ele>188.66666666666666</ele><time>2026-03-29T13:51:47Z</time></trkpt><trkpt lat="44.23587578405757" lon="11.76200837719565"><ele>190.83333333333331</ele><time>2026-03-29T13:51:49Z</time></trkpt><trkpt lat="44.23590539288701" lon="11.761928534956974"><ele>193.0</ele><time>2026-03-29T13:51:51Z</time></trkpt><trkpt lat="44.235984273504606" lon="11.761856925828592"><ele>192.99999999999997</ele><time>2026-03-29T13:51:53Z</time></trkpt><trkpt lat="44.2360634236891" lon="11.761866459407582"><ele>193.0</ele><time>2026-03-29T13:51:55Z</time></trkpt><trkpt lat="44.2359890463865" lon="11.761871084863076"><ele>193.0</ele><time>2026-03-29T13:52:26.999Z</time></trkpt><trkpt lat="44.23599994335818" lon="11.761779011945396"><ele>193.0</ele><time>2026-03-29T13:52:29.999Z</time></trkpt><trkpt lat="44.236011037487046" lon="11.761646620305884"><ele>192.99999999999997</ele><time>2026-03-29T13:52:31.999Z</time></trkpt><trkpt lat="44.23603468208139" lon="11.761524601214592"><ele>193.0</ele><time>2026-03-29T13:52:33.999Z</time></trkpt><trkpt lat="44.23602164334303" lon="11.76140434948042"><ele>195.4</ele><time>2026-03-29T13:52:35.999Z</time></trkpt><trkpt lat="44.23603646185709" lon="11.761273232336366"><ele>197.8</ele><time>2026-03-29T13:52:37.999Z</time></trkpt><trkpt lat="44.236064000745834" lon="11.761121248441858"><ele>200.2</ele><time>2026-03-29T13:52:39.999Z</time></trkpt><trkpt lat="44.2360875157777" lon="11.7609646334605"><ele>202.6</ele><time>2026-03-29T13:52:41.999Z</time></trkpt><trkpt lat="44.236097104020764" lon="11.76081541066105"><ele>205.0</ele><time>2026-03-29T13:52:43.999Z</time></trkpt><trkpt lat="44.236106101059484" lon="11.76069453516014"><ele>205.0</ele><time>2026-03-29T13:52:45.999Z</time></trkpt><trkpt lat="44.2361223565825" lon="11.760593179234602"><ele>205.0</ele><time>2026-03-29T13:52:47.999Z</time></trkpt><trkpt lat="44.23610506492614" lon="11.760490081371774"><ele>205.0</ele><time>2026-03-29T13:52:50.999Z</time></trkpt><trkpt lat="44.23606739053743" lon="11.760406626489862"><ele>205.0</ele><time>2026-03-29T13:53:17.999Z</time></trkpt><trkpt lat="44.236017691620894" lon="11.76033230807678"><ele>205.0</ele><time>2026-03-29T13:53:27.999Z</time></trkpt><trkpt lat="44.235994278981856" lon="11.760246609323834"><ele>205.0</ele><time>2026-03-29T13:53:37.998Z</time></trkpt><trkpt lat="44.2359468459108" lon="11.760176572605019"><ele>205.0</ele><time>2026-03-29T13:53:50Z</time></trkpt><trkpt lat="44.23589239248959" lon="11.760108240857464"><ele>205.0</ele><time>2026-03-29T13:54:09Z</time></trkpt><trkpt lat="44.23585656888951" lon="11.760025905036345"><ele>205.0</ele><time>2026-03-29T13:54:16Z</time></trkpt><trkpt lat="44.23582001852402" lon="11.759946007310374"><ele>205.0</ele><time>2026-03-29T13:54:22Z</time></trkpt><trkpt lat="44.235780428310946" lon="11.759868071938792"><ele>205.0</ele><time>2026-03-29T13:54:28Z</time></trkpt><trkpt lat="44.235783374698734" lon="11.759967899848112"><ele>205.0</ele><time>2026-03-29T13:58:51.999Z</time></trkpt><trkpt lat="44.235816768946826" lon="11.760048849109483"><ele>205.0</ele><time>2026-03-29T13:59:02.999Z</time></trkpt><trkpt lat="44.23585487977324" lon="11.760119739264473"><ele>205.0</ele><time>2026-03-29T13:59:12.999Z</time></trkpt><trkpt lat="44.23590138736417" lon="11.760204129679664"><ele>205.0</ele><time>2026-03-29T13:59:25.999Z</time></trkpt><trkpt lat="44.235949689719035" lon="11.760263282899277"><ele>205.0</ele><time>2026-03-29T13:59:39.999Z</time></trkpt><trkpt lat="44.235984434715625" lon="11.760351703683389"><ele>205.0</ele><time>2026-03-29T13:59:48.998Z</time></trkpt><trkpt lat="44.23594644723638" lon="11.760278242841377"><ele>205.0</ele><time>2026-03-29T14:01:57.999Z</time></trkpt><trkpt lat="44.23591525507916" lon="11.76018586401184"><ele>205.0</ele><time>2026-03-29T14:02:43Z</time></trkpt><trkpt lat="44.2358701963388" lon="11.760123933532325"><ele>205.0</ele><time>2026-03-29T14:02:56Z</time></trkpt><trkpt lat="44.23582513310857" lon="11.760045394326944"><ele>205.0</ele><time>2026-03-29T14:03:15.999Z</time></trkpt><trkpt lat="44.2358611239386" lon="11.760134239230764"><ele>204.99999999999997</ele><time>2026-03-29T14:03:33.999Z</time></trkpt><trkpt lat="44.23595388915233" lon="11.76023930363568"><ele>205.0</ele><time>2026-03-29T14:03:57.999Z</time></trkpt><trkpt lat="44.23597611314072" lon="11.76033222677813"><ele>205.0</ele><time>2026-03-29T14:04:04.999Z</time></trkpt><trkpt lat="44.236023585017044" lon="11.76040872128968"><ele>205.0</ele><time>2026-03-29T14:04:11.999Z</time></trkpt><trkpt lat="44.2359894632999" lon="11.760331202511889"><ele>204.99999999999997</ele><time>2026-03-29T14:05:01Z</time></trkpt><trkpt lat="44.235966722853526" lon="11.76024801906868"><ele>205.0</ele><time>2026-03-29T14:05:12Z</time></trkpt><trkpt lat="44.235913713257915" lon="11.760170294310486"><ele>204.42857142857144</ele><time>2026-03-29T14:05:29.999Z</time></trkpt><trkpt lat="44.23586319843446" lon="11.76009179435997"><ele>203.85714285714283</ele><time>2026-03-29T14:05:48.999Z</time></trkpt><trkpt lat="44.23581909630492" lon="11.760020794215038"><ele>203.28571428571428</ele><time>2026-03-29T14:05:53.999Z</time></trkpt><trkpt lat="44.23578487567204" lon="11.759925734807885"><ele>202.71428571428572</ele><time>2026-03-29T14:06:45Z</time></trkpt><trkpt lat="44.23574529678818" lon="11.759856429248364"><ele>202.14285714285717</ele><time>2026-03-29T14:06:48Z</time></trkpt><trkpt lat="44.23570886060132" lon="11.759770476469752"><ele>201.57142857142856</ele><time>2026-03-29T14:06:51Z</time></trkpt><trkpt lat="44.235666839698304" lon="11.759703635233638"><ele>201.0</ele><time>2026-03-29T14:06:54Z</time></trkpt><trkpt lat="44.2356220220648" lon="11.759589236342029"><ele>199.8</ele><time>2026-03-29T14:06:57Z</time></trkpt><trkpt lat="44.235587789778926" lon="11.759449950133096"><ele>198.60000000000002</ele><time>2026-03-29T14:07:00Z</time></trkpt><trkpt lat="44.23554736464721" lon="11.759372879559825"><ele>197.4</ele><time>2026-03-29T14:07:01Z</time></trkpt><trkpt lat="44.23552491056991" lon="11.759229047452768"><ele>196.2</ele><time>2026-03-29T14:07:03Z</time></trkpt><trkpt lat="44.23551774597551" lon="11.759105623214504"><ele>195.0</ele><time>2026-03-29T14:07:05Z</time></trkpt><trkpt lat="44.235480210601274" lon="11.758988447713339"><ele>195.0</ele><time>2026-03-29T14:07:07Z</time></trkpt><trkpt lat="44.23548493877909" lon="11.75889353855494"><ele>195.0</ele><time>2026-03-29T14:07:09Z</time></trkpt><trkpt lat="44.23546114260293" lon="11.758776356575906"><ele>195.0</ele><time>2026-03-29T14:07:11Z</time></trkpt><trkpt lat="44.23542822597459" lon="11.758656041923736"><ele>195.0</ele><time>2026-03-29T14:07:13Z</time></trkpt><trkpt lat="44.235382545144205" lon="11.758585206601996"><ele>195.0</ele><time>2026-03-29T14:07:15Z</time></trkpt><trkpt lat="44.23534038663518" lon="11.758470715861307"><ele>195.0</ele><time>2026-03-29T14:07:18Z</time></trkpt><trkpt lat="44.23531020782021" lon="11.75838591130053"><ele>198.2</ele><time>2026-03-29T14:07:20Z</time></trkpt><trkpt lat="44.23527757400761" lon="11.758263349320112"><ele>201.4</ele><time>2026-03-29T14:07:23.999Z</time></trkpt><trkpt lat="44.23523841820881" lon="11.758117351761305"><ele>204.60000000000002</ele><time>2026-03-29T14:07:26.999Z</time></trkpt><trkpt lat="44.235212432912974" lon="11.758000893314561"><ele>207.8</ele><time>2026-03-29T14:07:28.999Z</time></trkpt><trkpt lat="44.23513882771652" lon="11.757888889165311"><ele>211.0</ele><time>2026-03-29T14:07:30.999Z</time></trkpt><trkpt lat="44.23510424797153" lon="11.757804905127742"><ele>211.66666666666666</ele><time>2026-03-29T14:07:31.999Z</time></trkpt><trkpt lat="44.23507990982721" lon="11.75769888576288"><ele>212.33333333333331</ele><time>2026-03-29T14:07:32.999Z</time></trkpt><trkpt lat="44.23505468425658" lon="11.757574438640823"><ele>213.0</ele><time>2026-03-29T14:07:33.999Z</time></trkpt><trkpt lat="44.235039957453345" lon="11.757442622347266"><ele>213.66666666666669</ele><time>2026-03-29T14:07:34.999Z</time></trkpt><trkpt lat="44.235025852237996" lon="11.757344744117066"><ele>214.33333333333334</ele><time>2026-03-29T14:07:35.999Z</time></trkpt><trkpt lat="44.235006409548326" lon="11.757226174557925"><ele>215.0</ele><time>2026-03-29T14:07:37.999Z</time></trkpt><trkpt lat="44.23497953104048" lon="11.757062118170037"><ele>215.0</ele><time>2026-03-29T14:07:39.999Z</time></trkpt><trkpt lat="44.234969218974406" lon="11.756928822809007"><ele>215.0</ele><time>2026-03-29T14:07:40.999Z</time></trkpt><trkpt lat="44.23494701873087" lon="11.756799888677532"><ele>215.0</ele><time>2026-03-29T14:07:41.999Z</time></trkpt><trkpt lat="44.23491636419721" lon="11.756694346549626"><ele>215.0</ele><time>2026-03-29T14:07:42.999Z</time></trkpt><trkpt lat="44.234884905930876" lon="11.756576258830618"><ele>215.0</ele><time>2026-03-29T14:07:44.999Z</time></trkpt><trkpt lat="44.23488586759754" lon="11.756448688204857"><ele>216.0</ele><time>2026-03-29T14:07:46.999Z</time></trkpt><trkpt lat="44.234888908931325" lon="11.756354078491462"><ele>217.0</ele><time>2026-03-29T14:07:50.999Z</time></trkpt><trkpt lat="44.23490769982243" lon="11.756233728281476"><ele>218.0</ele><time>2026-03-29T14:07:52.999Z</time></trkpt><trkpt lat="44.23490546755698" lon="11.75582898324053"><ele>219.0</ele><time>2026-03-29T14:07:53.999Z</time></trkpt><trkpt lat="44.23489922543759" lon="11.755639543846842"><ele>220.0</ele><time>2026-03-29T14:07:55.999Z</time></trkpt><trkpt lat="44.234861597659005" lon="11.755542328594082"><ele>221.0</ele><time>2026-03-29T14:07:56.999Z</time></trkpt><trkpt lat="44.23484207849249" lon="11.755448562753342"><ele>222.0</ele><time>2026-03-29T14:07:57.999Z</time></trkpt><trkpt lat="44.23484977708841" lon="11.755347293424867"><ele>223.0</ele><time>2026-03-29T14:07:58.999Z</time></trkpt><trkpt lat="44.23486029176087" lon="11.755255274102671"><ele>224.0</ele><time>2026-03-29T14:07:59.999Z</time></trkpt><trkpt lat="44.23485411331335" lon="11.755156979950009"><ele>225.0</ele><time>2026-03-29T14:08:00.999Z</time></trkpt><trkpt lat="44.234853897677326" lon="11.755045747711968"><ele>226.0</ele><time>2026-03-29T14:08:01.999Z</time></trkpt><trkpt lat="44.23485763497703" lon="11.75493217349032"><ele>225.71428571428572</ele><time>2026-03-29T14:08:02.999Z</time></trkpt><trkpt lat="44.23486648159935" lon="11.754809462844209"><ele>225.42857142857142</ele><time>2026-03-29T14:08:03.999Z</time></trkpt><trkpt lat="44.23485925508252" lon="11.754715239702964"><ele>225.14285714285714</ele><time>2026-03-29T14:08:04.999Z</time></trkpt><trkpt lat="44.234877393071024" lon="11.754607445458399"><ele>224.85714285714286</ele><time>2026-03-29T14:08:06.999Z</time></trkpt><trkpt lat="44.234821800553014" lon="11.754524451197383"><ele>224.57142857142856</ele><time>2026-03-29T14:08:09.999Z</time></trkpt><trkpt lat="44.23475710979303" lon="11.754498667593667"><ele>224.28571428571428</ele><time>2026-03-29T14:08:11.999Z</time></trkpt><trkpt lat="44.23470399405108" lon="11.75445104144599"><ele>224.0</ele><time>2026-03-29T14:08:12.999Z</time></trkpt><trkpt lat="44.23462467617743" lon="11.754447331150656"><ele>224.00000000000003</ele><time>2026-03-29T14:08:15.999Z</time></trkpt><trkpt lat="44.23455327108314" lon="11.75441570035772"><ele>224.0</ele><time>2026-03-29T14:08:18.999Z</time></trkpt><trkpt lat="44.23448058670323" lon="11.754427093122777"><ele>224.0</ele><time>2026-03-29T14:08:20.999Z</time></trkpt><trkpt lat="44.23439617443537" lon="11.754428428502122"><ele>224.0</ele><time>2026-03-29T14:08:22.999Z</time></trkpt><trkpt lat="44.23431781980925" lon="11.754453277038682"><ele>224.00000000000003</ele><time>2026-03-29T14:08:25Z</time></trkpt><trkpt lat="44.23428340590383" lon="11.754367258086777"><ele>224.0</ele><time>2026-03-29T14:08:28Z</time></trkpt><trkpt lat="44.23423936684673" lon="11.754227532123286"><ele>223.79999999999998</ele><time>2026-03-29T14:08:31Z</time></trkpt><trkpt lat="44.23415328893099" lon="11.754159365580538"><ele>223.59999999999997</ele><time>2026-03-29T14:08:34Z</time></trkpt><trkpt lat="44.234097436851144" lon="11.754097359388165"><ele>223.4</ele><time>2026-03-29T14:08:36Z</time></trkpt><trkpt lat="44.23404768310672" lon="11.753989677271527"><ele>223.2</ele><time>2026-03-29T14:08:38Z</time></trkpt><trkpt lat="44.233993299378895" lon="11.753884322960033"><ele>223.0</ele><time>2026-03-29T14:08:40Z</time></trkpt><trkpt lat="44.23388092276112" lon="11.753789978558075"><ele>223.0</ele><time>2026-03-29T14:08:42Z</time></trkpt><trkpt lat="44.23379679055812" lon="11.753732734186803"><ele>223.0</ele><time>2026-03-29T14:08:43Z</time></trkpt><trkpt lat="44.23372920349643" lon="11.753694283914358"><ele>223.0</ele><time>2026-03-29T14:08:44Z</time></trkpt><trkpt lat="44.23365288662178" lon="11.753613856647213"><ele>223.0</ele><time>2026-03-29T14:08:46Z</time></trkpt><trkpt lat="44.23354624277794" lon="11.753534733637222"><ele>223.0</ele><time>2026-03-29T14:08:48Z</time></trkpt><trkpt lat="44.2334518127288" lon="11.753445656140993"><ele>222.99999999999997</ele><time>2026-03-29T14:08:50Z</time></trkpt><trkpt lat="44.233361036895886" lon="11.753398720936346"><ele>223.0</ele><time>2026-03-29T14:08:52Z</time></trkpt><trkpt lat="44.23330667348058" lon="11.75344475728249"><ele>223.0</ele><time>2026-03-29T14:08:53Z</time></trkpt><trkpt lat="44.23328168511302" lon="11.753559055507923"><ele>223.0</ele><time>2026-03-29T14:08:54Z</time></trkpt><trkpt lat="44.23327432202537" lon="11.753693119292748"><ele>222.99999999999997</ele><time>2026-03-29T14:08:55Z</time></trkpt><trkpt lat="44.23326016815737" lon="11.753829029618398"><ele>223.0</ele><time>2026-03-29T14:08:57Z</time></trkpt><trkpt lat="44.233171414690304" lon="11.753817663230366"><ele>222.60000000000002</ele><time>2026-03-29T14:09:00Z</time></trkpt><trkpt lat="44.23309463249566" lon="11.753692702929975"><ele>222.20000000000002</ele><time>2026-03-29T14:09:02Z</time></trkpt><trkpt lat="44.233005535024084" lon="11.753587374469507"><ele>221.8</ele><time>2026-03-29T14:09:04Z</time></trkpt><trkpt lat="44.23291561759095" lon="11.75351902451299"><ele>221.4</ele><time>2026-03-29T14:09:06Z</time></trkpt><trkpt lat="44.23285951802481" lon="11.753467405476593"><ele>221.0</ele><time>2026-03-29T14:09:07Z</time></trkpt><trkpt lat="44.23280724686568" lon="11.753410952615623"><ele>223.0</ele><time>2026-03-29T14:09:08Z</time></trkpt><trkpt lat="44.23274974575214" lon="11.75335385916636"><ele>225.0</ele><time>2026-03-29T14:09:09Z</time></trkpt><trkpt lat="44.23268470098398" lon="11.753303599797908"><ele>227.0</ele><time>2026-03-29T14:09:10Z</time></trkpt><trkpt lat="44.23261144971451" lon="11.753283673708474"><ele>229.0</ele><time>2026-03-29T14:09:11Z</time></trkpt><trkpt lat="44.232535583500166" lon="11.753274624759525"><ele>230.99999999999997</ele><time>2026-03-29T14:09:12Z</time></trkpt><trkpt lat="44.23246934005" lon="11.753278576379431"><ele>233.0</ele><time>2026-03-29T14:09:13Z</time></trkpt><trkpt lat="44.2324024631344" lon="11.753284664331256"><ele>235.0</ele><time>2026-03-29T14:09:14Z</time></trkpt><trkpt lat="44.232326862773256" lon="11.753290926803064"><ele>235.33333333333331</ele><time>2026-03-29T14:09:15Z</time></trkpt><trkpt lat="44.232246981730206" lon="11.75330801500661"><ele>235.66666666666666</ele><time>2026-03-29T14:09:16Z</time></trkpt><trkpt lat="44.232161964007894" lon="11.753322004085456"><ele>236.0</ele><time>2026-03-29T14:09:17Z</time></trkpt><trkpt lat="44.2320617411452" lon="11.753339116372867"><ele>236.33333333333331</ele><time>2026-03-29T14:09:18Z</time></trkpt><trkpt lat="44.23197094642171" lon="11.753347118621939"><ele>236.66666666666666</ele><time>2026-03-29T14:09:19Z</time></trkpt><trkpt lat="44.23188295617073" lon="11.753362461726427"><ele>237.0</ele><time>2026-03-29T14:09:20Z</time></trkpt><trkpt lat="44.23180160954924" lon="11.753378520664647"><ele>237.0</ele><time>2026-03-29T14:09:20.999Z</time></trkpt><trkpt lat="44.23172561056725" lon="11.753389889227165"><ele>237.0</ele><time>2026-03-29T14:09:21.999Z</time></trkpt><trkpt lat="44.231645254981416" lon="11.753395861088974"><ele>237.0</ele><time>2026-03-29T14:09:22.999Z</time></trkpt><trkpt lat="44.23156717202868" lon="11.753400815836725"><ele>237.0</ele><time>2026-03-29T14:09:23.999Z</time></trkpt><trkpt lat="44.23148618742124" lon="11.753405519019571"><ele>237.0</ele><time>2026-03-29T14:09:24.999Z</time></trkpt><trkpt lat="44.2313956835948" lon="11.753426023517614"><ele>237.0</ele><time>2026-03-29T14:09:25.999Z</time></trkpt><trkpt lat="44.231305801442375" lon="11.75344259653921"><ele>237.5</ele><time>2026-03-29T14:09:26.999Z</time></trkpt><trkpt lat="44.2312276517488" lon="11.75344962412977"><ele>238.0</ele><time>2026-03-29T14:09:27.999Z</time></trkpt><trkpt lat="44.23115128210916" lon="11.75345592470757"><ele>238.5</ele><time>2026-03-29T14:09:28.999Z</time></trkpt><trkpt lat="44.23103745698363" lon="11.753477991905752"><ele>239.0</ele><time>2026-03-29T14:09:30.999Z</time></trkpt><trkpt lat="44.230967373886386" lon="11.753489397574672"><ele>239.5</ele><time>2026-03-29T14:09:32.999Z</time></trkpt><trkpt lat="44.230897866744264" lon="11.753469906793747"><ele>240.0</ele><time>2026-03-29T14:09:34.999Z</time></trkpt><trkpt lat="44.230794600818605" lon="11.753429046701465"><ele>240.0</ele><time>2026-03-29T14:09:36.999Z</time></trkpt><trkpt lat="44.23069663690817" lon="11.753335473520066"><ele>240.0</ele><time>2026-03-29T14:09:38.999Z</time></trkpt><trkpt lat="44.23066603420303" lon="11.753253161211985"><ele>240.0</ele><time>2026-03-29T14:09:39.999Z</time></trkpt><trkpt lat="44.230651142259646" lon="11.753137524332846"><ele>240.0</ele><time>2026-03-29T14:09:41.999Z</time></trkpt><trkpt lat="44.230690511242244" lon="11.753035250326246"><ele>240.0</ele><time>2026-03-29T14:11:34.999Z</time></trkpt><trkpt lat="44.230656365078644" lon="11.752941876972569"><ele>240.0</ele><time>2026-03-29T14:11:38.999Z</time></trkpt><trkpt lat="44.230609560257484" lon="11.752876672354509"><ele>240.16666666666666</ele><time>2026-03-29T14:11:51.999Z</time></trkpt><trkpt lat="44.23056519006476" lon="11.752800041222109"><ele>240.33333333333331</ele><time>2026-03-29T14:11:53.999Z</time></trkpt><trkpt lat="44.23050792747261" lon="11.752756385419957"><ele>240.5</ele><time>2026-03-29T14:11:55.999Z</time></trkpt><trkpt lat="44.230450231855784" lon="11.752715847036688"><ele>240.66666666666666</ele><time>2026-03-29T14:11:57.999Z</time></trkpt><trkpt lat="44.230360284323865" lon="11.75269610615677"><ele>240.83333333333331</ele><time>2026-03-29T14:11:59.999Z</time></trkpt><trkpt lat="44.23024503182874" lon="11.752664164929673"><ele>241.0</ele><time>2026-03-29T14:12:01.999Z</time></trkpt><trkpt lat="44.23013125566232" lon="11.752640042892843"><ele>241.0</ele><time>2026-03-29T14:12:03.999Z</time></trkpt><trkpt lat="44.23000878774314" lon="11.752604380598092"><ele>241.0</ele><time>2026-03-29T14:12:05.999Z</time></trkpt><trkpt lat="44.22989476469864" lon="11.752557916588955"><ele>241.0</ele><time>2026-03-29T14:12:07.999Z</time></trkpt><trkpt lat="44.22977577342623" lon="11.752512855179031"><ele>241.0</ele><time>2026-03-29T14:12:09.999Z</time></trkpt><trkpt lat="44.22966641941231" lon="11.752467574078306"><ele>244.4</ele><time>2026-03-29T14:12:11.999Z</time></trkpt><trkpt lat="44.229556453110796" lon="11.752427149753938"><ele>247.8</ele><time>2026-03-29T14:12:13.999Z</time></trkpt><trkpt lat="44.22945756737907" lon="11.752329827511165"><ele>251.20000000000002</ele><time>2026-03-29T14:12:15.999Z</time></trkpt><trkpt lat="44.229375306597866" lon="11.752238826093595"><ele>254.60000000000002</ele><time>2026-03-29T14:12:17.999Z</time></trkpt><trkpt lat="44.22931175247538" lon="11.752144593066935"><ele>258.0</ele><time>2026-03-29T14:12:19.999Z</time></trkpt><trkpt lat="44.22926348098115" lon="11.752026988052444"><ele>258.0</ele><time>2026-03-29T14:12:21.999Z</time></trkpt><trkpt lat="44.22922194578001" lon="11.751933018412634"><ele>258.0</ele><time>2026-03-29T14:12:23.999Z</time></trkpt><trkpt lat="44.22918320839203" lon="11.751844956688247"><ele>258.0</ele><time>2026-03-29T14:12:25.999Z</time></trkpt><trkpt lat="44.22914776033216" lon="11.751747901655087"><ele>258.0</ele><time>2026-03-29T14:12:27.999Z</time></trkpt><trkpt lat="44.22911656967586" lon="11.751668090366179"><ele>258.0</ele><time>2026-03-29T14:12:29.999Z</time></trkpt><trkpt lat="44.22912620794709" lon="11.75154886988128"><ele>258.0</ele><time>2026-03-29T14:12:31.999Z</time></trkpt><trkpt lat="44.22916629535349" lon="11.751395025327545"><ele>256.3333333333333</ele><time>2026-03-29T14:12:33.999Z</time></trkpt><trkpt lat="44.229237394245125" lon="11.75124758571722"><ele>254.66666666666669</ele><time>2026-03-29T14:12:35.998Z</time></trkpt><trkpt lat="44.229274612793965" lon="11.75116685698424"><ele>253.0</ele><time>2026-03-29T14:12:37Z</time></trkpt><trkpt lat="44.22931570485047" lon="11.751085728958689"><ele>251.33333333333334</ele><time>2026-03-29T14:12:38Z</time></trkpt><trkpt lat="44.22936063156054" lon="11.751004837108303"><ele>249.66666666666669</ele><time>2026-03-29T14:12:39Z</time></trkpt><trkpt lat="44.22940685678735" lon="11.750918786817119"><ele>248.0</ele><time>2026-03-29T14:12:40Z</time></trkpt><trkpt lat="44.22945250320353" lon="11.750833205253123"><ele>247.16666666666669</ele><time>2026-03-29T14:12:41Z</time></trkpt><trkpt lat="44.229502337839726" lon="11.750742243290722"><ele>246.33333333333334</ele><time>2026-03-29T14:12:42Z</time></trkpt><trkpt lat="44.22955373364417" lon="11.750638990520386"><ele>245.5</ele><time>2026-03-29T14:12:43Z</time></trkpt><trkpt lat="44.2296080128768" lon="11.750529877731125"><ele>244.66666666666669</ele><time>2026-03-29T14:12:44Z</time></trkpt><trkpt lat="44.229657876905456" lon="11.750426126354677"><ele>243.83333333333334</ele><time>2026-03-29T14:12:45Z</time></trkpt><trkpt lat="44.22970987152877" lon="11.750326148223015"><ele>243.0</ele><time>2026-03-29T14:12:46Z</time></trkpt><trkpt lat="44.229763049140914" lon="11.7502271077311"><ele>240.5</ele><time>2026-03-29T14:12:47Z</time></trkpt><trkpt lat="44.229818412717165" lon="11.750119847465054"><ele>238.0</ele><time>2026-03-29T14:12:48Z</time></trkpt><trkpt lat="44.229871244888244" lon="11.75001793685717"><ele>235.5</ele><time>2026-03-29T14:12:49Z</time></trkpt><trkpt lat="44.2299231967186" lon="11.749914571670617"><ele>233.0</ele><time>2026-03-29T14:12:50Z</time></trkpt><trkpt lat="44.2299751397275" lon="11.749824385996224"><ele>230.5</ele><time>2026-03-29T14:12:51Z</time></trkpt><trkpt lat="44.23003381549564" lon="11.749752183072017"><ele>228.0</ele><time>2026-03-29T14:12:52Z</time></trkpt><trkpt lat="44.23009786161646" lon="11.749704555657353"><ele>228.0</ele><time>2026-03-29T14:12:53Z</time></trkpt><trkpt lat="44.230171970194846" lon="11.74967737403057"><ele>228.0</ele><time>2026-03-29T14:12:54Z</time></trkpt><trkpt lat="44.23023623087089" lon="11.749667335645285"><ele>228.0</ele><time>2026-03-29T14:12:55Z</time></trkpt><trkpt lat="44.23035362478353" lon="11.74973678073414"><ele>228.0</ele><time>2026-03-29T14:12:57Z</time></trkpt><trkpt lat="44.23042781921433" lon="11.749870738014634"><ele>228.0</ele><time>2026-03-29T14:12:59Z</time></trkpt><trkpt lat="44.23048852871173" lon="11.749986307458924"><ele>228.0</ele><time>2026-03-29T14:13:01Z</time></trkpt><trkpt lat="44.23054101379933" lon="11.750067445023676"><ele>228.0</ele><time>2026-03-29T14:13:03Z</time></trkpt><trkpt lat="44.2306111281748" lon="11.750074542331713"><ele>228.0</ele><time>2026-03-29T14:13:05Z</time></trkpt><trkpt lat="44.230685317938395" lon="11.749973521284515"><ele>228.0</ele><time>2026-03-29T14:13:07Z</time></trkpt><trkpt lat="44.230753453935584" lon="11.749859138017872"><ele>228.0</ele><time>2026-03-29T14:13:09Z</time></trkpt><trkpt lat="44.230831386590474" lon="11.749730808156482"><ele>227.4</ele><time>2026-03-29T14:13:11Z</time></trkpt><trkpt lat="44.23090424331266" lon="11.749611658155013"><ele>226.8</ele><time>2026-03-29T14:13:13Z</time></trkpt><trkpt lat="44.23097598017206" lon="11.749499047576526"><ele>226.2</ele><time>2026-03-29T14:13:15Z</time></trkpt><trkpt lat="44.23103429964992" lon="11.749394324924772"><ele>225.6</ele><time>2026-03-29T14:13:17Z</time></trkpt><trkpt lat="44.231092330809744" lon="11.749299016702482"><ele>225.0</ele><time>2026-03-29T14:13:19Z</time></trkpt><trkpt lat="44.23116164799201" lon="11.749212463004122"><ele>225.0</ele><time>2026-03-29T14:13:21Z</time></trkpt><trkpt lat="44.231254496691555" lon="11.749165304142554"><ele>225.0</ele><time>2026-03-29T14:13:23Z</time></trkpt><trkpt lat="44.23131653357761" lon="11.749149596268884"><ele>225.0</ele><time>2026-03-29T14:13:24Z</time></trkpt><trkpt lat="44.231444688891116" lon="11.74913797616633"><ele>225.0</ele><time>2026-03-29T14:13:26Z</time></trkpt><trkpt lat="44.23151729858626" lon="11.749134325918297"><ele>225.0</ele><time>2026-03-29T14:13:27Z</time></trkpt><trkpt lat="44.23159077715916" lon="11.749127731616754"><ele>225.0</ele><time>2026-03-29T14:13:28Z</time></trkpt><trkpt lat="44.23165767706499" lon="11.749128636756133"><ele>221.83333333333334</ele><time>2026-03-29T14:13:29Z</time></trkpt><trkpt lat="44.23172694628285" lon="11.749131540640757"><ele>218.66666666666669</ele><time>2026-03-29T14:13:29.999Z</time></trkpt><trkpt lat="44.231859934926675" lon="11.74913973503762"><ele>215.5</ele><time>2026-03-29T14:13:31.999Z</time></trkpt><trkpt lat="44.23192607068402" lon="11.749140225953969"><ele>212.33333333333334</ele><time>2026-03-29T14:13:32.999Z</time></trkpt><trkpt lat="44.23200291044613" lon="11.749140466513321"><ele>209.16666666666669</ele><time>2026-03-29T14:13:33.999Z</time></trkpt><trkpt lat="44.23206586791549" lon="11.749148893751311"><ele>206.0</ele><time>2026-03-29T14:13:34.999Z</time></trkpt><trkpt lat="44.23213183998567" lon="11.749141805016777"><ele>206.00000000000003</ele><time>2026-03-29T14:13:35.999Z</time></trkpt><trkpt lat="44.232199798424695" lon="11.749137231523584"><ele>206.0</ele><time>2026-03-29T14:13:36.999Z</time></trkpt><trkpt lat="44.23226579073153" lon="11.749141742681775"><ele>206.0</ele><time>2026-03-29T14:13:37.999Z</time></trkpt><trkpt lat="44.2323357767876" lon="11.749155070788413"><ele>206.0</ele><time>2026-03-29T14:13:38.999Z</time></trkpt><trkpt lat="44.23246444073683" lon="11.749170781637185"><ele>206.00000000000003</ele><time>2026-03-29T14:13:40.999Z</time></trkpt><trkpt lat="44.232532158205" lon="11.749177912301253"><ele>206.0</ele><time>2026-03-29T14:13:41.999Z</time></trkpt><trkpt lat="44.232595346797964" lon="11.749163659276967"><ele>203.57142857142856</ele><time>2026-03-29T14:13:42.999Z</time></trkpt><trkpt lat="44.232665087442214" lon="11.749154176927705"><ele>201.14285714285714</ele><time>2026-03-29T14:13:43.999Z</time></trkpt><trkpt lat="44.23273082520389" lon="11.749139019867124"><ele>198.71428571428572</ele><time>2026-03-29T14:13:44.999Z</time></trkpt><trkpt lat="44.23279417494457" lon="11.749118440145338"><ele>196.28571428571428</ele><time>2026-03-29T14:13:45.999Z</time></trkpt><trkpt lat="44.23286029143573" lon="11.749105397934809"><ele>193.85714285714286</ele><time>2026-03-29T14:13:46.999Z</time></trkpt><trkpt lat="44.232925752349345" lon="11.749105232461337"><ele>191.42857142857142</ele><time>2026-03-29T14:13:47.999Z</time></trkpt><trkpt lat="44.23299461094801" lon="11.749122143805753"><ele>189.0</ele><time>2026-03-29T14:13:48.999Z</time></trkpt><trkpt lat="44.23311206467312" lon="11.749139539586432"><ele>185.2</ele><time>2026-03-29T14:13:50.999Z</time></trkpt><trkpt lat="44.23322489060664" lon="11.749140015489221"><ele>181.39999999999998</ele><time>2026-03-29T14:13:52.999Z</time></trkpt><trkpt lat="44.2333222331631" lon="11.749172204624173"><ele>177.6</ele><time>2026-03-29T14:13:54.999Z</time></trkpt><trkpt lat="44.233410171870524" lon="11.749196858717804"><ele>173.8</ele><time>2026-03-29T14:13:56.999Z</time></trkpt><trkpt lat="44.23348027374174" lon="11.749231267466513"><ele>170.0</ele><time>2026-03-29T14:13:58.999Z</time></trkpt><trkpt lat="44.233580061539456" lon="11.749296825766782"><ele>170.0</ele><time>2026-03-29T14:14:01.999Z</time></trkpt><trkpt lat="44.23363390359411" lon="11.749347720837314"><ele>170.0</ele><time>2026-03-29T14:14:03.999Z</time></trkpt><trkpt lat="44.23370330738268" lon="11.749432093480403"><ele>170.0</ele><time>2026-03-29T14:14:05.999Z</time></trkpt><trkpt lat="44.233750884332835" lon="11.749535963142026"><ele>170.0</ele><time>2026-03-29T14:14:07.999Z</time></trkpt><trkpt lat="44.23379983650576" lon="11.749602201735549"><ele>170.0</ele><time>2026-03-29T14:14:09.999Z</time></trkpt><trkpt lat="44.233876989097084" lon="11.749649566846537"><ele>170.0</ele><time>2026-03-29T14:14:12.999Z</time></trkpt><trkpt lat="44.23393946939546" lon="11.74963335041641"><ele>167.33333333333331</ele><time>2026-03-29T14:14:14.999Z</time></trkpt><trkpt lat="44.23403899219377" lon="11.749620402980701"><ele>164.66666666666666</ele><time>2026-03-29T14:14:17.999Z</time></trkpt><trkpt lat="44.234367408442836" lon="11.749619160351706"><ele>162.0</ele><time>2026-03-29T14:14:19.999Z</time></trkpt><trkpt lat="44.234435273593846" lon="11.749603422270877"><ele>162.0</ele><time>2026-03-29T14:14:20.999Z</time></trkpt><trkpt lat="44.23450670282936" lon="11.74960003850646"><ele>162.0</ele><time>2026-03-29T14:14:21.999Z</time></trkpt><trkpt lat="44.234580803357424" lon="11.74959555921849"><ele>162.0</ele><time>2026-03-29T14:14:23.999Z</time></trkpt><trkpt lat="44.23464228794995" lon="11.749552944369373"><ele>162.0</ele><time>2026-03-29T14:14:24.999Z</time></trkpt><trkpt lat="44.234700358964616" lon="11.749511201380166"><ele>162.0</ele><time>2026-03-29T14:14:25.999Z</time></trkpt><trkpt lat="44.23476615792205" lon="11.749459199518185"><ele>162.0</ele><time>2026-03-29T14:14:26.999Z</time></trkpt><trkpt lat="44.23483487820104" lon="11.749414612149172"><ele>162.0</ele><time>2026-03-29T14:14:27.999Z</time></trkpt><trkpt lat="44.23490100500209" lon="11.749411150999547"><ele>160.83333333333334</ele><time>2026-03-29T14:14:28.999Z</time></trkpt><trkpt lat="44.23497350920161" lon="11.749422197216314"><ele>159.66666666666666</ele><time>2026-03-29T14:14:29.999Z</time></trkpt><trkpt lat="44.23504494940926" lon="11.74940401989749"><ele>158.5</ele><time>2026-03-29T14:14:31.999Z</time></trkpt><trkpt lat="44.23512969345096" lon="11.749416368210758"><ele>157.33333333333331</ele><time>2026-03-29T14:14:33.999Z</time></trkpt><trkpt lat="44.23523548995931" lon="11.749409239654542"><ele>156.16666666666666</ele><time>2026-03-29T14:14:36.999Z</time></trkpt><trkpt lat="44.23532135407501" lon="11.74937911511939"><ele>155.0</ele><time>2026-03-29T14:14:38.999Z</time></trkpt><trkpt lat="44.23543635761236" lon="11.749382755036505"><ele>155.0</ele><time>2026-03-29T14:14:39.998Z</time></trkpt><trkpt lat="44.235437886082494" lon="11.74947143644775"><ele>155.0</ele><time>2026-03-29T14:16:28.999Z</time></trkpt><trkpt lat="44.23536972337739" lon="11.749404871439264"><ele>155.0</ele><time>2026-03-29T14:16:30.999Z</time></trkpt><trkpt lat="44.23524588630567" lon="11.749411142689144"><ele>155.0</ele><time>2026-03-29T14:16:32.999Z</time></trkpt><trkpt lat="44.235150084974464" lon="11.74944447724549"><ele>155.0</ele><time>2026-03-29T14:16:34.999Z</time></trkpt><trkpt lat="44.23505025730489" lon="11.749419965270121"><ele>155.0</ele><time>2026-03-29T14:16:36.999Z</time></trkpt><trkpt lat="44.2349583496247" lon="11.749417055396105"><ele>155.0</ele><time>2026-03-29T14:16:38.999Z</time></trkpt><trkpt lat="44.23485596955944" lon="11.749411007673144"><ele>155.0</ele><time>2026-03-29T14:16:40.998Z</time></trkpt><trkpt lat="44.23474158545857" lon="11.749446600723083"><ele>155.0</ele><time>2026-03-29T14:16:42.998Z</time></trkpt><trkpt lat="44.23462983201037" lon="11.749519373280748"><ele>155.0</ele><time>2026-03-29T14:16:44.998Z</time></trkpt><trkpt lat="44.23453688110052" lon="11.749583607411031"><ele>156.75</ele><time>2026-03-29T14:16:46.998Z</time></trkpt><trkpt lat="44.234406987283094" lon="11.749617831204102"><ele>158.5</ele><time>2026-03-29T14:16:49Z</time></trkpt><trkpt lat="44.234294909982246" lon="11.749627174350554"><ele>160.25</ele><time>2026-03-29T14:16:51Z</time></trkpt><trkpt lat="44.23417345375052" lon="11.749631344564868"><ele>162.0</ele><time>2026-03-29T14:16:53Z</time></trkpt><trkpt lat="44.23407277975048" lon="11.749677795836943"><ele>162.0</ele><time>2026-03-29T14:16:55Z</time></trkpt><trkpt lat="44.233984608937774" lon="11.749712868539632"><ele>162.0</ele><time>2026-03-29T14:16:57Z</time></trkpt><trkpt lat="44.2339219702512" lon="11.749722408642052"><ele>162.0</ele><time>2026-03-29T14:16:59Z</time></trkpt><trkpt lat="44.23383014034444" lon="11.749708464379436"><ele>162.0</ele><time>2026-03-29T14:17:04Z</time></trkpt><trkpt lat="44.23375987140519" lon="11.749659909669711"><ele>162.0</ele><time>2026-03-29T14:17:07Z</time></trkpt><trkpt lat="44.233758527965904" lon="11.74956603614721"><ele>162.0</ele><time>2026-03-29T14:17:19Z</time></trkpt><trkpt lat="44.233812694188174" lon="11.749620270216305"><ele>163.14285714285714</ele><time>2026-03-29T14:17:33.999Z</time></trkpt><trkpt lat="44.233749016138376" lon="11.749591745141904"><ele>164.28571428571428</ele><time>2026-03-29T14:18:25.999Z</time></trkpt><trkpt lat="44.233753223499946" lon="11.749472022802077"><ele>165.42857142857144</ele><time>2026-03-29T14:19:22Z</time></trkpt><trkpt lat="44.233717584609074" lon="11.74938382602718"><ele>166.57142857142856</ele><time>2026-03-29T14:19:24Z</time></trkpt><trkpt lat="44.233704686236166" lon="11.749286016237244"><ele>167.7142857142857</ele><time>2026-03-29T14:19:26Z</time></trkpt><trkpt lat="44.23373835136491" lon="11.749195774599926"><ele>168.85714285714286</ele><time>2026-03-29T14:19:28Z</time></trkpt><trkpt lat="44.23378670641784" lon="11.749129555953465"><ele>170.0</ele><time>2026-03-29T14:19:30Z</time></trkpt><trkpt lat="44.23385476528599" lon="11.749065548735961"><ele>170.0</ele><time>2026-03-29T14:19:33Z</time></trkpt><trkpt lat="44.23391883857315" lon="11.748989080980145"><ele>170.0</ele><time>2026-03-29T14:19:35Z</time></trkpt><trkpt lat="44.23396159748797" lon="11.748907860248304"><ele>170.0</ele><time>2026-03-29T14:19:37Z</time></trkpt><trkpt lat="44.23393420661893" lon="11.74880307446572"><ele>170.0</ele><time>2026-03-29T14:19:40Z</time></trkpt><trkpt lat="44.23387125635398" lon="11.748722005165302"><ele>170.0</ele><time>2026-03-29T14:19:42.999Z</time></trkpt><trkpt lat="44.23380049133278" lon="11.74865217914525"><ele>170.0</ele><time>2026-03-29T14:19:45.999Z</time></trkpt><trkpt lat="44.23373445324824" lon="11.748608599338455"><ele>170.0</ele><time>2026-03-29T14:19:47.999Z</time></trkpt><trkpt lat="44.23367212661853" lon="11.748581881935259"><ele>170.0</ele><time>2026-03-29T14:19:49.999Z</time></trkpt><trkpt lat="44.23359723473796" lon="11.748523764972289"><ele>170.0</ele><time>2026-03-29T14:19:52.999Z</time></trkpt><trkpt lat="44.23353488888159" lon="11.748503667316657"><ele>170.0</ele><time>2026-03-29T14:19:54.999Z</time></trkpt><trkpt lat="44.233509127817086" lon="11.748394945862996"><ele>170.0</ele><time>2026-03-29T14:19:57.999Z</time></trkpt><trkpt lat="44.23358127476994" lon="11.748309738849901"><ele>170.0</ele><time>2026-03-29T14:19:59.999Z</time></trkpt><trkpt lat="44.23362787916433" lon="11.748220903769058"><ele>169.5</ele><time>2026-03-29T14:20:01.999Z</time></trkpt><trkpt lat="44.23365875885344" lon="11.748137049376098"><ele>169.0</ele><time>2026-03-29T14:20:04.999Z</time></trkpt><trkpt lat="44.233655344809364" lon="11.747991415608123"><ele>168.5</ele><time>2026-03-29T14:20:09.999Z</time></trkpt><trkpt lat="44.233648952995026" lon="11.74786926383359"><ele>168.0</ele><time>2026-03-29T14:20:11.999Z</time></trkpt><trkpt lat="44.23364948159885" lon="11.74777954617228"><ele>167.5</ele><time>2026-03-29T14:20:13.999Z</time></trkpt><trkpt lat="44.233632283934405" lon="11.747658525762242"><ele>167.0</ele><time>2026-03-29T14:20:15.999Z</time></trkpt><trkpt lat="44.23360518153276" lon="11.74752890749521"><ele>169.16666666666666</ele><time>2026-03-29T14:20:17.999Z</time></trkpt><trkpt lat="44.233582113553844" lon="11.747442808787302"><ele>171.33333333333331</ele><time>2026-03-29T14:20:20.999Z</time></trkpt><trkpt lat="44.23356091969025" lon="11.747303970363175"><ele>173.5</ele><time>2026-03-29T14:20:23.999Z</time></trkpt><trkpt lat="44.233518569296" lon="11.747208727677103"><ele>175.66666666666666</ele><time>2026-03-29T14:20:26.999Z</time></trkpt><trkpt lat="44.23348893627708" lon="11.747129989255251"><ele>177.83333333333334</ele><time>2026-03-29T14:20:30.999Z</time></trkpt><trkpt lat="44.233458681956726" lon="11.747045952612128"><ele>180.0</ele><time>2026-03-29T14:20:51.999Z</time></trkpt><trkpt lat="44.233413979404304" lon="11.74695929170826"><ele>180.0</ele><time>2026-03-29T14:20:54.999Z</time></trkpt><trkpt lat="44.23343824077461" lon="11.74687022570694"><ele>180.0</ele><time>2026-03-29T14:20:57.999Z</time></trkpt><trkpt lat="44.23343966063043" lon="11.74700014649968"><ele>180.0</ele><time>2026-03-29T14:21:29Z</time></trkpt><trkpt lat="44.233475195319336" lon="11.747101257184967"><ele>180.0</ele><time>2026-03-29T14:21:34Z</time></trkpt><trkpt lat="44.23350656946266" lon="11.747197557195397"><ele>180.0</ele><time>2026-03-29T14:21:40Z</time></trkpt><trkpt lat="44.23352885984558" lon="11.747302713356405"><ele>180.0</ele><time>2026-03-29T14:21:44Z</time></trkpt><trkpt lat="44.23355248615938" lon="11.74739717493712"><ele>180.0</ele><time>2026-03-29T14:21:48Z</time></trkpt><trkpt lat="44.23358108962778" lon="11.747487022994358"><ele>180.0</ele><time>2026-03-29T14:21:52Z</time></trkpt><trkpt lat="44.23358910686938" lon="11.747580908798023"><ele>180.0</ele><time>2026-03-29T14:21:56.999Z</time></trkpt><trkpt lat="44.233604499269" lon="11.747681845857498"><ele>180.0</ele><time>2026-03-29T14:22:01.999Z</time></trkpt><trkpt lat="44.23360556251931" lon="11.74777122920524"><ele>180.0</ele><time>2026-03-29T14:22:06.999Z</time></trkpt><trkpt lat="44.23363440171718" lon="11.74786432550579"><ele>180.0</ele><time>2026-03-29T14:24:08.999Z</time></trkpt><trkpt lat="44.23365080086946" lon="11.747952206212528"><ele>180.0</ele><time>2026-03-29T14:24:50.999Z</time></trkpt><trkpt lat="44.23366130405607" lon="11.748041022991615"><ele>180.0</ele><time>2026-03-29T14:25:16Z</time></trkpt><trkpt lat="44.23363730456195" lon="11.748125541199771"><ele>180.0</ele><time>2026-03-29T14:25:25Z</time></trkpt><trkpt lat="44.23365284093823" lon="11.748029730817361"><ele>180.0</ele><time>2026-03-29T14:26:02Z</time></trkpt><trkpt lat="44.23364843036418" lon="11.747937193028308"><ele>180.0</ele><time>2026-03-29T14:26:10.999Z</time></trkpt><trkpt lat="44.23363261559754" lon="11.747841445000809"><ele>180.0</ele><time>2026-03-29T14:26:19.999Z</time></trkpt><trkpt lat="44.23361850445132" lon="11.747743179802905"><ele>180.0</ele><time>2026-03-29T14:26:27.999Z</time></trkpt><trkpt lat="44.23360810380966" lon="11.747636367429369"><ele>180.0</ele><time>2026-03-29T14:26:40.999Z</time></trkpt><trkpt lat="44.2335915530746" lon="11.747532760330234"><ele>180.0</ele><time>2026-03-29T14:26:51.999Z</time></trkpt><trkpt lat="44.233585115848975" lon="11.747432691033477"><ele>180.0</ele><time>2026-03-29T14:27:03.999Z</time></trkpt><trkpt lat="44.23355894594713" lon="11.747347997410928"><ele>180.0</ele><time>2026-03-29T14:27:12.999Z</time></trkpt><trkpt lat="44.233532653083785" lon="11.74725676370716"><ele>180.0</ele><time>2026-03-29T14:27:23Z</time></trkpt><trkpt lat="44.233508368836205" lon="11.747172109353462"><ele>180.0</ele><time>2026-03-29T14:27:33Z</time></trkpt><trkpt lat="44.23347420734442" lon="11.74708774838089"><ele>180.0</ele><time>2026-03-29T14:27:47Z</time></trkpt><trkpt lat="44.23344490737445" lon="11.74700808123011"><ele>180.0</ele><time>2026-03-29T14:27:57Z</time></trkpt><trkpt lat="44.23342858801926" lon="11.74691741075336"><ele>180.0</ele><time>2026-03-29T14:28:08Z</time></trkpt><trkpt lat="44.233537377368016" lon="11.74693052884726"><ele>180.0</ele><time>2026-03-29T14:32:54.999Z</time></trkpt><trkpt lat="44.23362620753142" lon="11.747026041056394"><ele>180.0</ele><time>2026-03-29T14:32:56.999Z</time></trkpt><trkpt lat="44.23370158333557" lon="11.74711899342438"><ele>180.0</ele><time>2026-03-29T14:32:58.999Z</time></trkpt><trkpt lat="44.23375886997469" lon="11.747211123944744"><ele>180.0</ele><time>2026-03-29T14:33:00.999Z</time></trkpt><trkpt lat="44.23382114138231" lon="11.747257163431504"><ele>180.0</ele><time>2026-03-29T14:33:02.999Z</time></trkpt><trkpt lat="44.23388861692224" lon="11.74726155644026"><ele>180.0</ele><time>2026-03-29T14:33:04.999Z</time></trkpt><trkpt lat="44.233974279784555" lon="11.747244985809381"><ele>180.0</ele><time>2026-03-29T14:33:08.999Z</time></trkpt><trkpt lat="44.23409483837512" lon="11.747148849080496"><ele>180.0</ele><time>2026-03-29T14:33:11.999Z</time></trkpt><trkpt lat="44.234232664056336" lon="11.747026401154"><ele>180.0</ele><time>2026-03-29T14:33:12.999Z</time></trkpt><trkpt lat="44.234274233934435" lon="11.746942035382885"><ele>180.0</ele><time>2026-03-29T14:33:13.999Z</time></trkpt><trkpt lat="44.234331610331346" lon="11.746880306800888"><ele>180.0</ele><time>2026-03-29T14:33:14.999Z</time></trkpt><trkpt lat="44.2343861591413" lon="11.746797929467785"><ele>180.0</ele><time>2026-03-29T14:33:15.999Z</time></trkpt><trkpt lat="44.23442839565277" lon="11.746723156418037"><ele>180.0</ele><time>2026-03-29T14:33:16.999Z</time></trkpt><trkpt lat="44.23448490575414" lon="11.746657590198108"><ele>180.0</ele><time>2026-03-29T14:33:17.999Z</time></trkpt><trkpt lat="44.234528820394374" lon="11.746590675583214"><ele>180.0</ele><time>2026-03-29T14:33:18.999Z</time></trkpt><trkpt lat="44.23460112334668" lon="11.746498927109734"><ele>180.0</ele><time>2026-03-29T14:33:20.999Z</time></trkpt><trkpt lat="44.23464940121203" lon="11.746336838573141"><ele>180.0</ele><time>2026-03-29T14:33:34.998Z</time></trkpt><trkpt lat="44.23466347012093" lon="11.746181591946078"><ele>180.0</ele><time>2026-03-29T14:33:37Z</time></trkpt><trkpt lat="44.2346340743527" lon="11.746069297589928"><ele>180.0</ele><time>2026-03-29T14:33:39Z</time></trkpt><trkpt lat="44.23462576615728" lon="11.74597843636427"><ele>180.0</ele><time>2026-03-29T14:33:41Z</time></trkpt><trkpt lat="44.23466190131437" lon="11.74590402006641"><ele>181.6</ele><time>2026-03-29T14:33:43Z</time></trkpt><trkpt lat="44.23470119090117" lon="11.745798505988782"><ele>183.2</ele><time>2026-03-29T14:33:45Z</time></trkpt><trkpt lat="44.234764195902954" lon="11.745703434660122"><ele>184.8</ele><time>2026-03-29T14:33:47Z</time></trkpt><trkpt lat="44.234851092135436" lon="11.745624513779118"><ele>186.4</ele><time>2026-03-29T14:33:49Z</time></trkpt><trkpt lat="44.23493361712441" lon="11.745554092060768"><ele>188.0</ele><time>2026-03-29T14:33:51Z</time></trkpt><trkpt lat="44.235039173676114" lon="11.745416483908867"><ele>187.0</ele><time>2026-03-29T14:33:55Z</time></trkpt><trkpt lat="44.23509896340429" lon="11.745377886595282"><ele>186.0</ele><time>2026-03-29T14:33:56Z</time></trkpt><trkpt lat="44.235181579513174" lon="11.745350865795228"><ele>185.0</ele><time>2026-03-29T14:33:58Z</time></trkpt><trkpt lat="44.23526129248276" lon="11.745290126436053"><ele>184.0</ele><time>2026-03-29T14:34:00Z</time></trkpt><trkpt lat="44.23530979286182" lon="11.745225318754597"><ele>183.0</ele><time>2026-03-29T14:34:02Z</time></trkpt><trkpt lat="44.23536223057493" lon="11.745149592248039"><ele>182.0</ele><time>2026-03-29T14:34:04Z</time></trkpt><trkpt lat="44.23541538571802" lon="11.745070655910743"><ele>182.0</ele><time>2026-03-29T14:34:06Z</time></trkpt><trkpt lat="44.23549364133891" lon="11.745003449780713"><ele>182.0</ele><time>2026-03-29T14:34:08Z</time></trkpt><trkpt lat="44.23558298913977" lon="11.745004737993716"><ele>182.0</ele><time>2026-03-29T14:34:10Z</time></trkpt><trkpt lat="44.23565158867631" lon="11.745117578561786"><ele>182.0</ele><time>2026-03-29T14:34:12Z</time></trkpt><trkpt lat="44.235688832694066" lon="11.745225552819015"><ele>182.0</ele><time>2026-03-29T14:34:14Z</time></trkpt><trkpt lat="44.235754749955376" lon="11.745364838710726"><ele>178.33333333333331</ele><time>2026-03-29T14:34:17Z</time></trkpt><trkpt lat="44.23581284897694" lon="11.745454052547434"><ele>174.66666666666666</ele><time>2026-03-29T14:34:19Z</time></trkpt><trkpt lat="44.23586495111703" lon="11.745517883658502"><ele>171.0</ele><time>2026-03-29T14:34:20Z</time></trkpt><trkpt lat="44.2359446160531" lon="11.745560443616705"><ele>167.33333333333334</ele><time>2026-03-29T14:34:21Z</time></trkpt><trkpt lat="44.23601664494292" lon="11.745626898273894"><ele>163.66666666666669</ele><time>2026-03-29T14:34:23Z</time></trkpt><trkpt lat="44.236083735230075" lon="11.745680921554543"><ele>160.0</ele><time>2026-03-29T14:34:24.999Z</time></trkpt><trkpt lat="44.23615440363659" lon="11.74575035780958"><ele>160.0</ele><time>2026-03-29T14:34:26.999Z</time></trkpt><trkpt lat="44.236233050098456" lon="11.745836899899613"><ele>160.0</ele><time>2026-03-29T14:34:28.999Z</time></trkpt><trkpt lat="44.236322718212826" lon="11.745911536365591"><ele>160.0</ele><time>2026-03-29T14:34:30.999Z</time></trkpt><trkpt lat="44.236408103686266" lon="11.745969385194117"><ele>160.0</ele><time>2026-03-29T14:34:32.999Z</time></trkpt><trkpt lat="44.236494255697835" lon="11.746035687633643"><ele>160.0</ele><time>2026-03-29T14:34:34.999Z</time></trkpt><trkpt lat="44.236574112014004" lon="11.746076752469708"><ele>156.83333333333334</ele><time>2026-03-29T14:34:36.999Z</time></trkpt><trkpt lat="44.236648725963676" lon="11.746138138762928"><ele>153.66666666666669</ele><time>2026-03-29T14:34:38.999Z</time></trkpt><trkpt lat="44.236720762653" lon="11.746179842470829"><ele>150.5</ele><time>2026-03-29T14:34:40.999Z</time></trkpt><trkpt lat="44.23681304501208" lon="11.746213605435672"><ele>147.33333333333334</ele><time>2026-03-29T14:34:42.999Z</time></trkpt><trkpt lat="44.236892214117816" lon="11.746249256709746"><ele>144.16666666666666</ele><time>2026-03-29T14:34:44.999Z</time></trkpt><trkpt lat="44.23696128477056" lon="11.746274814438085"><ele>141.0</ele><time>2026-03-29T14:34:46.999Z</time></trkpt><trkpt lat="44.23704174845617" lon="11.746302568369378"><ele>141.0</ele><time>2026-03-29T14:34:48.999Z</time></trkpt><trkpt lat="44.237137024148055" lon="11.746334948226263"><ele>141.0</ele><time>2026-03-29T14:34:50.999Z</time></trkpt><trkpt lat="44.237233190784664" lon="11.74637913371153"><ele>141.0</ele><time>2026-03-29T14:34:52.999Z</time></trkpt><trkpt lat="44.23732371682076" lon="11.746432903733208"><ele>141.0</ele><time>2026-03-29T14:34:54.999Z</time></trkpt><trkpt lat="44.237400709015" lon="11.74648459656603"><ele>141.0</ele><time>2026-03-29T14:34:56.999Z</time></trkpt><trkpt lat="44.2374495449353" lon="11.746562131704938"><ele>138.66666666666666</ele><time>2026-03-29T14:34:58.999Z</time></trkpt><trkpt lat="44.23751850935492" lon="11.746644145761357"><ele>136.33333333333334</ele><time>2026-03-29T14:35:00.999Z</time></trkpt><trkpt lat="44.237582314564875" lon="11.746726066617125"><ele>134.0</ele><time>2026-03-29T14:35:02.999Z</time></trkpt><trkpt lat="44.23763027021567" lon="11.746812153399755"><ele>131.66666666666669</ele><time>2026-03-29T14:35:04.999Z</time></trkpt><trkpt lat="44.23768905487488" lon="11.746909502409578"><ele>129.33333333333334</ele><time>2026-03-29T14:35:06.999Z</time></trkpt><trkpt lat="44.23776860894552" lon="11.746967294214798"><ele>127.0</ele><time>2026-03-29T14:35:08.999Z</time></trkpt><trkpt lat="44.23783838944668" lon="11.746953874361921"><ele>127.00000000000001</ele><time>2026-03-29T14:35:10.999Z</time></trkpt><trkpt lat="44.23793977082678" lon="11.746915933239274"><ele>127.0</ele><time>2026-03-29T14:35:12.999Z</time></trkpt><trkpt lat="44.238001591713065" lon="11.746893980172352"><ele>127.0</ele><time>2026-03-29T14:35:13.999Z</time></trkpt><trkpt lat="44.238064025657444" lon="11.74687315776031"><ele>127.0</ele><time>2026-03-29T14:35:14.999Z</time></trkpt><trkpt lat="44.23812313835012" lon="11.74679413637702"><ele>127.00000000000001</ele><time>2026-03-29T14:35:15.999Z</time></trkpt><trkpt lat="44.238166902017156" lon="11.746720998518134"><ele>127.0</ele><time>2026-03-29T14:35:16.999Z</time></trkpt><trkpt lat="44.23827118642418" lon="11.746625046899071"><ele>125.16666666666667</ele><time>2026-03-29T14:35:18.999Z</time></trkpt><trkpt lat="44.238328625398545" lon="11.746580283124647"><ele>123.33333333333334</ele><time>2026-03-29T14:35:19.999Z</time></trkpt><trkpt lat="44.238395118716056" lon="11.746537514353925"><ele>121.5</ele><time>2026-03-29T14:35:20.999Z</time></trkpt><trkpt lat="44.23848217433615" lon="11.746466291241278"><ele>119.66666666666666</ele><time>2026-03-29T14:35:22.999Z</time></trkpt><trkpt lat="44.238572899471045" lon="11.746355353255401"><ele>117.83333333333333</ele><time>2026-03-29T14:35:24.999Z</time></trkpt><trkpt lat="44.23862943126133" lon="11.746295216729182"><ele>116.0</ele><time>2026-03-29T14:35:25.999Z</time></trkpt><trkpt lat="44.23868619796239" lon="11.746239914263937"><ele>115.99999999999999</ele><time>2026-03-29T14:35:26.999Z</time></trkpt><trkpt lat="44.23875068796259" lon="11.746194469716032"><ele>116.0</ele><time>2026-03-29T14:35:27.999Z</time></trkpt><trkpt lat="44.2388047389666" lon="11.74614293676624"><ele>116.0</ele><time>2026-03-29T14:35:28.999Z</time></trkpt><trkpt lat="44.238894980622895" lon="11.746058280144396"><ele>116.0</ele><time>2026-03-29T14:35:30.999Z</time></trkpt><trkpt lat="44.23898109767925" lon="11.74598017475081"><ele>115.99999999999999</ele><time>2026-03-29T14:35:32.998Z</time></trkpt><trkpt lat="44.23905873028942" lon="11.745898208068095"><ele>116.0</ele><time>2026-03-29T14:35:34.998Z</time></trkpt><trkpt lat="44.239118654580814" lon="11.745841848102257"><ele>115.00000000000001</ele><time>2026-03-29T14:35:36.998Z</time></trkpt><trkpt lat="44.23917569501454" lon="11.745796153766412"><ele>114.0</ele><time>2026-03-29T14:35:38.998Z</time></trkpt><trkpt lat="44.23926113764622" lon="11.745806533458214"><ele>113.0</ele><time>2026-03-29T14:35:41.998Z</time></trkpt><trkpt lat="44.239330619926726" lon="11.745836533874499"><ele>112.0</ele><time>2026-03-29T14:35:46Z</time></trkpt><trkpt lat="44.23934376141867" lon="11.745927804775201"><ele>111.0</ele><time>2026-03-29T14:36:32.999Z</time></trkpt><trkpt lat="44.23937587948434" lon="11.746003653504156"><ele>110.0</ele><time>2026-03-29T14:36:39.999Z</time></trkpt><trkpt lat="44.23935689827717" lon="11.745898426217806"><ele>109.0</ele><time>2026-03-29T14:36:51.999Z</time></trkpt><trkpt lat="44.23937502973809" lon="11.74600106409185"><ele>110.50000000000001</ele><time>2026-03-29T14:37:40.998Z</time></trkpt><trkpt lat="44.23942916202697" lon="11.74605967870716"><ele>112.0</ele><time>2026-03-29T14:37:44.998Z</time></trkpt><trkpt lat="44.2395148105092" lon="11.746078574056606"><ele>113.5</ele><time>2026-03-29T14:37:47.998Z</time></trkpt><trkpt lat="44.239583965620646" lon="11.746078163283114"><ele>115.0</ele><time>2026-03-29T14:37:51Z</time></trkpt><trkpt lat="44.23966006509087" lon="11.746077690788802"><ele>116.50000000000001</ele><time>2026-03-29T14:37:54Z</time></trkpt><trkpt lat="44.239751907973066" lon="11.746078350729118"><ele>118.0</ele><time>2026-03-29T14:37:57Z</time></trkpt><trkpt lat="44.23981654476829" lon="11.746070897682952"><ele>116.00000000000001</ele><time>2026-03-29T14:37:59Z</time></trkpt><trkpt lat="44.239902985027356" lon="11.746031263023683"><ele>114.0</ele><time>2026-03-29T14:38:02Z</time></trkpt><trkpt lat="44.23996435439638" lon="11.745998470673156"><ele>112.0</ele><time>2026-03-29T14:38:04Z</time></trkpt><trkpt lat="44.240021822947476" lon="11.745942792041197"><ele>110.0</ele><time>2026-03-29T14:38:09Z</time></trkpt><trkpt lat="44.240099671288576" lon="11.745890395162"><ele>108.00000000000001</ele><time>2026-03-29T14:38:12Z</time></trkpt><trkpt lat="44.24017312105798" lon="11.745871447481962"><ele>106.0</ele><time>2026-03-29T14:38:15Z</time></trkpt><trkpt lat="44.24024077409927" lon="11.745855947040557"><ele>106.0</ele><time>2026-03-29T14:38:17Z</time></trkpt><trkpt lat="44.24029218476298" lon="11.745790791739001"><ele>106.0</ele><time>2026-03-29T14:38:19Z</time></trkpt><trkpt lat="44.24036345802992" lon="11.745724365962555"><ele>106.0</ele><time>2026-03-29T14:38:21Z</time></trkpt><trkpt lat="44.24041907199531" lon="11.745681610813964"><ele>106.0</ele><time>2026-03-29T14:38:22Z</time></trkpt><trkpt lat="44.24047701880766" lon="11.745640992293492"><ele>106.0</ele><time>2026-03-29T14:38:23Z</time></trkpt><trkpt lat="44.2405380791001" lon="11.745603586639783"><ele>106.0</ele><time>2026-03-29T14:38:24Z</time></trkpt><trkpt lat="44.240594928308425" lon="11.745565564785124"><ele>106.0</ele><time>2026-03-29T14:38:25Z</time></trkpt><trkpt lat="44.240700525845654" lon="11.745499304795255"><ele>106.4</ele><time>2026-03-29T14:38:27Z</time></trkpt><trkpt lat="44.24080874963582" lon="11.745440727137243"><ele>106.8</ele><time>2026-03-29T14:38:29Z</time></trkpt><trkpt lat="44.24089984603661" lon="11.745379309154254"><ele>107.20000000000002</ele><time>2026-03-29T14:38:31Z</time></trkpt><trkpt lat="44.2409598861078" lon="11.74533540263013"><ele>107.60000000000001</ele><time>2026-03-29T14:38:33Z</time></trkpt><trkpt lat="44.24103942608648" lon="11.745279862111211"><ele>108.0</ele><time>2026-03-29T14:38:36Z</time></trkpt><trkpt lat="44.240976002647194" lon="11.74536157044345"><ele>108.0</ele><time>2026-03-29T14:39:30.999Z</time></trkpt><trkpt lat="44.240911484163604" lon="11.745397763639476"><ele>108.00000000000001</ele><time>2026-03-29T14:39:31.999Z</time></trkpt><trkpt lat="44.24080026810442" lon="11.745470394882505"><ele>108.00000000000001</ele><time>2026-03-29T14:39:33.999Z</time></trkpt><trkpt lat="44.24072043354622" lon="11.745451767775748"><ele>108.0</ele><time>2026-03-29T14:39:34.999Z</time></trkpt><trkpt lat="44.240605514968905" lon="11.74552051892251"><ele>108.0</ele><time>2026-03-29T14:39:36.999Z</time></trkpt><trkpt lat="44.24053659254052" lon="11.74556175242888"><ele>107.66666666666667</ele><time>2026-03-29T14:39:37.999Z</time></trkpt><trkpt lat="44.24047835275031" lon="11.745595691047171"><ele>107.33333333333334</ele><time>2026-03-29T14:39:38.999Z</time></trkpt><trkpt lat="44.24041254126175" lon="11.745633081183465"><ele>107.0</ele><time>2026-03-29T14:39:39.999Z</time></trkpt><trkpt lat="44.24034635518495" lon="11.745675173672481"><ele>106.66666666666667</ele><time>2026-03-29T14:39:40.999Z</time></trkpt><trkpt lat="44.24029430672507" lon="11.7457594691406"><ele>106.33333333333334</ele><time>2026-03-29T14:39:41.999Z</time></trkpt><trkpt lat="44.24023691781776" lon="11.745811710230887"><ele>106.0</ele><time>2026-03-29T14:39:42.999Z</time></trkpt><trkpt lat="44.240178707451946" lon="11.74593744960801"><ele>106.0</ele><time>2026-03-29T14:39:44.999Z</time></trkpt><trkpt lat="44.24008642390821" lon="11.745946928177462"><ele>106.0</ele><time>2026-03-29T14:39:46.999Z</time></trkpt><trkpt lat="44.24008004169036" lon="11.74609367050549"><ele>106.0</ele><time>2026-03-29T14:39:49.998Z</time></trkpt><trkpt lat="44.239941479407385" lon="11.745999713175609"><ele>106.0</ele><time>2026-03-29T14:39:50.998Z</time></trkpt><trkpt lat="44.23984396489266" lon="11.746046443962111"><ele>106.50000000000001</ele><time>2026-03-29T14:39:52.998Z</time></trkpt><trkpt lat="44.239732561205756" lon="11.746070468214555"><ele>107.0</ele><time>2026-03-29T14:39:55Z</time></trkpt><trkpt lat="44.23965781912648" lon="11.746067733628134"><ele>107.5</ele><time>2026-03-29T14:39:56Z</time></trkpt><trkpt lat="44.2395864010099" lon="11.74605926669492"><ele>108.0</ele><time>2026-03-29T14:39:57Z</time></trkpt><trkpt lat="44.239517117973065" lon="11.74604312774689"><ele>108.50000000000001</ele><time>2026-03-29T14:39:58Z</time></trkpt><trkpt lat="44.239441993372154" lon="11.746044399584052"><ele>109.0</ele><time>2026-03-29T14:39:59Z</time></trkpt><trkpt lat="44.239377113128356" lon="11.746017995697658"><ele>109.00000000000001</ele><time>2026-03-29T14:40:00Z</time></trkpt><trkpt lat="44.23932312748998" lon="11.745944197007535"><ele>109.0</ele><time>2026-03-29T14:40:01Z</time></trkpt><trkpt lat="44.23931087461535" lon="11.745849287578402"><ele>109.0</ele><time>2026-03-29T14:40:02Z</time></trkpt><trkpt lat="44.239302446940926" lon="11.745735763304339"><ele>109.0</ele><time>2026-03-29T14:40:03Z</time></trkpt><trkpt lat="44.23928821526667" lon="11.745624745317238"><ele>109.00000000000001</ele><time>2026-03-29T14:40:04Z</time></trkpt><trkpt lat="44.23927972338764" lon="11.745504916359293"><ele>109.0</ele><time>2026-03-29T14:40:05Z</time></trkpt><trkpt lat="44.239262565657796" lon="11.745389144808744"><ele>109.00000000000001</ele><time>2026-03-29T14:40:06Z</time></trkpt><trkpt lat="44.23921867587417" lon="11.745280495668512"><ele>109.0</ele><time>2026-03-29T14:40:07Z</time></trkpt><trkpt lat="44.23916667490002" lon="11.74519490791125"><ele>109.0</ele><time>2026-03-29T14:40:08Z</time></trkpt><trkpt lat="44.23911604587309" lon="11.745089511579058"><ele>109.0</ele><time>2026-03-29T14:40:09Z</time></trkpt><trkpt lat="44.23906371409135" lon="11.745005158944583"><ele>109.00000000000001</ele><time>2026-03-29T14:40:10Z</time></trkpt><trkpt lat="44.239001800777416" lon="11.744922121969221"><ele>109.0</ele><time>2026-03-29T14:40:11Z</time></trkpt><trkpt lat="44.2389423924069" lon="11.744834778017275"><ele>112.50000000000001</ele><time>2026-03-29T14:40:12Z</time></trkpt><trkpt lat="44.23887652000403" lon="11.744753458553078"><ele>116.0</ele><time>2026-03-29T14:40:13Z</time></trkpt><trkpt lat="44.2388074063433" lon="11.744670027375841"><ele>119.5</ele><time>2026-03-29T14:40:14Z</time></trkpt><trkpt lat="44.23874805509481" lon="11.744580532719484"><ele>123.0</ele><time>2026-03-29T14:40:15Z</time></trkpt><trkpt lat="44.238698299759534" lon="11.744518726370616"><ele>126.50000000000001</ele><time>2026-03-29T14:40:16Z</time></trkpt><trkpt lat="44.2386359621609" lon="11.744437124056658"><ele>130.0</ele><time>2026-03-29T14:40:17Z</time></trkpt><trkpt lat="44.23857944903191" lon="11.744346130460459"><ele>130.0</ele><time>2026-03-29T14:40:18Z</time></trkpt><trkpt lat="44.23852849027749" lon="11.744255673684718"><ele>130.0</ele><time>2026-03-29T14:40:19Z</time></trkpt><trkpt lat="44.23847040003017" lon="11.74414083906029"><ele>130.0</ele><time>2026-03-29T14:40:21Z</time></trkpt><trkpt lat="44.238419444097424" lon="11.743981147473043"><ele>130.0</ele><time>2026-03-29T14:40:23Z</time></trkpt><trkpt lat="44.23843070144938" lon="11.743849181527722"><ele>130.0</ele><time>2026-03-29T14:40:25Z</time></trkpt><trkpt lat="44.23845691103004" lon="11.743679673008689"><ele>129.8</ele><time>2026-03-29T14:40:27Z</time></trkpt><trkpt lat="44.238467070125715" lon="11.743525297462343"><ele>129.6</ele><time>2026-03-29T14:40:29Z</time></trkpt><trkpt lat="44.23847897600369" lon="11.743362834371785"><ele>129.4</ele><time>2026-03-29T14:40:31Z</time></trkpt><trkpt lat="44.23842097993543" lon="11.743240429966349"><ele>129.2</ele><time>2026-03-29T14:40:33Z</time></trkpt><trkpt lat="44.23835846095703" lon="11.743139137282954"><ele>129.0</ele><time>2026-03-29T14:40:35Z</time></trkpt><trkpt lat="44.23827135391338" lon="11.743011490705218"><ele>129.0</ele><time>2026-03-29T14:40:37Z</time></trkpt><trkpt lat="44.23818995805962" lon="11.742918142750572"><ele>129.0</ele><time>2026-03-29T14:40:38Z</time></trkpt><trkpt lat="44.23813776445383" lon="11.742865945600714"><ele>129.0</ele><time>2026-03-29T14:40:39Z</time></trkpt><trkpt lat="44.23808905780876" lon="11.742803047002885"><ele>129.0</ele><time>2026-03-29T14:40:40Z</time></trkpt><trkpt lat="44.238030858560215" lon="11.742709148685805"><ele>129.0</ele><time>2026-03-29T14:40:41Z</time></trkpt><trkpt lat="44.23798130671369" lon="11.742631890033145"><ele>129.0</ele><time>2026-03-29T14:40:42Z</time></trkpt><trkpt lat="44.2379431883302" lon="11.742550462299837"><ele>131.8</ele><time>2026-03-29T14:40:43Z</time></trkpt><trkpt lat="44.23791086141674" lon="11.742468408245447"><ele>134.60000000000002</ele><time>2026-03-29T14:40:44Z</time></trkpt><trkpt lat="44.237879399731526" lon="11.742390574721304"><ele>137.4</ele><time>2026-03-29T14:40:44.999Z</time></trkpt><trkpt lat="44.23780859735307" lon="11.742258703266568"><ele>140.20000000000002</ele><time>2026-03-29T14:40:46.999Z</time></trkpt><trkpt lat="44.23771821454823" lon="11.742142021145453"><ele>143.0</ele><time>2026-03-29T14:40:48.999Z</time></trkpt><trkpt lat="44.23761442197505" lon="11.742035955472687"><ele>143.0</ele><time>2026-03-29T14:40:50.999Z</time></trkpt><trkpt lat="44.23752235436364" lon="11.741939677584126"><ele>143.0</ele><time>2026-03-29T14:40:52.999Z</time></trkpt><trkpt lat="44.237482472664944" lon="11.741858766748708"><ele>143.0</ele><time>2026-03-29T14:40:53.999Z</time></trkpt><trkpt lat="44.23743983783655" lon="11.741772472976242"><ele>143.0</ele><time>2026-03-29T14:40:54.999Z</time></trkpt><trkpt lat="44.23740287031608" lon="11.741694791525894"><ele>143.0</ele><time>2026-03-29T14:40:55.999Z</time></trkpt><trkpt lat="44.23736598533141" lon="11.741621635590652"><ele>143.0</ele><time>2026-03-29T14:40:56.999Z</time></trkpt><trkpt lat="44.23729340876435" lon="11.741478561039017"><ele>145.57142857142856</ele><time>2026-03-29T14:40:58.999Z</time></trkpt><trkpt lat="44.23725359795755" lon="11.741403054692032"><ele>148.14285714285714</ele><time>2026-03-29T14:40:59.999Z</time></trkpt><trkpt lat="44.23721604252672" lon="11.741328038754995"><ele>150.71428571428572</ele><time>2026-03-29T14:41:00.999Z</time></trkpt><trkpt lat="44.23717840144629" lon="11.741254278488672"><ele>153.28571428571428</ele><time>2026-03-29T14:41:01.999Z</time></trkpt><trkpt lat="44.2371425156066" lon="11.7411766482013"><ele>155.85714285714286</ele><time>2026-03-29T14:41:02.999Z</time></trkpt><trkpt lat="44.237093719261395" lon="11.741097073847623"><ele>158.42857142857142</ele><time>2026-03-29T14:41:03.999Z</time></trkpt><trkpt lat="44.23705155148174" lon="11.741017175787409"><ele>161.0</ele><time>2026-03-29T14:41:04.999Z</time></trkpt><trkpt lat="44.23700198625483" lon="11.740941685105954"><ele>161.16666666666666</ele><time>2026-03-29T14:41:05.999Z</time></trkpt><trkpt lat="44.23695110546868" lon="11.740880240348483"><ele>161.33333333333331</ele><time>2026-03-29T14:41:06.999Z</time></trkpt><trkpt lat="44.23689844627824" lon="11.740824114253709"><ele>161.5</ele><time>2026-03-29T14:41:07.999Z</time></trkpt><trkpt lat="44.2368089144305" lon="11.740707049464586"><ele>161.66666666666666</ele><time>2026-03-29T14:41:09.999Z</time></trkpt><trkpt lat="44.23674351852554" lon="11.740614019500796"><ele>161.83333333333334</ele><time>2026-03-29T14:41:11.999Z</time></trkpt><trkpt lat="44.23666501457081" lon="11.740632478691316"><ele>162.0</ele><time>2026-03-29T14:41:13.999Z</time></trkpt><trkpt lat="44.23661900559652" lon="11.740693130265743"><ele>162.0</ele><time>2026-03-29T14:41:14.999Z</time></trkpt><trkpt lat="44.23657501739546" lon="11.740765442530776"><ele>162.0</ele><time>2026-03-29T14:41:15.999Z</time></trkpt><trkpt lat="44.23650180352352" lon="11.740838561823093"><ele>162.0</ele><time>2026-03-29T14:41:17.999Z</time></trkpt><trkpt lat="44.2364331920917" lon="11.74088702502422"><ele>162.0</ele><time>2026-03-29T14:41:19.999Z</time></trkpt><trkpt lat="44.23636416947658" lon="11.740989559563861"><ele>162.0</ele><time>2026-03-29T14:41:22.999Z</time></trkpt><trkpt lat="44.23627503465985" lon="11.741062411854145"><ele>162.0</ele><time>2026-03-29T14:41:24.999Z</time></trkpt><trkpt lat="44.23616300144867" lon="11.74114035014131"><ele>164.66666666666666</ele><time>2026-03-29T14:41:26.999Z</time></trkpt><trkpt lat="44.236064246055875" lon="11.741228499924446"><ele>167.33333333333334</ele><time>2026-03-29T14:41:28.999Z</time></trkpt><trkpt lat="44.235958521907456" lon="11.741321260045304"><ele>170.0</ele><time>2026-03-29T14:41:30.999Z</time></trkpt><trkpt lat="44.235903806783874" lon="11.741366500215307"><ele>172.66666666666669</ele><time>2026-03-29T14:41:31.999Z</time></trkpt><trkpt lat="44.23585090744957" lon="11.741423483683352"><ele>175.33333333333334</ele><time>2026-03-29T14:41:32.999Z</time></trkpt><trkpt lat="44.235792195050344" lon="11.741465851687305"><ele>178.0</ele><time>2026-03-29T14:41:33.999Z</time></trkpt><trkpt lat="44.235734856312995" lon="11.741509823794983"><ele>182.4</ele><time>2026-03-29T14:41:34.999Z</time></trkpt><trkpt lat="44.23563371653042" lon="11.7416009422519"><ele>186.8</ele><time>2026-03-29T14:41:36.999Z</time></trkpt><trkpt lat="44.235548131521995" lon="11.741671467515213"><ele>191.2</ele><time>2026-03-29T14:41:38.999Z</time></trkpt><trkpt lat="44.23548666681523" lon="11.74173000635395"><ele>195.6</ele><time>2026-03-29T14:41:40.999Z</time></trkpt><trkpt lat="44.23546002103193" lon="11.741843746746135"><ele>200.0</ele><time>2026-03-29T14:41:42.999Z</time></trkpt><trkpt lat="44.23551182414477" lon="11.741968082782888"><ele>201.00000000000003</ele><time>2026-03-29T14:41:44.999Z</time></trkpt><trkpt lat="44.23555410335685" lon="11.742066878508433"><ele>202.0</ele><time>2026-03-29T14:41:46.999Z</time></trkpt><trkpt lat="44.235567234617484" lon="11.742168723361173"><ele>203.0</ele><time>2026-03-29T14:41:49.999Z</time></trkpt><trkpt lat="44.235604262910456" lon="11.7422498900118"><ele>204.0</ele><time>2026-03-29T14:41:51.999Z</time></trkpt><trkpt lat="44.23560262611923" lon="11.742358394055266"><ele>205.00000000000003</ele><time>2026-03-29T14:41:53.999Z</time></trkpt><trkpt lat="44.23551729171753" lon="11.742449782975028"><ele>206.0</ele><time>2026-03-29T14:41:55.998Z</time></trkpt><trkpt lat="44.23543510445813" lon="11.742572164826584"><ele>206.0</ele><time>2026-03-29T14:41:57.998Z</time></trkpt><trkpt lat="44.235357026527325" lon="11.742688293054107"><ele>206.0</ele><time>2026-03-29T14:41:59.998Z</time></trkpt><trkpt lat="44.23528539982416" lon="11.74280425188005"><ele>206.0</ele><time>2026-03-29T14:42:02Z</time></trkpt><trkpt lat="44.23521581773257" lon="11.742917081390233"><ele>206.0</ele><time>2026-03-29T14:42:04Z</time></trkpt><trkpt lat="44.235150568858565" lon="11.742994630185837"><ele>206.0</ele><time>2026-03-29T14:42:06Z</time></trkpt><trkpt lat="44.23505673899013" lon="11.743001350981872"><ele>206.60000000000002</ele><time>2026-03-29T14:42:08Z</time></trkpt><trkpt lat="44.23500428644678" lon="11.742929466892459"><ele>207.2</ele><time>2026-03-29T14:42:10Z</time></trkpt><trkpt lat="44.23490172803737" lon="11.742856496128352"><ele>207.8</ele><time>2026-03-29T14:42:12Z</time></trkpt><trkpt lat="44.23478528475719" lon="11.742825383355077"><ele>208.39999999999998</ele><time>2026-03-29T14:42:14Z</time></trkpt><trkpt lat="44.23466558662275" lon="11.742787866116094"><ele>209.0</ele><time>2026-03-29T14:42:16Z</time></trkpt><trkpt lat="44.234603378186236" lon="11.742774119720199"><ele>211.42857142857142</ele><time>2026-03-29T14:42:17Z</time></trkpt><trkpt lat="44.23453447859284" lon="11.742768983164321"><ele>213.85714285714283</ele><time>2026-03-29T14:42:18Z</time></trkpt><trkpt lat="44.23446674253507" lon="11.742766260881666"><ele>216.28571428571428</ele><time>2026-03-29T14:42:19Z</time></trkpt><trkpt lat="44.2343940556875" lon="11.742772978665903"><ele>218.71428571428572</ele><time>2026-03-29T14:42:20Z</time></trkpt><trkpt lat="44.234319990597115" lon="11.742783859381163"><ele>221.14285714285714</ele><time>2026-03-29T14:42:21Z</time></trkpt><trkpt lat="44.23424493396767" lon="11.742798533022047"><ele>223.57142857142858</ele><time>2026-03-29T14:42:22Z</time></trkpt><trkpt lat="44.23416195824383" lon="11.742805745911552"><ele>226.0</ele><time>2026-03-29T14:42:23Z</time></trkpt><trkpt lat="44.23408853211908" lon="11.742809136890724"><ele>225.99999999999997</ele><time>2026-03-29T14:42:24Z</time></trkpt><trkpt lat="44.23401595450556" lon="11.742819976633529"><ele>226.0</ele><time>2026-03-29T14:42:25Z</time></trkpt><trkpt lat="44.23394328142183" lon="11.742838124067651"><ele>226.0</ele><time>2026-03-29T14:42:26Z</time></trkpt><trkpt lat="44.2338734616116" lon="11.742862705248374"><ele>226.0</ele><time>2026-03-29T14:42:27Z</time></trkpt><trkpt lat="44.233778850284885" lon="11.74288052700129"><ele>225.99999999999997</ele><time>2026-03-29T14:42:29Z</time></trkpt><trkpt lat="44.233697418448806" lon="11.742883518316606"><ele>226.0</ele><time>2026-03-29T14:42:31Z</time></trkpt><trkpt lat="44.23363221142019" lon="11.742804271245125"><ele>227.28571428571428</ele><time>2026-03-29T14:42:34Z</time></trkpt><trkpt lat="44.233599039833386" lon="11.742725250686885"><ele>228.57142857142856</ele><time>2026-03-29T14:42:36Z</time></trkpt><trkpt lat="44.23355781788774" lon="11.742636054526395"><ele>229.85714285714283</ele><time>2026-03-29T14:42:38Z</time></trkpt><trkpt lat="44.23351033108084" lon="11.742557502219586"><ele>231.14285714285714</ele><time>2026-03-29T14:42:40Z</time></trkpt><trkpt lat="44.23347061411745" lon="11.742465056519894"><ele>232.4285714285714</ele><time>2026-03-29T14:42:42Z</time></trkpt><trkpt lat="44.23346548911234" lon="11.74237602091664"><ele>233.7142857142857</ele><time>2026-03-29T14:42:44Z</time></trkpt><trkpt lat="44.23342081313907" lon="11.742308817510537"><ele>235.0</ele><time>2026-03-29T14:42:47Z</time></trkpt><trkpt lat="44.23335638562627" lon="11.742265076638615"><ele>236.49999999999997</ele><time>2026-03-29T14:42:49Z</time></trkpt><trkpt lat="44.23328826626537" lon="11.742244036344536"><ele>238.0</ele><time>2026-03-29T14:42:50.999Z</time></trkpt><trkpt lat="44.23320914900785" lon="11.74219875270718"><ele>239.5</ele><time>2026-03-29T14:42:52.999Z</time></trkpt><trkpt lat="44.23315853307825" lon="11.742106750547498"><ele>241.0</ele><time>2026-03-29T14:42:54.999Z</time></trkpt><trkpt lat="44.23309107342412" lon="11.742080118923589"><ele>242.49999999999997</ele><time>2026-03-29T14:42:56.999Z</time></trkpt><trkpt lat="44.23300188287905" lon="11.742066165238638"><ele>244.0</ele><time>2026-03-29T14:42:58.999Z</time></trkpt><trkpt lat="44.23291964888098" lon="11.742054325430319"><ele>245.39999999999998</ele><time>2026-03-29T14:43:00.999Z</time></trkpt><trkpt lat="44.232825634215814" lon="11.742022940682421"><ele>246.79999999999998</ele><time>2026-03-29T14:43:02.999Z</time></trkpt><trkpt lat="44.232716408507514" lon="11.742024033091756"><ele>248.20000000000002</ele><time>2026-03-29T14:43:04.999Z</time></trkpt><trkpt lat="44.232624613148054" lon="11.742019162233783"><ele>249.60000000000002</ele><time>2026-03-29T14:43:06.999Z</time></trkpt><trkpt lat="44.23255415352951" lon="11.742003147974804"><ele>251.0</ele><time>2026-03-29T14:43:10.999Z</time></trkpt><trkpt lat="44.23268082307219" lon="11.741916770816793"><ele>254.60000000000002</ele><time>2026-03-29T14:44:27Z</time></trkpt><trkpt lat="44.2327612361568" lon="11.741868626246701"><ele>258.20000000000005</ele><time>2026-03-29T14:44:28Z</time></trkpt><trkpt lat="44.232839825993516" lon="11.741794121080428"><ele>261.79999999999995</ele><time>2026-03-29T14:44:29Z</time></trkpt><trkpt lat="44.23291346250589" lon="11.741719046958465"><ele>265.4</ele><time>2026-03-29T14:44:30Z</time></trkpt><trkpt lat="44.23298864736051" lon="11.741653330217854"><ele>269.0</ele><time>2026-03-29T14:44:31Z</time></trkpt><trkpt lat="44.23305472050226" lon="11.741565135543514"><ele>269.0</ele><time>2026-03-29T14:44:32Z</time></trkpt><trkpt lat="44.233105424548626" lon="11.741452725115582"><ele>269.0</ele><time>2026-03-29T14:44:33Z</time></trkpt><trkpt lat="44.233119351838546" lon="11.741341703053838"><ele>269.0</ele><time>2026-03-29T14:44:34Z</time></trkpt><trkpt lat="44.23311501750745" lon="11.741223747252018"><ele>269.0</ele><time>2026-03-29T14:44:35Z</time></trkpt><trkpt lat="44.23310270687487" lon="11.741109882731724"><ele>269.0</ele><time>2026-03-29T14:44:36Z</time></trkpt><trkpt lat="44.233080086970936" lon="11.74098680064254"><ele>269.0</ele><time>2026-03-29T14:44:37Z</time></trkpt><trkpt lat="44.23304990873065" lon="11.740868013957568"><ele>269.0</ele><time>2026-03-29T14:44:38Z</time></trkpt><trkpt lat="44.23301547517778" lon="11.740748402927256"><ele>269.0</ele><time>2026-03-29T14:44:39Z</time></trkpt><trkpt lat="44.23298445245891" lon="11.740623582409196"><ele>269.0</ele><time>2026-03-29T14:44:40Z</time></trkpt><trkpt lat="44.23296750039683" lon="11.740487608820741"><ele>269.0</ele><time>2026-03-29T14:44:41Z</time></trkpt><trkpt lat="44.232975997495004" lon="11.740293183173966"><ele>269.0</ele><time>2026-03-29T14:44:42Z</time></trkpt><trkpt lat="44.23295892621982" lon="11.740121921450138"><ele>268.4</ele><time>2026-03-29T14:44:43Z</time></trkpt><trkpt lat="44.23297007631602" lon="11.73999006157923"><ele>267.79999999999995</ele><time>2026-03-29T14:44:44Z</time></trkpt><trkpt lat="44.23298840296148" lon="11.73986648197271"><ele>267.20000000000005</ele><time>2026-03-29T14:44:45Z</time></trkpt><trkpt lat="44.233011859178255" lon="11.73972014873412"><ele>266.6</ele><time>2026-03-29T14:44:46Z</time></trkpt><trkpt lat="44.23305615867697" lon="11.739573043128907"><ele>266.0</ele><time>2026-03-29T14:44:47Z</time></trkpt><trkpt lat="44.2331053035789" lon="11.739440484979248"><ele>263.0</ele><time>2026-03-29T14:44:48Z</time></trkpt><trkpt lat="44.233184347423496" lon="11.739314992259287"><ele>260.0</ele><time>2026-03-29T14:44:49Z</time></trkpt><trkpt lat="44.2332558771205" lon="11.739179532512255"><ele>257.0</ele><time>2026-03-29T14:44:50Z</time></trkpt><trkpt lat="44.23332498011183" lon="11.739046832765565"><ele>254.0</ele><time>2026-03-29T14:44:51Z</time></trkpt><trkpt lat="44.23338476605904" lon="11.738919102836526"><ele>254.0</ele><time>2026-03-29T14:44:51.999Z</time></trkpt><trkpt lat="44.23344881991322" lon="11.738815813466264"><ele>253.99999999999997</ele><time>2026-03-29T14:44:52.999Z</time></trkpt><trkpt lat="44.23352214527935" lon="11.73872717782151"><ele>253.99999999999997</ele><time>2026-03-29T14:44:53.999Z</time></trkpt><trkpt lat="44.23361174159781" lon="11.738669683149604"><ele>254.0</ele><time>2026-03-29T14:44:54.999Z</time></trkpt><trkpt lat="44.2337135365162" lon="11.738628625389463"><ele>254.0</ele><time>2026-03-29T14:44:55.999Z</time></trkpt><trkpt lat="44.23380956966373" lon="11.738588089787651"><ele>252.2</ele><time>2026-03-29T14:44:56.999Z</time></trkpt><trkpt lat="44.23390108664567" lon="11.738539139859125"><ele>250.39999999999998</ele><time>2026-03-29T14:44:57.999Z</time></trkpt><trkpt lat="44.234000611246834" lon="11.738487207607738"><ele>248.6</ele><time>2026-03-29T14:44:58.999Z</time></trkpt><trkpt lat="44.2340873169378" lon="11.738417290580195"><ele>246.8</ele><time>2026-03-29T14:44:59.999Z</time></trkpt><trkpt lat="44.234174631853065" lon="11.738340338264294"><ele>245.0</ele><time>2026-03-29T14:45:00.999Z</time></trkpt><trkpt lat="44.23426578817352" lon="11.738263165776353"><ele>245.0</ele><time>2026-03-29T14:45:01.999Z</time></trkpt><trkpt lat="44.23435296348999" lon="11.738186583574075"><ele>245.0</ele><time>2026-03-29T14:45:02.999Z</time></trkpt><trkpt lat="44.23445262784878" lon="11.738107050108535"><ele>245.0</ele><time>2026-03-29T14:45:03.999Z</time></trkpt><trkpt lat="44.23455037915089" lon="11.738027152047879"><ele>245.0</ele><time>2026-03-29T14:45:04.999Z</time></trkpt><trkpt lat="44.234661166318624" lon="11.737984766702791"><ele>245.0</ele><time>2026-03-29T14:45:05.999Z</time></trkpt><trkpt lat="44.23481212582967" lon="11.737985608558198"><ele>241.75</ele><time>2026-03-29T14:45:06.999Z</time></trkpt><trkpt lat="44.23494140742495" lon="11.737994407377045"><ele>238.5</ele><time>2026-03-29T14:45:07.999Z</time></trkpt><trkpt lat="44.235074332283446" lon="11.73794462049704"><ele>235.25</ele><time>2026-03-29T14:45:08.999Z</time></trkpt><trkpt lat="44.235199363531216" lon="11.73785023638384"><ele>232.0</ele><time>2026-03-29T14:45:09.999Z</time></trkpt><trkpt lat="44.23532988296429" lon="11.73775239980017"><ele>231.75</ele><time>2026-03-29T14:45:10.999Z</time></trkpt><trkpt lat="44.2354560676801" lon="11.73765938197103"><ele>231.5</ele><time>2026-03-29T14:45:11.999Z</time></trkpt><trkpt lat="44.235577200603984" lon="11.737575514892047"><ele>231.25</ele><time>2026-03-29T14:45:12.999Z</time></trkpt><trkpt lat="44.23569245074749" lon="11.737497451611665"><ele>231.0</ele><time>2026-03-29T14:45:13.999Z</time></trkpt><trkpt lat="44.23580261061537" lon="11.737430992010824"><ele>231.0</ele><time>2026-03-29T14:45:14.999Z</time></trkpt><trkpt lat="44.23591699608322" lon="11.737358402933921"><ele>231.0</ele><time>2026-03-29T14:45:15.999Z</time></trkpt><trkpt lat="44.236036428769964" lon="11.737288279297175"><ele>231.0</ele><time>2026-03-29T14:45:16.999Z</time></trkpt><trkpt lat="44.236160938193045" lon="11.737225159859177"><ele>231.0</ele><time>2026-03-29T14:45:17.999Z</time></trkpt><trkpt lat="44.2362907978642" lon="11.737178188635374"><ele>231.0</ele><time>2026-03-29T14:45:18.999Z</time></trkpt><trkpt lat="44.23642179179578" lon="11.737137776902479"><ele>231.0</ele><time>2026-03-29T14:45:19.999Z</time></trkpt><trkpt lat="44.23653856558134" lon="11.737115035236053"><ele>231.0</ele><time>2026-03-29T14:45:20.999Z</time></trkpt><trkpt lat="44.236643984887884" lon="11.737093599895713"><ele>231.0</ele><time>2026-03-29T14:45:21.999Z</time></trkpt><trkpt lat="44.236739262571135" lon="11.737089947281678"><ele>229.20000000000002</ele><time>2026-03-29T14:45:22.999Z</time></trkpt><trkpt lat="44.23683576813293" lon="11.737079661438353"><ele>227.40000000000003</ele><time>2026-03-29T14:45:23.999Z</time></trkpt><trkpt lat="44.23692711851366" lon="11.73706400067924"><ele>225.6</ele><time>2026-03-29T14:45:24.999Z</time></trkpt><trkpt lat="44.2370232585002" lon="11.737046898606286"><ele>223.8</ele><time>2026-03-29T14:45:25.999Z</time></trkpt><trkpt lat="44.23712442458389" lon="11.737034493755106"><ele>222.0</ele><time>2026-03-29T14:45:26.999Z</time></trkpt><trkpt lat="44.23722211558706" lon="11.737044137504641"><ele>221.2</ele><time>2026-03-29T14:45:27.999Z</time></trkpt><trkpt lat="44.23731774827667" lon="11.737109238719599"><ele>220.39999999999998</ele><time>2026-03-29T14:45:28.999Z</time></trkpt><trkpt lat="44.23738534488573" lon="11.737219906367793"><ele>219.60000000000002</ele><time>2026-03-29T14:45:29.999Z</time></trkpt><trkpt lat="44.23743543627187" lon="11.737359997315977"><ele>218.8</ele><time>2026-03-29T14:45:30.999Z</time></trkpt><trkpt lat="44.237490850926946" lon="11.737503268549348"><ele>218.0</ele><time>2026-03-29T14:45:31.999Z</time></trkpt><trkpt lat="44.2375578584221" lon="11.737645222943813"><ele>217.25</ele><time>2026-03-29T14:45:32.999Z</time></trkpt><trkpt lat="44.23763636636194" lon="11.737781549692542"><ele>216.5</ele><time>2026-03-29T14:45:33.999Z</time></trkpt><trkpt lat="44.23772614074276" lon="11.737906685799258"><ele>215.75</ele><time>2026-03-29T14:45:34.999Z</time></trkpt><trkpt lat="44.23783549035743" lon="11.738010674666404"><ele>215.0</ele><time>2026-03-29T14:45:35.999Z</time></trkpt><trkpt lat="44.23796141607588" lon="11.7380907440148"><ele>215.0</ele><time>2026-03-29T14:45:36.999Z</time></trkpt><trkpt lat="44.23810907937673" lon="11.738133228207188"><ele>215.0</ele><time>2026-03-29T14:45:37.999Z</time></trkpt><trkpt lat="44.23824873313615" lon="11.738206663349708"><ele>215.0</ele><time>2026-03-29T14:45:38.999Z</time></trkpt><trkpt lat="44.2383891013202" lon="11.738290369547846"><ele>214.75</ele><time>2026-03-29T14:45:39.999Z</time></trkpt><trkpt lat="44.23852304012916" lon="11.738362430019615"><ele>214.5</ele><time>2026-03-29T14:45:40.999Z</time></trkpt><trkpt lat="44.23863547492263" lon="11.738437442045116"><ele>214.25</ele><time>2026-03-29T14:45:41.999Z</time></trkpt><trkpt lat="44.23873339109578" lon="11.738504734531684"><ele>214.0</ele><time>2026-03-29T14:45:42.999Z</time></trkpt><trkpt lat="44.23882383261474" lon="11.73859995562277"><ele>212.79999999999998</ele><time>2026-03-29T14:45:43.999Z</time></trkpt><trkpt lat="44.23888945767538" lon="11.738727033250772"><ele>211.59999999999997</ele><time>2026-03-29T14:45:44.999Z</time></trkpt><trkpt lat="44.23892710040627" lon="11.73888168748867"><ele>210.4</ele><time>2026-03-29T14:45:45.999Z</time></trkpt><trkpt lat="44.23894379421112" lon="11.739034438655663"><ele>209.2</ele><time>2026-03-29T14:45:46.999Z</time></trkpt><trkpt lat="44.23896471843772" lon="11.739153095472128"><ele>208.0</ele><time>2026-03-29T14:45:47.999Z</time></trkpt><trkpt lat="44.239026825059796" lon="11.739234588279347"><ele>208.0</ele><time>2026-03-29T14:45:48.999Z</time></trkpt><trkpt lat="44.239119891646276" lon="11.739258265386786"><ele>208.0</ele><time>2026-03-29T14:45:49.999Z</time></trkpt><trkpt lat="44.239206545494504" lon="11.739214653558808"><ele>208.0</ele><time>2026-03-29T14:45:50.999Z</time></trkpt><trkpt lat="44.239263345764634" lon="11.739111744811131"><ele>208.0</ele><time>2026-03-29T14:45:51.999Z</time></trkpt><trkpt lat="44.23930249772318" lon="11.738982599784356"><ele>208.0</ele><time>2026-03-29T14:45:52.999Z</time></trkpt><trkpt lat="44.239269025871536" lon="11.738834699944782"><ele>208.0</ele><time>2026-03-29T14:45:53.999Z</time></trkpt><trkpt lat="44.239233476520994" lon="11.738668759603334"><ele>208.0</ele><time>2026-03-29T14:45:54.999Z</time></trkpt><trkpt lat="44.239206014523326" lon="11.738503330134186"><ele>208.0</ele><time>2026-03-29T14:45:55.999Z</time></trkpt><trkpt lat="44.23917377251279" lon="11.738358388102814"><ele>208.0</ele><time>2026-03-29T14:45:56.999Z</time></trkpt><trkpt lat="44.239124011412734" lon="11.738229670860735"><ele>207.4</ele><time>2026-03-29T14:45:57.999Z</time></trkpt><trkpt lat="44.239055585415336" lon="11.738125153284754"><ele>206.8</ele><time>2026-03-29T14:45:58.999Z</time></trkpt><trkpt lat="44.23894848304131" lon="11.738067158850116"><ele>206.2</ele><time>2026-03-29T14:45:59.999Z</time></trkpt><trkpt lat="44.238899556573465" lon="11.73798781279603"><ele>205.6</ele><time>2026-03-29T14:46:00.998Z</time></trkpt><trkpt lat="44.238856641493676" lon="11.737912191348178"><ele>205.0</ele><time>2026-03-29T14:46:01.998Z</time></trkpt><trkpt lat="44.238881587893104" lon="11.737739347503348"><ele>205.0</ele><time>2026-03-29T14:46:03.998Z</time></trkpt><trkpt lat="44.23895166433762" lon="11.73767206298252"><ele>205.0</ele><time>2026-03-29T14:46:04.998Z</time></trkpt><trkpt lat="44.23904804870474" lon="11.737681476647632"><ele>205.0</ele><time>2026-03-29T14:46:05.998Z</time></trkpt><trkpt lat="44.23914002845379" lon="11.737754795399827"><ele>205.0</ele><time>2026-03-29T14:46:06.998Z</time></trkpt><trkpt lat="44.23924378890326" lon="11.737850474177868"><ele>205.0</ele><time>2026-03-29T14:46:07.998Z</time></trkpt><trkpt lat="44.23936167826372" lon="11.737951789609527"><ele>205.0</ele><time>2026-03-29T14:46:08.998Z</time></trkpt><trkpt lat="44.23947607001273" lon="11.738052338782818"><ele>205.0</ele><time>2026-03-29T14:46:09.998Z</time></trkpt><trkpt lat="44.23957111837285" lon="11.738173793659293"><ele>205.0</ele><time>2026-03-29T14:46:10.998Z</time></trkpt><trkpt lat="44.23965031451696" lon="11.738317994654436"><ele>205.0</ele><time>2026-03-29T14:46:12Z</time></trkpt><trkpt lat="44.23969834779679" lon="11.738481717377809"><ele>205.75</ele><time>2026-03-29T14:46:13Z</time></trkpt><trkpt lat="44.23974268566118" lon="11.73862437935746"><ele>206.5</ele><time>2026-03-29T14:46:14Z</time></trkpt><trkpt lat="44.239811195942686" lon="11.738728874150388"><ele>207.25</ele><time>2026-03-29T14:46:15Z</time></trkpt><trkpt lat="44.23991776383671" lon="11.738794315286919"><ele>208.0</ele><time>2026-03-29T14:46:16Z</time></trkpt><trkpt lat="44.24005352805651" lon="11.738831843902352"><ele>204.4</ele><time>2026-03-29T14:46:17Z</time></trkpt><trkpt lat="44.24017787950882" lon="11.738840178121725"><ele>200.8</ele><time>2026-03-29T14:46:18Z</time></trkpt><trkpt lat="44.24028728135425" lon="11.738857615071245"><ele>197.2</ele><time>2026-03-29T14:46:19Z</time></trkpt><trkpt lat="44.24039140180193" lon="11.738888445536618"><ele>193.6</ele><time>2026-03-29T14:46:20Z</time></trkpt><trkpt lat="44.24048182343365" lon="11.73895559239077"><ele>190.0</ele><time>2026-03-29T14:46:21Z</time></trkpt><trkpt lat="44.240551759260256" lon="11.739077825935594"><ele>190.0</ele><time>2026-03-29T14:46:22Z</time></trkpt><trkpt lat="44.24057894415001" lon="11.739248321400732"><ele>190.0</ele><time>2026-03-29T14:46:23Z</time></trkpt><trkpt lat="44.2405946107199" lon="11.73938484090786"><ele>190.0</ele><time>2026-03-29T14:46:24Z</time></trkpt><trkpt lat="44.24063020233369" lon="11.739475811457877"><ele>190.0</ele><time>2026-03-29T14:46:25Z</time></trkpt><trkpt lat="44.240711158541856" lon="11.739517808412575"><ele>190.0</ele><time>2026-03-29T14:46:26Z</time></trkpt><trkpt lat="44.240796702547506" lon="11.739494230857247"><ele>187.6</ele><time>2026-03-29T14:46:27Z</time></trkpt><trkpt lat="44.24087644461731" lon="11.739423713002807"><ele>185.2</ele><time>2026-03-29T14:46:28Z</time></trkpt><trkpt lat="44.24093215498287" lon="11.739290949492055"><ele>182.8</ele><time>2026-03-29T14:46:29Z</time></trkpt><trkpt lat="44.24097196260965" lon="11.739134927621267"><ele>180.4</ele><time>2026-03-29T14:46:30Z</time></trkpt><trkpt lat="44.24102267101025" lon="11.739000003335455"><ele>178.0</ele><time>2026-03-29T14:46:31Z</time></trkpt><trkpt lat="44.24104693223005" lon="11.738860495201285"><ele>178.0</ele><time>2026-03-29T14:46:32Z</time></trkpt><trkpt lat="44.2409881340584" lon="11.738715152156322"><ele>178.0</ele><time>2026-03-29T14:46:33Z</time></trkpt><trkpt lat="44.24095117745663" lon="11.738565368361064"><ele>178.0</ele><time>2026-03-29T14:46:34Z</time></trkpt><trkpt lat="44.240897515032884" lon="11.73845497883408"><ele>178.0</ele><time>2026-03-29T14:46:35Z</time></trkpt><trkpt lat="44.240882135748656" lon="11.738336083230426"><ele>178.0</ele><time>2026-03-29T14:46:36Z</time></trkpt><trkpt lat="44.240910937048135" lon="11.738232173295875"><ele>177.4</ele><time>2026-03-29T14:46:37Z</time></trkpt><trkpt lat="44.240983491578966" lon="11.738175602129145"><ele>176.8</ele><time>2026-03-29T14:46:38Z</time></trkpt><trkpt lat="44.24108576409639" lon="11.738196339256694"><ele>176.2</ele><time>2026-03-29T14:46:39Z</time></trkpt><trkpt lat="44.24117412797917" lon="11.738265292016171"><ele>175.6</ele><time>2026-03-29T14:46:40Z</time></trkpt><trkpt lat="44.24126401348082" lon="11.738386586141928"><ele>175.0</ele><time>2026-03-29T14:46:41Z</time></trkpt><trkpt lat="44.24134759175914" lon="11.738539760301403"><ele>175.75</ele><time>2026-03-29T14:46:42Z</time></trkpt><trkpt lat="44.241438970967856" lon="11.738683850518727"><ele>176.5</ele><time>2026-03-29T14:46:43Z</time></trkpt><trkpt lat="44.24153715377603" lon="11.738820956043693"><ele>177.25</ele><time>2026-03-29T14:46:44Z</time></trkpt><trkpt lat="44.24163242084404" lon="11.738953830238986"><ele>178.0</ele><time>2026-03-29T14:46:45Z</time></trkpt><trkpt lat="44.24171936290491" lon="11.739076896280565"><ele>175.8</ele><time>2026-03-29T14:46:46Z</time></trkpt><trkpt lat="44.24180534548178" lon="11.73919432185954"><ele>173.60000000000002</ele><time>2026-03-29T14:46:47Z</time></trkpt><trkpt lat="44.241897527275974" lon="11.739303680582415"><ele>171.39999999999998</ele><time>2026-03-29T14:46:48Z</time></trkpt><trkpt lat="44.241990776060405" lon="11.739393582784746"><ele>169.2</ele><time>2026-03-29T14:46:49Z</time></trkpt><trkpt lat="44.242073462392746" lon="11.739456783578696"><ele>167.0</ele><time>2026-03-29T14:46:50Z</time></trkpt><trkpt lat="44.242136984050646" lon="11.739501754641141"><ele>165.33333333333331</ele><time>2026-03-29T14:46:51Z</time></trkpt><trkpt lat="44.24219562760515" lon="11.739539531308612"><ele>163.66666666666666</ele><time>2026-03-29T14:46:52Z</time></trkpt><trkpt lat="44.24226833407033" lon="11.739581231862797"><ele>162.0</ele><time>2026-03-29T14:46:54Z</time></trkpt><trkpt lat="44.242222913042596" lon="11.739650285723009"><ele>160.33333333333334</ele><time>2026-03-29T14:47:39.999Z</time></trkpt><trkpt lat="44.24212889446647" lon="11.739684259974707"><ele>158.66666666666669</ele><time>2026-03-29T14:47:41.999Z</time></trkpt><trkpt lat="44.24205348133271" lon="11.739674136172576"><ele>157.0</ele><time>2026-03-29T14:47:43.999Z</time></trkpt><trkpt lat="44.241986520934304" lon="11.739725366680823"><ele>157.0</ele><time>2026-03-29T14:47:45.999Z</time></trkpt><trkpt lat="44.24194021725497" lon="11.739797060473766"><ele>157.0</ele><time>2026-03-29T14:47:47.999Z</time></trkpt><trkpt lat="44.241883780203835" lon="11.739892168375185"><ele>157.0</ele><time>2026-03-29T14:47:49.999Z</time></trkpt><trkpt lat="44.241839110556135" lon="11.7399905254661"><ele>157.0</ele><time>2026-03-29T14:47:52.999Z</time></trkpt><trkpt lat="44.24184598051865" lon="11.740078261607135"><ele>157.0</ele><time>2026-03-29T14:47:54.999Z</time></trkpt><trkpt lat="44.2418734956304" lon="11.74017067794577"><ele>157.0</ele><time>2026-03-29T14:47:57.999Z</time></trkpt><trkpt lat="44.241958982241705" lon="11.740162828889074"><ele>157.0</ele><time>2026-03-29T14:48:00.999Z</time></trkpt><trkpt lat="44.24201895910084" lon="11.740097919067258"><ele>157.0</ele><time>2026-03-29T14:48:02.999Z</time></trkpt><trkpt lat="44.2420840214008" lon="11.740022636867138"><ele>157.0</ele><time>2026-03-29T14:48:04.999Z</time></trkpt><trkpt lat="44.24215897905118" lon="11.740009319571216"><ele>157.0</ele><time>2026-03-29T14:48:06.999Z</time></trkpt><trkpt lat="44.24226114810704" lon="11.73993952061367"><ele>157.0</ele><time>2026-03-29T14:48:09.998Z</time></trkpt><trkpt lat="44.24235585349261" lon="11.73994978162996"><ele>157.0</ele><time>2026-03-29T14:48:11.998Z</time></trkpt><trkpt lat="44.242445153524564" lon="11.739971149477778"><ele>155.5</ele><time>2026-03-29T14:48:13.998Z</time></trkpt><trkpt lat="44.24251314457653" lon="11.740009734323156"><ele>154.0</ele><time>2026-03-29T14:48:15.998Z</time></trkpt><trkpt lat="44.24260036479297" lon="11.740057112045733"><ele>152.5</ele><time>2026-03-29T14:48:19Z</time></trkpt><trkpt lat="44.24269117295097" lon="11.740079965946975"><ele>151.0</ele><time>2026-03-29T14:48:21Z</time></trkpt><trkpt lat="44.242778209170375" lon="11.74005928982046"><ele>149.5</ele><time>2026-03-29T14:48:23Z</time></trkpt><trkpt lat="44.24286102550651" lon="11.740040831567326"><ele>148.0</ele><time>2026-03-29T14:48:25Z</time></trkpt><trkpt lat="44.24295091952426" lon="11.74001522759426"><ele>148.0</ele><time>2026-03-29T14:48:27Z</time></trkpt><trkpt lat="44.24304308591545" lon="11.740019356329716"><ele>148.0</ele><time>2026-03-29T14:48:29Z</time></trkpt><trkpt lat="44.24314063663923" lon="11.74000118708793"><ele>148.0</ele><time>2026-03-29T14:48:31Z</time></trkpt><trkpt lat="44.2432105808778" lon="11.73997539559662"><ele>148.0</ele><time>2026-03-29T14:48:33Z</time></trkpt><trkpt lat="44.24328294818278" lon="11.739945126709804"><ele>148.0</ele><time>2026-03-29T14:48:35Z</time></trkpt><trkpt lat="44.24334412052537" lon="11.739907714499735"><ele>148.0</ele><time>2026-03-29T14:48:37Z</time></trkpt><trkpt lat="44.24340528007895" lon="11.73986065621539"><ele>146.33333333333334</ele><time>2026-03-29T14:48:39Z</time></trkpt><trkpt lat="44.24348875497813" lon="11.739789779804525"><ele>144.66666666666669</ele><time>2026-03-29T14:48:42Z</time></trkpt><trkpt lat="44.24354498233385" lon="11.739732401873908"><ele>143.0</ele><time>2026-03-29T14:48:44Z</time></trkpt><trkpt lat="44.24362761485892" lon="11.739710281985838"><ele>141.33333333333334</ele><time>2026-03-29T14:48:46Z</time></trkpt><trkpt lat="44.24369591834142" lon="11.739698961284363"><ele>139.66666666666666</ele><time>2026-03-29T14:48:48Z</time></trkpt><trkpt lat="44.24378908074529" lon="11.739666276038557"><ele>138.0</ele><time>2026-03-29T14:48:51Z</time></trkpt><trkpt lat="44.24385150001714" lon="11.739652639619516"><ele>138.0</ele><time>2026-03-29T14:48:53Z</time></trkpt><trkpt lat="44.24392027626418" lon="11.739637633566394"><ele>138.0</ele><time>2026-03-29T14:48:57Z</time></trkpt><trkpt lat="44.24401913609297" lon="11.739628217825079"><ele>138.0</ele><time>2026-03-29T14:49:42.999Z</time></trkpt><trkpt lat="44.24411607885097" lon="11.739593881947808"><ele>138.0</ele><time>2026-03-29T14:49:44.999Z</time></trkpt><trkpt lat="44.24420662216499" lon="11.73959050264367"><ele>138.0</ele><time>2026-03-29T14:49:46.999Z</time></trkpt><trkpt lat="44.24430257250479" lon="11.739595966449038"><ele>134.6</ele><time>2026-03-29T14:49:48.999Z</time></trkpt><trkpt lat="44.24438742171817" lon="11.739617111657322"><ele>131.20000000000002</ele><time>2026-03-29T14:49:50.999Z</time></trkpt><trkpt lat="44.24447672247766" lon="11.73960256418077"><ele>127.8</ele><time>2026-03-29T14:49:53.999Z</time></trkpt><trkpt lat="44.244562130175915" lon="11.73957952418792"><ele>124.4</ele><time>2026-03-29T14:49:55.999Z</time></trkpt><trkpt lat="44.24467691594702" lon="11.739504527204051"><ele>121.0</ele><time>2026-03-29T14:49:57.999Z</time></trkpt><trkpt lat="44.24471186632259" lon="11.739417688357426"><ele>121.50000000000001</ele><time>2026-03-29T14:49:58.999Z</time></trkpt><trkpt lat="44.244719349584784" lon="11.739310880782577"><ele>122.0</ele><time>2026-03-29T14:49:59.999Z</time></trkpt><trkpt lat="44.24469385139717" lon="11.739192891111502"><ele>122.5</ele><time>2026-03-29T14:50:00.999Z</time></trkpt><trkpt lat="44.24464845800474" lon="11.739095553337703"><ele>123.0</ele><time>2026-03-29T14:50:01.999Z</time></trkpt><trkpt lat="44.24459395261035" lon="11.738993506833621"><ele>123.50000000000001</ele><time>2026-03-29T14:50:02.999Z</time></trkpt><trkpt lat="44.24453138362686" lon="11.738908071268764"><ele>124.0</ele><time>2026-03-29T14:50:03.999Z</time></trkpt><trkpt lat="44.24446815026085" lon="11.738820801832086"><ele>124.0</ele><time>2026-03-29T14:50:04.999Z</time></trkpt><trkpt lat="44.24440482091035" lon="11.738733401264838"><ele>124.0</ele><time>2026-03-29T14:50:05.999Z</time></trkpt><trkpt lat="44.244331576414524" lon="11.738652333834546"><ele>124.0</ele><time>2026-03-29T14:50:06.999Z</time></trkpt><trkpt lat="44.24427326718673" lon="11.738553941477557"><ele>124.0</ele><time>2026-03-29T14:50:07.999Z</time></trkpt><trkpt lat="44.24421178190579" lon="11.738452433236302"><ele>124.0</ele><time>2026-03-29T14:50:08.999Z</time></trkpt><trkpt lat="44.24415929459142" lon="11.738343313922162"><ele>122.2</ele><time>2026-03-29T14:50:09.999Z</time></trkpt><trkpt lat="44.24411583011288" lon="11.738213456273696"><ele>120.4</ele><time>2026-03-29T14:50:10.999Z</time></trkpt><trkpt lat="44.24409746918202" lon="11.73806844524334"><ele>118.6</ele><time>2026-03-29T14:50:11.999Z</time></trkpt><trkpt lat="44.244092786763204" lon="11.737915604905089"><ele>116.8</ele><time>2026-03-29T14:50:12.999Z</time></trkpt><trkpt lat="44.24410440304642" lon="11.737756401460063"><ele>115.0</ele><time>2026-03-29T14:50:13.999Z</time></trkpt><trkpt lat="44.244128473489084" lon="11.737595737277974"><ele>114.75</ele><time>2026-03-29T14:50:14.999Z</time></trkpt><trkpt lat="44.24415597216869" lon="11.737448958302329"><ele>114.5</ele><time>2026-03-29T14:50:15.999Z</time></trkpt><trkpt lat="44.24419357282318" lon="11.737289979990347"><ele>114.25</ele><time>2026-03-29T14:50:16.998Z</time></trkpt><trkpt lat="44.24424672072402" lon="11.737140673929936"><ele>114.0</ele><time>2026-03-29T14:50:17.998Z</time></trkpt><trkpt lat="44.244304055792405" lon="11.736998800628145"><ele>114.0</ele><time>2026-03-29T14:50:18.998Z</time></trkpt><trkpt lat="44.24435592404643" lon="11.736860224613524"><ele>114.0</ele><time>2026-03-29T14:50:19.998Z</time></trkpt><trkpt lat="44.24437666582798" lon="11.736727198374856"><ele>114.0</ele><time>2026-03-29T14:50:20.998Z</time></trkpt><trkpt lat="44.24436107679467" lon="11.736585706576994"><ele>114.0</ele><time>2026-03-29T14:50:21.998Z</time></trkpt><trkpt lat="44.24430322860761" lon="11.736444195959693"><ele>114.0</ele><time>2026-03-29T14:50:22.998Z</time></trkpt><trkpt lat="44.24421552442783" lon="11.736304644208202"><ele>114.0</ele><time>2026-03-29T14:50:24Z</time></trkpt><trkpt lat="44.24411939650308" lon="11.736179970141709"><ele>114.0</ele><time>2026-03-29T14:50:25Z</time></trkpt><trkpt lat="44.24403043710329" lon="11.736033970946085"><ele>114.0</ele><time>2026-03-29T14:50:26Z</time></trkpt><trkpt lat="44.24394845213791" lon="11.735884310325892"><ele>114.0</ele><time>2026-03-29T14:50:27Z</time></trkpt><trkpt lat="44.243868019449295" lon="11.735732400816206"><ele>112.25</ele><time>2026-03-29T14:50:28Z</time></trkpt><trkpt lat="44.243797615913714" lon="11.735580105273298"><ele>110.5</ele><time>2026-03-29T14:50:29Z</time></trkpt><trkpt lat="44.243744257837236" lon="11.735429059962847"><ele>108.75</ele><time>2026-03-29T14:50:30Z</time></trkpt><trkpt lat="44.24372125642373" lon="11.735262843538026"><ele>107.0</ele><time>2026-03-29T14:50:31Z</time></trkpt><trkpt lat="44.24371767603172" lon="11.735087139029252"><ele>107.0</ele><time>2026-03-29T14:50:32Z</time></trkpt><trkpt lat="44.24373586849774" lon="11.734903652998824"><ele>107.0</ele><time>2026-03-29T14:50:33Z</time></trkpt><trkpt lat="44.243789337098924" lon="11.73473446526571"><ele>107.0</ele><time>2026-03-29T14:50:34Z</time></trkpt><trkpt lat="44.2438305697637" lon="11.734564794256144"><ele>107.0</ele><time>2026-03-29T14:50:35Z</time></trkpt><trkpt lat="44.24388197823395" lon="11.73440602009839"><ele>105.25</ele><time>2026-03-29T14:50:36Z</time></trkpt><trkpt lat="44.243928663146924" lon="11.73423542654456"><ele>103.5</ele><time>2026-03-29T14:50:37Z</time></trkpt><trkpt lat="44.24397357858773" lon="11.734066550619056"><ele>101.75</ele><time>2026-03-29T14:50:38Z</time></trkpt><trkpt lat="44.244013934506945" lon="11.733895850511441"><ele>100.0</ele><time>2026-03-29T14:50:39Z</time></trkpt><trkpt lat="44.24405886454039" lon="11.733729551067693"><ele>97.75</ele><time>2026-03-29T14:50:40Z</time></trkpt><trkpt lat="44.24410902926727" lon="11.733580079565662"><ele>95.5</ele><time>2026-03-29T14:50:41Z</time></trkpt><trkpt lat="44.24417972301957" lon="11.73344553546064"><ele>93.25</ele><time>2026-03-29T14:50:42Z</time></trkpt><trkpt lat="44.2442819097781" lon="11.733327708310302"><ele>91.0</ele><time>2026-03-29T14:50:43Z</time></trkpt><trkpt lat="44.24439815057028" lon="11.733238227994809"><ele>90.75</ele><time>2026-03-29T14:50:44Z</time></trkpt><trkpt lat="44.24450265315214" lon="11.733142064717178"><ele>90.5</ele><time>2026-03-29T14:50:45Z</time></trkpt><trkpt lat="44.244606945239866" lon="11.73303462551893"><ele>90.25</ele><time>2026-03-29T14:50:46Z</time></trkpt><trkpt lat="44.24471150206669" lon="11.732924534310518"><ele>90.0</ele><time>2026-03-29T14:50:47Z</time></trkpt><trkpt lat="44.24482159443267" lon="11.732816288487227"><ele>90.75</ele><time>2026-03-29T14:50:48Z</time></trkpt><trkpt lat="44.2449275614193" lon="11.73270372040103"><ele>91.5</ele><time>2026-03-29T14:50:49Z</time></trkpt><trkpt lat="44.245025828805794" lon="11.73260772914319"><ele>92.25</ele><time>2026-03-29T14:50:50Z</time></trkpt><trkpt lat="44.24512931337787" lon="11.732527288677996"><ele>93.0</ele><time>2026-03-29T14:50:51Z</time></trkpt><trkpt lat="44.245237094188255" lon="11.732510957383909"><ele>93.0</ele><time>2026-03-29T14:50:52Z</time></trkpt><trkpt lat="44.245353102855645" lon="11.732546154268038"><ele>93.0</ele><time>2026-03-29T14:50:53Z</time></trkpt><trkpt lat="44.245450477888966" lon="11.732640044775087"><ele>93.0</ele><time>2026-03-29T14:50:54Z</time></trkpt><trkpt lat="44.245498457755836" lon="11.732811357190757"><ele>93.0</ele><time>2026-03-29T14:50:55Z</time></trkpt><trkpt lat="44.245571570654946" lon="11.733004822870557"><ele>93.66666666666667</ele><time>2026-03-29T14:50:56Z</time></trkpt><trkpt lat="44.24566142259762" lon="11.733218690371304"><ele>94.33333333333334</ele><time>2026-03-29T14:50:57Z</time></trkpt><trkpt lat="44.245729592210736" lon="11.733428855790779"><ele>95.0</ele><time>2026-03-29T14:50:58Z</time></trkpt><trkpt lat="44.2457992190512" lon="11.733627001393051"><ele>95.0</ele><time>2026-03-29T14:50:59Z</time></trkpt><trkpt lat="44.245864412311846" lon="11.733801861930736"><ele>95.0</ele><time>2026-03-29T14:51:00Z</time></trkpt><trkpt lat="44.24592581880661" lon="11.733960684861382"><ele>95.0</ele><time>2026-03-29T14:51:01Z</time></trkpt><trkpt lat="44.24598542969401" lon="11.7340949454228"><ele>95.0</ele><time>2026-03-29T14:51:02Z</time></trkpt><trkpt lat="44.24605680273158" lon="11.734192384889404"><ele>95.0</ele><time>2026-03-29T14:51:03Z</time></trkpt><trkpt lat="44.24614387052136" lon="11.734220992474505"><ele>95.0</ele><time>2026-03-29T14:51:04Z</time></trkpt><trkpt lat="44.24624933327621" lon="11.734189420085714"><ele>95.0</ele><time>2026-03-29T14:51:05Z</time></trkpt><trkpt lat="44.246339428451265" lon="11.734115796989474"><ele>95.0</ele><time>2026-03-29T14:51:06Z</time></trkpt><trkpt lat="44.246409688181174" lon="11.734018454225989"><ele>95.0</ele><time>2026-03-29T14:51:07Z</time></trkpt><trkpt lat="44.24650826944197" lon="11.733903411479329"><ele>98.25</ele><time>2026-03-29T14:51:08Z</time></trkpt><trkpt lat="44.24663062866885" lon="11.733769312571837"><ele>101.5</ele><time>2026-03-29T14:51:09Z</time></trkpt><trkpt lat="44.246756655430055" lon="11.73365394366689"><ele>104.75</ele><time>2026-03-29T14:51:10Z</time></trkpt><trkpt lat="44.24686285969432" lon="11.73355929146996"><ele>108.0</ele><time>2026-03-29T14:51:11Z</time></trkpt><trkpt lat="44.24696650196507" lon="11.733487699632091"><ele>110.25</ele><time>2026-03-29T14:51:12Z</time></trkpt><trkpt lat="44.24707550635817" lon="11.733463389896881"><ele>112.5</ele><time>2026-03-29T14:51:13Z</time></trkpt><trkpt lat="44.24719960218658" lon="11.733514607841702"><ele>114.75</ele><time>2026-03-29T14:51:14Z</time></trkpt><trkpt lat="44.247307585226174" lon="11.73360788548872"><ele>117.0</ele><time>2026-03-29T14:51:14.999Z</time></trkpt><trkpt lat="44.24739447837186" lon="11.733737234877227"><ele>117.0</ele><time>2026-03-29T14:51:15.999Z</time></trkpt><trkpt lat="44.24748447620231" lon="11.73391706943791"><ele>117.0</ele><time>2026-03-29T14:51:16.999Z</time></trkpt><trkpt lat="44.24759682564911" lon="11.734115052879302"><ele>117.0</ele><time>2026-03-29T14:51:17.999Z</time></trkpt><trkpt lat="44.24772242166053" lon="11.734308479734775"><ele>116.5</ele><time>2026-03-29T14:51:18.999Z</time></trkpt><trkpt lat="44.247865767280764" lon="11.734528628653356"><ele>116.0</ele><time>2026-03-29T14:51:19.999Z</time></trkpt><trkpt lat="44.248027267255154" lon="11.734777874793956"><ele>116.5</ele><time>2026-03-29T14:51:20.999Z</time></trkpt><trkpt lat="44.24819448486713" lon="11.735033223604947"><ele>117.0</ele><time>2026-03-29T14:51:21.999Z</time></trkpt><trkpt lat="44.24835790006804" lon="11.735249410619131"><ele>117.0</ele><time>2026-03-29T14:51:22.999Z</time></trkpt><trkpt lat="44.24851033614674" lon="11.735418722707992"><ele>117.0</ele><time>2026-03-29T14:51:23.999Z</time></trkpt><trkpt lat="44.24863798809785" lon="11.73556904201296"><ele>117.0</ele><time>2026-03-29T14:51:24.999Z</time></trkpt><trkpt lat="44.24876995465635" lon="11.735712261411887"><ele>117.0</ele><time>2026-03-29T14:51:25.999Z</time></trkpt><trkpt lat="44.24889685979433" lon="11.73583680232664"><ele>117.0</ele><time>2026-03-29T14:51:26.999Z</time></trkpt><trkpt lat="44.24902853915767" lon="11.735954909478844"><ele>117.0</ele><time>2026-03-29T14:51:27.999Z</time></trkpt><trkpt lat="44.249149780031615" lon="11.73606178951189"><ele>115.5</ele><time>2026-03-29T14:51:28.999Z</time></trkpt><trkpt lat="44.24927199667847" lon="11.736168590699823"><ele>114.0</ele><time>2026-03-29T14:51:29.999Z</time></trkpt><trkpt lat="44.24939256976922" lon="11.736273361026855"><ele>112.5</ele><time>2026-03-29T14:51:30.999Z</time></trkpt><trkpt lat="44.249515421233205" lon="11.736372516382488"><ele>111.0</ele><time>2026-03-29T14:51:31.999Z</time></trkpt><trkpt lat="44.24963287004054" lon="11.736473737370652"><ele>111.0</ele><time>2026-03-29T14:51:32.999Z</time></trkpt><trkpt lat="44.24974712443902" lon="11.736574558535585"><ele>111.0</ele><time>2026-03-29T14:51:33.999Z</time></trkpt><trkpt lat="44.249863212360545" lon="11.736675267958878"><ele>111.0</ele><time>2026-03-29T14:51:34.999Z</time></trkpt><trkpt lat="44.24997535478158" lon="11.73676798918895"><ele>111.0</ele><time>2026-03-29T14:51:35.999Z</time></trkpt><trkpt lat="44.250050946744636" lon="11.736834566914983"><ele>112.75</ele><time>2026-03-29T14:51:36.999Z</time></trkpt><trkpt lat="44.25015029120784" lon="11.7368707098883"><ele>114.5</ele><time>2026-03-29T14:51:38.999Z</time></trkpt><trkpt lat="44.2502271038562" lon="11.736919533617046"><ele>116.25</ele><time>2026-03-29T14:51:42.999Z</time></trkpt><trkpt lat="44.25040130306773" lon="11.736700070530805"><ele>118.0</ele><time>2026-03-29T14:51:45.999Z</time></trkpt><trkpt lat="44.25044375780019" lon="11.73662587240464"><ele>118.50000000000001</ele><time>2026-03-29T14:51:46.999Z</time></trkpt><trkpt lat="44.250491702797675" lon="11.736544446681354"><ele>119.0</ele><time>2026-03-29T14:51:47.999Z</time></trkpt><trkpt lat="44.25054455280082" lon="11.736457598082419"><ele>119.5</ele><time>2026-03-29T14:51:48.999Z</time></trkpt><trkpt lat="44.25060040894745" lon="11.736367729777902"><ele>120.0</ele><time>2026-03-29T14:51:49.999Z</time></trkpt><trkpt lat="44.25065899473176" lon="11.736275399588111"><ele>120.50000000000001</ele><time>2026-03-29T14:51:50.999Z</time></trkpt><trkpt lat="44.2507170434635" lon="11.736179914038615"><ele>121.0</ele><time>2026-03-29T14:51:51.999Z</time></trkpt><trkpt lat="44.250774872309876" lon="11.736086622959924"><ele>125.4</ele><time>2026-03-29T14:51:52.999Z</time></trkpt><trkpt lat="44.25083517024453" lon="11.735992333407783"><ele>129.8</ele><time>2026-03-29T14:51:53.999Z</time></trkpt><trkpt lat="44.25089709571601" lon="11.735895029646777"><ele>134.20000000000002</ele><time>2026-03-29T14:51:54.999Z</time></trkpt><trkpt lat="44.25095923425766" lon="11.735798379377629"><ele>138.6</ele><time>2026-03-29T14:51:55.999Z</time></trkpt><trkpt lat="44.25102412640323" lon="11.735700617919223"><ele>143.0</ele><time>2026-03-29T14:51:56.999Z</time></trkpt><trkpt lat="44.251084518498295" lon="11.73560207949029"><ele>143.0</ele><time>2026-03-29T14:51:57.999Z</time></trkpt><trkpt lat="44.25114621358915" lon="11.73550638381635"><ele>143.0</ele><time>2026-03-29T14:51:58.999Z</time></trkpt><trkpt lat="44.25120593913666" lon="11.735419759343918"><ele>143.0</ele><time>2026-03-29T14:51:59.999Z</time></trkpt><trkpt lat="44.25126691987275" lon="11.735325124612485"><ele>143.0</ele><time>2026-03-29T14:52:00.999Z</time></trkpt><trkpt lat="44.25132234304234" lon="11.735219946160537"><ele>143.0</ele><time>2026-03-29T14:52:01.999Z</time></trkpt><trkpt lat="44.251371606354724" lon="11.73511139761263"><ele>145.4</ele><time>2026-03-29T14:52:02.999Z</time></trkpt><trkpt lat="44.25141092304539" lon="11.735007095777627"><ele>147.8</ele><time>2026-03-29T14:52:03.999Z</time></trkpt><trkpt lat="44.25145895641869" lon="11.734900363449304"><ele>150.2</ele><time>2026-03-29T14:52:04.999Z</time></trkpt><trkpt lat="44.25149391661381" lon="11.734801604512837"><ele>152.6</ele><time>2026-03-29T14:52:06.999Z</time></trkpt><trkpt lat="44.251465201040915" lon="11.734692419977046"><ele>155.0</ele><time>2026-03-29T14:52:08.999Z</time></trkpt><trkpt lat="44.25134568942554" lon="11.734632416764253"><ele>155.0</ele><time>2026-03-29T14:52:10.999Z</time></trkpt><trkpt lat="44.25127172891811" lon="11.734604913462762"><ele>155.0</ele><time>2026-03-29T14:52:11.999Z</time></trkpt><trkpt lat="44.25119526274091" lon="11.73454620418133"><ele>155.0</ele><time>2026-03-29T14:52:12.999Z</time></trkpt><trkpt lat="44.25113402846619" lon="11.734476181749669"><ele>155.0</ele><time>2026-03-29T14:52:13.999Z</time></trkpt><trkpt lat="44.25107930508838" lon="11.734393917412351"><ele>155.0</ele><time>2026-03-29T14:52:14.999Z</time></trkpt><trkpt lat="44.25103335809023" lon="11.734330337020227"><ele>155.0</ele><time>2026-03-29T14:52:15.999Z</time></trkpt><trkpt lat="44.250978011996146" lon="11.734254207645053"><ele>155.0</ele><time>2026-03-29T14:52:17.999Z</time></trkpt><trkpt lat="44.25092703872878" lon="11.734201646221683"><ele>155.0</ele><time>2026-03-29T14:52:23.999Z</time></trkpt><trkpt lat="44.25101570617321" lon="11.73429630543638"><ele>155.0</ele><time>2026-03-29T14:55:10Z</time></trkpt><trkpt lat="44.25110071104873" lon="11.734413361827157"><ele>155.0</ele><time>2026-03-29T14:55:12Z</time></trkpt><trkpt lat="44.251150888575395" lon="11.73446828172713"><ele>155.0</ele><time>2026-03-29T14:55:13Z</time></trkpt><trkpt lat="44.251245944139676" lon="11.734568707131135"><ele>155.0</ele><time>2026-03-29T14:55:15Z</time></trkpt><trkpt lat="44.25130131928951" lon="11.734615856076664"><ele>155.0</ele><time>2026-03-29T14:55:16Z</time></trkpt><trkpt lat="44.251392844669674" lon="11.734661137050843"><ele>155.0</ele><time>2026-03-29T14:55:18Z</time></trkpt><trkpt lat="44.251480322776224" lon="11.73470217909388"><ele>155.0</ele><time>2026-03-29T14:55:21Z</time></trkpt><trkpt lat="44.251548010717215" lon="11.734747389044584"><ele>155.0</ele><time>2026-03-29T14:55:23Z</time></trkpt><trkpt lat="44.2516307613824" lon="11.734801766588"><ele>155.0</ele><time>2026-03-29T14:55:30.999Z</time></trkpt><trkpt lat="44.25169686839782" lon="11.73489093092685"><ele>154.16666666666666</ele><time>2026-03-29T14:55:32.999Z</time></trkpt><trkpt lat="44.251760490999565" lon="11.73497282614695"><ele>153.33333333333331</ele><time>2026-03-29T14:55:34.999Z</time></trkpt><trkpt lat="44.25182092253425" lon="11.735073104218475"><ele>152.5</ele><time>2026-03-29T14:55:36.999Z</time></trkpt><trkpt lat="44.25188414965335" lon="11.735167579412336"><ele>151.66666666666666</ele><time>2026-03-29T14:55:38.999Z</time></trkpt><trkpt lat="44.251945734092985" lon="11.735253467664425"><ele>150.83333333333334</ele><time>2026-03-29T14:55:40.999Z</time></trkpt><trkpt lat="44.252010622106184" lon="11.735337672381897"><ele>150.0</ele><time>2026-03-29T14:55:42.999Z</time></trkpt><trkpt lat="44.25206840743636" lon="11.735411462913358"><ele>150.0</ele><time>2026-03-29T14:55:44.999Z</time></trkpt><trkpt lat="44.252133742575" lon="11.735449352389635"><ele>150.0</ele><time>2026-03-29T14:55:46.999Z</time></trkpt><trkpt lat="44.25216461579916" lon="11.735348196691001"><ele>150.0</ele><time>2026-03-29T14:55:48.999Z</time></trkpt><trkpt lat="44.252099646348974" lon="11.73521987343132"><ele>150.0</ele><time>2026-03-29T14:55:50.999Z</time></trkpt><trkpt lat="44.25202729253279" lon="11.735129495829723"><ele>150.0</ele><time>2026-03-29T14:55:52.999Z</time></trkpt><trkpt lat="44.251941011270056" lon="11.735028613899539"><ele>151.85714285714283</ele><time>2026-03-29T14:55:54.999Z</time></trkpt><trkpt lat="44.251893296652874" lon="11.734966786308439"><ele>153.71428571428572</ele><time>2026-03-29T14:55:55.999Z</time></trkpt><trkpt lat="44.25184837644393" lon="11.734899479249766"><ele>155.57142857142856</ele><time>2026-03-29T14:55:56.999Z</time></trkpt><trkpt lat="44.251807856944666" lon="11.734822210136706"><ele>157.42857142857142</ele><time>2026-03-29T14:55:57.999Z</time></trkpt><trkpt lat="44.251765620381185" lon="11.73474497181849"><ele>159.28571428571428</ele><time>2026-03-29T14:55:58.999Z</time></trkpt><trkpt lat="44.25172645390147" lon="11.734674716073021"><ele>161.14285714285714</ele><time>2026-03-29T14:55:59.999Z</time></trkpt><trkpt lat="44.251687064568" lon="11.734596169349317"><ele>163.0</ele><time>2026-03-29T14:56:00.999Z</time></trkpt><trkpt lat="44.25164315181513" lon="11.734514132779882"><ele>163.0</ele><time>2026-03-29T14:56:01.999Z</time></trkpt><trkpt lat="44.25159969203433" lon="11.73442270099291"><ele>163.0</ele><time>2026-03-29T14:56:02.999Z</time></trkpt><trkpt lat="44.25157674151786" lon="11.734316176204828"><ele>163.0</ele><time>2026-03-29T14:56:03.999Z</time></trkpt><trkpt lat="44.251560597002396" lon="11.734204367967584"><ele>163.0</ele><time>2026-03-29T14:56:04.999Z</time></trkpt><trkpt lat="44.251540679754775" lon="11.734088420482708"><ele>163.0</ele><time>2026-03-29T14:56:05.999Z</time></trkpt><trkpt lat="44.25151316804681" lon="11.733981264013783"><ele>163.0</ele><time>2026-03-29T14:56:06.999Z</time></trkpt><trkpt lat="44.251492400753435" lon="11.733869895541574"><ele>163.83333333333334</ele><time>2026-03-29T14:56:07.999Z</time></trkpt><trkpt lat="44.25146557021765" lon="11.733770253549567"><ele>164.66666666666669</ele><time>2026-03-29T14:56:08.999Z</time></trkpt><trkpt lat="44.25143654313517" lon="11.733672840407236"><ele>165.5</ele><time>2026-03-29T14:56:09.999Z</time></trkpt><trkpt lat="44.25140112788652" lon="11.733582395348801"><ele>166.33333333333334</ele><time>2026-03-29T14:56:10.999Z</time></trkpt><trkpt lat="44.251367309986804" lon="11.733501744307551"><ele>167.16666666666666</ele><time>2026-03-29T14:56:11.999Z</time></trkpt><trkpt lat="44.251324304643894" lon="11.733411385364363"><ele>168.0</ele><time>2026-03-29T14:56:12.999Z</time></trkpt><trkpt lat="44.25128210992979" lon="11.733314116594288"><ele>170.0</ele><time>2026-03-29T14:56:13.999Z</time></trkpt><trkpt lat="44.25124710221358" lon="11.733222141607387"><ele>172.0</ele><time>2026-03-29T14:56:14.999Z</time></trkpt><trkpt lat="44.25119630222836" lon="11.733131636377484"><ele>174.0</ele><time>2026-03-29T14:56:15.999Z</time></trkpt><trkpt lat="44.251153153727465" lon="11.733037844773289"><ele>176.0</ele><time>2026-03-29T14:56:16.999Z</time></trkpt><trkpt lat="44.251105306116656" lon="11.73293543137503"><ele>178.0</ele><time>2026-03-29T14:56:17.999Z</time></trkpt><trkpt lat="44.25106278492872" lon="11.732834098470606"><ele>180.0</ele><time>2026-03-29T14:56:18.999Z</time></trkpt><trkpt lat="44.25101321536011" lon="11.732730169239389"><ele>181.5</ele><time>2026-03-29T14:56:19.999Z</time></trkpt><trkpt lat="44.25096925299881" lon="11.73263103757948"><ele>183.0</ele><time>2026-03-29T14:56:20.999Z</time></trkpt><trkpt lat="44.25092962513298" lon="11.732536435169623"><ele>184.5</ele><time>2026-03-29T14:56:21.999Z</time></trkpt><trkpt lat="44.25088630660443" lon="11.732439597285918"><ele>186.0</ele><time>2026-03-29T14:56:22.999Z</time></trkpt><trkpt lat="44.25084337716388" lon="11.732340834263223"><ele>187.5</ele><time>2026-03-29T14:56:23.999Z</time></trkpt><trkpt lat="44.25080215500788" lon="11.732238810486614"><ele>189.0</ele><time>2026-03-29T14:56:24.999Z</time></trkpt><trkpt lat="44.250761202203876" lon="11.732143382478712"><ele>189.0</ele><time>2026-03-29T14:56:25.999Z</time></trkpt><trkpt lat="44.25070436231463" lon="11.732033296453476"><ele>189.0</ele><time>2026-03-29T14:56:26.999Z</time></trkpt><trkpt lat="44.250643665871486" lon="11.731930731440407"><ele>189.0</ele><time>2026-03-29T14:56:27.999Z</time></trkpt><trkpt lat="44.250579967524324" lon="11.731829054004123"><ele>189.0</ele><time>2026-03-29T14:56:28.999Z</time></trkpt><trkpt lat="44.250509697669166" lon="11.731726015533381"><ele>189.0</ele><time>2026-03-29T14:56:29.999Z</time></trkpt><trkpt lat="44.25044301042768" lon="11.731629992071351"><ele>189.16666666666666</ele><time>2026-03-29T14:56:30.999Z</time></trkpt><trkpt lat="44.250377491693875" lon="11.73153694161664"><ele>189.33333333333334</ele><time>2026-03-29T14:56:31.999Z</time></trkpt><trkpt lat="44.25031561056022" lon="11.731437804847408"><ele>189.5</ele><time>2026-03-29T14:56:32.998Z</time></trkpt><trkpt lat="44.25025911935528" lon="11.731346354568728"><ele>189.66666666666669</ele><time>2026-03-29T14:56:33.998Z</time></trkpt><trkpt lat="44.25019869837784" lon="11.731255015015321"><ele>189.83333333333334</ele><time>2026-03-29T14:56:34.998Z</time></trkpt><trkpt lat="44.25014306433973" lon="11.731166939946993"><ele>190.0</ele><time>2026-03-29T14:56:35.998Z</time></trkpt><trkpt lat="44.25008326272481" lon="11.731075403769855"><ele>191.4</ele><time>2026-03-29T14:56:36.998Z</time></trkpt><trkpt lat="44.250028480814834" lon="11.730988095405364"><ele>192.8</ele><time>2026-03-29T14:56:37.998Z</time></trkpt><trkpt lat="44.24997899078097" lon="11.730905547491455"><ele>194.2</ele><time>2026-03-29T14:56:38.998Z</time></trkpt><trkpt lat="44.24993860379282" lon="11.730813846198524"><ele>195.6</ele><time>2026-03-29T14:56:39.998Z</time></trkpt><trkpt lat="44.24989987315149" lon="11.730673806170516"><ele>197.0</ele><time>2026-03-29T14:56:40.998Z</time></trkpt><trkpt lat="44.249862324499354" lon="11.730513036493395"><ele>197.0</ele><time>2026-03-29T14:56:42Z</time></trkpt><trkpt lat="44.2498053744776" lon="11.730354569915587"><ele>197.0</ele><time>2026-03-29T14:56:43Z</time></trkpt><trkpt lat="44.249749704699575" lon="11.730252669930064"><ele>197.0</ele><time>2026-03-29T14:56:44Z</time></trkpt><trkpt lat="44.24969365993925" lon="11.730151117503576"><ele>197.0</ele><time>2026-03-29T14:56:45Z</time></trkpt><trkpt lat="44.24964869767336" lon="11.730039902929635"><ele>197.0</ele><time>2026-03-29T14:56:46Z</time></trkpt><trkpt lat="44.24962191909742" lon="11.729942812331721"><ele>197.00000000000003</ele><time>2026-03-29T14:56:47Z</time></trkpt><trkpt lat="44.24960951059737" lon="11.729843863436983"><ele>197.0</ele><time>2026-03-29T14:56:48Z</time></trkpt><trkpt lat="44.24958718023202" lon="11.72968166256469"><ele>197.0</ele><time>2026-03-29T14:56:50Z</time></trkpt><trkpt lat="44.24957423502845" lon="11.72959272827145"><ele>197.0</ele><time>2026-03-29T14:56:51Z</time></trkpt><trkpt lat="44.2495570030514" lon="11.72944377157135"><ele>197.00000000000003</ele><time>2026-03-29T14:56:53Z</time></trkpt><trkpt lat="44.24956416839515" lon="11.729331673020125"><ele>197.0</ele><time>2026-03-29T14:56:55Z</time></trkpt><trkpt lat="44.24957073593863" lon="11.729215634653505"><ele>197.6</ele><time>2026-03-29T14:56:58Z</time></trkpt><trkpt lat="44.24954249814055" lon="11.729133528387079"><ele>198.2</ele><time>2026-03-29T14:57:03Z</time></trkpt><trkpt lat="44.24952586875822" lon="11.728978780588184"><ele>198.8</ele><time>2026-03-29T14:57:18Z</time></trkpt><trkpt lat="44.249484765873525" lon="11.72884120938547"><ele>199.4</ele><time>2026-03-29T14:57:20Z</time></trkpt><trkpt lat="44.249437245054715" lon="11.72871741411752"><ele>200.0</ele><time>2026-03-29T14:57:22Z</time></trkpt><trkpt lat="44.24937279556" lon="11.728597432484644"><ele>200.00000000000003</ele><time>2026-03-29T14:57:24Z</time></trkpt><trkpt lat="44.24932421183151" lon="11.728493586708737"><ele>200.0</ele><time>2026-03-29T14:57:26Z</time></trkpt><trkpt lat="44.249311895019744" lon="11.72837034050902"><ele>200.0</ele><time>2026-03-29T14:57:34.999Z</time></trkpt><trkpt lat="44.24926207224131" lon="11.728293369042005"><ele>200.0</ele><time>2026-03-29T14:57:41.999Z</time></trkpt><trkpt lat="44.24929454633186" lon="11.728413351164864"><ele>200.00000000000003</ele><time>2026-03-29T14:57:48.999Z</time></trkpt><trkpt lat="44.24936397322577" lon="11.72851501699191"><ele>200.0</ele><time>2026-03-29T14:57:50.999Z</time></trkpt><trkpt lat="44.2493996987404" lon="11.72866969694913"><ele>200.0</ele><time>2026-03-29T14:57:52.999Z</time></trkpt><trkpt lat="44.24949526125886" lon="11.728821062865928"><ele>200.0</ele><time>2026-03-29T14:57:54.999Z</time></trkpt><trkpt lat="44.2495182623512" lon="11.728949683998334"><ele>200.0</ele><time>2026-03-29T14:57:55.999Z</time></trkpt><trkpt lat="44.24953786297703" lon="11.729041230161705"><ele>200.0</ele><time>2026-03-29T14:57:56.999Z</time></trkpt><trkpt lat="44.24955151048623" lon="11.729139634127813"><ele>200.0</ele><time>2026-03-29T14:57:58.999Z</time></trkpt><trkpt lat="44.24948094092949" lon="11.729134137224875"><ele>200.0</ele><time>2026-03-29T14:58:01.999Z</time></trkpt><trkpt lat="44.24946002560936" lon="11.728973204391634"><ele>200.0</ele><time>2026-03-29T14:58:04.999Z</time></trkpt><trkpt lat="44.24926098039403" lon="11.728598109497945"><ele>199.83333333333334</ele><time>2026-03-29T14:58:07.999Z</time></trkpt><trkpt lat="44.24920143140956" lon="11.728505436997743"><ele>199.66666666666669</ele><time>2026-03-29T14:58:08.999Z</time></trkpt><trkpt lat="44.24912109063567" lon="11.728416707213574"><ele>199.5</ele><time>2026-03-29T14:58:09.999Z</time></trkpt><trkpt lat="44.24906597101915" lon="11.72833255373966"><ele>199.33333333333331</ele><time>2026-03-29T14:58:10.999Z</time></trkpt><trkpt lat="44.24901160256048" lon="11.728244171693586"><ele>199.16666666666666</ele><time>2026-03-29T14:58:11.999Z</time></trkpt><trkpt lat="44.24896299134066" lon="11.728137952985016"><ele>199.0</ele><time>2026-03-29T14:58:12.999Z</time></trkpt><trkpt lat="44.248931085628804" lon="11.728035354748087"><ele>198.39999999999998</ele><time>2026-03-29T14:58:13.999Z</time></trkpt><trkpt lat="44.24889733208787" lon="11.72794064469624"><ele>197.8</ele><time>2026-03-29T14:58:14.999Z</time></trkpt><trkpt lat="44.24885103241709" lon="11.727852111413105"><ele>197.2</ele><time>2026-03-29T14:58:15.999Z</time></trkpt><trkpt lat="44.248772224271825" lon="11.727778508544942"><ele>196.60000000000002</ele><time>2026-03-29T14:58:16.999Z</time></trkpt><trkpt lat="44.24869367279794" lon="11.727641465201659"><ele>196.0</ele><time>2026-03-29T14:58:17.999Z</time></trkpt><trkpt lat="44.24862673078055" lon="11.72752580775445"><ele>196.0</ele><time>2026-03-29T14:58:18.999Z</time></trkpt><trkpt lat="44.248563972065966" lon="11.7274017437325"><ele>196.0</ele><time>2026-03-29T14:58:19.999Z</time></trkpt><trkpt lat="44.248506312127084" lon="11.727271844555782"><ele>196.0</ele><time>2026-03-29T14:58:20.999Z</time></trkpt><trkpt lat="44.2484268940687" lon="11.727173333438946"><ele>196.0</ele><time>2026-03-29T14:58:21.999Z</time></trkpt><trkpt lat="44.248354730328124" lon="11.727114983292248"><ele>196.0</ele><time>2026-03-29T14:58:22.999Z</time></trkpt><trkpt lat="44.24828420581748" lon="11.72702988771235"><ele>196.0</ele><time>2026-03-29T14:58:23.999Z</time></trkpt><trkpt lat="44.248228524462554" lon="11.726939608349527"><ele>196.0</ele><time>2026-03-29T14:58:24.999Z</time></trkpt><trkpt lat="44.24817848194368" lon="11.726859714588747"><ele>196.0</ele><time>2026-03-29T14:58:25.999Z</time></trkpt><trkpt lat="44.24807763806511" lon="11.726760456129297"><ele>196.0</ele><time>2026-03-29T14:58:26.999Z</time></trkpt><trkpt lat="44.24802236698793" lon="11.72667041581067"><ele>196.0</ele><time>2026-03-29T14:58:27.999Z</time></trkpt><trkpt lat="44.24797111420397" lon="11.726583900230832"><ele>195.16666666666666</ele><time>2026-03-29T14:58:28.999Z</time></trkpt><trkpt lat="44.247925249199156" lon="11.726498470396505"><ele>194.33333333333331</ele><time>2026-03-29T14:58:29.999Z</time></trkpt><trkpt lat="44.24788748964673" lon="11.726387944355999"><ele>193.5</ele><time>2026-03-29T14:58:30.999Z</time></trkpt><trkpt lat="44.24786015155106" lon="11.726279168976395"><ele>192.66666666666666</ele><time>2026-03-29T14:58:31.999Z</time></trkpt><trkpt lat="44.24784330635423" lon="11.726162481650398"><ele>191.83333333333331</ele><time>2026-03-29T14:58:32.999Z</time></trkpt><trkpt lat="44.24782869527916" lon="11.726061587170328"><ele>191.0</ele><time>2026-03-29T14:58:33.999Z</time></trkpt><trkpt lat="44.247826704595155" lon="11.725964520148478"><ele>191.0</ele><time>2026-03-29T14:58:34.999Z</time></trkpt><trkpt lat="44.24783956606242" lon="11.725838148844225"><ele>191.0</ele><time>2026-03-29T14:58:36.998Z</time></trkpt><trkpt lat="44.24786407031957" lon="11.725749992393887"><ele>191.0</ele><time>2026-03-29T14:58:43.998Z</time></trkpt><trkpt lat="44.247888977813886" lon="11.72564553869732"><ele>191.0</ele><time>2026-03-29T14:58:45.998Z</time></trkpt><trkpt lat="44.24788576559676" lon="11.725476993727243"><ele>191.0</ele><time>2026-03-29T14:58:48Z</time></trkpt><trkpt lat="44.24788770234398" lon="11.7253804404856"><ele>191.0</ele><time>2026-03-29T14:58:49Z</time></trkpt><trkpt lat="44.24791089637349" lon="11.725271964723849"><ele>189.16666666666666</ele><time>2026-03-29T14:58:50Z</time></trkpt><trkpt lat="44.24793111296895" lon="11.725185616741713"><ele>187.33333333333331</ele><time>2026-03-29T14:58:51Z</time></trkpt><trkpt lat="44.24795718966121" lon="11.72508715146653"><ele>185.5</ele><time>2026-03-29T14:58:52Z</time></trkpt><trkpt lat="44.24799926988045" lon="11.724979019127895"><ele>183.66666666666666</ele><time>2026-03-29T14:58:53Z</time></trkpt><trkpt lat="44.24803447851939" lon="11.724883596326078"><ele>181.83333333333334</ele><time>2026-03-29T14:58:54Z</time></trkpt><trkpt lat="44.24803949966684" lon="11.724770294154487"><ele>180.0</ele><time>2026-03-29T14:58:55Z</time></trkpt><trkpt lat="44.248028179221016" lon="11.724656913692222"><ele>180.0</ele><time>2026-03-29T14:58:56Z</time></trkpt><trkpt lat="44.24800906163172" lon="11.724567245085057"><ele>180.0</ele><time>2026-03-29T14:58:57Z</time></trkpt><trkpt lat="44.2480016847602" lon="11.724413887920022"><ele>180.0</ele><time>2026-03-29T14:58:59Z</time></trkpt><trkpt lat="44.24799807297439" lon="11.724253256321042"><ele>180.0</ele><time>2026-03-29T14:59:01Z</time></trkpt><trkpt lat="44.24799910885511" lon="11.724152686653387"><ele>180.0</ele><time>2026-03-29T14:59:02Z</time></trkpt><trkpt lat="44.24800717971209" lon="11.724044258041973"><ele>180.0</ele><time>2026-03-29T14:59:03Z</time></trkpt><trkpt lat="44.248016692499846" lon="11.723926542798674"><ele>180.2</ele><time>2026-03-29T14:59:04Z</time></trkpt><trkpt lat="44.248031069326416" lon="11.723817543528412"><ele>180.4</ele><time>2026-03-29T14:59:05Z</time></trkpt><trkpt lat="44.24803279261667" lon="11.723690950571976"><ele>180.60000000000002</ele><time>2026-03-29T14:59:06Z</time></trkpt><trkpt lat="44.24803348223865" lon="11.723565456620774"><ele>180.8</ele><time>2026-03-29T14:59:07Z</time></trkpt><trkpt lat="44.24807111665667" lon="11.723438874390531"><ele>181.0</ele><time>2026-03-29T14:59:08Z</time></trkpt><trkpt lat="44.24812533956714" lon="11.723312085577636"><ele>184.0</ele><time>2026-03-29T14:59:09Z</time></trkpt><trkpt lat="44.24815217199245" lon="11.72320871785739"><ele>187.0</ele><time>2026-03-29T14:59:10Z</time></trkpt><trkpt lat="44.24817442520269" lon="11.72311278135358"><ele>190.0</ele><time>2026-03-29T14:59:11Z</time></trkpt><trkpt lat="44.24819902712867" lon="11.723014964539034"><ele>193.0</ele><time>2026-03-29T14:59:12Z</time></trkpt><trkpt lat="44.2482225177804" lon="11.722887772733145"><ele>195.99999999999997</ele><time>2026-03-29T14:59:14Z</time></trkpt><trkpt lat="44.24824890733049" lon="11.722770526427855"><ele>199.0</ele><time>2026-03-29T14:59:16Z</time></trkpt><trkpt lat="44.24826771347973" lon="11.722592264135326"><ele>199.0</ele><time>2026-03-29T14:59:18Z</time></trkpt><trkpt lat="44.24825866556968" lon="11.72241983447032"><ele>199.0</ele><time>2026-03-29T14:59:20Z</time></trkpt><trkpt lat="44.24821940967069" lon="11.72232983415557"><ele>199.0</ele><time>2026-03-29T14:59:21Z</time></trkpt><trkpt lat="44.24815488119903" lon="11.722230441409119"><ele>199.0</ele><time>2026-03-29T14:59:22Z</time></trkpt><trkpt lat="44.24808158571263" lon="11.72212232349166"><ele>199.0</ele><time>2026-03-29T14:59:23Z</time></trkpt><trkpt lat="44.24801723027254" lon="11.722000235696044"><ele>198.6</ele><time>2026-03-29T14:59:24Z</time></trkpt><trkpt lat="44.24796366995793" lon="11.721881329257448"><ele>198.2</ele><time>2026-03-29T14:59:25Z</time></trkpt><trkpt lat="44.247931012241935" lon="11.72174932023284"><ele>197.79999999999998</ele><time>2026-03-29T14:59:26Z</time></trkpt><trkpt lat="44.24791301488867" lon="11.72159786738357"><ele>197.39999999999998</ele><time>2026-03-29T14:59:27Z</time></trkpt><trkpt lat="44.24790193164747" lon="11.7214536714626"><ele>197.0</ele><time>2026-03-29T14:59:28Z</time></trkpt><trkpt lat="44.24787703742813" lon="11.721321134103773"><ele>197.0</ele><time>2026-03-29T14:59:29Z</time></trkpt><trkpt lat="44.247823549119" lon="11.721178094893778"><ele>197.0</ele><time>2026-03-29T14:59:30Z</time></trkpt><trkpt lat="44.24775764142597" lon="11.721009102409585"><ele>197.0</ele><time>2026-03-29T14:59:31Z</time></trkpt><trkpt lat="44.24771698147189" lon="11.720857302685335"><ele>197.0</ele><time>2026-03-29T14:59:32Z</time></trkpt><trkpt lat="44.24769909676619" lon="11.720730072602128"><ele>199.33333333333334</ele><time>2026-03-29T14:59:33Z</time></trkpt><trkpt lat="44.24768664734575" lon="11.72063568320885"><ele>201.66666666666669</ele><time>2026-03-29T14:59:34Z</time></trkpt><trkpt lat="44.2476325368913" lon="11.720499269519136"><ele>204.0</ele><time>2026-03-29T14:59:35.999Z</time></trkpt><trkpt lat="44.24752412506046" lon="11.72042502179554"><ele>206.33333333333331</ele><time>2026-03-29T14:59:37.999Z</time></trkpt><trkpt lat="44.24745867847588" lon="11.720392008480829"><ele>208.66666666666666</ele><time>2026-03-29T14:59:38.999Z</time></trkpt><trkpt lat="44.24739409800613" lon="11.720361710288161"><ele>211.0</ele><time>2026-03-29T14:59:39.999Z</time></trkpt><trkpt lat="44.2473212131344" lon="11.720315956520926"><ele>212.49999999999997</ele><time>2026-03-29T14:59:40.999Z</time></trkpt><trkpt lat="44.247256435526964" lon="11.720268175001328"><ele>214.0</ele><time>2026-03-29T14:59:41.999Z</time></trkpt><trkpt lat="44.24719418768595" lon="11.720210307952192"><ele>215.5</ele><time>2026-03-29T14:59:42.999Z</time></trkpt><trkpt lat="44.247138913380496" lon="11.72014624242665"><ele>217.0</ele><time>2026-03-29T14:59:43.999Z</time></trkpt><trkpt lat="44.24707968138584" lon="11.720079898047588"><ele>218.49999999999997</ele><time>2026-03-29T14:59:44.999Z</time></trkpt><trkpt lat="44.2470286043173" lon="11.720001170542622"><ele>220.0</ele><time>2026-03-29T14:59:45.999Z</time></trkpt><trkpt lat="44.24696941048424" lon="11.719906039620934"><ele>223.16666666666666</ele><time>2026-03-29T14:59:46.999Z</time></trkpt><trkpt lat="44.24691004003224" lon="11.719814019753139"><ele>226.33333333333331</ele><time>2026-03-29T14:59:47.999Z</time></trkpt><trkpt lat="44.246851517876095" lon="11.71973816808764"><ele>229.5</ele><time>2026-03-29T14:59:48.999Z</time></trkpt><trkpt lat="44.24678464273743" lon="11.719646682318077"><ele>232.66666666666669</ele><time>2026-03-29T14:59:49.999Z</time></trkpt><trkpt lat="44.2467232132921" lon="11.719558398571174"><ele>235.83333333333334</ele><time>2026-03-29T14:59:50.999Z</time></trkpt><trkpt lat="44.246658348354536" lon="11.719474720585628"><ele>239.0</ele><time>2026-03-29T14:59:51.999Z</time></trkpt><trkpt lat="44.24660513173554" lon="11.719391547198834"><ele>240.6</ele><time>2026-03-29T14:59:52.999Z</time></trkpt><trkpt lat="44.246543214845765" lon="11.719290305859568"><ele>242.2</ele><time>2026-03-29T14:59:53.999Z</time></trkpt><trkpt lat="44.246493535922795" lon="11.71919793434459"><ele>243.79999999999998</ele><time>2026-03-29T14:59:55.999Z</time></trkpt><trkpt lat="44.24653783606116" lon="11.719095880561632"><ele>245.39999999999998</ele><time>2026-03-29T14:59:58.999Z</time></trkpt><trkpt lat="44.246666223505315" lon="11.719002866336112"><ele>247.0</ele><time>2026-03-29T15:00:00.999Z</time></trkpt><trkpt lat="44.24675685768086" lon="11.718886532823975"><ele>247.0</ele><time>2026-03-29T15:00:01.999Z</time></trkpt><trkpt lat="44.24680872263791" lon="11.718750464579829"><ele>247.0</ele><time>2026-03-29T15:00:02.999Z</time></trkpt><trkpt lat="44.24683688236408" lon="11.71862158744252"><ele>247.0</ele><time>2026-03-29T15:00:03.999Z</time></trkpt><trkpt lat="44.246863695490454" lon="11.718533689506573"><ele>247.0</ele><time>2026-03-29T15:00:04.999Z</time></trkpt><trkpt lat="44.24694529148505" lon="11.718434398201921"><ele>247.0</ele><time>2026-03-29T15:00:06.999Z</time></trkpt><trkpt lat="44.247024359473926" lon="11.718333770617933"><ele>245.39999999999998</ele><time>2026-03-29T15:00:08.999Z</time></trkpt><trkpt lat="44.247090536389535" lon="11.71828653994465"><ele>243.79999999999998</ele><time>2026-03-29T15:00:09.999Z</time></trkpt><trkpt lat="44.24715852358148" lon="11.718235693472616"><ele>242.2</ele><time>2026-03-29T15:00:10.999Z</time></trkpt><trkpt lat="44.24726193926627" lon="11.718157908141935"><ele>240.6</ele><time>2026-03-29T15:00:12.999Z</time></trkpt><trkpt lat="44.247385212057935" lon="11.718052313700078"><ele>239.0</ele><time>2026-03-29T15:00:14.999Z</time></trkpt><trkpt lat="44.24744312046669" lon="11.717976649621754"><ele>239.0</ele><time>2026-03-29T15:00:15.999Z</time></trkpt><trkpt lat="44.247505698686275" lon="11.717881547456798"><ele>238.99999999999997</ele><time>2026-03-29T15:00:16.999Z</time></trkpt><trkpt lat="44.247571415502954" lon="11.717786557965436"><ele>238.99999999999997</ele><time>2026-03-29T15:00:17.999Z</time></trkpt><trkpt lat="44.247647907015065" lon="11.717692584651516"><ele>239.0</ele><time>2026-03-29T15:00:18.999Z</time></trkpt><trkpt lat="44.247730923055336" lon="11.717600754855946"><ele>239.0</ele><time>2026-03-29T15:00:19.999Z</time></trkpt><trkpt lat="44.24780282169874" lon="11.717528859121819"><ele>238.83333333333334</ele><time>2026-03-29T15:00:20.999Z</time></trkpt><trkpt lat="44.2478661425189" lon="11.717466811604641"><ele>238.66666666666669</ele><time>2026-03-29T15:00:21.999Z</time></trkpt><trkpt lat="44.24793514793665" lon="11.717398477440671"><ele>238.5</ele><time>2026-03-29T15:00:22.999Z</time></trkpt><trkpt lat="44.247986638799055" lon="11.717334285992807"><ele>238.33333333333331</ele><time>2026-03-29T15:00:23.999Z</time></trkpt><trkpt lat="44.24810298865824" lon="11.717241613561724"><ele>238.16666666666666</ele><time>2026-03-29T15:00:25.999Z</time></trkpt><trkpt lat="44.24816305553285" lon="11.717175541193834"><ele>238.0</ele><time>2026-03-29T15:00:26.999Z</time></trkpt><trkpt lat="44.248215848652606" lon="11.717106311196705"><ele>237.99999999999997</ele><time>2026-03-29T15:00:27.999Z</time></trkpt><trkpt lat="44.24826027982547" lon="11.717032827372158"><ele>238.0</ele><time>2026-03-29T15:00:28.999Z</time></trkpt><trkpt lat="44.24830186175335" lon="11.716962968910616"><ele>238.0</ele><time>2026-03-29T15:00:29.999Z</time></trkpt><trkpt lat="44.24834286288835" lon="11.716884719412029"><ele>238.0</ele><time>2026-03-29T15:00:30.999Z</time></trkpt><trkpt lat="44.24837086261971" lon="11.716800905106247"><ele>237.99999999999997</ele><time>2026-03-29T15:00:31.999Z</time></trkpt><trkpt lat="44.24838802383272" lon="11.716651473734665"><ele>238.0</ele><time>2026-03-29T15:00:33.999Z</time></trkpt><trkpt lat="44.248391540682405" lon="11.716507970176531"><ele>237.8</ele><time>2026-03-29T15:00:35.999Z</time></trkpt><trkpt lat="44.24837056054364" lon="11.716334954051181"><ele>237.60000000000002</ele><time>2026-03-29T15:00:37.999Z</time></trkpt><trkpt lat="44.248360192187825" lon="11.716217600599485"><ele>237.39999999999998</ele><time>2026-03-29T15:00:38.999Z</time></trkpt><trkpt lat="44.248333378743396" lon="11.716128343648899"><ele>237.2</ele><time>2026-03-29T15:00:39.999Z</time></trkpt><trkpt lat="44.248309641246486" lon="11.715982224003167"><ele>237.0</ele><time>2026-03-29T15:00:41.998Z</time></trkpt><trkpt lat="44.248286077959605" lon="11.715897098138775"><ele>237.0</ele><time>2026-03-29T15:07:15Z</time></trkpt><trkpt lat="44.24826731748852" lon="11.715758102494737"><ele>237.0</ele><time>2026-03-29T15:07:17Z</time></trkpt><trkpt lat="44.24825551432484" lon="11.715650397023902"><ele>237.0</ele><time>2026-03-29T15:07:18Z</time></trkpt><trkpt lat="44.2482382188836" lon="11.715516614360295"><ele>237.0</ele><time>2026-03-29T15:07:19Z</time></trkpt><trkpt lat="44.2482279536705" lon="11.715366754462478"><ele>237.0</ele><time>2026-03-29T15:07:20Z</time></trkpt><trkpt lat="44.24825263086605" lon="11.715212345838987"><ele>238.0</ele><time>2026-03-29T15:07:21Z</time></trkpt><trkpt lat="44.24825263843199" lon="11.715027156397896"><ele>239.0</ele><time>2026-03-29T15:07:22Z</time></trkpt><trkpt lat="44.2482388409445" lon="11.714806148034263"><ele>240.0</ele><time>2026-03-29T15:07:23Z</time></trkpt><trkpt lat="44.24819055571903" lon="11.714647819093416"><ele>241.0</ele><time>2026-03-29T15:07:24Z</time></trkpt><trkpt lat="44.248158513442114" lon="11.714528260688807"><ele>240.99999999999997</ele><time>2026-03-29T15:07:25Z</time></trkpt><trkpt lat="44.24812383843463" lon="11.71443998628766"><ele>241.0</ele><time>2026-03-29T15:07:26Z</time></trkpt><trkpt lat="44.24808505242611" lon="11.714361197981502"><ele>241.0</ele><time>2026-03-29T15:07:27Z</time></trkpt><trkpt lat="44.24806427788054" lon="11.714225834590815"><ele>241.0</ele><time>2026-03-29T15:07:29Z</time></trkpt><trkpt lat="44.248035641199095" lon="11.71409349093208"><ele>240.99999999999997</ele><time>2026-03-29T15:07:31Z</time></trkpt><trkpt lat="44.24800712665832" lon="11.713955247182431"><ele>241.0</ele><time>2026-03-29T15:07:33Z</time></trkpt><trkpt lat="44.247997748421085" lon="11.71386454577002"><ele>241.0</ele><time>2026-03-29T15:07:34Z</time></trkpt><trkpt lat="44.24796477334369" lon="11.71376660411378"><ele>241.00000000000003</ele><time>2026-03-29T15:07:35Z</time></trkpt><trkpt lat="44.24799240697489" lon="11.713634928484284"><ele>241.00000000000003</ele><time>2026-03-29T15:07:36Z</time></trkpt><trkpt lat="44.24800743546533" lon="11.713521827385671"><ele>241.0</ele><time>2026-03-29T15:07:37Z</time></trkpt><trkpt lat="44.248031990361014" lon="11.713416502938065"><ele>241.0</ele><time>2026-03-29T15:07:38Z</time></trkpt><trkpt lat="44.24811515939758" lon="11.713290707866053"><ele>241.99999999999997</ele><time>2026-03-29T15:07:40Z</time></trkpt><trkpt lat="44.24818347126809" lon="11.713272768293312"><ele>243.0</ele><time>2026-03-29T15:07:41Z</time></trkpt><trkpt lat="44.2482691208513" lon="11.713257527346135"><ele>244.0</ele><time>2026-03-29T15:07:42Z</time></trkpt><trkpt lat="44.24834756106612" lon="11.713196520614273"><ele>245.0</ele><time>2026-03-29T15:07:43Z</time></trkpt><trkpt lat="44.248429003067876" lon="11.713133616101896"><ele>245.99999999999997</ele><time>2026-03-29T15:07:44Z</time></trkpt><trkpt lat="44.24850935141151" lon="11.713049513812877"><ele>247.0</ele><time>2026-03-29T15:07:45Z</time></trkpt><trkpt lat="44.24858868380285" lon="11.712966080933493"><ele>247.0</ele><time>2026-03-29T15:07:46Z</time></trkpt><trkpt lat="44.248670776546234" lon="11.712878538907642"><ele>247.0</ele><time>2026-03-29T15:07:47Z</time></trkpt><trkpt lat="44.248754451101505" lon="11.712791974010344"><ele>247.0</ele><time>2026-03-29T15:07:48Z</time></trkpt><trkpt lat="44.24883591769687" lon="11.712697384153639"><ele>247.0</ele><time>2026-03-29T15:07:49Z</time></trkpt><trkpt lat="44.24889840217112" lon="11.712588811640837"><ele>247.0</ele><time>2026-03-29T15:07:50Z</time></trkpt><trkpt lat="44.24895635479335" lon="11.71246620405224"><ele>246.6</ele><time>2026-03-29T15:07:51Z</time></trkpt><trkpt lat="44.24900624782189" lon="11.712340473969785"><ele>246.2</ele><time>2026-03-29T15:07:52Z</time></trkpt><trkpt lat="44.24904513216425" lon="11.712242749540577"><ele>245.8</ele><time>2026-03-29T15:07:53Z</time></trkpt><trkpt lat="44.24909737795234" lon="11.712129590649022"><ele>245.4</ele><time>2026-03-29T15:07:54Z</time></trkpt><trkpt lat="44.249160428160906" lon="11.712031162395315"><ele>245.0</ele><time>2026-03-29T15:07:55Z</time></trkpt><trkpt lat="44.24920844910447" lon="11.711937138081582"><ele>245.00000000000003</ele><time>2026-03-29T15:07:56Z</time></trkpt><trkpt lat="44.24925843230003" lon="11.711823850533102"><ele>245.0</ele><time>2026-03-29T15:07:56.999Z</time></trkpt><trkpt lat="44.249312999357954" lon="11.711720404055965"><ele>245.0</ele><time>2026-03-29T15:07:57.999Z</time></trkpt><trkpt lat="44.24937608665023" lon="11.711622449208972"><ele>245.0</ele><time>2026-03-29T15:07:58.999Z</time></trkpt><trkpt lat="44.249418767150075" lon="11.711540403348561"><ele>245.00000000000003</ele><time>2026-03-29T15:07:59.999Z</time></trkpt><trkpt lat="44.24945668151198" lon="11.711452733260028"><ele>245.0</ele><time>2026-03-29T15:08:00.999Z</time></trkpt><trkpt lat="44.249484424182576" lon="11.711359426204835"><ele>245.0</ele><time>2026-03-29T15:08:01.999Z</time></trkpt><trkpt lat="44.24949667991079" lon="11.711264424155512"><ele>245.0</ele><time>2026-03-29T15:08:02.999Z</time></trkpt><trkpt lat="44.24952771852573" lon="11.711122626703919"><ele>245.0</ele><time>2026-03-29T15:08:04.999Z</time></trkpt><trkpt lat="44.24961300123611" lon="11.711038626526248"><ele>245.0</ele><time>2026-03-29T15:08:06.999Z</time></trkpt><trkpt lat="44.24968870741562" lon="11.710975634716153"><ele>245.0</ele><time>2026-03-29T15:08:08.999Z</time></trkpt><trkpt lat="44.24975186650566" lon="11.710850521678045"><ele>246.2</ele><time>2026-03-29T15:08:11.999Z</time></trkpt><trkpt lat="44.249832113900034" lon="11.710880024048967"><ele>247.4</ele><time>2026-03-29T15:08:15.999Z</time></trkpt><trkpt lat="44.24996063384197" lon="11.71102951441716"><ele>248.60000000000002</ele><time>2026-03-29T15:08:17.999Z</time></trkpt><trkpt lat="44.25005718577813" lon="11.71107695849587"><ele>249.8</ele><time>2026-03-29T15:08:19.999Z</time></trkpt><trkpt lat="44.2501317377652" lon="11.71111123375059"><ele>251.0</ele><time>2026-03-29T15:08:21.999Z</time></trkpt><trkpt lat="44.25019967037806" lon="11.711137168975858"><ele>251.0</ele><time>2026-03-29T15:08:23.999Z</time></trkpt><trkpt lat="44.25027889623306" lon="11.71117670739919"><ele>251.00000000000003</ele><time>2026-03-29T15:08:25.999Z</time></trkpt><trkpt lat="44.25036034010635" lon="11.711217816998495"><ele>251.00000000000003</ele><time>2026-03-29T15:08:27.999Z</time></trkpt><trkpt lat="44.25045471263484" lon="11.71127310098072"><ele>251.0</ele><time>2026-03-29T15:08:29.999Z</time></trkpt><trkpt lat="44.250538186332264" lon="11.711353243465126"><ele>251.0</ele><time>2026-03-29T15:08:31.999Z</time></trkpt><trkpt lat="44.25063377466872" lon="11.711424741299991"><ele>247.8</ele><time>2026-03-29T15:08:33.999Z</time></trkpt><trkpt lat="44.25069996385823" lon="11.711441210960311"><ele>244.60000000000002</ele><time>2026-03-29T15:08:35.999Z</time></trkpt><trkpt lat="44.25080150929063" lon="11.711491623422983"><ele>241.4</ele><time>2026-03-29T15:08:37.999Z</time></trkpt><trkpt lat="44.25089012895826" lon="11.711577411044502"><ele>238.2</ele><time>2026-03-29T15:08:39.999Z</time></trkpt><trkpt lat="44.25099810106834" lon="11.711637310195245"><ele>235.0</ele><time>2026-03-29T15:08:41.999Z</time></trkpt><trkpt lat="44.25110943018272" lon="11.711709858145625"><ele>235.0</ele><time>2026-03-29T15:08:43.999Z</time></trkpt><trkpt lat="44.25117092969403" lon="11.711731657277074"><ele>235.0</ele><time>2026-03-29T15:08:44.999Z</time></trkpt><trkpt lat="44.251283548797105" lon="11.711709521654207"><ele>235.0</ele><time>2026-03-29T15:08:46.999Z</time></trkpt><trkpt lat="44.25138643383024" lon="11.711722609029982"><ele>235.0</ele><time>2026-03-29T15:08:48.999Z</time></trkpt><trkpt lat="44.251483236544544" lon="11.711776176941635"><ele>235.0</ele><time>2026-03-29T15:08:50.999Z</time></trkpt><trkpt lat="44.2515814070459" lon="11.711845505553544"><ele>232.33333333333331</ele><time>2026-03-29T15:08:52.999Z</time></trkpt><trkpt lat="44.25171108728158" lon="11.711852112771394"><ele>229.66666666666666</ele><time>2026-03-29T15:08:54.999Z</time></trkpt><trkpt lat="44.251789918937895" lon="11.71183750910809"><ele>227.0</ele><time>2026-03-29T15:08:55.999Z</time></trkpt><trkpt lat="44.251868877609404" lon="11.711812625583462"><ele>224.33333333333331</ele><time>2026-03-29T15:08:56.999Z</time></trkpt><trkpt lat="44.25193945423155" lon="11.711782889587502"><ele>221.66666666666666</ele><time>2026-03-29T15:08:57.999Z</time></trkpt><trkpt lat="44.25201938649571" lon="11.711772814357293"><ele>219.0</ele><time>2026-03-29T15:08:58.999Z</time></trkpt><trkpt lat="44.25208753628811" lon="11.711760620415772"><ele>219.0</ele><time>2026-03-29T15:08:59.999Z</time></trkpt><trkpt lat="44.2521995404092" lon="11.71181647942184"><ele>219.0</ele><time>2026-03-29T15:09:01.999Z</time></trkpt><trkpt lat="44.25227381543365" lon="11.71195821614598"><ele>219.0</ele><time>2026-03-29T15:09:03.999Z</time></trkpt><trkpt lat="44.25237043784391" lon="11.712042375515292"><ele>219.0</ele><time>2026-03-29T15:09:05.998Z</time></trkpt><trkpt lat="44.25248627111361" lon="11.712059224469344"><ele>218.39999999999998</ele><time>2026-03-29T15:09:07.998Z</time></trkpt><trkpt lat="44.25260573160056" lon="11.712005621404858"><ele>217.79999999999998</ele><time>2026-03-29T15:09:09.998Z</time></trkpt><trkpt lat="44.25273388291353" lon="11.711996813573228"><ele>217.20000000000002</ele><time>2026-03-29T15:09:11.998Z</time></trkpt><trkpt lat="44.252804910279195" lon="11.711994747857908"><ele>216.60000000000002</ele><time>2026-03-29T15:09:12.998Z</time></trkpt><trkpt lat="44.2528706742059" lon="11.71196273189774"><ele>216.0</ele><time>2026-03-29T15:09:13.998Z</time></trkpt><trkpt lat="44.25293748212609" lon="11.711914082470907"><ele>215.83333333333334</ele><time>2026-03-29T15:09:14.998Z</time></trkpt><trkpt lat="44.25299956529001" lon="11.711877583721115"><ele>215.66666666666669</ele><time>2026-03-29T15:09:15.998Z</time></trkpt><trkpt lat="44.253061398114816" lon="11.711855164120237"><ele>215.5</ele><time>2026-03-29T15:09:16.998Z</time></trkpt><trkpt lat="44.25312957200177" lon="11.711821608546911"><ele>215.33333333333334</ele><time>2026-03-29T15:09:18Z</time></trkpt><trkpt lat="44.25318826845939" lon="11.711779835568287"><ele>215.16666666666669</ele><time>2026-03-29T15:09:19Z</time></trkpt><trkpt lat="44.253299920446395" lon="11.711738249665409"><ele>215.0</ele><time>2026-03-29T15:09:21Z</time></trkpt><trkpt lat="44.25342585060178" lon="11.71179743955635"><ele>215.0</ele><time>2026-03-29T15:09:23Z</time></trkpt><trkpt lat="44.25349831691615" lon="11.711796529816255"><ele>215.0</ele><time>2026-03-29T15:09:24Z</time></trkpt><trkpt lat="44.253569129711295" lon="11.711799612989674"><ele>215.0</ele><time>2026-03-29T15:09:25Z</time></trkpt><trkpt lat="44.253636775640565" lon="11.711826767383608"><ele>215.0</ele><time>2026-03-29T15:09:26Z</time></trkpt><trkpt lat="44.25374668615692" lon="11.711877651838444"><ele>215.0</ele><time>2026-03-29T15:09:28Z</time></trkpt><trkpt lat="44.25382866072254" lon="11.712004310789343"><ele>216.0</ele><time>2026-03-29T15:09:30Z</time></trkpt><trkpt lat="44.2538842843898" lon="11.712063035103684"><ele>217.0</ele><time>2026-03-29T15:09:31Z</time></trkpt><trkpt lat="44.25395470818393" lon="11.712100829864209"><ele>218.0</ele><time>2026-03-29T15:09:32Z</time></trkpt><trkpt lat="44.25402426609883" lon="11.712140764221227"><ele>219.0</ele><time>2026-03-29T15:09:33Z</time></trkpt><trkpt lat="44.25408181779471" lon="11.7121841310003"><ele>220.0</ele><time>2026-03-29T15:09:34Z</time></trkpt><trkpt lat="44.25414682561714" lon="11.712203573177302"><ele>221.0</ele><time>2026-03-29T15:09:35Z</time></trkpt><trkpt lat="44.254218446381834" lon="11.712201610599461"><ele>222.0</ele><time>2026-03-29T15:09:36Z</time></trkpt><trkpt lat="44.25429276295558" lon="11.712187556547963"><ele>222.0</ele><time>2026-03-29T15:09:37Z</time></trkpt><trkpt lat="44.254358206502246" lon="11.712148452518244"><ele>222.0</ele><time>2026-03-29T15:09:38Z</time></trkpt><trkpt lat="44.254412611558955" lon="11.712084496317084"><ele>222.0</ele><time>2026-03-29T15:09:39Z</time></trkpt><trkpt lat="44.254465604057735" lon="11.712031947602181"><ele>222.0</ele><time>2026-03-29T15:09:40Z</time></trkpt><trkpt lat="44.25453551804566" lon="11.712004267286328"><ele>222.0</ele><time>2026-03-29T15:09:41Z</time></trkpt><trkpt lat="44.25460555722282" lon="11.712018744404068"><ele>222.0</ele><time>2026-03-29T15:09:42Z</time></trkpt><trkpt lat="44.25467920227184" lon="11.712061349465836"><ele>222.0</ele><time>2026-03-29T15:09:43Z</time></trkpt><trkpt lat="44.25474056932725" lon="11.712132217657876"><ele>221.39999999999998</ele><time>2026-03-29T15:09:44Z</time></trkpt><trkpt lat="44.25481931981746" lon="11.712188970052457"><ele>220.79999999999998</ele><time>2026-03-29T15:09:45Z</time></trkpt><trkpt lat="44.254899544659594" lon="11.712247730712939"><ele>220.2</ele><time>2026-03-29T15:09:46Z</time></trkpt><trkpt lat="44.254981829659314" lon="11.71232294239168"><ele>219.6</ele><time>2026-03-29T15:09:47Z</time></trkpt><trkpt lat="44.255061136163725" lon="11.712402938724248"><ele>219.0</ele><time>2026-03-29T15:09:48Z</time></trkpt><trkpt lat="44.25514025756239" lon="11.71246505466616"><ele>219.0</ele><time>2026-03-29T15:09:49Z</time></trkpt><trkpt lat="44.25522364407434" lon="11.712503019034468"><ele>219.0</ele><time>2026-03-29T15:09:50Z</time></trkpt><trkpt lat="44.25530666892471" lon="11.71251462607066"><ele>219.0</ele><time>2026-03-29T15:09:51Z</time></trkpt><trkpt lat="44.25538617502753" lon="11.7125173190174"><ele>219.0</ele><time>2026-03-29T15:09:52Z</time></trkpt><trkpt lat="44.255466842480146" lon="11.712543827987265"><ele>219.0</ele><time>2026-03-29T15:09:53Z</time></trkpt><trkpt lat="44.255548879399484" lon="11.712590598131229"><ele>219.0</ele><time>2026-03-29T15:09:54Z</time></trkpt><trkpt lat="44.25562448251901" lon="11.712635053819271"><ele>218.66666666666666</ele><time>2026-03-29T15:09:55Z</time></trkpt><trkpt lat="44.25569412635697" lon="11.71267393837933"><ele>218.33333333333331</ele><time>2026-03-29T15:09:56Z</time></trkpt><trkpt lat="44.255764286338255" lon="11.71273872535264"><ele>218.0</ele><time>2026-03-29T15:09:57Z</time></trkpt><trkpt lat="44.2558228630057" lon="11.712795875911675"><ele>217.66666666666666</ele><time>2026-03-29T15:09:58Z</time></trkpt><trkpt lat="44.255882529253356" lon="11.712850301208022"><ele>217.33333333333331</ele><time>2026-03-29T15:09:59Z</time></trkpt><trkpt lat="44.255990218007696" lon="11.712865173120406"><ele>217.0</ele><time>2026-03-29T15:10:01Z</time></trkpt><trkpt lat="44.25606706497487" lon="11.712891983475492"><ele>218.6</ele><time>2026-03-29T15:10:03Z</time></trkpt><trkpt lat="44.256194889848025" lon="11.712936749526529"><ele>220.2</ele><time>2026-03-29T15:10:04.999Z</time></trkpt><trkpt lat="44.256271715999176" lon="11.712950836424627"><ele>221.8</ele><time>2026-03-29T15:10:05.999Z</time></trkpt><trkpt lat="44.256346827485444" lon="11.712950900239848"><ele>223.4</ele><time>2026-03-29T15:10:06.999Z</time></trkpt><trkpt lat="44.25644752269046" lon="11.71290316254064"><ele>225.0</ele><time>2026-03-29T15:10:08.999Z</time></trkpt><trkpt lat="44.256523099472446" lon="11.712905308853482"><ele>225.8</ele><time>2026-03-29T15:10:10.999Z</time></trkpt><trkpt lat="44.2565567309973" lon="11.712990220577385"><ele>226.6</ele><time>2026-03-29T15:10:12.999Z</time></trkpt><trkpt lat="44.25653597176525" lon="11.713142201712953"><ele>227.39999999999998</ele><time>2026-03-29T15:10:14.999Z</time></trkpt><trkpt lat="44.2565418479365" lon="11.713299907886075"><ele>228.2</ele><time>2026-03-29T15:10:16.999Z</time></trkpt><trkpt lat="44.2566056050078" lon="11.71341640189503"><ele>229.0</ele><time>2026-03-29T15:10:18.999Z</time></trkpt><trkpt lat="44.25666171930397" lon="11.713493323533061"><ele>228.99999999999997</ele><time>2026-03-29T15:10:19.999Z</time></trkpt><trkpt lat="44.25672265055964" lon="11.713560506805287"><ele>229.0</ele><time>2026-03-29T15:10:20.999Z</time></trkpt><trkpt lat="44.256789596464316" lon="11.713626800505407"><ele>229.0</ele><time>2026-03-29T15:10:21.999Z</time></trkpt><trkpt lat="44.25684128967267" lon="11.713688489690828"><ele>229.0</ele><time>2026-03-29T15:10:22.999Z</time></trkpt><trkpt lat="44.25688053518926" lon="11.713764985456868"><ele>228.99999999999997</ele><time>2026-03-29T15:10:23.999Z</time></trkpt><trkpt lat="44.25691348180254" lon="11.713840968977264"><ele>229.0</ele><time>2026-03-29T15:10:24.999Z</time></trkpt><trkpt lat="44.2569567073091" lon="11.71398859083877"><ele>229.2</ele><time>2026-03-29T15:10:26.999Z</time></trkpt><trkpt lat="44.256981505621724" lon="11.714083589037426"><ele>229.39999999999998</ele><time>2026-03-29T15:10:28.999Z</time></trkpt><trkpt lat="44.25694770639606" lon="11.71420158726583"><ele>229.6</ele><time>2026-03-29T15:10:35.999Z</time></trkpt><trkpt lat="44.25683772102363" lon="11.714251075249177"><ele>229.8</ele><time>2026-03-29T15:10:37.999Z</time></trkpt><trkpt lat="44.25675368431727" lon="11.71431407475602"><ele>230.0</ele><time>2026-03-29T15:10:38.999Z</time></trkpt><trkpt lat="44.2566924305953" lon="11.714396507029328"><ele>231.6</ele><time>2026-03-29T15:10:39.999Z</time></trkpt><trkpt lat="44.25665377525821" lon="11.714509369095442"><ele>233.2</ele><time>2026-03-29T15:10:40.999Z</time></trkpt><trkpt lat="44.25660027535094" lon="11.714618301099069"><ele>234.8</ele><time>2026-03-29T15:10:41.999Z</time></trkpt><trkpt lat="44.25660727466655" lon="11.714757788553232"><ele>236.4</ele><time>2026-03-29T15:10:42.999Z</time></trkpt><trkpt lat="44.256587460543415" lon="11.714842435204497"><ele>238.0</ele><time>2026-03-29T15:10:43.999Z</time></trkpt><trkpt lat="44.25665852396522" lon="11.714945150180597"><ele>238.0</ele><time>2026-03-29T15:10:46.999Z</time></trkpt><trkpt lat="44.25679446794281" lon="11.714980578599295"><ele>238.0</ele><time>2026-03-29T15:10:48.999Z</time></trkpt><trkpt lat="44.25688948859018" lon="11.715033478729868"><ele>238.0</ele><time>2026-03-29T15:10:50.999Z</time></trkpt><trkpt lat="44.256995989592795" lon="11.715096762937447"><ele>238.0</ele><time>2026-03-29T15:10:52.999Z</time></trkpt><trkpt lat="44.25707882198978" lon="11.715129528372309"><ele>238.0</ele><time>2026-03-29T15:10:54.999Z</time></trkpt><trkpt lat="44.25714227068418" lon="11.715193548671605"><ele>238.83333333333331</ele><time>2026-03-29T15:10:56.999Z</time></trkpt><trkpt lat="44.25713821290092" lon="11.71529178219844"><ele>239.66666666666666</ele><time>2026-03-29T15:10:59.999Z</time></trkpt><trkpt lat="44.25716755748534" lon="11.715436534728232"><ele>240.5</ele><time>2026-03-29T15:11:01.999Z</time></trkpt><trkpt lat="44.257170104668525" lon="11.715540701405823"><ele>241.33333333333331</ele><time>2026-03-29T15:11:03.999Z</time></trkpt><trkpt lat="44.25714441063224" lon="11.715668632782824"><ele>242.16666666666666</ele><time>2026-03-29T15:11:06.999Z</time></trkpt><trkpt lat="44.2571052121997" lon="11.71575938116459"><ele>243.0</ele><time>2026-03-29T15:11:09.999Z</time></trkpt><trkpt lat="44.257063061413135" lon="11.71587490667361"><ele>241.75</ele><time>2026-03-29T15:11:11.999Z</time></trkpt><trkpt lat="44.2570685431758" lon="11.716100415487304"><ele>240.5</ele><time>2026-03-29T15:11:12.998Z</time></trkpt><trkpt lat="44.25701123678167" lon="11.71623556232396"><ele>239.25</ele><time>2026-03-29T15:11:14.998Z</time></trkpt><trkpt lat="44.256948083587154" lon="11.716370447215395"><ele>238.0</ele><time>2026-03-29T15:11:16.998Z</time></trkpt><trkpt lat="44.256897400068965" lon="11.716526889505198"><ele>238.0</ele><time>2026-03-29T15:11:18.998Z</time></trkpt><trkpt lat="44.256845586094855" lon="11.71664367998773"><ele>238.0</ele><time>2026-03-29T15:11:20.998Z</time></trkpt><trkpt lat="44.256788656886314" lon="11.716780709567097"><ele>238.0</ele><time>2026-03-29T15:11:22.998Z</time></trkpt><trkpt lat="44.256722872745634" lon="11.716883012528228"><ele>238.0</ele><time>2026-03-29T15:11:25Z</time></trkpt><trkpt lat="44.25668571899797" lon="11.71698315721337"><ele>238.0</ele><time>2026-03-29T15:11:27Z</time></trkpt><trkpt lat="44.25659158635004" lon="11.717081163098586"><ele>236.83333333333331</ele><time>2026-03-29T15:11:29Z</time></trkpt><trkpt lat="44.25656041041941" lon="11.717173925512817"><ele>235.66666666666666</ele><time>2026-03-29T15:11:31Z</time></trkpt><trkpt lat="44.256543382569724" lon="11.717275062922067"><ele>234.5</ele><time>2026-03-29T15:11:35Z</time></trkpt><trkpt lat="44.256539827352114" lon="11.71736989872285"><ele>233.33333333333331</ele><time>2026-03-29T15:11:37Z</time></trkpt><trkpt lat="44.256565886263054" lon="11.717492952515776"><ele>232.16666666666666</ele><time>2026-03-29T15:11:40Z</time></trkpt><trkpt lat="44.25661506053338" lon="11.71759575849708"><ele>231.0</ele><time>2026-03-29T15:11:42Z</time></trkpt><trkpt lat="44.25664431236063" lon="11.717698804139385"><ele>228.0</ele><time>2026-03-29T15:11:44Z</time></trkpt><trkpt lat="44.256726490359476" lon="11.717908936602443"><ele>225.0</ele><time>2026-03-29T15:11:46Z</time></trkpt><trkpt lat="44.256734941345826" lon="11.718006044926183"><ele>222.0</ele><time>2026-03-29T15:11:48Z</time></trkpt><trkpt lat="44.25679635040791" lon="11.71813912569601"><ele>219.0</ele><time>2026-03-29T15:11:50Z</time></trkpt><trkpt lat="44.25685152123955" lon="11.718254657409087"><ele>219.0</ele><time>2026-03-29T15:11:51Z</time></trkpt><trkpt lat="44.25693127330355" lon="11.718389065899336"><ele>219.0</ele><time>2026-03-29T15:11:53Z</time></trkpt><trkpt lat="44.256970724454554" lon="11.718458076822769"><ele>219.0</ele><time>2026-03-29T15:11:54Z</time></trkpt><trkpt lat="44.25700861598448" lon="11.718538038303038"><ele>219.0</ele><time>2026-03-29T15:11:55Z</time></trkpt><trkpt lat="44.25705338654665" lon="11.718629444923184"><ele>219.0</ele><time>2026-03-29T15:11:56Z</time></trkpt><trkpt lat="44.25710157732647" lon="11.718709085735608"><ele>219.0</ele><time>2026-03-29T15:11:57Z</time></trkpt><trkpt lat="44.25714503228581" lon="11.718797718053066"><ele>217.33333333333334</ele><time>2026-03-29T15:11:58Z</time></trkpt><trkpt lat="44.257194975725746" lon="11.718881471422057"><ele>215.66666666666669</ele><time>2026-03-29T15:11:59Z</time></trkpt><trkpt lat="44.25724585222244" lon="11.718984946851258"><ele>214.0</ele><time>2026-03-29T15:12:00Z</time></trkpt><trkpt lat="44.257306060582906" lon="11.719077413335949"><ele>212.33333333333334</ele><time>2026-03-29T15:12:01Z</time></trkpt><trkpt lat="44.2573470266204" lon="11.719159854170433"><ele>210.66666666666669</ele><time>2026-03-29T15:12:02Z</time></trkpt><trkpt lat="44.25739710868245" lon="11.7192546489787"><ele>209.0</ele><time>2026-03-29T15:12:03Z</time></trkpt><trkpt lat="44.25744814801661" lon="11.719322592202785"><ele>213.2</ele><time>2026-03-29T15:12:04Z</time></trkpt><trkpt lat="44.257529376127486" lon="11.719429413593863"><ele>217.39999999999998</ele><time>2026-03-29T15:12:06Z</time></trkpt><trkpt lat="44.25758836502197" lon="11.719566962356982"><ele>221.6</ele><time>2026-03-29T15:12:08Z</time></trkpt><trkpt lat="44.25763846410071" lon="11.719663838202608"><ele>225.8</ele><time>2026-03-29T15:12:10Z</time></trkpt><trkpt lat="44.25762345953243" lon="11.719798752666598"><ele>230.0</ele><time>2026-03-29T15:12:11.999Z</time></trkpt><trkpt lat="44.25770516347521" lon="11.719875043432898"><ele>230.00000000000003</ele><time>2026-03-29T15:12:13.999Z</time></trkpt><trkpt lat="44.257759591187295" lon="11.719930734465303"><ele>230.0</ele><time>2026-03-29T15:12:15.999Z</time></trkpt><trkpt lat="44.25771209869243" lon="11.720029556119234"><ele>230.0</ele><time>2026-03-29T15:12:17.999Z</time></trkpt><trkpt lat="44.25764660659234" lon="11.720133526876415"><ele>230.0</ele><time>2026-03-29T15:12:19.999Z</time></trkpt><trkpt lat="44.25757684451816" lon="11.72022566446259"><ele>230.00000000000003</ele><time>2026-03-29T15:12:21.999Z</time></trkpt><trkpt lat="44.25751761065843" lon="11.720293962850901"><ele>230.0</ele><time>2026-03-29T15:12:23.999Z</time></trkpt><trkpt lat="44.25744994881064" lon="11.720455569138425"><ele>228.2</ele><time>2026-03-29T15:12:25.999Z</time></trkpt><trkpt lat="44.25742091404845" lon="11.720544738631757"><ele>226.4</ele><time>2026-03-29T15:12:26.999Z</time></trkpt><trkpt lat="44.25734147538901" lon="11.720703648905483"><ele>224.60000000000002</ele><time>2026-03-29T15:12:28.999Z</time></trkpt><trkpt lat="44.257300930953775" lon="11.720806163437905"><ele>222.8</ele><time>2026-03-29T15:12:29.999Z</time></trkpt><trkpt lat="44.25725976131343" lon="11.720908955130106"><ele>221.0</ele><time>2026-03-29T15:12:30.999Z</time></trkpt><trkpt lat="44.25720728056556" lon="11.72102418513793"><ele>218.8</ele><time>2026-03-29T15:12:31.999Z</time></trkpt><trkpt lat="44.25713620906861" lon="11.721131788919143"><ele>216.60000000000002</ele><time>2026-03-29T15:12:32.999Z</time></trkpt><trkpt lat="44.25707087384987" lon="11.72125673975249"><ele>214.4</ele><time>2026-03-29T15:12:33.999Z</time></trkpt><trkpt lat="44.25702072112766" lon="11.721382156936459"><ele>212.2</ele><time>2026-03-29T15:12:34.999Z</time></trkpt><trkpt lat="44.25698521059232" lon="11.721508530502474"><ele>210.0</ele><time>2026-03-29T15:12:35.999Z</time></trkpt><trkpt lat="44.256950200755504" lon="11.72162062174895"><ele>210.0</ele><time>2026-03-29T15:12:36.999Z</time></trkpt><trkpt lat="44.256897214280585" lon="11.721707985903198"><ele>210.0</ele><time>2026-03-29T15:12:37.999Z</time></trkpt><trkpt lat="44.25683646199517" lon="11.721755869384424"><ele>210.0</ele><time>2026-03-29T15:12:38.999Z</time></trkpt><trkpt lat="44.256766688739425" lon="11.721880156828009"><ele>210.0</ele><time>2026-03-29T15:12:40.999Z</time></trkpt><trkpt lat="44.25675135893715" lon="11.721967861707602"><ele>210.0</ele><time>2026-03-29T15:12:41.999Z</time></trkpt><trkpt lat="44.256749200926116" lon="11.722077053478237"><ele>210.0</ele><time>2026-03-29T15:12:42.999Z</time></trkpt><trkpt lat="44.2567771590832" lon="11.722198183364956"><ele>210.25</ele><time>2026-03-29T15:12:43.999Z</time></trkpt><trkpt lat="44.25680823397696" lon="11.72233882579999"><ele>210.5</ele><time>2026-03-29T15:12:44.999Z</time></trkpt><trkpt lat="44.256832409787584" lon="11.722514573006578"><ele>210.75</ele><time>2026-03-29T15:12:45.999Z</time></trkpt><trkpt lat="44.25684401121463" lon="11.722690518574641"><ele>211.0</ele><time>2026-03-29T15:12:46.999Z</time></trkpt><trkpt lat="44.256852463806965" lon="11.722879399990829"><ele>211.0</ele><time>2026-03-29T15:12:47.999Z</time></trkpt><trkpt lat="44.25687839992338" lon="11.723043957930633"><ele>211.0</ele><time>2026-03-29T15:12:48.999Z</time></trkpt><trkpt lat="44.256903035127216" lon="11.723187065487378"><ele>211.0</ele><time>2026-03-29T15:12:49.999Z</time></trkpt><trkpt lat="44.25690777067447" lon="11.723330673844629"><ele>211.0</ele><time>2026-03-29T15:12:50.999Z</time></trkpt><trkpt lat="44.256900799820016" lon="11.723465516558656"><ele>211.0</ele><time>2026-03-29T15:12:51.999Z</time></trkpt><trkpt lat="44.25689902634939" lon="11.723591492301356"><ele>210.99999999999997</ele><time>2026-03-29T15:12:52.999Z</time></trkpt><trkpt lat="44.256905136652584" lon="11.72370523990386"><ele>211.0</ele><time>2026-03-29T15:12:53.999Z</time></trkpt><trkpt lat="44.256936797386636" lon="11.723815747792326"><ele>211.0</ele><time>2026-03-29T15:12:54.999Z</time></trkpt><trkpt lat="44.25698377285082" lon="11.723929027055286"><ele>211.0</ele><time>2026-03-29T15:12:55.999Z</time></trkpt><trkpt lat="44.257015737083826" lon="11.724026546051368"><ele>210.99999999999997</ele><time>2026-03-29T15:12:56.999Z</time></trkpt><trkpt lat="44.25704659082188" lon="11.724135422489251"><ele>211.0</ele><time>2026-03-29T15:12:57.999Z</time></trkpt><trkpt lat="44.25707758782503" lon="11.7242342900469"><ele>211.0</ele><time>2026-03-29T15:12:58.999Z</time></trkpt><trkpt lat="44.257109477428905" lon="11.724339650684485"><ele>211.0</ele><time>2026-03-29T15:12:59.999Z</time></trkpt><trkpt lat="44.25714373058188" lon="11.72445098973244"><ele>211.0</ele><time>2026-03-29T15:13:00.999Z</time></trkpt><trkpt lat="44.25718761814735" lon="11.724574411165632"><ele>211.0</ele><time>2026-03-29T15:13:01.999Z</time></trkpt><trkpt lat="44.257230711620764" lon="11.72469588680927"><ele>211.0</ele><time>2026-03-29T15:13:02.999Z</time></trkpt><trkpt lat="44.257287228341276" lon="11.72479795103735"><ele>209.4</ele><time>2026-03-29T15:13:03.999Z</time></trkpt><trkpt lat="44.257366908942736" lon="11.72489499905777"><ele>207.8</ele><time>2026-03-29T15:13:04.999Z</time></trkpt><trkpt lat="44.25745133717537" lon="11.72498806949149"><ele>206.20000000000002</ele><time>2026-03-29T15:13:05.999Z</time></trkpt><trkpt lat="44.25752557554412" lon="11.725075919483272"><ele>204.60000000000002</ele><time>2026-03-29T15:13:06.999Z</time></trkpt><trkpt lat="44.25759311267332" lon="11.725166075198434"><ele>203.0</ele><time>2026-03-29T15:13:07.999Z</time></trkpt><trkpt lat="44.25766266961378" lon="11.725270795438401"><ele>201.8</ele><time>2026-03-29T15:13:08.999Z</time></trkpt><trkpt lat="44.25772850880418" lon="11.725375635390934"><ele>200.60000000000002</ele><time>2026-03-29T15:13:09.999Z</time></trkpt><trkpt lat="44.25779950183524" lon="11.725492503651859"><ele>199.39999999999998</ele><time>2026-03-29T15:13:10.999Z</time></trkpt><trkpt lat="44.25786943672866" lon="11.725609017211044"><ele>198.2</ele><time>2026-03-29T15:13:11.999Z</time></trkpt><trkpt lat="44.25794406712491" lon="11.725728638634449"><ele>197.0</ele><time>2026-03-29T15:13:12.999Z</time></trkpt><trkpt lat="44.25801283143359" lon="11.725850223191793"><ele>197.0</ele><time>2026-03-29T15:13:13.999Z</time></trkpt><trkpt lat="44.25805636315333" lon="11.72597666060398"><ele>197.0</ele><time>2026-03-29T15:13:14.999Z</time></trkpt><trkpt lat="44.258109918508985" lon="11.726116959418324"><ele>197.0</ele><time>2026-03-29T15:13:15.999Z</time></trkpt><trkpt lat="44.25816982903513" lon="11.726223880861648"><ele>197.0</ele><time>2026-03-29T15:13:16.999Z</time></trkpt><trkpt lat="44.25821280227754" lon="11.726331908227113"><ele>197.0</ele><time>2026-03-29T15:13:17.999Z</time></trkpt><trkpt lat="44.258241690361494" lon="11.726444222769741"><ele>197.16666666666669</ele><time>2026-03-29T15:13:18.999Z</time></trkpt><trkpt lat="44.258271050277855" lon="11.726561476134247"><ele>197.33333333333334</ele><time>2026-03-29T15:13:19.998Z</time></trkpt><trkpt lat="44.2582933187342" lon="11.726683380470101"><ele>197.5</ele><time>2026-03-29T15:13:20.998Z</time></trkpt><trkpt lat="44.25830471088538" lon="11.72678647681154"><ele>197.66666666666669</ele><time>2026-03-29T15:13:21.998Z</time></trkpt><trkpt lat="44.25830784749177" lon="11.726913401033162"><ele>197.83333333333334</ele><time>2026-03-29T15:13:22.998Z</time></trkpt><trkpt lat="44.258305458165964" lon="11.727008139830566"><ele>198.0</ele><time>2026-03-29T15:13:23.998Z</time></trkpt><trkpt lat="44.25832326777787" lon="11.727131932999127"><ele>196.2</ele><time>2026-03-29T15:13:24.998Z</time></trkpt><trkpt lat="44.25835397923275" lon="11.727250044286182"><ele>194.4</ele><time>2026-03-29T15:13:25.998Z</time></trkpt><trkpt lat="44.258387892974525" lon="11.727388465080612"><ele>192.6</ele><time>2026-03-29T15:13:26.998Z</time></trkpt><trkpt lat="44.25841644057027" lon="11.727544717988636"><ele>190.79999999999998</ele><time>2026-03-29T15:13:27.998Z</time></trkpt><trkpt lat="44.25844449810499" lon="11.72767649185346"><ele>189.0</ele><time>2026-03-29T15:13:28.998Z</time></trkpt><trkpt lat="44.258450417322734" lon="11.727808393993929"><ele>188.0</ele><time>2026-03-29T15:13:30Z</time></trkpt><trkpt lat="44.25843674893353" lon="11.727983587077771"><ele>187.0</ele><time>2026-03-29T15:13:31Z</time></trkpt><trkpt lat="44.25842352092645" lon="11.728172923970742"><ele>186.0</ele><time>2026-03-29T15:13:32Z</time></trkpt><trkpt lat="44.258417200105875" lon="11.728347835484708"><ele>185.0</ele><time>2026-03-29T15:13:33Z</time></trkpt><trkpt lat="44.25842120112909" lon="11.72849165622293"><ele>184.4</ele><time>2026-03-29T15:13:34Z</time></trkpt><trkpt lat="44.25842137754067" lon="11.728613143871911"><ele>183.8</ele><time>2026-03-29T15:13:35Z</time></trkpt><trkpt lat="44.25840579394738" lon="11.728740847056507"><ele>183.2</ele><time>2026-03-29T15:13:36Z</time></trkpt><trkpt lat="44.25836438790387" lon="11.728883190952882"><ele>182.6</ele><time>2026-03-29T15:13:37Z</time></trkpt><trkpt lat="44.258353244314314" lon="11.72906524045442"><ele>182.0</ele><time>2026-03-29T15:13:38Z</time></trkpt><trkpt lat="44.25834934549974" lon="11.729214698041044"><ele>182.0</ele><time>2026-03-29T15:13:39Z</time></trkpt><trkpt lat="44.25833156582164" lon="11.729374217445423"><ele>182.0</ele><time>2026-03-29T15:13:40Z</time></trkpt><trkpt lat="44.25831530336585" lon="11.729588469594136"><ele>182.0</ele><time>2026-03-29T15:13:41Z</time></trkpt><trkpt lat="44.258300850181264" lon="11.72974606206613"><ele>182.0</ele><time>2026-03-29T15:13:42Z</time></trkpt><trkpt lat="44.25827581660113" lon="11.729906395672135"><ele>181.39999999999998</ele><time>2026-03-29T15:13:43Z</time></trkpt><trkpt lat="44.25823426985345" lon="11.730055080772699"><ele>180.79999999999998</ele><time>2026-03-29T15:13:44Z</time></trkpt><trkpt lat="44.258188096185464" lon="11.730202913919308"><ele>180.2</ele><time>2026-03-29T15:13:45Z</time></trkpt><trkpt lat="44.258149305870894" lon="11.730347552745089"><ele>179.6</ele><time>2026-03-29T15:13:46Z</time></trkpt><trkpt lat="44.258121640703465" lon="11.73047707242179"><ele>179.0</ele><time>2026-03-29T15:13:47Z</time></trkpt><trkpt lat="44.258098858172" lon="11.73057271265589"><ele>178.85714285714286</ele><time>2026-03-29T15:13:48Z</time></trkpt><trkpt lat="44.25807484449232" lon="11.730660310282989"><ele>178.71428571428572</ele><time>2026-03-29T15:13:49Z</time></trkpt><trkpt lat="44.258031875437425" lon="11.730750502842787"><ele>178.57142857142856</ele><time>2026-03-29T15:13:50Z</time></trkpt><trkpt lat="44.257991763902005" lon="11.730840442167695"><ele>178.42857142857144</ele><time>2026-03-29T15:13:51Z</time></trkpt><trkpt lat="44.25794785852319" lon="11.730909781547208"><ele>178.28571428571428</ele><time>2026-03-29T15:13:52Z</time></trkpt><trkpt lat="44.25788348969773" lon="11.730914331901493"><ele>178.14285714285714</ele><time>2026-03-29T15:13:54Z</time></trkpt><trkpt lat="44.25781990194972" lon="11.730858868832016"><ele>178.0</ele><time>2026-03-29T15:13:56Z</time></trkpt><trkpt lat="44.25778843286099" lon="11.730949971763145"><ele>178.0</ele><time>2026-03-29T15:14:00Z</time></trkpt><trkpt lat="44.257774977068635" lon="11.73104792837642"><ele>178.0</ele><time>2026-03-29T15:14:03Z</time></trkpt><trkpt lat="44.25775037495985" lon="11.731129858883422"><ele>178.0</ele><time>2026-03-29T15:14:04Z</time></trkpt><trkpt lat="44.25770876757993" lon="11.731226120586005"><ele>178.0</ele><time>2026-03-29T15:14:07Z</time></trkpt><trkpt lat="44.25769213127954" lon="11.731345022670281"><ele>178.0</ele><time>2026-03-29T15:14:09Z</time></trkpt><trkpt lat="44.25766463435975" lon="11.731432665157318"><ele>178.0</ele><time>2026-03-29T15:14:10Z</time></trkpt><trkpt lat="44.25767872513765" lon="11.731545658450704"><ele>178.16666666666669</ele><time>2026-03-29T15:14:12Z</time></trkpt><trkpt lat="44.257693740155126" lon="11.731633105067704"><ele>178.33333333333334</ele><time>2026-03-29T15:14:13Z</time></trkpt><trkpt lat="44.257717295048145" lon="11.73176994745786"><ele>178.5</ele><time>2026-03-29T15:14:15Z</time></trkpt><trkpt lat="44.25770489924747" lon="11.731863080480986"><ele>178.66666666666666</ele><time>2026-03-29T15:14:17.999Z</time></trkpt><trkpt lat="44.25771172177809" lon="11.731957775603256"><ele>178.83333333333331</ele><time>2026-03-29T15:14:19.999Z</time></trkpt><trkpt lat="44.257720887790136" lon="11.732045349711447"><ele>179.0</ele><time>2026-03-29T15:14:21.999Z</time></trkpt><trkpt lat="44.257662211643584" lon="11.732171290260437"><ele>179.0</ele><time>2026-03-29T15:14:23.999Z</time></trkpt><trkpt lat="44.25763829472986" lon="11.732263064325599"><ele>179.0</ele><time>2026-03-29T15:14:24.999Z</time></trkpt><trkpt lat="44.257611893878554" lon="11.732405558345729"><ele>179.0</ele><time>2026-03-29T15:14:26.999Z</time></trkpt><trkpt lat="44.25758676255559" lon="11.732505891118835"><ele>179.0</ele><time>2026-03-29T15:14:29.999Z</time></trkpt><trkpt lat="44.2575908819289" lon="11.732640889202544"><ele>179.0</ele><time>2026-03-29T15:14:32.999Z</time></trkpt><trkpt lat="44.25761047179052" lon="11.732828731558167"><ele>178.83333333333331</ele><time>2026-03-29T15:14:34.999Z</time></trkpt><trkpt lat="44.25758784790144" lon="11.732932735870401"><ele>178.66666666666666</ele><time>2026-03-29T15:14:35.999Z</time></trkpt><trkpt lat="44.25754323056714" lon="11.73301445733911"><ele>178.5</ele><time>2026-03-29T15:14:36.999Z</time></trkpt><trkpt lat="44.25749846630623" lon="11.733107704580474"><ele>178.33333333333334</ele><time>2026-03-29T15:14:37.999Z</time></trkpt><trkpt lat="44.2574511609066" lon="11.733212821595671"><ele>178.16666666666669</ele><time>2026-03-29T15:14:38.999Z</time></trkpt><trkpt lat="44.257408733655474" lon="11.733315919023491"><ele>178.0</ele><time>2026-03-29T15:14:39.999Z</time></trkpt><trkpt lat="44.25736898138737" lon="11.733415365582939"><ele>178.0</ele><time>2026-03-29T15:14:40.999Z</time></trkpt><trkpt lat="44.25733658417404" lon="11.733515388518494"><ele>178.0</ele><time>2026-03-29T15:14:41.999Z</time></trkpt><trkpt lat="44.25730761071231" lon="11.733609747060628"><ele>178.0</ele><time>2026-03-29T15:14:42.999Z</time></trkpt><trkpt lat="44.25726553064027" lon="11.733724214930978"><ele>178.0</ele><time>2026-03-29T15:14:43.999Z</time></trkpt><trkpt lat="44.25723120769748" lon="11.73382362104236"><ele>178.0</ele><time>2026-03-29T15:14:44.999Z</time></trkpt><trkpt lat="44.257199462368604" lon="11.733917638068355"><ele>178.0</ele><time>2026-03-29T15:14:45.999Z</time></trkpt><trkpt lat="44.25717508256576" lon="11.734025758556214"><ele>175.33333333333334</ele><time>2026-03-29T15:14:46.999Z</time></trkpt><trkpt lat="44.25715980072955" lon="11.734126718854416"><ele>172.66666666666669</ele><time>2026-03-29T15:14:47.999Z</time></trkpt><trkpt lat="44.25715283533524" lon="11.734230242017688"><ele>170.0</ele><time>2026-03-29T15:14:48.999Z</time></trkpt><trkpt lat="44.25713944306666" lon="11.734323213672205"><ele>167.33333333333334</ele><time>2026-03-29T15:14:49.999Z</time></trkpt><trkpt lat="44.2571248244989" lon="11.734420421045877"><ele>164.66666666666666</ele><time>2026-03-29T15:14:50.999Z</time></trkpt><trkpt lat="44.25709746424106" lon="11.734528210506069"><ele>162.0</ele><time>2026-03-29T15:14:51.999Z</time></trkpt><trkpt lat="44.25706605522453" lon="11.734643133540066"><ele>162.0</ele><time>2026-03-29T15:14:52.999Z</time></trkpt><trkpt lat="44.25703753038237" lon="11.734745004175647"><ele>162.0</ele><time>2026-03-29T15:14:53.999Z</time></trkpt><trkpt lat="44.2570079216744" lon="11.734847732221036"><ele>162.0</ele><time>2026-03-29T15:14:54.999Z</time></trkpt><trkpt lat="44.2569811986631" lon="11.734942833585949"><ele>162.0</ele><time>2026-03-29T15:14:55.999Z</time></trkpt><trkpt lat="44.2569661315248" lon="11.73503541495384"><ele>162.0</ele><time>2026-03-29T15:14:56.999Z</time></trkpt><trkpt lat="44.256950368696884" lon="11.735128677459706"><ele>162.0</ele><time>2026-03-29T15:14:57.999Z</time></trkpt><trkpt lat="44.25694498657475" lon="11.735236349304023"><ele>162.0</ele><time>2026-03-29T15:14:58.999Z</time></trkpt><trkpt lat="44.25695300616139" lon="11.735330580625279"><ele>160.4</ele><time>2026-03-29T15:14:59.999Z</time></trkpt><trkpt lat="44.256954679118564" lon="11.735491479997856"><ele>158.79999999999998</ele><time>2026-03-29T15:15:01.999Z</time></trkpt><trkpt lat="44.25695623425453" lon="11.735649074901863"><ele>157.2</ele><time>2026-03-29T15:15:03.999Z</time></trkpt><trkpt lat="44.25695947361442" lon="11.735782908416533"><ele>155.6</ele><time>2026-03-29T15:15:05.999Z</time></trkpt><trkpt lat="44.25697988186795" lon="11.735921324526295"><ele>154.0</ele><time>2026-03-29T15:15:07.999Z</time></trkpt><trkpt lat="44.257031424853835" lon="11.735981922934924"><ele>154.0</ele><time>2026-03-29T15:15:10.999Z</time></trkpt><trkpt lat="44.25710758116542" lon="11.736018388697747"><ele>154.0</ele><time>2026-03-29T15:15:14.999Z</time></trkpt><trkpt lat="44.257077076085636" lon="11.73611867037511"><ele>154.0</ele><time>2026-03-29T15:15:18.999Z</time></trkpt><trkpt lat="44.25708820984626" lon="11.736235799741467"><ele>154.0</ele><time>2026-03-29T15:15:21.999Z</time></trkpt><trkpt lat="44.25705773344161" lon="11.736455103011904"><ele>154.0</ele><time>2026-03-29T15:15:23.998Z</time></trkpt><trkpt lat="44.25704438888881" lon="11.736545555094011"><ele>151.0</ele><time>2026-03-29T15:15:24.998Z</time></trkpt><trkpt lat="44.25703732376994" lon="11.736667109554771"><ele>148.0</ele><time>2026-03-29T15:15:26.998Z</time></trkpt><trkpt lat="44.25712045949582" lon="11.736824046514643"><ele>145.0</ele><time>2026-03-29T15:15:28.998Z</time></trkpt><trkpt lat="44.25708530982594" lon="11.736916283847703"><ele>142.0</ele><time>2026-03-29T15:15:31.998Z</time></trkpt><trkpt lat="44.25702657498218" lon="11.73697410846467"><ele>139.0</ele><time>2026-03-29T15:15:33.998Z</time></trkpt><trkpt lat="44.257037851548425" lon="11.73707940690859"><ele>139.66666666666669</ele><time>2026-03-29T15:15:36Z</time></trkpt><trkpt lat="44.25709919344724" lon="11.73719513480259"><ele>140.33333333333334</ele><time>2026-03-29T15:15:38Z</time></trkpt><trkpt lat="44.25715938097416" lon="11.737289559621562"><ele>141.0</ele><time>2026-03-29T15:15:40Z</time></trkpt><trkpt lat="44.25723024321682" lon="11.737339754896157"><ele>141.66666666666666</ele><time>2026-03-29T15:15:42Z</time></trkpt><trkpt lat="44.25729489356965" lon="11.737377634008373"><ele>142.33333333333331</ele><time>2026-03-29T15:15:44Z</time></trkpt><trkpt lat="44.25722322857165" lon="11.737437159451499"><ele>143.0</ele><time>2026-03-29T15:15:50Z</time></trkpt><trkpt lat="44.25716682056588" lon="11.737510584564088"><ele>140.99999999999997</ele><time>2026-03-29T15:15:53Z</time></trkpt><trkpt lat="44.257129251936014" lon="11.737621094935271"><ele>139.0</ele><time>2026-03-29T15:15:56Z</time></trkpt><trkpt lat="44.25716776753666" lon="11.737707690313586"><ele>137.0</ele><time>2026-03-29T15:15:58Z</time></trkpt><trkpt lat="44.257142436103294" lon="11.737805584443391"><ele>135.0</ele><time>2026-03-29T15:16:01Z</time></trkpt><trkpt lat="44.25708320963375" lon="11.737851792177887"><ele>133.0</ele><time>2026-03-29T15:16:04Z</time></trkpt><trkpt lat="44.25702276940965" lon="11.737898043970365"><ele>130.99999999999997</ele><time>2026-03-29T15:16:07Z</time></trkpt><trkpt lat="44.25702119830341" lon="11.737997020803059"><ele>129.0</ele><time>2026-03-29T15:16:11Z</time></trkpt><trkpt lat="44.257021684755685" lon="11.738093005148567"><ele>126.85714285714283</ele><time>2026-03-29T15:16:17Z</time></trkpt><trkpt lat="44.25697387300744" lon="11.73818019107953"><ele>124.71428571428571</ele><time>2026-03-29T15:16:20Z</time></trkpt><trkpt lat="44.25689775573346" lon="11.738222925072877"><ele>122.57142857142856</ele><time>2026-03-29T15:16:24.999Z</time></trkpt><trkpt lat="44.256835599468765" lon="11.738249536399774"><ele>120.42857142857142</ele><time>2026-03-29T15:16:26.999Z</time></trkpt><trkpt lat="44.25676387597863" lon="11.7382250053651"><ele>118.28571428571428</ele><time>2026-03-29T15:16:29.999Z</time></trkpt><trkpt lat="44.25671271755451" lon="11.738172045525914"><ele>116.14285714285714</ele><time>2026-03-29T15:16:36.999Z</time></trkpt><trkpt lat="44.25665127367772" lon="11.73813542145233"><ele>114.0</ele><time>2026-03-29T15:16:44.999Z</time></trkpt><trkpt lat="44.25658816460088" lon="11.738179000763251"><ele>114.0</ele><time>2026-03-29T15:16:48.999Z</time></trkpt><trkpt lat="44.256559477724004" lon="11.738272438469409"><ele>113.99999999999999</ele><time>2026-03-29T15:16:53.999Z</time></trkpt><trkpt lat="44.2565166224768" lon="11.738344643074019"><ele>114.0</ele><time>2026-03-29T15:17:00.999Z</time></trkpt><trkpt lat="44.25644789378833" lon="11.738375158415497"><ele>114.0</ele><time>2026-03-29T15:17:08.999Z</time></trkpt><trkpt lat="44.2563822650837" lon="11.738356430366178"><ele>113.99999999999999</ele><time>2026-03-29T15:17:15.999Z</time></trkpt><trkpt lat="44.2563275953089" lon="11.738403510884135"><ele>114.0</ele><time>2026-03-29T15:17:19.999Z</time></trkpt><trkpt lat="44.2562708585679" lon="11.738454941620503"><ele>114.0</ele><time>2026-03-29T15:17:33.998Z</time></trkpt><trkpt lat="44.25620429019194" lon="11.73840386046043"><ele>110.33333333333333</ele><time>2026-03-29T15:17:51Z</time></trkpt><trkpt lat="44.25614781551446" lon="11.738473212184084"><ele>106.66666666666667</ele><time>2026-03-29T15:18:09Z</time></trkpt><trkpt lat="44.25607989577375" lon="11.738520509640782"><ele>103.0</ele><time>2026-03-29T15:18:16Z</time></trkpt><trkpt lat="44.25603534595729" lon="11.73860719320299"><ele>99.33333333333334</ele><time>2026-03-29T15:18:20Z</time></trkpt><trkpt lat="44.255962590351835" lon="11.738638755578688"><ele>95.66666666666667</ele><time>2026-03-29T15:18:24Z</time></trkpt><trkpt lat="44.255911692403" lon="11.738704397916432"><ele>92.0</ele><time>2026-03-29T15:18:28Z</time></trkpt><trkpt lat="44.25583446380346" lon="11.738713676103572"><ele>91.0</ele><time>2026-03-29T15:18:30.999Z</time></trkpt><trkpt lat="44.25574298190946" lon="11.738747354400212"><ele>90.0</ele><time>2026-03-29T15:18:33.999Z</time></trkpt><trkpt lat="44.25570961997837" lon="11.738822491013408"><ele>89.0</ele><time>2026-03-29T15:18:36.999Z</time></trkpt><trkpt lat="44.25573262431629" lon="11.738917284088354"><ele>88.0</ele><time>2026-03-29T15:19:01.999Z</time></trkpt><trkpt lat="44.255752956520325" lon="11.73901343759524"><ele>87.0</ele><time>2026-03-29T15:19:10.999Z</time></trkpt><trkpt lat="44.255765307306476" lon="11.738918844431796"><ele>86.0</ele><time>2026-03-29T15:20:24Z</time></trkpt><trkpt lat="44.255840774968085" lon="11.738943125137604"><ele>85.0</ele><time>2026-03-29T15:26:17Z</time></trkpt><trkpt lat="44.25592351904418" lon="11.739044076246763"><ele>85.0</ele><time>2026-03-29T15:26:19Z</time></trkpt><trkpt lat="44.2559914226699" lon="11.739180478903593"><ele>85.0</ele><time>2026-03-29T15:26:21Z</time></trkpt><trkpt lat="44.256066730810126" lon="11.73931774580141"><ele>85.0</ele><time>2026-03-29T15:26:23Z</time></trkpt><trkpt lat="44.25611426133215" lon="11.739396567978924"><ele>85.0</ele><time>2026-03-29T15:26:24Z</time></trkpt><trkpt lat="44.25616102716972" lon="11.7394791627089"><ele>85.0</ele><time>2026-03-29T15:26:25Z</time></trkpt><trkpt lat="44.25620396840352" lon="11.739557631171298"><ele>85.16666666666666</ele><time>2026-03-29T15:26:26Z</time></trkpt><trkpt lat="44.256250306730344" lon="11.739630145066574"><ele>85.33333333333333</ele><time>2026-03-29T15:26:27Z</time></trkpt><trkpt lat="44.256301358059694" lon="11.739716240019169"><ele>85.5</ele><time>2026-03-29T15:26:28Z</time></trkpt><trkpt lat="44.25635613803591" lon="11.73980744565543"><ele>85.66666666666667</ele><time>2026-03-29T15:26:29Z</time></trkpt><trkpt lat="44.256416620459994" lon="11.73990296810924"><ele>85.83333333333334</ele><time>2026-03-29T15:26:30Z</time></trkpt><trkpt lat="44.25649148036832" lon="11.7400123705987"><ele>86.0</ele><time>2026-03-29T15:26:31Z</time></trkpt><trkpt lat="44.25658652747726" lon="11.740116677947066"><ele>86.0</ele><time>2026-03-29T15:26:32Z</time></trkpt><trkpt lat="44.25667853586161" lon="11.740208452815715"><ele>86.0</ele><time>2026-03-29T15:26:33Z</time></trkpt><trkpt lat="44.2567693019535" lon="11.740305343937113"><ele>86.0</ele><time>2026-03-29T15:26:34Z</time></trkpt><trkpt lat="44.25686702518728" lon="11.740387352457311"><ele>86.0</ele><time>2026-03-29T15:26:35Z</time></trkpt><trkpt lat="44.25695544023568" lon="11.740463310871595"><ele>86.0</ele><time>2026-03-29T15:26:36Z</time></trkpt><trkpt lat="44.257041908614625" lon="11.740534585252759"><ele>86.0</ele><time>2026-03-29T15:26:37Z</time></trkpt><trkpt lat="44.25712598871068" lon="11.7406023557715"><ele>86.0</ele><time>2026-03-29T15:26:38Z</time></trkpt><trkpt lat="44.25721355965764" lon="11.740657530557096"><ele>86.0</ele><time>2026-03-29T15:26:39Z</time></trkpt><trkpt lat="44.25729405184935" lon="11.74071688389867"><ele>86.0</ele><time>2026-03-29T15:26:40Z</time></trkpt><trkpt lat="44.25736998392517" lon="11.740778057225217"><ele>86.0</ele><time>2026-03-29T15:26:41Z</time></trkpt><trkpt lat="44.25745058257106" lon="11.740829705069856"><ele>85.83333333333334</ele><time>2026-03-29T15:26:42Z</time></trkpt><trkpt lat="44.25752066007179" lon="11.74089212873173"><ele>85.66666666666667</ele><time>2026-03-29T15:26:43Z</time></trkpt><trkpt lat="44.257600124477285" lon="11.740953432889441"><ele>85.5</ele><time>2026-03-29T15:26:44Z</time></trkpt><trkpt lat="44.2576856785625" lon="11.741010999236346"><ele>85.33333333333333</ele><time>2026-03-29T15:26:45Z</time></trkpt><trkpt lat="44.25776471924389" lon="11.741064346669786"><ele>85.16666666666666</ele><time>2026-03-29T15:26:46Z</time></trkpt><trkpt lat="44.25782237855443" lon="11.741100261806391"><ele>85.0</ele><time>2026-03-29T15:26:47Z</time></trkpt><trkpt lat="44.25790967607699" lon="11.741143027066471"><ele>85.0</ele><time>2026-03-29T15:26:49Z</time></trkpt><trkpt lat="44.258023557181374" lon="11.74120374613737"><ele>85.0</ele><time>2026-03-29T15:26:51Z</time></trkpt><trkpt lat="44.2580874747926" lon="11.741252305749784"><ele>85.0</ele><time>2026-03-29T15:26:52Z</time></trkpt><trkpt lat="44.258167288866375" lon="11.74133793793724"><ele>85.0</ele><time>2026-03-29T15:26:53Z</time></trkpt><trkpt lat="44.2582328787949" lon="11.741450147854257"><ele>85.0</ele><time>2026-03-29T15:26:54Z</time></trkpt><trkpt lat="44.25826960584184" lon="11.74163427946635"><ele>85.0</ele><time>2026-03-29T15:26:55Z</time></trkpt><trkpt lat="44.258300668629346" lon="11.741845158328347"><ele>85.0</ele><time>2026-03-29T15:26:55.999Z</time></trkpt><trkpt lat="44.258338761504156" lon="11.742029793880656"><ele>85.0</ele><time>2026-03-29T15:26:56.999Z</time></trkpt><trkpt lat="44.258377901763005" lon="11.742206024321478"><ele>85.0</ele><time>2026-03-29T15:26:57.999Z</time></trkpt><trkpt lat="44.25841523621126" lon="11.74238157538383"><ele>85.0</ele><time>2026-03-29T15:26:58.999Z</time></trkpt><trkpt lat="44.258449758963614" lon="11.742549606187726"><ele>85.0</ele><time>2026-03-29T15:26:59.999Z</time></trkpt><trkpt lat="44.25848470047535" lon="11.742716503176581"><ele>85.0</ele><time>2026-03-29T15:27:00.999Z</time></trkpt><trkpt lat="44.25852115927828" lon="11.742888377916946"><ele>85.0</ele><time>2026-03-29T15:27:01.999Z</time></trkpt><trkpt lat="44.2585663459048" lon="11.74306032778942"><ele>84.75</ele><time>2026-03-29T15:27:02.999Z</time></trkpt><trkpt lat="44.258607578288945" lon="11.743230967145589"><ele>84.5</ele><time>2026-03-29T15:27:03.999Z</time></trkpt><trkpt lat="44.258662846728676" lon="11.743395724132514"><ele>84.25</ele><time>2026-03-29T15:27:04.999Z</time></trkpt><trkpt lat="44.25873091608316" lon="11.743555276158324"><ele>84.0</ele><time>2026-03-29T15:27:05.999Z</time></trkpt><trkpt lat="44.25880135602404" lon="11.74370643487175"><ele>83.0</ele><time>2026-03-29T15:27:06.999Z</time></trkpt><trkpt lat="44.25888295270655" lon="11.743850254301014"><ele>82.0</ele><time>2026-03-29T15:27:07.999Z</time></trkpt><trkpt lat="44.25897668170527" lon="11.743979289228047"><ele>81.0</ele><time>2026-03-29T15:27:08.999Z</time></trkpt><trkpt lat="44.25907836215459" lon="11.744096008855559"><ele>80.0</ele><time>2026-03-29T15:27:09.999Z</time></trkpt><trkpt lat="44.2591866490334" lon="11.74419912054588"><ele>83.75</ele><time>2026-03-29T15:27:10.999Z</time></trkpt><trkpt lat="44.25930496961339" lon="11.744289947605498"><ele>87.5</ele><time>2026-03-29T15:27:11.999Z</time></trkpt><trkpt lat="44.25943714128548" lon="11.7443682374824"><ele>91.25</ele><time>2026-03-29T15:27:12.999Z</time></trkpt><trkpt lat="44.25956523808366" lon="11.74444474058798"><ele>95.0</ele><time>2026-03-29T15:27:13.999Z</time></trkpt><trkpt lat="44.25969981598715" lon="11.744520454214852"><ele>95.5</ele><time>2026-03-29T15:27:14.999Z</time></trkpt><trkpt lat="44.259833726569504" lon="11.744598902923544"><ele>96.0</ele><time>2026-03-29T15:27:15.999Z</time></trkpt><trkpt lat="44.25996921673691" lon="11.744676858072884"><ele>96.5</ele><time>2026-03-29T15:27:16.999Z</time></trkpt><trkpt lat="44.2601021132628" lon="11.744752512135404"><ele>97.0</ele><time>2026-03-29T15:27:17.999Z</time></trkpt><trkpt lat="44.26022832049417" lon="11.744828961902762"><ele>97.0</ele><time>2026-03-29T15:27:18.999Z</time></trkpt><trkpt lat="44.26035167818527" lon="11.744900875248806"><ele>97.0</ele><time>2026-03-29T15:27:19.999Z</time></trkpt><trkpt lat="44.26046733287926" lon="11.744969885802044"><ele>97.0</ele><time>2026-03-29T15:27:20.999Z</time></trkpt><trkpt lat="44.26058885263719" lon="11.74504204332792"><ele>97.0</ele><time>2026-03-29T15:27:21.999Z</time></trkpt><trkpt lat="44.26071105928956" lon="11.745115514765452"><ele>96.75</ele><time>2026-03-29T15:27:22.999Z</time></trkpt><trkpt lat="44.26083467402114" lon="11.745190723050754"><ele>96.5</ele><time>2026-03-29T15:27:23.999Z</time></trkpt><trkpt lat="44.26095535710281" lon="11.745267480892194"><ele>96.25</ele><time>2026-03-29T15:27:24.999Z</time></trkpt><trkpt lat="44.261073452983624" lon="11.745354459984675"><ele>96.0</ele><time>2026-03-29T15:27:25.999Z</time></trkpt><trkpt lat="44.26119229144644" lon="11.74544615173083"><ele>95.5</ele><time>2026-03-29T15:27:26.999Z</time></trkpt><trkpt lat="44.261314803526844" lon="11.745542709273012"><ele>95.0</ele><time>2026-03-29T15:27:27.999Z</time></trkpt><trkpt lat="44.261437267122346" lon="11.745645555485654"><ele>94.5</ele><time>2026-03-29T15:27:28.999Z</time></trkpt><trkpt lat="44.26156401936792" lon="11.745750269285768"><ele>94.0</ele><time>2026-03-29T15:27:29.999Z</time></trkpt><trkpt lat="44.26169339619214" lon="11.745858994705697"><ele>94.0</ele><time>2026-03-29T15:27:30.999Z</time></trkpt><trkpt lat="44.26182394425924" lon="11.745970204954968"><ele>94.0</ele><time>2026-03-29T15:27:31.999Z</time></trkpt><trkpt lat="44.2619564255061" lon="11.746079987078476"><ele>94.0</ele><time>2026-03-29T15:27:32.999Z</time></trkpt><trkpt lat="44.26208879767097" lon="11.746193116211598"><ele>94.0</ele><time>2026-03-29T15:27:33.999Z</time></trkpt><trkpt lat="44.26222273417118" lon="11.746305314249431"><ele>94.0</ele><time>2026-03-29T15:27:34.999Z</time></trkpt><trkpt lat="44.26235336788118" lon="11.74641499817019"><ele>94.0</ele><time>2026-03-29T15:27:35.999Z</time></trkpt><trkpt lat="44.26248162997886" lon="11.746527011593363"><ele>93.33333333333333</ele><time>2026-03-29T15:27:36.999Z</time></trkpt><trkpt lat="44.2626085949841" lon="11.746636335108779"><ele>92.66666666666667</ele><time>2026-03-29T15:27:37.999Z</time></trkpt><trkpt lat="44.2627385782157" lon="11.746743579677615"><ele>92.0</ele><time>2026-03-29T15:27:38.999Z</time></trkpt><trkpt lat="44.262868885033676" lon="11.746854628207272"><ele>92.0</ele><time>2026-03-29T15:27:39.999Z</time></trkpt><trkpt lat="44.26299927625149" lon="11.74696590800981"><ele>92.0</ele><time>2026-03-29T15:27:40.999Z</time></trkpt><trkpt lat="44.26312981611431" lon="11.747076562108523"><ele>92.0</ele><time>2026-03-29T15:27:41.999Z</time></trkpt><trkpt lat="44.263259423008535" lon="11.747189808849146"><ele>91.5</ele><time>2026-03-29T15:27:42.999Z</time></trkpt><trkpt lat="44.26338183727926" lon="11.747296339452852"><ele>91.0</ele><time>2026-03-29T15:27:43.999Z</time></trkpt><trkpt lat="44.263498494064116" lon="11.747399443878988"><ele>90.5</ele><time>2026-03-29T15:27:44.999Z</time></trkpt><trkpt lat="44.26361097330555" lon="11.747500964127022"><ele>90.0</ele><time>2026-03-29T15:27:45.999Z</time></trkpt><trkpt lat="44.263726308848724" lon="11.74759396779872"><ele>90.0</ele><time>2026-03-29T15:27:46.999Z</time></trkpt><trkpt lat="44.263830201460095" lon="11.747674710338003"><ele>90.0</ele><time>2026-03-29T15:27:47.999Z</time></trkpt><trkpt lat="44.26393569894937" lon="11.747745500205554"><ele>90.0</ele><time>2026-03-29T15:27:48.999Z</time></trkpt><trkpt lat="44.26404112442423" lon="11.747806403915954"><ele>90.0</ele><time>2026-03-29T15:27:49.999Z</time></trkpt><trkpt lat="44.26415089961052" lon="11.747863049354125"><ele>90.0</ele><time>2026-03-29T15:27:50.999Z</time></trkpt><trkpt lat="44.264261660337574" lon="11.747916965128956"><ele>90.0</ele><time>2026-03-29T15:27:51.999Z</time></trkpt><trkpt lat="44.26437251025028" lon="11.74797199990415"><ele>90.0</ele><time>2026-03-29T15:27:52.999Z</time></trkpt><trkpt lat="44.26447403286656" lon="11.748036065076079"><ele>90.0</ele><time>2026-03-29T15:27:53.999Z</time></trkpt><trkpt lat="44.2645719369092" lon="11.748109445236029"><ele>90.0</ele><time>2026-03-29T15:27:54.999Z</time></trkpt><trkpt lat="44.26466888802843" lon="11.748191429663537"><ele>90.0</ele><time>2026-03-29T15:27:55.999Z</time></trkpt><trkpt lat="44.264768261631254" lon="11.748278132990178"><ele>90.0</ele><time>2026-03-29T15:27:56.999Z</time></trkpt><trkpt lat="44.264871453546995" lon="11.748364416662032"><ele>90.0</ele><time>2026-03-29T15:27:57.999Z</time></trkpt><trkpt lat="44.26496934020473" lon="11.748456331923325"><ele>89.75</ele><time>2026-03-29T15:27:58.999Z</time></trkpt><trkpt lat="44.265061201356694" lon="11.748540953608757"><ele>89.5</ele><time>2026-03-29T15:27:59.999Z</time></trkpt><trkpt lat="44.265154938961814" lon="11.748632032286716"><ele>89.25</ele><time>2026-03-29T15:28:00.999Z</time></trkpt><trkpt lat="44.26525077716134" lon="11.748727222085886"><ele>89.0</ele><time>2026-03-29T15:28:01.999Z</time></trkpt><trkpt lat="44.26534123422554" lon="11.748838300623644"><ele>88.75</ele><time>2026-03-29T15:28:02.998Z</time></trkpt><trkpt lat="44.265427498234565" lon="11.748954748721488"><ele>88.5</ele><time>2026-03-29T15:28:03.998Z</time></trkpt><trkpt lat="44.265508273726645" lon="11.749067884097673"><ele>88.25</ele><time>2026-03-29T15:28:04.998Z</time></trkpt><trkpt lat="44.26559334523112" lon="11.749176332680085"><ele>88.0</ele><time>2026-03-29T15:28:05.998Z</time></trkpt><trkpt lat="44.2656927447265" lon="11.749270556848641"><ele>88.0</ele><time>2026-03-29T15:28:06.998Z</time></trkpt><trkpt lat="44.26579621256393" lon="11.749363609011438"><ele>88.0</ele><time>2026-03-29T15:28:07.998Z</time></trkpt><trkpt lat="44.26589888402435" lon="11.749462977767298"><ele>88.0</ele><time>2026-03-29T15:28:08.998Z</time></trkpt><trkpt lat="44.266003049896796" lon="11.749559448779104"><ele>88.0</ele><time>2026-03-29T15:28:09.998Z</time></trkpt><trkpt lat="44.266105799578796" lon="11.749655306412018"><ele>88.0</ele><time>2026-03-29T15:28:10.998Z</time></trkpt><trkpt lat="44.26619918689278" lon="11.749744383858484"><ele>88.0</ele><time>2026-03-29T15:28:12Z</time></trkpt><trkpt lat="44.266288582849604" lon="11.749825234216448"><ele>88.0</ele><time>2026-03-29T15:28:13Z</time></trkpt><trkpt lat="44.266372201925634" lon="11.749905354034656"><ele>88.0</ele><time>2026-03-29T15:28:14Z</time></trkpt><trkpt lat="44.266455421419856" lon="11.749970508862052"><ele>88.0</ele><time>2026-03-29T15:28:15Z</time></trkpt><trkpt lat="44.26654058707787" lon="11.750013684295661"><ele>88.0</ele><time>2026-03-29T15:28:16Z</time></trkpt><trkpt lat="44.26663166851631" lon="11.750012569575604"><ele>88.0</ele><time>2026-03-29T15:28:17Z</time></trkpt><trkpt lat="44.26672120191227" lon="11.749961530264125"><ele>88.0</ele><time>2026-03-29T15:28:18Z</time></trkpt><trkpt lat="44.2668084485081" lon="11.749876531189791"><ele>88.0</ele><time>2026-03-29T15:28:19Z</time></trkpt><trkpt lat="44.266898337159205" lon="11.749790720965024"><ele>88.0</ele><time>2026-03-29T15:28:20Z</time></trkpt><trkpt lat="44.267003376190864" lon="11.74972833314811"><ele>88.0</ele><time>2026-03-29T15:28:21Z</time></trkpt><trkpt lat="44.26711657215102" lon="11.749714548387992"><ele>88.0</ele><time>2026-03-29T15:28:22Z</time></trkpt><trkpt lat="44.267231064129184" lon="11.749718473169368"><ele>88.0</ele><time>2026-03-29T15:28:23Z</time></trkpt><trkpt lat="44.26735770133343" lon="11.74975715910292"><ele>88.0</ele><time>2026-03-29T15:28:24Z</time></trkpt><trkpt lat="44.26748420701426" lon="11.749814735940735"><ele>87.0</ele><time>2026-03-29T15:28:25Z</time></trkpt><trkpt lat="44.267611764888734" lon="11.749913588337778"><ele>86.0</ele><time>2026-03-29T15:28:26Z</time></trkpt><trkpt lat="44.26774408748375" lon="11.750027979460457"><ele>85.0</ele><time>2026-03-29T15:28:27Z</time></trkpt><trkpt lat="44.26788801057025" lon="11.750137960294692"><ele>85.0</ele><time>2026-03-29T15:28:28Z</time></trkpt><trkpt lat="44.26802995792446" lon="11.750228916055404"><ele>85.0</ele><time>2026-03-29T15:28:29Z</time></trkpt><trkpt lat="44.26818495950059" lon="11.750297104500632"><ele>85.0</ele><time>2026-03-29T15:28:30Z</time></trkpt><trkpt lat="44.26832930857848" lon="11.750349893305618"><ele>85.0</ele><time>2026-03-29T15:28:31Z</time></trkpt><trkpt lat="44.26846231765054" lon="11.750391324679772"><ele>85.0</ele><time>2026-03-29T15:28:32Z</time></trkpt><trkpt lat="44.268580770521055" lon="11.750430497101956"><ele>85.0</ele><time>2026-03-29T15:28:33Z</time></trkpt><trkpt lat="44.26868368238908" lon="11.750466633455883"><ele>85.0</ele><time>2026-03-29T15:28:34Z</time></trkpt><trkpt lat="44.26876009150677" lon="11.750497571351678"><ele>85.0</ele><time>2026-03-29T15:28:35Z</time></trkpt><trkpt lat="44.268838585534894" lon="11.750595952443684"><ele>85.0</ele><time>2026-03-29T15:28:37Z</time></trkpt><trkpt lat="44.26883746581449" lon="11.750690348527254"><ele>85.0</ele><time>2026-03-29T15:28:38Z</time></trkpt><trkpt lat="44.26879789286138" lon="11.750807816122892"><ele>85.0</ele><time>2026-03-29T15:28:39Z</time></trkpt><trkpt lat="44.26872920022558" lon="11.750947143172302"><ele>85.0</ele><time>2026-03-29T15:28:40Z</time></trkpt><trkpt lat="44.26865600463188" lon="11.75111558962244"><ele>85.0</ele><time>2026-03-29T15:28:41Z</time></trkpt><trkpt lat="44.26857588702935" lon="11.751296298436191"><ele>84.66666666666666</ele><time>2026-03-29T15:28:42Z</time></trkpt><trkpt lat="44.26847953659391" lon="11.751489556056498"><ele>84.33333333333333</ele><time>2026-03-29T15:28:43Z</time></trkpt><trkpt lat="44.268386298861806" lon="11.7516896238745"><ele>84.0</ele><time>2026-03-29T15:28:44Z</time></trkpt><trkpt lat="44.26830386307923" lon="11.751879927388968"><ele>83.75</ele><time>2026-03-29T15:28:45Z</time></trkpt><trkpt lat="44.26823021099825" lon="11.752039050750243"><ele>83.5</ele><time>2026-03-29T15:28:46Z</time></trkpt><trkpt lat="44.268158826651025" lon="11.752191505763864"><ele>83.25</ele><time>2026-03-29T15:28:47Z</time></trkpt><trkpt lat="44.26809073841238" lon="11.752357435842681"><ele>83.0</ele><time>2026-03-29T15:28:48Z</time></trkpt><trkpt lat="44.26804505662216" lon="11.752536824857575"><ele>82.5</ele><time>2026-03-29T15:28:49Z</time></trkpt><trkpt lat="44.26801553507597" lon="11.752722525114935"><ele>82.0</ele><time>2026-03-29T15:28:50Z</time></trkpt><trkpt lat="44.26799314360721" lon="11.752915779744704"><ele>81.5</ele><time>2026-03-29T15:28:51Z</time></trkpt><trkpt lat="44.26797305505832" lon="11.75310419895883"><ele>81.0</ele><time>2026-03-29T15:28:52Z</time></trkpt><trkpt lat="44.26794809654167" lon="11.753286346594482"><ele>81.0</ele><time>2026-03-29T15:28:53Z</time></trkpt><trkpt lat="44.26792670038568" lon="11.75346954222823"><ele>81.0</ele><time>2026-03-29T15:28:54Z</time></trkpt><trkpt lat="44.26790648324619" lon="11.753647528051093"><ele>81.0</ele><time>2026-03-29T15:28:55Z</time></trkpt><trkpt lat="44.26788643659655" lon="11.753822488697239"><ele>81.0</ele><time>2026-03-29T15:28:56Z</time></trkpt><trkpt lat="44.26786457429803" lon="11.753995921390564"><ele>80.75</ele><time>2026-03-29T15:28:57Z</time></trkpt><trkpt lat="44.26784832946001" lon="11.754167001516826"><ele>80.5</ele><time>2026-03-29T15:28:58Z</time></trkpt><trkpt lat="44.26782780102979" lon="11.75433209012732"><ele>80.25</ele><time>2026-03-29T15:28:58.999Z</time></trkpt><trkpt lat="44.26780807113916" lon="11.754499427056492"><ele>80.0</ele><time>2026-03-29T15:28:59.999Z</time></trkpt><trkpt lat="44.26779090134662" lon="11.754665512146204"><ele>80.0</ele><time>2026-03-29T15:29:00.999Z</time></trkpt><trkpt lat="44.26777178145281" lon="11.754831622811638"><ele>80.0</ele><time>2026-03-29T15:29:01.999Z</time></trkpt><trkpt lat="44.26776049879142" lon="11.755000379821873"><ele>80.0</ele><time>2026-03-29T15:29:02.999Z</time></trkpt><trkpt lat="44.26776320137533" lon="11.755174533374989"><ele>80.0</ele><time>2026-03-29T15:29:03.999Z</time></trkpt><trkpt lat="44.26778211893796" lon="11.755349695837632"><ele>79.75</ele><time>2026-03-29T15:29:04.999Z</time></trkpt><trkpt lat="44.26780938800337" lon="11.755525912965371"><ele>79.5</ele><time>2026-03-29T15:29:05.999Z</time></trkpt><trkpt lat="44.267837548929364" lon="11.755705211060855"><ele>79.25</ele><time>2026-03-29T15:29:06.999Z</time></trkpt><trkpt lat="44.26784595983931" lon="11.755886317195097"><ele>79.0</ele><time>2026-03-29T15:29:07.999Z</time></trkpt><trkpt lat="44.26784155363273" lon="11.756066964241231"><ele>77.0</ele><time>2026-03-29T15:29:08.999Z</time></trkpt><trkpt lat="44.267832587371586" lon="11.756248175725212"><ele>75.0</ele><time>2026-03-29T15:29:09.999Z</time></trkpt><trkpt lat="44.26782777853631" lon="11.7564309093913"><ele>73.0</ele><time>2026-03-29T15:29:10.999Z</time></trkpt><trkpt lat="44.267835795204775" lon="11.756620318026291"><ele>71.0</ele><time>2026-03-29T15:29:11.999Z</time></trkpt><trkpt lat="44.2678548070967" lon="11.756818822579852"><ele>69.0</ele><time>2026-03-29T15:29:12.999Z</time></trkpt><trkpt lat="44.267872535532746" lon="11.7570105539155"><ele>67.0</ele><time>2026-03-29T15:29:13.999Z</time></trkpt><trkpt lat="44.26787881346168" lon="11.75719644133302"><ele>65.0</ele><time>2026-03-29T15:29:14.999Z</time></trkpt><trkpt lat="44.267881467010575" lon="11.757376889510143"><ele>63.0</ele><time>2026-03-29T15:29:15.999Z</time></trkpt><trkpt lat="44.26788823016498" lon="11.757554310705574"><ele>62.5</ele><time>2026-03-29T15:29:16.999Z</time></trkpt><trkpt lat="44.26788568886415" lon="11.757720089832272"><ele>62.0</ele><time>2026-03-29T15:29:17.999Z</time></trkpt><trkpt lat="44.26788001113006" lon="11.757896805176179"><ele>61.5</ele><time>2026-03-29T15:29:18.999Z</time></trkpt><trkpt lat="44.267873048565534" lon="11.758077230033438"><ele>61.0</ele><time>2026-03-29T15:29:19.999Z</time></trkpt><trkpt lat="44.26785958950565" lon="11.758242767568309"><ele>61.0</ele><time>2026-03-29T15:29:20.999Z</time></trkpt><trkpt lat="44.267835224352936" lon="11.75840114401158"><ele>61.0</ele><time>2026-03-29T15:29:21.999Z</time></trkpt><trkpt lat="44.26779210316271" lon="11.758572937516067"><ele>61.0</ele><time>2026-03-29T15:29:22.999Z</time></trkpt><trkpt lat="44.267733719233185" lon="11.758727051715564"><ele>61.0</ele><time>2026-03-29T15:29:23.999Z</time></trkpt><trkpt lat="44.267667050672266" lon="11.758866760607237"><ele>60.8</ele><time>2026-03-29T15:29:24.999Z</time></trkpt><trkpt lat="44.267604726841455" lon="11.758993174646918"><ele>60.599999999999994</ele><time>2026-03-29T15:29:25.999Z</time></trkpt><trkpt lat="44.26755270489172" lon="11.75911239503472"><ele>60.4</ele><time>2026-03-29T15:29:26.999Z</time></trkpt><trkpt lat="44.26752154726374" lon="11.759225590648356"><ele>60.2</ele><time>2026-03-29T15:29:27.999Z</time></trkpt><trkpt lat="44.26752605486218" lon="11.7593526892318"><ele>60.0</ele><time>2026-03-29T15:29:28.999Z</time></trkpt><trkpt lat="44.267554290518525" lon="11.759500588480194"><ele>59.0</ele><time>2026-03-29T15:29:29.999Z</time></trkpt><trkpt lat="44.26759558244703" lon="11.75967652807845"><ele>58.0</ele><time>2026-03-29T15:29:30.999Z</time></trkpt><trkpt lat="44.26764455493948" lon="11.759906060433517"><ele>57.0</ele><time>2026-03-29T15:29:31.999Z</time></trkpt><trkpt lat="44.26770036050795" lon="11.760182439287298"><ele>57.0</ele><time>2026-03-29T15:29:32.999Z</time></trkpt><trkpt lat="44.26775089893438" lon="11.760425849379502"><ele>57.0</ele><time>2026-03-29T15:29:33.999Z</time></trkpt><trkpt lat="44.267782200598646" lon="11.760639722770218"><ele>57.0</ele><time>2026-03-29T15:29:34.999Z</time></trkpt><trkpt lat="44.26782079809248" lon="11.76083181233941"><ele>57.0</ele><time>2026-03-29T15:29:35.999Z</time></trkpt><trkpt lat="44.26785930412204" lon="11.76100634591085"><ele>57.0</ele><time>2026-03-29T15:29:36.999Z</time></trkpt><trkpt lat="44.26789599646036" lon="11.761176870588692"><ele>57.0</ele><time>2026-03-29T15:29:37.999Z</time></trkpt><trkpt lat="44.26793958560677" lon="11.761350700330885"><ele>57.0</ele><time>2026-03-29T15:29:38.999Z</time></trkpt><trkpt lat="44.26799440854152" lon="11.76150695915046"><ele>58.0</ele><time>2026-03-29T15:29:39.999Z</time></trkpt><trkpt lat="44.268070001348455" lon="11.76163981970051"><ele>59.0</ele><time>2026-03-29T15:29:40.999Z</time></trkpt><trkpt lat="44.26816108564249" lon="11.761756173307448"><ele>60.0</ele><time>2026-03-29T15:29:41.999Z</time></trkpt><trkpt lat="44.2682553365885" lon="11.76187253809252"><ele>61.0</ele><time>2026-03-29T15:29:42.999Z</time></trkpt><trkpt lat="44.268353224298465" lon="11.76198594648777"><ele>65.0</ele><time>2026-03-29T15:29:43.999Z</time></trkpt><trkpt lat="44.268459551317015" lon="11.762094330539428"><ele>69.0</ele><time>2026-03-29T15:29:44.999Z</time></trkpt><trkpt lat="44.268575645682866" lon="11.76218848550088"><ele>73.0</ele><time>2026-03-29T15:29:45.999Z</time></trkpt><trkpt lat="44.268700075125565" lon="11.762271467218232"><ele>77.0</ele><time>2026-03-29T15:29:46.999Z</time></trkpt><trkpt lat="44.268825676259524" lon="11.762352243241462"><ele>74.5</ele><time>2026-03-29T15:29:47.999Z</time></trkpt><trkpt lat="44.268950379280795" lon="11.762429641467964"><ele>72.0</ele><time>2026-03-29T15:29:48.999Z</time></trkpt><trkpt lat="44.269077105254425" lon="11.762508810378682"><ele>69.5</ele><time>2026-03-29T15:29:49.999Z</time></trkpt><trkpt lat="44.2692044472047" lon="11.762578066474568"><ele>67.0</ele><time>2026-03-29T15:29:50.999Z</time></trkpt><trkpt lat="44.26932655834158" lon="11.762666848846386"><ele>67.5</ele><time>2026-03-29T15:29:51.999Z</time></trkpt><trkpt lat="44.26944174803777" lon="11.762773949184638"><ele>68.0</ele><time>2026-03-29T15:29:52.999Z</time></trkpt><trkpt lat="44.26955288656879" lon="11.762890592628136"><ele>68.5</ele><time>2026-03-29T15:29:53.999Z</time></trkpt><trkpt lat="44.269662860141196" lon="11.762996689180678"><ele>69.0</ele><time>2026-03-29T15:29:54.999Z</time></trkpt><trkpt lat="44.26978337639588" lon="11.763078080486192"><ele>69.0</ele><time>2026-03-29T15:29:55.999Z</time></trkpt><trkpt lat="44.26990876594784" lon="11.763162455723846"><ele>69.0</ele><time>2026-03-29T15:29:56.999Z</time></trkpt><trkpt lat="44.270028212604295" lon="11.763259767776418"><ele>69.0</ele><time>2026-03-29T15:29:57.999Z</time></trkpt><trkpt lat="44.27015360847985" lon="11.76336260194182"><ele>69.0</ele><time>2026-03-29T15:29:58.999Z</time></trkpt><trkpt lat="44.27028466270862" lon="11.763462870787782"><ele>68.0</ele><time>2026-03-29T15:29:59.999Z</time></trkpt><trkpt lat="44.27040087612049" lon="11.76358228426825"><ele>67.0</ele><time>2026-03-29T15:30:00.999Z</time></trkpt><trkpt lat="44.27052667317804" lon="11.7636824310126"><ele>66.0</ele><time>2026-03-29T15:30:01.999Z</time></trkpt><trkpt lat="44.27066125975727" lon="11.76377429270888"><ele>65.0</ele><time>2026-03-29T15:30:02.999Z</time></trkpt><trkpt lat="44.27079915856273" lon="11.763855979159665"><ele>65.0</ele><time>2026-03-29T15:30:03.999Z</time></trkpt><trkpt lat="44.27094123857054" lon="11.763929960108745"><ele>65.0</ele><time>2026-03-29T15:30:04.999Z</time></trkpt><trkpt lat="44.271088475600635" lon="11.763988487113156"><ele>65.0</ele><time>2026-03-29T15:30:05.998Z</time></trkpt><trkpt lat="44.27124056151106" lon="11.764029816612664"><ele>65.0</ele><time>2026-03-29T15:30:06.998Z</time></trkpt><trkpt lat="44.27139222472377" lon="11.76406694861377"><ele>65.0</ele><time>2026-03-29T15:30:07.998Z</time></trkpt><trkpt lat="44.27154255271572" lon="11.76409957231119"><ele>65.0</ele><time>2026-03-29T15:30:08.998Z</time></trkpt><trkpt lat="44.271690767323584" lon="11.764133599687423"><ele>63.25</ele><time>2026-03-29T15:30:09.998Z</time></trkpt><trkpt lat="44.271835643278685" lon="11.764173633800967"><ele>61.5</ele><time>2026-03-29T15:30:10.998Z</time></trkpt><trkpt lat="44.27197735029921" lon="11.764205907228515"><ele>59.75</ele><time>2026-03-29T15:30:11.998Z</time></trkpt><trkpt lat="44.272119976332974" lon="11.764255635066473"><ele>58.0</ele><time>2026-03-29T15:30:12.998Z</time></trkpt><trkpt lat="44.27225621481226" lon="11.76433931284647"><ele>57.0</ele><time>2026-03-29T15:30:13.998Z</time></trkpt><trkpt lat="44.272382281872396" lon="11.764464236379885"><ele>56.0</ele><time>2026-03-29T15:30:14.998Z</time></trkpt><trkpt lat="44.27250117548035" lon="11.764608073684528"><ele>55.0</ele><time>2026-03-29T15:30:15.998Z</time></trkpt><trkpt lat="44.27261772818808" lon="11.76473754690266"><ele>55.0</ele><time>2026-03-29T15:30:16.998Z</time></trkpt><trkpt lat="44.272725760466294" lon="11.764857390575228"><ele>55.0</ele><time>2026-03-29T15:30:18Z</time></trkpt><trkpt lat="44.272840807003924" lon="11.764983800190654"><ele>55.0</ele><time>2026-03-29T15:30:19Z</time></trkpt><trkpt lat="44.2729482261774" lon="11.76510916054364"><ele>55.0</ele><time>2026-03-29T15:30:20Z</time></trkpt><trkpt lat="44.2730594162359" lon="11.765236109255973"><ele>55.0</ele><time>2026-03-29T15:30:21Z</time></trkpt><trkpt lat="44.273165379108804" lon="11.765356603505584"><ele>55.0</ele><time>2026-03-29T15:30:22Z</time></trkpt><trkpt lat="44.27326981846293" lon="11.765469826462478"><ele>55.0</ele><time>2026-03-29T15:30:23Z</time></trkpt><trkpt lat="44.27335872402369" lon="11.765583102442534"><ele>55.0</ele><time>2026-03-29T15:30:24Z</time></trkpt><trkpt lat="44.27342911622614" lon="11.765707401129399"><ele>55.0</ele><time>2026-03-29T15:30:25Z</time></trkpt><trkpt lat="44.273473774448995" lon="11.765859557713815"><ele>55.0</ele><time>2026-03-29T15:30:26Z</time></trkpt><trkpt lat="44.27347628689165" lon="11.766027848166766"><ele>55.0</ele><time>2026-03-29T15:30:27Z</time></trkpt><trkpt lat="44.27345567385542" lon="11.766195918420078"><ele>55.0</ele><time>2026-03-29T15:30:28Z</time></trkpt><trkpt lat="44.27343571491047" lon="11.766364171921637"><ele>55.5</ele><time>2026-03-29T15:30:29Z</time></trkpt><trkpt lat="44.27341933348153" lon="11.766532409542224"><ele>56.0</ele><time>2026-03-29T15:30:30Z</time></trkpt><trkpt lat="44.27341982791018" lon="11.766689852242372"><ele>56.5</ele><time>2026-03-29T15:30:31Z</time></trkpt><trkpt lat="44.27345894494431" lon="11.766826049716872"><ele>57.0</ele><time>2026-03-29T15:30:32Z</time></trkpt><trkpt lat="44.27354006149966" lon="11.766940937349522"><ele>58.33333333333333</ele><time>2026-03-29T15:30:33Z</time></trkpt><trkpt lat="44.27366488232958" lon="11.767065771301187"><ele>59.666666666666664</ele><time>2026-03-29T15:30:34Z</time></trkpt><trkpt lat="44.27378268132052" lon="11.7672241190619"><ele>61.0</ele><time>2026-03-29T15:30:35Z</time></trkpt><trkpt lat="44.27392594996115" lon="11.767424475648356"><ele>60.0</ele><time>2026-03-29T15:30:36Z</time></trkpt><trkpt lat="44.274074029245114" lon="11.767612164343529"><ele>59.0</ele><time>2026-03-29T15:30:37Z</time></trkpt><trkpt lat="44.27422151690537" lon="11.767780305892812"><ele>58.0</ele><time>2026-03-29T15:30:38Z</time></trkpt><trkpt lat="44.27435756835015" lon="11.767912970783788"><ele>59.25</ele><time>2026-03-29T15:30:39Z</time></trkpt><trkpt lat="44.27448263446826" lon="11.768033202522778"><ele>60.5</ele><time>2026-03-29T15:30:40Z</time></trkpt><trkpt lat="44.27460084171753" lon="11.768152563626309"><ele>61.75</ele><time>2026-03-29T15:30:41Z</time></trkpt><trkpt lat="44.274712754467814" lon="11.768270863113381"><ele>63.0</ele><time>2026-03-29T15:30:42Z</time></trkpt><trkpt lat="44.274826513400996" lon="11.768387291538193"><ele>63.0</ele><time>2026-03-29T15:30:43Z</time></trkpt><trkpt lat="44.27494215742152" lon="11.768491570765253"><ele>63.0</ele><time>2026-03-29T15:30:44Z</time></trkpt><trkpt lat="44.275067728792436" lon="11.768570757605842"><ele>63.0</ele><time>2026-03-29T15:30:45Z</time></trkpt><trkpt lat="44.275204763293125" lon="11.768621701405864"><ele>63.0</ele><time>2026-03-29T15:30:46Z</time></trkpt><trkpt lat="44.27535368678365" lon="11.768648091477377"><ele>64.0</ele><time>2026-03-29T15:30:47Z</time></trkpt><trkpt lat="44.275500193686824" lon="11.768683626368242"><ele>65.0</ele><time>2026-03-29T15:30:48Z</time></trkpt><trkpt lat="44.275635984489824" lon="11.768715682139765"><ele>66.0</ele><time>2026-03-29T15:30:49Z</time></trkpt><trkpt lat="44.27577082024307" lon="11.768785071840504"><ele>67.0</ele><time>2026-03-29T15:30:50Z</time></trkpt><trkpt lat="44.27590153081793" lon="11.76887483210463"><ele>67.0</ele><time>2026-03-29T15:30:51Z</time></trkpt><trkpt lat="44.27602718367603" lon="11.768980686762832"><ele>67.0</ele><time>2026-03-29T15:30:52Z</time></trkpt><trkpt lat="44.276150992601046" lon="11.769086256706915"><ele>67.0</ele><time>2026-03-29T15:30:53Z</time></trkpt><trkpt lat="44.276267662131346" lon="11.769198641543921"><ele>67.0</ele><time>2026-03-29T15:30:54Z</time></trkpt><trkpt lat="44.27638225029289" lon="11.769309562510953"><ele>67.4</ele><time>2026-03-29T15:30:55Z</time></trkpt><trkpt lat="44.276493295930116" lon="11.769412547014158"><ele>67.80000000000001</ele><time>2026-03-29T15:30:56Z</time></trkpt><trkpt lat="44.27659147373993" lon="11.769498557466035"><ele>68.2</ele><time>2026-03-29T15:30:57Z</time></trkpt><trkpt lat="44.276677972181254" lon="11.769579021019867"><ele>68.60000000000001</ele><time>2026-03-29T15:30:58Z</time></trkpt><trkpt lat="44.27675109310853" lon="11.769653394411694"><ele>69.0</ele><time>2026-03-29T15:30:59Z</time></trkpt><trkpt lat="44.276818704955225" lon="11.769719245488185"><ele>69.0</ele><time>2026-03-29T15:31:00Z</time></trkpt><trkpt lat="44.27687887712417" lon="11.769779261128075"><ele>69.0</ele><time>2026-03-29T15:31:01Z</time></trkpt><trkpt lat="44.276934593143885" lon="11.769831270239807"><ele>69.0</ele><time>2026-03-29T15:31:02Z</time></trkpt><trkpt lat="44.27700737365756" lon="11.769866821244896"><ele>69.0</ele><time>2026-03-29T15:31:04Z</time></trkpt><trkpt lat="44.27704140389045" lon="11.769764572582353"><ele>69.0</ele><time>2026-03-29T15:31:06.999Z</time></trkpt><trkpt lat="44.277106370609054" lon="11.769745769366914"><ele>69.0</ele><time>2026-03-29T15:31:08.999Z</time></trkpt><trkpt lat="44.27715722893938" lon="11.769691660107863"><ele>69.0</ele><time>2026-03-29T15:31:10.999Z</time></trkpt><trkpt lat="44.27723344606571" lon="11.769603343797924"><ele>68.5</ele><time>2026-03-29T15:31:12.999Z</time></trkpt><trkpt lat="44.277284808288016" lon="11.769531754743234"><ele>68.0</ele><time>2026-03-29T15:31:13.999Z</time></trkpt><trkpt lat="44.27733887937833" lon="11.769464076540013"><ele>67.5</ele><time>2026-03-29T15:31:14.999Z</time></trkpt><trkpt lat="44.277435711799605" lon="11.769368935218525"><ele>67.0</ele><time>2026-03-29T15:31:16.999Z</time></trkpt><trkpt lat="44.27749832182439" lon="11.768785327549741"><ele>66.33333333333333</ele><time>2026-03-29T15:31:21.999Z</time></trkpt><trkpt lat="44.2775531344627" lon="11.768718873107977"><ele>65.66666666666666</ele><time>2026-03-29T15:31:22.999Z</time></trkpt><trkpt lat="44.27761053105428" lon="11.768634363228948"><ele>65.0</ele><time>2026-03-29T15:31:23.999Z</time></trkpt><trkpt lat="44.27765318265132" lon="11.768557084698765"><ele>64.33333333333333</ele><time>2026-03-29T15:31:24.999Z</time></trkpt><trkpt lat="44.277692286735714" lon="11.76847890988751"><ele>63.666666666666664</ele><time>2026-03-29T15:31:25.999Z</time></trkpt><trkpt lat="44.277754421965035" lon="11.768349855974218"><ele>63.0</ele><time>2026-03-29T15:31:27.999Z</time></trkpt><trkpt lat="44.27780402928838" lon="11.768255460043598"><ele>61.8</ele><time>2026-03-29T15:31:29.999Z</time></trkpt><trkpt lat="44.27786472804558" lon="11.768136265853236"><ele>60.599999999999994</ele><time>2026-03-29T15:31:31.999Z</time></trkpt><trkpt lat="44.2779156562226" lon="11.76805865632035"><ele>59.400000000000006</ele><time>2026-03-29T15:31:33.999Z</time></trkpt><trkpt lat="44.2779821850258" lon="11.767933982749671"><ele>58.2</ele><time>2026-03-29T15:31:35.999Z</time></trkpt><trkpt lat="44.278038427544224" lon="11.767831150469643"><ele>57.0</ele><time>2026-03-29T15:31:37.999Z</time></trkpt><trkpt lat="44.278091642322245" lon="11.767742061539435"><ele>56.8</ele><time>2026-03-29T15:31:39.999Z</time></trkpt><trkpt lat="44.278138525946986" lon="11.767624007980896"><ele>56.6</ele><time>2026-03-29T15:31:41.999Z</time></trkpt><trkpt lat="44.27813885109445" lon="11.767518449107053"><ele>56.39999999999999</ele><time>2026-03-29T15:31:43.999Z</time></trkpt><trkpt lat="44.27810070260508" lon="11.767434646340133"><ele>56.199999999999996</ele><time>2026-03-29T15:31:45.999Z</time></trkpt><trkpt lat="44.27800035916283" lon="11.76737022455608"><ele>56.0</ele><time>2026-03-29T15:31:47.999Z</time></trkpt><trkpt lat="44.27790792767276" lon="11.767319053565283"><ele>56.0</ele><time>2026-03-29T15:31:49.999Z</time></trkpt><trkpt lat="44.2778300576674" lon="11.767363452289421"><ele>55.99999999999999</ele><time>2026-03-29T15:31:52.999Z</time></trkpt><trkpt lat="44.27771756661329" lon="11.7675175425718"><ele>55.99999999999999</ele><time>2026-03-29T15:31:55.999Z</time></trkpt><trkpt lat="44.277620756629084" lon="11.76749181845774"><ele>56.0</ele><time>2026-03-29T15:31:57.999Z</time></trkpt><trkpt lat="44.27757625619048" lon="11.767429159448401"><ele>56.0</ele><time>2026-03-29T15:31:58.999Z</time></trkpt><trkpt lat="44.27751881553944" lon="11.767287636700571"><ele>56.0</ele><time>2026-03-29T15:32:00.999Z</time></trkpt><trkpt lat="44.27750807259282" lon="11.767161628985743"><ele>55.99999999999999</ele><time>2026-03-29T15:32:02.999Z</time></trkpt><trkpt lat="44.27743974971328" lon="11.7670500277055"><ele>55.99999999999999</ele><time>2026-03-29T15:32:04.999Z</time></trkpt><trkpt lat="44.277342682945175" lon="11.767098331743712"><ele>56.0</ele><time>2026-03-29T15:32:06.999Z</time></trkpt><trkpt lat="44.27728086729286" lon="11.76719034020376"><ele>56.0</ele><time>2026-03-29T15:32:08.999Z</time></trkpt><trkpt lat="44.277163181313675" lon="11.76715605366545"><ele>56.0</ele><time>2026-03-29T15:32:10.998Z</time></trkpt><trkpt lat="44.277083389606815" lon="11.767159692676227"><ele>55.99999999999999</ele><time>2026-03-29T15:32:11.998Z</time></trkpt><trkpt lat="44.27701286011743" lon="11.76703835738984"><ele>55.99999999999999</ele><time>2026-03-29T15:32:15.998Z</time></trkpt><trkpt lat="44.27708305746004" lon="11.766924456337692"><ele>56.0</ele><time>2026-03-29T15:32:17.998Z</time></trkpt><trkpt lat="44.27709213226876" lon="11.766819096141296"><ele>56.0</ele><time>2026-03-29T15:32:19.998Z</time></trkpt><trkpt lat="44.27717083069727" lon="11.766741174824618"><ele>55.857142857142854</ele><time>2026-03-29T15:32:21.998Z</time></trkpt><trkpt lat="44.27719800134908" lon="11.766656180014689"><ele>55.714285714285715</ele><time>2026-03-29T15:32:24Z</time></trkpt><trkpt lat="44.27721322341882" lon="11.766541620417245"><ele>55.57142857142857</ele><time>2026-03-29T15:32:28Z</time></trkpt><trkpt lat="44.277244636913366" lon="11.766448074460156"><ele>55.42857142857143</ele><time>2026-03-29T15:32:33Z</time></trkpt><trkpt lat="44.2772777505402" lon="11.766366881453882"><ele>55.285714285714285</ele><time>2026-03-29T15:32:39Z</time></trkpt><trkpt lat="44.27733362270227" lon="11.766324395779874"><ele>55.14285714285714</ele><time>2026-03-29T15:32:47Z</time></trkpt><trkpt lat="44.27739819596704" lon="11.766295910458362"><ele>55.0</ele><time>2026-03-29T15:32:52Z</time></trkpt><trkpt lat="44.277448200324116" lon="11.766355258189865"><ele>54.99999999999999</ele><time>2026-03-29T15:32:54Z</time></trkpt><trkpt lat="44.27749997099087" lon="11.766415572028398"><ele>55.0</ele><time>2026-03-29T15:32:56Z</time></trkpt><trkpt lat="44.27753747864994" lon="11.766513608002779"><ele>55.0</ele><time>2026-03-29T15:32:58Z</time></trkpt><trkpt lat="44.27754774244592" lon="11.766638489771498"><ele>55.0</ele><time>2026-03-29T15:33:01Z</time></trkpt><trkpt lat="44.277578885632494" lon="11.766734302661284"><ele>54.99999999999999</ele><time>2026-03-29T15:33:03Z</time></trkpt><trkpt lat="44.277584421749125" lon="11.766842482659918"><ele>55.0</ele><time>2026-03-29T15:33:05Z</time></trkpt><trkpt lat="44.27766934332836" lon="11.7669066936776"><ele>55.166666666666664</ele><time>2026-03-29T15:33:07Z</time></trkpt><trkpt lat="44.277691986784035" lon="11.767007105991897"><ele>55.33333333333333</ele><time>2026-03-29T15:33:09Z</time></trkpt><trkpt lat="44.27773907308471" lon="11.76708788902795"><ele>55.5</ele><time>2026-03-29T15:33:11.999Z</time></trkpt><trkpt lat="44.27776396992123" lon="11.767179405555986"><ele>55.66666666666667</ele><time>2026-03-29T15:33:14.999Z</time></trkpt><trkpt lat="44.27786348946598" lon="11.76718319371688"><ele>55.833333333333336</ele><time>2026-03-29T15:33:17.999Z</time></trkpt><trkpt lat="44.277927120725266" lon="11.76705074080829"><ele>56.0</ele><time>2026-03-29T15:33:19.999Z</time></trkpt><trkpt lat="44.277954714025434" lon="11.766970344428891"><ele>56.00000000000001</ele><time>2026-03-29T15:33:21.999Z</time></trkpt><trkpt lat="44.27801938036355" lon="11.766906299673058"><ele>56.0</ele><time>2026-03-29T15:33:23.999Z</time></trkpt><trkpt lat="44.2780951045348" lon="11.76684002295484"><ele>56.0</ele><time>2026-03-29T15:33:25.999Z</time></trkpt><trkpt lat="44.27820873681523" lon="11.766748346517739"><ele>56.0</ele><time>2026-03-29T15:33:27.999Z</time></trkpt><trkpt lat="44.27826100662839" lon="11.766686646097673"><ele>56.00000000000001</ele><time>2026-03-29T15:33:28.999Z</time></trkpt><trkpt lat="44.2783026856825" lon="11.766612770094953"><ele>56.0</ele><time>2026-03-29T15:33:29.999Z</time></trkpt><trkpt lat="44.278346661623054" lon="11.76653034976524"><ele>55.599999999999994</ele><time>2026-03-29T15:33:30.999Z</time></trkpt><trkpt lat="44.27837960694398" lon="11.766452983914837"><ele>55.199999999999996</ele><time>2026-03-29T15:33:31.999Z</time></trkpt><trkpt lat="44.278459413746624" lon="11.766341445757591"><ele>54.800000000000004</ele><time>2026-03-29T15:33:33.999Z</time></trkpt><trkpt lat="44.27853243350858" lon="11.766239356152836"><ele>54.400000000000006</ele><time>2026-03-29T15:33:35.999Z</time></trkpt><trkpt lat="44.27857986206934" lon="11.766146014973284"><ele>54.0</ele><time>2026-03-29T15:33:37.999Z</time></trkpt><trkpt lat="44.2786249885202" lon="11.76597954986225"><ele>54.0</ele><time>2026-03-29T15:33:39.999Z</time></trkpt><trkpt lat="44.27865884631056" lon="11.765894809156652"><ele>54.0</ele><time>2026-03-29T15:33:40.999Z</time></trkpt><trkpt lat="44.27868540860493" lon="11.7658111746107"><ele>54.0</ele><time>2026-03-29T15:33:41.999Z</time></trkpt><trkpt lat="44.278750782536335" lon="11.765681682289518"><ele>54.0</ele><time>2026-03-29T15:33:43.999Z</time></trkpt><trkpt lat="44.278798799261736" lon="11.765603730771327"><ele>54.0</ele><time>2026-03-29T15:33:44.999Z</time></trkpt><trkpt lat="44.27883712920447" lon="11.765524482526814"><ele>54.0</ele><time>2026-03-29T15:33:45.999Z</time></trkpt><trkpt lat="44.27886871296023" lon="11.765448042470558"><ele>54.0</ele><time>2026-03-29T15:33:46.999Z</time></trkpt><trkpt lat="44.278918074570456" lon="11.76531626062256"><ele>54.0</ele><time>2026-03-29T15:33:48.999Z</time></trkpt><trkpt lat="44.2789631883363" lon="11.765201750199797"><ele>54.0</ele><time>2026-03-29T15:33:50.999Z</time></trkpt><trkpt lat="44.27899915081519" lon="11.765115997050755"><ele>54.0</ele><time>2026-03-29T15:33:52.999Z</time></trkpt><trkpt lat="44.27904189740409" lon="11.765048487076582"><ele>54.0</ele><time>2026-03-29T15:33:54.999Z</time></trkpt><trkpt lat="44.279102527462435" lon="11.765014830708159"><ele>54.0</ele><time>2026-03-29T15:33:57.999Z</time></trkpt><trkpt lat="44.279169217643314" lon="11.765005006639303"><ele>51.0</ele><time>2026-03-29T15:34:00.999Z</time></trkpt><trkpt lat="44.27923813549605" lon="11.765033753804095"><ele>51.0</ele><time>2026-03-29T15:34:03.999Z</time></trkpt><trkpt lat="44.27916927532629" lon="11.765013003365905"><ele>51.0</ele><time>2026-03-29T15:34:39Z</time></trkpt><trkpt lat="44.27910006853547" lon="11.76500633829268"><ele>51.0</ele><time>2026-03-29T15:34:53Z</time></trkpt><trkpt lat="44.279164886578954" lon="11.76499916163495"><ele>51.0</ele><time>2026-03-29T15:35:20.999Z</time></trkpt><trkpt lat="44.279225667550875" lon="11.765035200808626"><ele>51.0</ele><time>2026-03-29T15:35:27.999Z</time></trkpt></trkseg></trk></gpx>